# Wetter Temperatur Luftdruck Luftfeuchtigkeit Sichtweite Windgeschwindigkeit Windrichtung Zeit
1 Clear 24 1011 78 10000 2.68 234 03:52 02.10.2022
2 Clear 24 1012 76 10000 1.79 99 00:52 02.10.2022
3 Clouds 24 1012 76 10000 1.34 79 00:32 02.10.2022
4 Clear 24 1013 72 10000 1.79 59 23:24 01.10.2022
5 Clear 26 1015 65 10000 2.06 360 20:55 01.10.2022
6 Clear 27 1016 57 10000 1.79 146 18:53 01.10.2022
7 Clear 29 1016 51 10000 3.13 265 17:22 01.10.2022
8 Clear 31 1018 46 10000 4.63 190 14:43 01.10.2022
9 Clear 32 1019 43 10000 4.63 170 13:43 01.10.2022
10 Clear 31 1019 45 10000 2.68 152 12:34 01.10.2022
11 Clear 30 1020 49 10000 1.79 205 11:22 01.10.2022
12 Clear 29 1021 51 10000 1.79 246 10:44 01.10.2022
13 Clear 28 1020 52 10000 2.24 256 10:25 01.10.2022
14 Clouds 27 1020 51 10000 1.03 0 09:18 01.10.2022
15 Clouds 25 1020 57 10000 1.03 0 08:19 01.10.2022
16 Clear 22 1018 54 10000 0.89 76 03:37 01.10.2022
17 Clear 22 1019 53 10000 1.34 53 01:31 01.10.2022
18 Clear 23 1018 54 10000 1.54 0 23:20 30.09.2022
19 Clear 24 1018 54 10000 1.34 42 21:56 30.09.2022
20 Clear 24 1018 54 10000 0.89 38 20:45 30.09.2022
21 Clear 25 1017 53 10000 0.45 183 20:20 30.09.2022
22 Clear 28 1016 43 10000 2.57 190 17:42 30.09.2022
23 Clear 30 1016 36 10000 4.12 180 16:31 30.09.2022
24 Clear 30 1015 35 10000 4.12 180 14:22 30.09.2022
25 Clear 30 1015 38 10000 2.68 192 12:29 30.09.2022
26 Clouds 30 1015 37 10000 2.06 180 11:54 30.09.2022
27 Clear 24 1014 58 10000 0.51 0 08:51 30.09.2022
28 Clear 20 1013 76 10000 1.54 0 06:34 30.09.2022
29 Clouds 21 1013 81 10000 1.34 55 02:50 30.09.2022
30 Clear 22 1012 82 10000 0.89 310 00:53 30.09.2022
31 Clouds 24 1011 75 10000 2.24 142 21:39 29.09.2022
32 Clouds 24 1011 74 10000 3.13 216 21:19 29.09.2022
33 Clouds 26 1010 60 10000 3.58 225 18:54 29.09.2022
34 Clouds 27 1009 52 10000 4.63 160 17:48 29.09.2022
35 Clouds 28 1009 46 10000 5.14 160 16:29 29.09.2022
36 Clouds 29 1009 46 10000 6.17 170 15:36 29.09.2022
37 Clouds 29 1009 45 10000 4.12 170 14:59 29.09.2022
38 Clear 28 1011 46 10000 4.47 215 11:54 29.09.2022
39 Clear 22 1010 74 10000 1.79 233 07:39 29.09.2022
40 Clear 21 1009 72 10000 2.06 350 03:24 29.09.2022
41 Clear 23 1009 72 10000 1.34 247 00:29 29.09.2022
42 Clear 23 1009 70 10000 1.79 184 23:19 28.09.2022
43 Clouds 24 1008 66 10000 1.54 0 21:31 28.09.2022
44 Clouds 25 1008 66 10000 1.03 0 20:49 28.09.2022
45 Clouds 26 1008 67 10000 1.54 0 19:48 28.09.2022
46 Clouds 29 1007 51 10000 5.14 180 16:27 28.09.2022
47 Clouds 29 1008 45 10000 6.17 200 13:28 28.09.2022
48 Clouds 28 1008 53 10000 6.17 200 11:43 28.09.2022
49 Clouds 26 1008 63 10000 4.92 279 09:34 28.09.2022
50 Clouds 23 1008 74 10000 2.24 238 07:41 28.09.2022
51 Clouds 22 1008 80 10000 1.79 235 05:32 28.09.2022
52 Clouds 22 1007 80 10000 1.34 206 01:41 28.09.2022
53 Clouds 23 1007 79 10000 2.24 167 23:31 27.09.2022
54 Clouds 23 1007 79 10000 2.24 148 22:33 27.09.2022
55 Clouds 24 1007 79 10000 2.24 143 21:20 27.09.2022
56 Clouds 24 1007 79 10000 1.79 261 20:26 27.09.2022
57 Clouds 24 1007 81 10000 2.68 217 19:37 27.09.2022
58 Clouds 25 1006 78 10000 2.24 195 17:47 27.09.2022
59 Clouds 26 1006 68 10000 2.57 200 16:25 27.09.2022
60 Clouds 26 1007 64 10000 3.13 197 15:18 27.09.2022
61 Clouds 25 1007 66 10000 1.54 0 13:52 27.09.2022
62 Rain 24 1008 59 10000 3.09 160 12:37 27.09.2022
63 Clouds 25 1008 54 10000 2.06 160 10:33 27.09.2022
64 Clouds 21 1009 70 10000 1.34 236 07:51 27.09.2022
65 Clouds 19 1009 79 10000 0.89 190 04:28 27.09.2022
66 Clouds 20 1010 75 10000 0.89 225 01:37 27.09.2022
67 Clouds 21 1012 72 10000 1.79 142 23:52 26.09.2022
68 Clouds 21 1012 72 10000 1.34 95 23:24 26.09.2022
69 Clouds 22 1013 70 10000 2.24 150 21:20 26.09.2022
70 Clouds 22 1013 69 10000 1.34 248 19:44 26.09.2022
71 Clouds 23 1013 67 10000 4.02 255 18:55 26.09.2022
72 Clear 24 1012 54 10000 5.14 170 17:25 26.09.2022
73 Clear 27 1013 45 10000 5.14 160 15:23 26.09.2022
74 Clear 26 1015 44 10000 3.58 242 12:31 26.09.2022
75 Clear 25 1016 50 10000 3.13 274 10:43 26.09.2022
76 Clear 24 1016 52 10000 1.79 266 10:23 26.09.2022
77 Clear 24 1016 55 10000 3.13 250 09:59 26.09.2022
78 Clear 23 1016 57 10000 1.79 190 09:40 26.09.2022
79 Clear 23 1016 58 10000 1.79 238 09:20 26.09.2022
80 Clear 17 1016 75 10000 0.51 0 05:30 26.09.2022
81 Clear 18 1017 71 10000 1.79 39 02:29 26.09.2022
82 Clear 19 1018 67 10000 1.54 0 23:24 25.09.2022
83 Clear 20 1018 64 10000 1.54 0 21:47 25.09.2022
84 Clear 20 1018 63 10000 1.03 0 21:25 25.09.2022
85 Clear 21 1018 61 10000 0.89 198 20:36 25.09.2022
86 Clear 22 1017 55 10000 4.12 170 18:57 25.09.2022
87 Clear 23 1017 53 10000 4.12 170 18:26 25.09.2022
88 Clear 24 1017 47 10000 4.63 180 17:24 25.09.2022
89 Clear 25 1017 43 10000 4.63 180 16:21 25.09.2022
90 Clear 25 1018 40 10000 3.6 170 14:49 25.09.2022
91 Clear 26 1018 40 10000 3.13 259 14:19 25.09.2022
92 Clear 25 1019 44 10000 2.06 190 11:34 25.09.2022
93 Clear 22 1019 52 10000 0.89 304 09:44 25.09.2022
94 Clear 19 1019 64 10000 0 0 07:42 25.09.2022
95 Clear 16 1018 75 10000 1.34 35 05:25 25.09.2022
96 Clear 18 1020 64 10000 1.34 67 23:37 24.09.2022
97 Clear 19 1020 59 10000 1.79 34 21:25 24.09.2022
98 Clear 20 1020 56 10000 2.24 57 20:32 24.09.2022
99 Clear 21 1019 54 10000 3.6 170 19:20 24.09.2022
100 Clouds 24 1019 43 10000 3.09 200 16:56 24.09.2022
101 Clouds 24 1019 40 10000 3.09 200 15:29 24.09.2022
102 Clouds 24 1020 39 10000 3.6 200 14:47 24.09.2022
103 Clouds 24 1020 39 10000 4.12 180 13:22 24.09.2022
104 Clouds 23 1020 38 10000 4.12 170 12:25 24.09.2022
105 Clouds 21 1021 50 10000 1.79 36 09:59 24.09.2022
106 Clouds 20 1021 52 10000 1.34 39 08:58 24.09.2022
107 Clouds 16 1020 62 10000 1.54 0 07:41 24.09.2022
108 Clear 14 1019 62 10000 0.45 143 04:55 24.09.2022
109 Clear 15 1019 63 10000 0.89 58 04:25 24.09.2022
110 Clouds 17 1018 57 10000 0.89 90 23:18 23.09.2022
111 Clear 17 1017 52 10000 2.57 360 21:40 23.09.2022
112 Clear 17 1017 51 10000 2.57 360 21:22 23.09.2022
113 Clouds 18 1017 50 10000 3.13 88 20:45 23.09.2022
114 Clouds 19 1016 49 10000 2.24 57 19:20 23.09.2022
115 Clouds 19 1016 49 10000 2.24 57 19:20 23.09.2022
116 Clouds 20 1016 52 10000 4.47 86 16:48 23.09.2022
117 Clouds 22 1015 41 10000 3.13 58 13:40 23.09.2022
118 Clouds 21 1016 47 10000 5.36 88 10:18 23.09.2022
119 Clouds 17 1016 59 10000 2.06 300 07:29 23.09.2022
120 Clouds 17 1016 60 10000 0.45 355 02:25 23.09.2022
121 Clouds 18 1017 60 10000 2.24 321 23:29 22.09.2022
122 Clouds 17 1017 61 10000 1.54 0 22:28 22.09.2022
123 Clouds 17 1016 62 10000 1.79 62 21:30 22.09.2022
124 Clouds 18 1016 61 10000 2.57 70 20:21 22.09.2022
125 Clouds 19 1015 57 10000 3.6 60 18:44 22.09.2022
126 Clouds 20 1014 54 10000 6.26 81 14:49 22.09.2022
127 Clouds 20 1015 57 10000 4.47 344 10:48 22.09.2022
128 Clouds 20 1015 61 10000 4.92 82 10:19 22.09.2022
129 Clouds 17 1014 71 10000 3.13 357 07:55 22.09.2022
130 Clouds 16 1013 80 10000 4.12 330 04:56 22.09.2022
131 Clouds 17 1013 78 9000 4.92 24 00:36 22.09.2022
132 Clouds 18 1013 75 10000 4.92 5 22:29 21.09.2022
133 Clouds 19 1013 70 10000 5.36 69 21:18 21.09.2022
134 Clouds 20 1012 66 10000 3.58 22 18:50 21.09.2022
135 Clouds 21 1011 67 10000 4.92 82 17:41 21.09.2022
136 Clouds 23 1011 60 10000 4.92 73 15:35 21.09.2022
137 Clouds 25 1011 51 10000 3.13 121 13:42 21.09.2022
138 Clouds 25 1012 52 10000 2.24 98 11:42 21.09.2022
139 Clouds 23 1013 56 10000 2.06 310 10:59 21.09.2022
140 Clouds 22 1013 62 10000 2.57 320 09:39 21.09.2022
141 Clouds 22 1013 62 10000 2.57 320 09:39 21.09.2022
142 Clouds 21 1012 66 10000 3.13 33 08:43 21.09.2022
143 Clouds 21 1012 71 10000 2.68 65 03:56 21.09.2022
144 Clouds 21 1012 70 10000 3.13 53 02:38 21.09.2022
145 Clouds 21 1012 71 10000 2.68 52 01:56 21.09.2022
146 Clouds 21 1013 68 10000 0.89 101 00:19 21.09.2022
147 Clouds 21 1013 68 10000 3.13 67 21:53 20.09.2022
148 Clouds 22 1013 69 10000 4.63 90 20:33 20.09.2022
149 Clouds 23 1012 65 10000 6.17 90 18:51 20.09.2022
150 Clouds 25 1012 58 10000 6.17 190 15:51 20.09.2022
151 Clouds 26 1012 56 10000 5.14 170 14:18 20.09.2022
152 Clouds 27 1012 45 10000 3.58 122 12:32 20.09.2022
153 Clouds 23 1012 60 10000 2.57 330 08:50 20.09.2022
154 Clouds 23 1012 57 10000 2.57 330 08:24 20.09.2022
155 Clouds 21 1012 56 10000 2.06 360 04:40 20.09.2022
156 Clouds 22 1012 56 10000 2.24 260 02:24 20.09.2022
157 Clouds 23 1013 69 10000 2.57 10 22:46 19.09.2022
158 Clouds 23 1013 65 10000 2.57 160 21:36 19.09.2022
159 Clouds 23 1013 65 10000 4.12 160 20:40 19.09.2022
160 Clouds 24 1013 64 10000 4.12 160 19:20 19.09.2022
161 Clouds 26 1012 55 10000 5.66 170 17:37 19.09.2022
162 Clouds 28 1012 45 10000 3.13 265 13:53 19.09.2022
163 Clouds 28 1013 43 10000 4.12 160 12:33 19.09.2022
164 Clouds 26 1014 47 10000 3.09 310 10:31 19.09.2022
165 Clouds 24 1014 52 10000 3.13 349 08:41 19.09.2022
166 Clear 22 1012 61 10000 3.6 330 04:26 19.09.2022
167 Clear 23 1012 60 10000 3.13 360 00:52 19.09.2022
168 Clear 24 1012 62 10000 4.02 36 22:49 18.09.2022
169 Clear 25 1011 58 10000 4.47 36 21:30 18.09.2022
170 Clear 26 1010 54 10000 4.02 307 19:56 18.09.2022
171 Clear 30 1008 29 10000 4.92 281 17:53 18.09.2022
172 Clear 30 1008 29 10000 4.92 281 17:53 18.09.2022
173 Clear 32 1008 28 10000 6.26 275 16:56 18.09.2022
174 Clouds 32 1008 29 10000 6.71 283 14:52 18.09.2022
175 Clouds 32 1008 35 10000 6.71 271 13:46 18.09.2022
176 Clouds 31 1008 44 10000 4.47 283 12:28 18.09.2022
177 Clouds 30 1008 51 10000 6.26 273 10:28 18.09.2022
178 Clear 25 1006 74 10000 3.09 10 03:37 18.09.2022
179 Clear 25 1007 79 10000 1.79 227 01:23 18.09.2022
180 Clear 26 1007 80 10000 2.68 202 23:59 17.09.2022
181 Clear 26 1006 79 10000 1.79 234 21:35 17.09.2022
182 Clear 27 1006 76 10000 1.54 0 19:40 17.09.2022
183 Clear 27 1005 75 10000 2.06 170 18:43 17.09.2022
184 Clear 32 1006 54 10000 4.92 266 15:51 17.09.2022
185 Clear 33 1007 47 10000 5.14 180 13:38 17.09.2022
186 Clear 30 1008 55 10000 3.13 261 10:56 17.09.2022
187 Clear 27 1007 68 10000 2.68 222 08:33 17.09.2022
188 Clear 23 1008 80 10000 1.34 248 06:24 17.09.2022
189 Clear 25 1010 79 10000 1.34 266 23:57 16.09.2022
190 Clear 25 1010 81 10000 0.89 278 22:51 16.09.2022
191 Clear 26 1010 75 10000 1.34 254 20:59 16.09.2022
192 Clear 26 1010 73 10000 2.24 256 19:50 16.09.2022
193 Clear 31 1009 54 10000 5.14 190 16:30 16.09.2022
194 Clear 32 1010 43 10000 4.12 180 14:53 16.09.2022
195 Clear 32 1011 43 10000 4.12 170 13:43 16.09.2022
196 Clear 30 1012 49 10000 3.58 259 10:50 16.09.2022
197 Clear 26 1012 67 10000 0.89 253 08:19 16.09.2022
198 Clear 22 1012 76 10000 1.54 0 06:48 16.09.2022
199 Clear 22 1012 77 10000 1.34 285 06:25 16.09.2022
200 Clear 23 1013 75 10000 1.34 55 02:37 16.09.2022
201 Clear 24 1014 69 10000 1.34 278 22:43 15.09.2022
202 Clear 25 1014 71 10000 1.34 241 20:48 15.09.2022
203 Clear 26 1014 66 10000 2.24 267 19:46 15.09.2022
204 Clear 27 1014 60 10000 3.58 249 18:29 15.09.2022
205 Clear 29 1013 53 10000 5.36 164 17:31 15.09.2022
206 Clear 31 1014 49 10000 4.12 190 16:37 15.09.2022
207 Clear 31 1014 42 10000 4.12 190 14:20 15.09.2022
208 Clear 30 1015 50 10000 3.09 170 11:48 15.09.2022
209 Clear 27 1015 57 10000 1.79 255 09:52 15.09.2022
210 Clear 25 1016 61 10000 0.89 57 07:50 15.09.2022
211 Clear 21 1015 69 10000 1.34 54 03:52 15.09.2022
212 Clear 22 1016 64 10000 0.45 38 23:44 14.09.2022
213 Clear 24 1016 60 10000 1.79 229 21:30 14.09.2022
214 Clear 25 1015 53 10000 3.6 180 19:34 14.09.2022
215 Clear 26 1015 50 10000 4.12 170 18:32 14.09.2022
216 Clouds 29 1014 38 10000 3.6 180 16:44 14.09.2022
217 Clouds 29 1015 36 10000 3.13 127 15:34 14.09.2022
218 Clouds 29 1015 34 10000 4.12 200 13:36 14.09.2022
219 Clouds 28 1015 35 10000 2.57 350 11:30 14.09.2022
220 Clear 26 1016 42 10000 3.58 80 09:48 14.09.2022
221 Clear 22 1015 56 10000 0.89 295 07:29 14.09.2022
222 Clear 20 1015 57 10000 1.54 0 06:34 14.09.2022
223 Clear 20 1015 57 10000 1.54 0 06:34 14.09.2022
224 Clouds 21 1014 51 10000 3.09 340 04:24 14.09.2022
225 Clouds 22 1014 49 10000 1.34 18 01:46 14.09.2022
226 Clouds 22 1014 50 10000 0.51 0 01:27 14.09.2022
227 Clouds 22 1014 49 10000 2.06 270 00:42 14.09.2022
228 Clouds 23 1014 50 10000 1.03 0 23:54 13.09.2022
229 Clouds 23 1014 50 10000 1.34 49 23:36 13.09.2022
230 Clouds 23 1014 51 10000 1.79 43 23:18 13.09.2022
231 Clouds 24 1014 52 10000 3.58 49 21:44 13.09.2022
232 Clouds 24 1012 56 10000 3.09 190 19:38 13.09.2022
233 Clouds 26 1012 51 10000 5.14 180 17:41 13.09.2022
234 Clouds 28 1011 42 10000 4.12 360 15:54 13.09.2022
235 Clouds 29 1011 38 10000 4.12 360 14:35 13.09.2022
236 Clouds 28 1012 38 10000 4.47 46 12:32 13.09.2022
237 Clouds 25 1011 48 10000 5.14 330 08:43 13.09.2022
238 Clouds 22 1010 58 10000 2.57 320 05:22 13.09.2022
239 Clouds 23 1011 55 10000 2.06 290 00:19 13.09.2022
240 Clouds 24 1011 58 10000 1.34 71 22:49 12.09.2022
241 Clouds 24 1011 58 10000 3.58 121 21:37 12.09.2022
242 Clouds 24 1010 58 10000 4.92 98 20:25 12.09.2022
243 Clouds 26 1009 55 10000 5.81 96 18:44 12.09.2022
244 Clouds 30 1008 37 10000 6.17 360 16:32 12.09.2022
245 Clouds 30 1008 37 10000 6.17 360 16:32 12.09.2022
246 Clouds 30 1009 39 10000 7.2 360 14:36 12.09.2022
247 Clouds 29 1009 42 10000 6.17 350 11:29 12.09.2022
248 Clouds 28 1008 50 10000 5.14 350 09:46 12.09.2022
249 Clear 25 1007 62 10000 1.79 126 04:51 12.09.2022
250 Clouds 25 1007 63 10000 1.34 321 04:24 12.09.2022
251 Clouds 27 1008 59 10000 2.24 297 23:34 11.09.2022
252 Clouds 27 1008 56 10000 2.24 259 22:18 11.09.2022
253 Clouds 28 1009 55 10000 2.06 100 20:48 11.09.2022
254 Clouds 29 1009 53 10000 3.09 170 19:56 11.09.2022
255 Clouds 29 1009 54 10000 4.12 160 19:23 11.09.2022
256 Clouds 30 1009 51 10000 4.12 150 18:21 11.09.2022
257 Clouds 31 1009 49 10000 6.69 160 16:46 11.09.2022
258 Clouds 34 1009 37 10000 4.63 180 14:39 11.09.2022
259 Clouds 33 1010 42 10000 4.12 210 12:42 11.09.2022
260 Clear 31 1011 44 10000 3.6 320 09:25 11.09.2022
261 Clear 31 1011 44 10000 3.6 320 09:25 11.09.2022
262 Clear 27 1011 59 10000 2.06 190 07:19 11.09.2022
263 Clear 27 1011 63 10000 1.34 78 00:54 11.09.2022
264 Clear 27 1011 58 10000 2.24 227 22:56 10.09.2022
265 Clear 28 1011 51 10000 1.34 257 21:33 10.09.2022
266 Clear 29 1011 47 10000 1.03 0 19:48 10.09.2022
267 Clear 29 1011 46 10000 1.54 0 19:29 10.09.2022
268 Clear 30 1011 44 10000 2.24 281 18:55 10.09.2022
269 Clear 32 1011 40 10000 2.68 235 16:51 10.09.2022
270 Clouds 33 1012 45 10000 4.12 180 14:43 10.09.2022
271 Clouds 33 1013 48 10000 4.12 170 12:53 10.09.2022
272 Clear 32 1014 47 10000 1.79 290 11:35 10.09.2022
273 Clear 30 1014 51 10000 1.34 263 09:51 10.09.2022
274 Clear 28 1014 59 10000 0.89 238 08:37 10.09.2022
275 Clear 26 1014 63 10000 1.03 0 07:49 10.09.2022
276 Clear 24 1015 59 10000 1.34 246 00:51 10.09.2022
277 Clear 25 1015 61 10000 0.45 196 23:33 09.09.2022
278 Clear 25 1015 61 10000 1.54 0 22:20 09.09.2022
279 Clear 25 1016 62 10000 1.79 275 20:48 09.09.2022
280 Clear 27 1015 57 10000 2.68 250 19:25 09.09.2022
281 Clear 28 1015 53 10000 3.13 255 18:53 09.09.2022
282 Clear 31 1015 36 10000 5.14 190 16:33 09.09.2022
283 Clear 32 1016 31 10000 2.57 210 13:51 09.09.2022
284 Clear 31 1017 31 10000 2.68 225 12:47 09.09.2022
285 Clear 29 1017 31 10000 1.79 234 09:57 09.09.2022
286 Clear 22 1016 43 10000 1.79 60 06:45 09.09.2022
287 Clear 22 1016 42 10000 2.24 51 03:23 09.09.2022
288 Clear 24 1016 41 10000 2.24 136 21:57 08.09.2022
289 Clear 25 1017 41 10000 2.06 310 21:36 08.09.2022
290 Clear 25 1016 41 10000 3.13 5 20:32 08.09.2022
291 Clear 26 1016 41 10000 2.24 21 19:57 08.09.2022
292 Clear 28 1015 36 10000 5.14 360 18:26 08.09.2022
293 Clear 30 1015 31 10000 5.14 360 16:27 08.09.2022
294 Clear 29 1015 30 10000 5.14 350 14:40 08.09.2022
295 Clear 30 1015 29 10000 5.36 35 13:27 08.09.2022
296 Clear 29 1016 30 10000 5.14 350 12:33 08.09.2022
297 Clear 27 1016 38 10000 6.71 288 10:58 08.09.2022
298 Clear 25 1016 41 10000 4.92 55 08:59 08.09.2022
299 Clouds 22 1015 51 10000 4.02 67 06:43 08.09.2022
300 Clouds 22 1015 54 10000 2.68 61 02:37 08.09.2022
301 Clouds 22 1015 54 10000 3.58 14 02:19 08.09.2022
302 Clear 22 1015 53 10000 2.57 280 01:38 08.09.2022
303 Clear 23 1016 51 10000 4.92 15 22:55 07.09.2022
304 Clouds 23 1016 51 10000 3.09 350 21:43 07.09.2022
305 Clouds 23 1016 51 10000 5.36 19 21:18 07.09.2022
306 Clouds 23 1016 48 10000 3.13 68 19:54 07.09.2022
307 Clouds 25 1016 42 10000 4.63 340 18:39 07.09.2022
308 Clouds 27 1015 39 10000 8.75 350 14:56 07.09.2022
309 Clouds 26 1016 41 10000 8.23 360 10:50 07.09.2022
310 Clouds 26 1016 43 10000 6.71 53 10:24 07.09.2022
311 Clouds 23 1016 52 10000 3.09 300 07:36 07.09.2022
312 Clouds 22 1014 52 10000 4.12 290 04:39 07.09.2022
313 Clear 22 1016 57 10000 3.6 330 00:26 07.09.2022
314 Clear 23 1016 50 10000 3.6 340 21:47 06.09.2022
315 Clear 23 1016 49 10000 3.6 360 21:27 06.09.2022
316 Clear 24 1016 44 10000 6.17 350 18:55 06.09.2022
317 Clouds 25 1015 42 10000 5.66 340 18:27 06.09.2022
318 Clouds 26 1016 39 10000 6.17 340 17:23 06.09.2022
319 Clouds 26 1015 41 10000 7.15 31 16:40 06.09.2022
320 Clouds 27 1016 42 10000 6.69 350 15:23 06.09.2022
321 Clouds 26 1016 44 10000 7.6 17 13:46 06.09.2022
322 Clouds 26 1017 44 10000 8.23 10 13:26 06.09.2022
323 Clouds 26 1017 44 10000 7.72 360 12:37 06.09.2022
324 Clouds 25 1018 48 10000 7.72 360 10:52 06.09.2022
325 Clouds 23 1017 54 10000 6.17 350 08:56 06.09.2022
326 Clouds 22 1018 58 10000 4.92 5 07:52 06.09.2022
327 Clouds 21 1018 62 10000 5.36 50 05:59 06.09.2022
328 Clouds 23 1018 62 10000 4.47 5 00:20 06.09.2022
329 Clouds 23 1018 60 10000 4.02 355 22:41 05.09.2022
330 Clouds 23 1018 58 10000 3.13 6 21:38 05.09.2022
331 Clouds 24 1017 55 10000 3.6 330 19:56 05.09.2022
332 Clouds 24 1017 53 10000 5.14 360 18:51 05.09.2022
333 Clouds 25 1017 53 10000 5.14 10 18:24 05.09.2022
334 Clouds 25 1017 55 10000 5.36 4 17:35 05.09.2022
335 Clouds 26 1016 57 10000 6.17 350 15:53 05.09.2022
336 Clouds 27 1017 54 10000 6.26 50 14:20 05.09.2022
337 Clouds 27 1016 51 10000 6.17 350 12:29 05.09.2022
338 Clouds 26 1017 54 10000 6.71 335 10:35 05.09.2022
339 Clouds 23 1016 70 10000 7.15 44 07:44 05.09.2022
340 Clouds 24 1014 74 10000 3.58 58 03:47 05.09.2022
341 Clouds 25 1016 64 10000 4.47 61 23:58 04.09.2022
342 Clouds 26 1016 62 10000 4.92 56 22:28 04.09.2022
343 Clouds 26 1016 61 10000 4.47 76 21:49 04.09.2022
344 Clouds 28 1015 59 10000 3.13 51 19:50 04.09.2022
345 Clouds 29 1015 57 10000 6.26 62 18:33 04.09.2022
346 Clouds 30 1015 53 10000 4.63 180 17:26 04.09.2022
347 Clouds 31 1015 53 10000 5.14 180 15:42 04.09.2022
348 Clouds 33 1015 48 10000 3.13 222 14:24 04.09.2022
349 Clouds 32 1016 50 10000 4.63 20 12:34 04.09.2022
350 Clouds 31 1017 51 10000 5.66 30 10:59 04.09.2022
351 Clear 29 1017 57 10000 2.24 30 09:25 04.09.2022
352 Clear 24 1015 81 10000 2.06 300 06:31 04.09.2022
353 Clouds 25 1015 84 10000 1.03 0 02:51 04.09.2022
354 Clouds 26 1015 81 10000 1.79 265 22:34 03.09.2022
355 Clouds 26 1015 80 10000 1.34 262 21:26 03.09.2022
356 Clouds 27 1015 79 10000 2.06 190 20:55 03.09.2022
357 Clouds 28 1014 73 10000 4.12 180 18:31 03.09.2022
358 Clouds 29 1013 71 10000 5.66 180 17:19 03.09.2022
359 Clouds 30 1013 62 10000 4.63 180 15:35 03.09.2022
360 Clouds 30 1013 64 10000 4.47 132 14:41 03.09.2022
361 Clouds 30 1013 64 10000 3.09 170 13:50 03.09.2022
362 Clouds 30 1013 62 10000 4.12 170 11:32 03.09.2022
363 Clouds 28 1013 67 10000 1.03 0 09:32 03.09.2022
364 Clouds 26 1012 78 10000 2.24 56 07:53 03.09.2022
365 Clouds 24 1012 79 10000 2.57 310 04:51 03.09.2022
366 Clouds 25 1011 77 10000 2.57 340 02:40 03.09.2022
367 Clouds 26 1011 74 10000 2.06 340 23:44 02.09.2022
368 Clouds 27 1011 77 10000 0.45 186 22:23 02.09.2022
369 Clouds 27 1011 76 10000 0.89 157 20:42 02.09.2022
370 Clouds 27 1011 76 10000 1.34 255 20:18 02.09.2022
371 Clouds 28 1010 71 10000 4.12 180 18:51 02.09.2022
372 Clouds 29 1009 66 10000 4.12 200 18:25 02.09.2022
373 Clouds 30 1009 62 10000 4.63 180 17:25 02.09.2022
374 Clouds 31 1009 58 10000 5.14 180 16:32 02.09.2022
375 Clouds 32 1010 52 10000 3.6 170 13:42 02.09.2022
376 Clouds 31 1010 56 10000 3.58 257 11:36 02.09.2022
377 Clouds 29 1010 63 10000 2.24 215 09:46 02.09.2022
378 Clouds 28 1010 70 10000 0.89 251 08:47 02.09.2022
379 Clouds 25 1010 73 10000 2.06 360 06:48 02.09.2022
380 Clouds 24 1010 75 10000 1.03 0 06:24 02.09.2022
381 Clouds 25 1010 71 10000 0.51 0 01:41 02.09.2022
382 Clouds 26 1011 72 10000 1.54 0 22:24 01.09.2022
383 Clear 27 1011 67 10000 2.06 0 21:39 01.09.2022
384 Clear 27 1011 66 10000 0.45 167 21:20 01.09.2022
385 Clear 27 1010 65 10000 2.24 138 20:31 01.09.2022
386 Clouds 29 1009 64 10000 4.12 190 18:37 01.09.2022
387 Clouds 30 1009 58 10000 4.12 140 16:55 01.09.2022
388 Clear 31 1010 52 10000 6.17 180 15:29 01.09.2022
389 Clear 32 1010 49 10000 4.12 200 13:44 01.09.2022
390 Clear 32 1010 48 10000 4.12 210 12:56 01.09.2022
391 Clear 31 1010 49 10000 4.12 190 11:51 01.09.2022
392 Clear 32 1010 46 10000 3.13 107 11:22 01.09.2022
393 Clear 30 1010 51 10000 0.89 270 09:32 01.09.2022
394 Clear 27 1011 62 10000 1.34 345 07:50 01.09.2022
395 Clouds 23 1010 74 10000 1.03 0 05:56 01.09.2022
396 Clouds 24 1011 75 10000 0 0 01:31 01.09.2022
397 Clouds 25 1011 78 10000 1.34 49 22:56 31.08.2022
398 Clouds 26 1011 71 10000 1.03 0 20:45 31.08.2022
399 Clouds 27 1011 65 10000 1.03 0 18:47 31.08.2022
400 Thunderstorm 28 1011 61 10000 6.17 100 16:49 31.08.2022
401 Clouds 29 1010 58 10000 5.14 350 15:28 31.08.2022
402 Clouds 32 1011 41 10000 3.6 340 13:37 31.08.2022
403 Clouds 32 1010 41 10000 3.09 330 12:18 31.08.2022
404 Clouds 29 1011 48 10000 3.09 330 09:36 31.08.2022
405 Clouds 28 1011 50 10000 3.09 320 08:31 31.08.2022
406 Clouds 25 1012 57 10000 2.06 50 02:59 31.08.2022
407 Clouds 27 1012 58 10000 2.24 55 22:29 30.08.2022
408 Clouds 27 1012 58 10000 2.24 55 22:29 30.08.2022
409 Clouds 27 1012 57 10000 1.34 28 21:29 30.08.2022
410 Clouds 28 1012 54 10000 1.03 0 20:35 30.08.2022
411 Clouds 31 1011 45 10000 4.92 270 17:24 30.08.2022
412 Clouds 33 1012 40 10000 2.68 193 13:53 30.08.2022
413 Clouds 33 1012 40 10000 3.09 310 12:25 30.08.2022
414 Clear 32 1013 41 10000 4.12 340 11:20 30.08.2022
415 Clear 32 1013 41 10000 4.12 340 11:20 30.08.2022
416 Clear 31 1012 44 10000 5.14 350 09:58 30.08.2022
417 Clear 25 1012 62 10000 2.06 260 06:49 30.08.2022
418 Clear 26 1012 65 10000 1.54 0 01:26 30.08.2022
419 Clear 27 1012 62 10000 1.54 0 22:39 29.08.2022
420 Clear 28 1012 63 10000 0.51 0 21:54 29.08.2022
421 Clear 28 1012 63 10000 0.89 171 20:47 29.08.2022
422 Clouds 29 1012 64 10000 3.13 217 19:41 29.08.2022
423 Clouds 32 1011 42 10000 4.12 170 17:39 29.08.2022
424 Clouds 32 1011 41 10000 4.63 170 17:18 29.08.2022
425 Clouds 33 1012 41 10000 5.66 180 15:38 29.08.2022
426 Clouds 34 1012 42 10000 3.58 55 13:58 29.08.2022
427 Clouds 34 1013 40 10000 3.09 200 12:32 29.08.2022
428 Clear 32 1013 43 10000 2.57 190 10:49 29.08.2022
429 Clear 30 1013 50 10000 2.06 140 09:20 29.08.2022
430 Clear 26 1013 64 10000 1.03 0 07:20 29.08.2022
431 Clear 25 1013 77 10000 1.54 0 02:34 29.08.2022
432 Clear 26 1014 79 10000 0 0 23:37 28.08.2022
433 Clear 26 1014 78 10000 0.89 233 21:49 28.08.2022
434 Clear 27 1014 78 10000 1.54 0 21:29 28.08.2022
435 Clear 27 1013 73 10000 3.09 190 20:23 28.08.2022
436 Clouds 29 1012 62 10000 2.68 164 18:37 28.08.2022
437 Clouds 29 1012 58 10000 2.68 126 18:18 28.08.2022
438 Clouds 31 1012 49 10000 5.66 180 16:52 28.08.2022
439 Clouds 32 1012 45 10000 4.02 240 15:37 28.08.2022
440 Clouds 32 1013 42 10000 3.6 200 13:34 28.08.2022
441 Clear 32 1013 43 10000 1.34 150 12:20 28.08.2022
442 Clear 30 1012 48 10000 2.06 160 10:27 28.08.2022
443 Clear 29 1013 51 10000 2.57 160 09:38 28.08.2022
444 Clear 27 1012 65 10000 0.45 284 08:31 28.08.2022
445 Clear 25 1012 76 10000 0.89 33 07:32 28.08.2022
446 Clouds 24 1012 85 10000 1.34 49 01:28 28.08.2022
447 Clouds 24 1012 85 10000 1.34 32 00:20 28.08.2022
448 Clouds 25 1013 83 10000 0.89 250 22:27 27.08.2022
449 Clouds 26 1012 81 10000 2.57 180 20:49 27.08.2022
450 Clouds 26 1011 77 10000 3.09 180 19:38 27.08.2022
451 Clouds 29 1011 62 10000 5.66 180 16:37 27.08.2022
452 Clouds 29 1010 63 10000 4.12 180 15:31 27.08.2022
453 Clouds 29 1011 61 10000 4.63 190 14:18 27.08.2022
454 Clouds 30 1011 55 10000 3.58 106 12:22 27.08.2022
455 Clouds 29 1010 54 10000 2.57 350 10:30 27.08.2022
456 Clouds 28 1010 59 10000 2.06 310 09:40 27.08.2022
457 Clear 23 1010 84 10000 2.57 360 06:55 27.08.2022
458 Clouds 23 1009 84 10000 0.89 180 02:27 27.08.2022
459 Clouds 24 1010 83 10000 0.45 25 23:51 26.08.2022
460 Clouds 25 1009 79 10000 1.34 126 21:59 26.08.2022
461 Clouds 25 1009 76 10000 2.57 180 20:23 26.08.2022
462 Clouds 26 1008 71 10000 3.09 180 18:59 26.08.2022
463 Clouds 28 1008 62 10000 4.12 190 16:42 26.08.2022
464 Clouds 28 1008 66 10000 5.14 180 15:27 26.08.2022
465 Clouds 28 1008 60 10000 5.14 180 13:44 26.08.2022
466 Clouds 29 1008 56 10000 2.68 149 12:35 26.08.2022
467 Clouds 28 1009 57 10000 2.57 300 11:22 26.08.2022
468 Clouds 27 1008 63 10000 5.14 360 09:59 26.08.2022
469 Clouds 22 1008 86 10000 1.03 0 05:26 26.08.2022
470 Clouds 23 1009 83 10000 1.03 0 01:18 26.08.2022
471 Clouds 23 1009 84 10000 1.79 79 22:57 25.08.2022
472 Clouds 24 1009 82 10000 1.54 0 20:59 25.08.2022
473 Clouds 24 1009 78 10000 2.24 282 19:55 25.08.2022
474 Clouds 26 1009 72 10000 2.24 262 18:48 25.08.2022
475 Clouds 27 1009 68 10000 1.79 265 17:32 25.08.2022
476 Clouds 26 1008 69 10000 1.34 270 16:49 25.08.2022
477 Clouds 25 1009 79 10000 1.79 313 15:37 25.08.2022
478 Thunderstorm 24 1009 86 8000 5.14 140 14:31 25.08.2022
479 Clouds 27 1008 64 10000 2.68 10 11:49 25.08.2022
480 Clouds 26 1009 64 10000 4.12 10 10:46 25.08.2022
481 Clouds 25 1009 74 10000 3.09 340 08:52 25.08.2022
482 Clouds 21 1009 87 10000 2.06 290 05:19 25.08.2022
483 Clouds 23 1010 85 10000 0.89 21 00:30 25.08.2022
484 Clouds 23 1010 85 10000 2.24 58 23:25 24.08.2022
485 Clouds 23 1010 83 10000 1.79 37 22:21 24.08.2022
486 Clouds 23 1010 81 10000 1.79 318 21:33 24.08.2022
487 Clouds 23 1010 79 10000 1.03 0 20:32 24.08.2022
488 Clouds 25 1009 73 10000 1.54 0 18:46 24.08.2022
489 Clouds 26 1010 71 10000 2.06 290 16:28 24.08.2022
490 Clouds 27 1008 90 8000 2.57 320 15:51 24.08.2022
491 Clouds 25 1009 70 9000 2.57 140 13:33 24.08.2022
492 Clouds 26 1010 69 10000 4.63 340 11:24 24.08.2022
493 Clouds 27 1008 64 10000 4.12 330 09:33 24.08.2022
494 Clouds 25 1009 74 10000 3.09 320 07:47 24.08.2022
495 Clouds 23 1008 82 10000 1.34 29 02:25 24.08.2022
496 Clouds 24 1009 82 10000 1.79 304 23:26 23.08.2022
497 Clouds 23 1009 84 10000 1.34 36 22:30 23.08.2022
498 Clouds 23 1009 85 10000 1.79 12 21:28 23.08.2022
499 Clouds 24 1008 83 10000 1.79 32 19:57 23.08.2022
500 Thunderstorm 23 1009 100 10000 2.57 340 18:44 23.08.2022
501 Thunderstorm 24 1009 87 5000 6.17 360 17:48 23.08.2022
502 Clouds 27 1008 76 10000 6.17 60 16:50 23.08.2022
503 Thunderstorm 29 1008 65 10000 6.17 180 15:37 23.08.2022
504 Clouds 30 1008 62 10000 4.92 144 13:26 23.08.2022
505 Clouds 30 1008 62 10000 4.92 144 13:26 23.08.2022
506 Clouds 27 1008 77 10000 1.54 0 11:24 23.08.2022
507 Clouds 27 1008 76 10000 2.24 246 10:36 23.08.2022
508 Clouds 26 1008 81 10000 1.54 0 09:54 23.08.2022
509 Rain 26 1008 80 10000 3.13 345 08:51 23.08.2022
510 Thunderstorm 26 1008 78 10000 2.24 247 08:20 23.08.2022
511 Thunderstorm 26 1008 78 10000 2.24 247 08:20 23.08.2022
512 Rain 26 1008 77 10000 1.79 10 07:34 23.08.2022
513 Thunderstorm 25 1007 80 10000 1.79 32 06:27 23.08.2022
514 Clouds 25 1007 81 10000 1.79 46 03:24 23.08.2022
515 Clouds 26 1006 80 10000 1.34 126 00:28 23.08.2022
516 Clouds 26 1006 80 10000 2.24 22 23:33 22.08.2022
517 Clouds 26 1007 79 10000 1.34 44 22:44 22.08.2022
518 Clouds 27 1007 77 10000 1.34 237 21:29 22.08.2022
519 Clouds 28 1006 75 10000 2.06 180 19:48 22.08.2022
520 Clouds 28 1006 72 10000 2.06 200 18:50 22.08.2022
521 Clouds 29 1005 69 10000 2.68 245 17:22 22.08.2022
522 Clouds 30 1006 48 10000 5.14 110 15:39 22.08.2022
523 Clouds 30 1004 56 10000 4.02 124 13:57 22.08.2022
524 Clouds 31 1005 50 10000 2.68 161 10:43 22.08.2022
525 Clouds 27 1004 60 10000 4.12 330 07:59 22.08.2022
526 Clear 26 1004 66 10000 0.89 109 04:25 22.08.2022
527 Clouds 27 1004 68 10000 1.54 0 00:43 22.08.2022
528 Clouds 27 1004 68 10000 1.34 220 00:23 22.08.2022
529 Clouds 28 1004 58 10000 1.79 355 22:22 21.08.2022
530 Clouds 28 1004 55 10000 1.79 41 21:25 21.08.2022
531 Clouds 28 1004 53 10000 3.58 67 20:47 21.08.2022
532 Clouds 29 1004 51 10000 5.36 88 19:25 21.08.2022
533 Clouds 32 1002 47 10000 5.36 132 17:35 21.08.2022
534 Clouds 33 1002 47 10000 5.81 128 15:53 21.08.2022
535 Clouds 33 1003 45 10000 4.92 77 15:21 21.08.2022
536 Clouds 33 1003 45 10000 3.6 170 13:52 21.08.2022
537 Clouds 33 1003 45 10000 6.26 91 13:28 21.08.2022
538 Clouds 33 1004 41 10000 4.47 70 11:39 21.08.2022
539 Clear 31 1004 45 10000 4.12 340 09:31 21.08.2022
540 Clear 31 1004 46 10000 5.81 55 08:56 21.08.2022
541 Clear 31 1004 46 10000 5.81 46 08:38 21.08.2022
542 Clear 28 1004 50 10000 2.57 310 07:27 21.08.2022
543 Clear 27 1004 55 10000 0 0 03:41 21.08.2022
544 Clear 28 1006 57 10000 0.45 220 00:24 21.08.2022
545 Clear 29 1006 59 10000 0.89 279 22:41 20.08.2022
546 Clear 30 1007 55 10000 0.89 133 21:38 20.08.2022
547 Clear 30 1006 51 10000 1.34 246 20:41 20.08.2022
548 Clear 31 1006 45 10000 1.79 248 19:41 20.08.2022
549 Clear 33 1006 41 10000 4.02 245 18:31 20.08.2022
550 Clear 33 1006 39 10000 5.14 180 17:51 20.08.2022
551 Clear 34 1007 36 10000 6.17 190 16:52 20.08.2022
552 Clear 35 1007 34 10000 5.14 180 15:33 20.08.2022
553 Clear 36 1008 31 10000 4.02 226 13:27 20.08.2022
554 Clear 36 1009 33 10000 4.02 143 11:52 20.08.2022
555 Clear 34 1009 36 10000 1.79 31 09:43 20.08.2022
556 Clear 32 1009 42 10000 2.24 27 08:34 20.08.2022
557 Clear 28 1008 50 10000 2.24 102 05:57 20.08.2022
558 Clear 29 1009 47 10000 1.79 31 01:46 20.08.2022
559 Clear 29 1009 49 10000 2.06 360 00:35 20.08.2022
560 Clear 29 1009 50 10000 1.54 0 23:19 19.08.2022
561 Clear 30 1009 51 10000 1.54 0 22:33 19.08.2022
562 Clear 31 1009 42 10000 1.54 0 20:20 19.08.2022
563 Clear 34 1008 36 10000 3.13 236 18:28 19.08.2022
564 Clear 37 1009 28 10000 4.12 190 15:19 19.08.2022
565 Clear 38 1009 27 10000 4.92 227 13:21 19.08.2022
566 Clear 36 1010 29 10000 2.06 180 10:55 19.08.2022
567 Clear 35 1010 30 10000 3.09 200 10:24 19.08.2022
568 Clear 29 1009 38 10000 1.34 10 06:37 19.08.2022
569 Clear 29 1009 37 10000 1.34 346 00:57 19.08.2022
570 Clear 29 1009 37 10000 1.79 52 00:28 19.08.2022
571 Clear 29 1009 37 10000 1.79 45 23:38 18.08.2022
572 Clear 30 1009 36 10000 2.24 16 22:49 18.08.2022
573 Clear 31 1009 35 10000 1.54 0 21:56 18.08.2022
574 Clear 31 1009 35 10000 1.54 0 21:34 18.08.2022
575 Clear 32 1009 31 10000 3.6 350 19:56 18.08.2022
576 Clear 33 1009 29 10000 5.14 360 19:28 18.08.2022
577 Clouds 36 1009 26 10000 6.69 10 17:50 18.08.2022
578 Clouds 37 1009 26 10000 5.66 340 16:58 18.08.2022
579 Clouds 36 1009 28 10000 5.36 78 14:45 18.08.2022
580 Clouds 37 1009 28 10000 6.17 30 14:19 18.08.2022
581 Clouds 36 1009 30 10000 6.17 350 12:55 18.08.2022
582 Clear 35 1010 29 10000 5.66 350 11:34 18.08.2022
583 Clear 34 1010 33 10000 6.17 340 09:43 18.08.2022
584 Clear 32 1010 37 10000 5.14 330 08:39 18.08.2022
585 Clear 29 1010 45 10000 3.09 320 07:19 18.08.2022
586 Clouds 27 1010 49 10000 0.89 360 03:57 18.08.2022
587 Clouds 28 1010 50 10000 1.34 27 23:34 17.08.2022
588 Clouds 28 1010 60 10000 1.34 169 21:40 17.08.2022
589 Clouds 29 1010 61 10000 2.24 215 20:19 17.08.2022
590 Clouds 30 1009 56 10000 3.13 251 19:28 17.08.2022
591 Clouds 32 1009 47 10000 4.63 190 17:35 17.08.2022
592 Clouds 33 1009 46 10000 5.66 180 16:35 17.08.2022
593 Clouds 34 1009 42 10000 5.14 340 15:26 17.08.2022
594 Clouds 35 1009 33 10000 4.92 40 12:57 17.08.2022
595 Clear 34 1009 37 10000 3.6 350 11:38 17.08.2022
596 Clear 32 1010 40 10000 3.09 320 09:31 17.08.2022
597 Clear 30 1010 49 10000 1.54 0 08:24 17.08.2022
598 Clear 26 1010 65 10000 1.03 0 03:36 17.08.2022
599 Clear 27 1011 60 10000 2.24 233 00:19 17.08.2022
600 Clear 27 1011 57 10000 1.03 0 22:35 16.08.2022
601 Clear 28 1011 55 10000 2.24 242 20:58 16.08.2022
602 Clear 29 1010 49 10000 2.24 258 19:54 16.08.2022
603 Clear 30 1010 50 10000 4.02 253 18:43 16.08.2022
604 Clear 31 1010 47 10000 5.14 190 17:43 16.08.2022
605 Clear 32 1010 49 10000 5.14 180 15:52 16.08.2022
606 Clear 33 1011 48 10000 4.92 239 14:55 16.08.2022
607 Clear 32 1011 47 10000 4.47 244 14:37 16.08.2022
608 Clear 34 1010 38 10000 3.6 220 13:40 16.08.2022
609 Clear 32 1011 43 10000 4.12 200 11:30 16.08.2022
610 Clear 31 1011 46 10000 1.79 257 09:51 16.08.2022
611 Clear 29 1011 53 10000 1.79 270 08:47 16.08.2022
612 Clear 27 1011 58 10000 1.34 228 07:58 16.08.2022
613 Clear 24 1010 64 10000 1.79 202 04:25 16.08.2022
614 Clear 25 1010 58 10000 2.06 330 22:55 15.08.2022
615 Clear 26 1010 56 10000 1.79 138 21:56 15.08.2022
616 Clear 26 1010 57 10000 2.24 136 21:35 15.08.2022
617 Clear 26 1009 57 10000 2.57 150 20:29 15.08.2022
618 Clouds 28 1008 52 10000 5.66 170 18:43 15.08.2022
619 Clouds 29 1008 47 10000 6.17 180 17:47 15.08.2022
620 Clouds 30 1008 48 10000 6.17 170 16:22 15.08.2022
621 Clouds 31 1007 42 10000 4.12 200 14:31 15.08.2022
622 Clouds 31 1008 41 10000 4.12 210 12:54 15.08.2022
623 Clouds 29 1008 41 10000 5.14 10 10:23 15.08.2022
624 Clear 27 1007 46 10000 4.63 10 08:52 15.08.2022
625 Clouds 24 1006 58 10000 3.09 320 06:39 15.08.2022
626 Clouds 24 1005 59 10000 2.06 310 03:34 15.08.2022
627 Clouds 25 1005 60 10000 3.13 69 23:27 14.08.2022
628 Clouds 26 1005 61 10000 6.17 330 21:43 14.08.2022
629 Clouds 27 1004 57 10000 2.68 250 20:41 14.08.2022
630 Clouds 28 1004 56 10000 3.58 237 19:45 14.08.2022
631 Clouds 28 1003 56 10000 5.14 260 18:32 14.08.2022
632 Clouds 29 1004 54 10000 6.69 180 17:37 14.08.2022
633 Clouds 31 1003 47 10000 4.47 173 16:23 14.08.2022
634 Clouds 31 1004 45 10000 6.17 190 15:34 14.08.2022
635 Clouds 32 1004 41 10000 5.81 226 13:52 14.08.2022
636 Clouds 32 1004 38 10000 4.92 161 13:33 14.08.2022
637 Clouds 32 1005 35 10000 4.47 278 12:45 14.08.2022
638 Clouds 31 1005 41 10000 3.58 292 11:30 14.08.2022
639 Clouds 30 1005 47 10000 2.57 180 10:18 14.08.2022
640 Clear 27 1006 58 10000 1.34 261 08:18 14.08.2022
641 Clear 24 1006 72 10000 1.34 141 06:18 14.08.2022
642 Clouds 24 1007 69 10000 0 0 01:48 14.08.2022
643 Clouds 25 1008 69 10000 1.03 0 23:23 13.08.2022
644 Clouds 25 1008 67 10000 1.03 0 22:28 13.08.2022
645 Clouds 25 1008 69 10000 1.79 26 20:56 13.08.2022
646 Clouds 26 1008 65 10000 1.79 144 19:49 13.08.2022
647 Clouds 27 1007 64 10000 1.79 190 19:19 13.08.2022
648 Clouds 29 1007 56 10000 4.12 80 17:22 13.08.2022
649 Clouds 30 1008 50 10000 3.58 192 15:18 13.08.2022
650 Clouds 31 1008 45 10000 3.6 210 14:24 13.08.2022
651 Clouds 31 1007 43 10000 4.92 219 13:36 13.08.2022
652 Clouds 32 1008 40 10000 3.6 220 11:49 13.08.2022
653 Clouds 30 1009 43 10000 3.09 330 09:43 13.08.2022
654 Clouds 27 1009 51 10000 3.6 330 07:48 13.08.2022
655 Clouds 26 1009 43 10000 1.54 0 01:56 13.08.2022
656 Clouds 26 1010 40 10000 3.09 330 23:45 12.08.2022
657 Clouds 27 1010 39 10000 2.06 0 21:40 12.08.2022
658 Clouds 28 1010 39 10000 4.47 80 19:51 12.08.2022
659 Clear 29 1009 39 10000 4.47 65 19:24 12.08.2022
660 Clouds 30 1009 37 10000 5.36 126 18:31 12.08.2022
661 Clouds 32 1009 36 10000 6.26 52 16:28 12.08.2022
662 Clouds 32 1010 35 10000 8.49 76 15:23 12.08.2022
663 Clouds 32 1010 34 10000 6.71 122 13:56 12.08.2022
664 Clear 31 1011 35 10000 6.71 103 12:51 12.08.2022
665 Clouds 29 1011 42 10000 7.15 48 09:28 12.08.2022
666 Clear 28 1011 46 10000 7.15 5 07:47 12.08.2022
667 Clear 25 1011 49 10000 2.68 14 06:28 12.08.2022
668 Clear 27 1011 44 10000 3.6 350 01:45 12.08.2022
669 Clear 27 1011 43 10000 1.79 107 00:20 12.08.2022
670 Clear 27 1011 42 10000 2.24 290 23:29 11.08.2022
671 Clear 28 1011 40 10000 3.09 330 21:58 11.08.2022
672 Clear 28 1011 38 10000 3.09 330 21:35 11.08.2022
673 Clear 28 1011 38 10000 3.58 81 20:32 11.08.2022
674 Clear 29 1010 38 10000 4.02 12 19:53 11.08.2022
675 Clear 29 1010 38 10000 4.92 74 19:30 11.08.2022
676 Clouds 31 1010 36 10000 5.14 30 17:34 11.08.2022
677 Clouds 32 1010 35 10000 5.14 360 16:19 11.08.2022
678 Clouds 32 1011 35 10000 5.14 350 15:20 11.08.2022
679 Clouds 31 1011 41 10000 6.69 360 12:39 11.08.2022
680 Clouds 28 1011 49 10000 9.26 10 09:29 11.08.2022
681 Clouds 26 1011 57 10000 4.47 37 06:59 11.08.2022
682 Clouds 26 1010 57 10000 6.26 346 03:25 11.08.2022
683 Clouds 28 1010 50 10000 4.92 5 00:35 11.08.2022
684 Clouds 28 1010 43 10000 3.58 51 22:21 10.08.2022
685 Clouds 29 1010 42 10000 3.58 265 21:20 10.08.2022
686 Clouds 29 1010 40 10000 3.13 347 20:43 10.08.2022
687 Clouds 30 1010 38 10000 5.66 350 18:55 10.08.2022
688 Clouds 31 1009 35 10000 8.23 10 17:37 10.08.2022
689 Clouds 32 1009 34 10000 8.49 343 16:33 10.08.2022
690 Clouds 33 1010 31 10000 7.72 350 13:35 10.08.2022
691 Clouds 32 1010 31 10000 8.05 32 12:27 10.08.2022
692 Clear 30 1010 36 10000 9.39 49 08:55 10.08.2022
693 Clear 30 1010 36 10000 6.71 23 08:31 10.08.2022
694 Clear 26 1009 39 10000 1.54 0 06:23 10.08.2022
695 Clear 27 1008 38 10000 2.68 28 03:24 10.08.2022
696 Clear 28 1010 34 10000 2.06 0 23:34 09.08.2022
697 Clear 28 1010 34 10000 2.06 0 22:56 09.08.2022
698 Clear 29 1010 30 10000 2.57 310 21:35 09.08.2022
699 Clouds 31 1009 33 10000 4.12 350 19:35 09.08.2022
700 Clouds 32 1009 33 10000 6.69 360 18:29 09.08.2022
701 Clouds 32 1009 30 10000 7.2 360 17:27 09.08.2022
702 Clouds 33 1009 25 10000 8.75 360 16:40 09.08.2022
703 Clouds 33 1009 24 10000 7.2 350 15:46 09.08.2022
704 Clouds 32 1009 29 10000 7.2 350 12:48 09.08.2022
705 Clouds 29 1009 43 10000 9.26 360 09:30 09.08.2022
706 Clouds 28 1009 50 10000 7.15 71 08:39 09.08.2022
707 Clouds 28 1009 53 10000 4.47 61 07:52 09.08.2022
708 Clouds 27 1008 44 10000 2.57 290 03:34 09.08.2022
709 Clouds 28 1010 46 10000 4.92 42 23:27 08.08.2022
710 Clouds 29 1010 47 10000 4.92 21 22:54 08.08.2022
711 Clouds 29 1010 48 10000 4.92 49 21:58 08.08.2022
712 Clouds 29 1009 48 10000 4.92 347 20:59 08.08.2022
713 Clouds 30 1009 47 10000 4.12 330 19:51 08.08.2022
714 Clouds 31 1009 45 10000 5.81 73 18:45 08.08.2022
715 Clouds 31 1009 47 10000 7.6 51 16:40 08.08.2022
716 Clouds 31 1009 48 10000 7.72 350 15:40 08.08.2022
717 Clouds 31 1009 46 10000 8.23 340 13:50 08.08.2022
718 Clouds 31 1009 47 10000 9.77 350 12:19 08.08.2022
719 Clouds 30 1008 46 10000 8.94 66 09:46 08.08.2022
720 Clouds 27 1007 51 10000 5.81 355 05:54 08.08.2022
721 Clouds 28 1007 47 10000 4.12 340 02:55 08.08.2022
722 Clouds 29 1008 47 10000 5.14 330 22:42 07.08.2022
723 Clouds 29 1007 45 10000 4.12 330 21:40 07.08.2022
724 Clouds 30 1007 42 10000 3.6 340 20:26 07.08.2022
725 Clouds 30 1007 42 10000 4.12 340 19:56 07.08.2022
726 Clouds 30 1006 42 10000 4.12 340 19:38 07.08.2022
727 Clouds 31 1006 40 10000 7.2 10 18:35 07.08.2022
728 Clouds 32 1006 37 10000 6.71 9 16:54 07.08.2022
729 Clouds 32 1006 36 10000 8.05 21 16:35 07.08.2022
730 Clouds 32 1006 36 10000 8.05 21 16:35 07.08.2022
731 Clouds 32 1006 34 10000 7.2 340 15:20 07.08.2022
732 Clouds 32 1007 36 10000 7.72 360 13:34 07.08.2022
733 Clouds 31 1007 40 10000 9.77 360 11:54 07.08.2022
734 Clouds 30 1007 46 10000 10.29 10 10:34 07.08.2022
735 Clouds 28 1007 57 10000 4.92 51 07:38 07.08.2022
736 Clouds 28 1006 49 10000 4.63 330 03:20 07.08.2022
737 Clouds 29 1007 48 10000 4.63 330 01:45 07.08.2022
738 Clouds 29 1007 45 10000 4.63 330 22:25 06.08.2022
739 Clouds 30 1007 44 10000 3.58 309 21:18 06.08.2022
740 Clouds 30 1007 40 10000 4.63 360 19:41 06.08.2022
741 Clouds 32 1007 37 10000 5.14 360 18:30 06.08.2022
742 Clouds 32 1007 35 10000 7.72 360 17:33 06.08.2022
743 Clouds 33 1007 36 10000 6.17 360 14:52 06.08.2022
744 Clouds 33 1007 36 10000 7.72 350 13:49 06.08.2022
745 Clear 32 1007 37 10000 6.26 327 11:59 06.08.2022
746 Clear 31 1008 42 10000 7.15 5 10:33 06.08.2022
747 Clear 30 1008 44 10000 5.36 360 09:21 06.08.2022
748 Clear 28 1008 45 10000 4.12 320 03:54 06.08.2022
749 Clear 28 1009 43 10000 1.79 336 23:56 05.08.2022
750 Clear 29 1009 42 10000 3.13 315 22:33 05.08.2022
751 Clear 30 1009 40 10000 4.02 315 20:20 05.08.2022
752 Clear 31 1009 37 10000 7.2 360 18:53 05.08.2022
753 Clear 31 1009 36 10000 7.2 360 18:35 05.08.2022
754 Clouds 32 1010 37 10000 7.2 10 16:51 05.08.2022
755 Clouds 33 1010 37 10000 7.2 10 15:23 05.08.2022
756 Clouds 33 1010 36 10000 7.72 360 14:34 05.08.2022
757 Clouds 32 1010 36 10000 7.2 360 13:26 05.08.2022
758 Clouds 32 1011 36 10000 7.2 10 12:45 05.08.2022
759 Clouds 31 1011 40 10000 6.71 28 10:59 05.08.2022
760 Clouds 30 1011 44 10000 7.15 11 08:45 05.08.2022
761 Clear 28 1011 45 10000 2.57 320 07:33 05.08.2022
762 Clear 27 1012 43 10000 4.12 320 01:52 05.08.2022
763 Clear 28 1012 42 10000 2.24 358 22:43 04.08.2022
764 Clear 29 1012 40 10000 4.92 325 21:28 04.08.2022
765 Clear 29 1012 39 10000 3.13 69 20:53 04.08.2022
766 Clear 29 1012 37 10000 3.58 323 20:33 04.08.2022
767 Clear 30 1011 34 10000 6.69 10 18:57 04.08.2022
768 Clear 31 1011 32 10000 6.69 10 18:33 04.08.2022
769 Clear 32 1011 32 10000 7.72 360 15:51 04.08.2022
770 Clouds 32 1012 34 10000 8.75 350 13:26 04.08.2022
771 Clouds 31 1011 35 10000 8.23 360 11:39 04.08.2022
772 Clear 30 1011 38 10000 8.23 340 10:20 04.08.2022
773 Clear 28 1011 43 10000 6.26 360 07:45 04.08.2022
774 Clear 27 1011 46 10000 1.79 346 02:48 04.08.2022
775 Clear 27 1011 47 10000 3.13 308 00:33 04.08.2022
776 Clear 27 1011 46 10000 4.47 17 23:39 03.08.2022
777 Clear 28 1011 42 10000 3.58 301 21:31 03.08.2022
778 Clear 29 1010 41 10000 4.12 350 20:21 03.08.2022
779 Clear 29 1010 40 10000 5.14 20 19:19 03.08.2022
780 Clouds 31 1010 36 10000 7.2 360 16:50 03.08.2022
781 Clouds 31 1010 38 10000 7.15 9 16:22 03.08.2022
782 Clouds 31 1011 38 10000 7.72 360 13:52 03.08.2022
783 Clouds 30 1011 40 10000 8.23 350 10:56 03.08.2022
784 Clouds 28 1010 49 10000 3.6 330 07:32 03.08.2022
785 Clear 26 1010 50 10000 4.47 30 04:22 03.08.2022
786 Clear 27 1010 48 10000 4.02 5 03:23 03.08.2022
787 Clear 27 1010 43 10000 3.09 350 00:53 03.08.2022
788 Clear 28 1010 40 10000 1.79 5 22:43 02.08.2022
789 Clear 28 1010 40 10000 2.68 360 21:52 02.08.2022
790 Clear 28 1010 39 10000 2.24 355 20:32 02.08.2022
791 Clear 31 1009 33 10000 6.26 82 18:39 02.08.2022
792 Clouds 33 1009 33 10000 5.14 340 15:27 02.08.2022
793 Clouds 32 1010 37 10000 5.14 350 11:30 02.08.2022
794 Clouds 30 1010 41 10000 5.14 350 09:18 02.08.2022
795 Clouds 29 1010 47 10000 4.12 350 07:52 02.08.2022
796 Clouds 27 1010 51 10000 4.12 350 06:43 02.08.2022
797 Clouds 26 1009 50 10000 2.57 350 04:54 02.08.2022
798 Clouds 28 1009 50 10000 1.79 307 23:38 01.08.2022
799 Clouds 28 1009 48 10000 2.24 115 22:24 01.08.2022
800 Clouds 29 1008 47 10000 4.02 21 20:52 01.08.2022
801 Clouds 30 1008 46 10000 4.12 100 19:25 01.08.2022
802 Clouds 31 1008 44 10000 6.26 54 18:31 01.08.2022
803 Clouds 32 1007 41 10000 4.92 101 16:53 01.08.2022
804 Clouds 33 1007 41 10000 6.26 53 15:52 01.08.2022
805 Clouds 33 1007 41 10000 4.92 94 15:30 01.08.2022
806 Clouds 32 1007 42 10000 4.02 52 14:43 01.08.2022
807 Clouds 32 1008 44 10000 6.26 61 11:59 01.08.2022
808 Clouds 31 1008 48 10000 5.81 54 09:43 01.08.2022
809 Clear 30 1008 46 10000 3.6 340 08:30 01.08.2022
810 Clouds 28 1008 49 10000 4.02 76 04:54 01.08.2022
811 Clouds 28 1008 53 10000 2.24 103 03:49 01.08.2022
812 Clouds 28 1008 62 10000 1.34 25 00:36 01.08.2022
813 Clear 28 1008 63 10000 1.34 194 22:40 31.07.2022
814 Clear 29 1008 61 10000 1.54 0 21:29 31.07.2022
815 Clouds 30 1007 57 10000 3.09 200 19:53 31.07.2022
816 Clouds 33 1006 44 10000 5.66 180 18:35 31.07.2022
817 Clouds 35 1007 36 10000 5.14 190 15:45 31.07.2022
818 Clouds 35 1008 36 10000 4.63 190 13:44 31.07.2022
819 Clear 34 1008 38 10000 2.68 199 11:59 31.07.2022
820 Clear 32 1009 41 10000 4.47 30 09:55 31.07.2022
821 Clear 30 1009 46 10000 5.36 63 08:18 31.07.2022
822 Clear 27 1009 50 10000 2.24 14 03:28 31.07.2022
823 Clear 28 1009 54 10000 1.79 40 23:46 30.07.2022
824 Clear 29 1010 48 10000 2.24 38 22:19 30.07.2022
825 Clear 29 1009 44 10000 1.79 50 21:49 30.07.2022
826 Clear 30 1009 37 10000 1.34 277 20:58 30.07.2022
827 Clear 31 1008 34 10000 3.6 20 19:59 30.07.2022
828 Clear 33 1008 30 10000 4.12 360 18:57 30.07.2022
829 Clear 34 1008 29 10000 5.14 10 17:45 30.07.2022
830 Clear 35 1009 25 10000 6.17 360 15:55 30.07.2022
831 Clear 36 1009 26 10000 5.36 50 15:25 30.07.2022
832 Clear 35 1010 27 10000 7.15 87 13:21 30.07.2022
833 Clear 35 1010 26 10000 6.69 10 12:20 30.07.2022
834 Clear 33 1010 29 10000 5.14 360 10:35 30.07.2022
835 Clear 33 1010 31 10000 5.81 9 09:57 30.07.2022
836 Clear 30 1010 39 10000 6.69 340 07:55 30.07.2022
837 Clear 26 1009 46 10000 5.14 330 05:29 30.07.2022
838 Clear 27 1010 45 10000 2.06 320 02:31 30.07.2022
839 Clear 29 1012 38 10000 1.79 349 22:54 29.07.2022
840 Clear 29 1011 36 10000 1.54 0 21:28 29.07.2022
841 Clear 29 1011 35 10000 2.57 340 20:50 29.07.2022
842 Clear 31 1010 33 10000 5.14 350 19:29 29.07.2022
843 Clear 34 1010 26 10000 7.72 10 16:43 29.07.2022
844 Clear 34 1010 30 10000 6.69 360 13:46 29.07.2022
845 Clear 33 1011 32 10000 7.72 350 12:32 29.07.2022
846 Clear 30 1011 41 10000 7.72 340 08:51 29.07.2022
847 Clear 29 1010 40 10000 10.29 340 08:21 29.07.2022
848 Clear 27 1010 39 10000 3.09 310 04:39 29.07.2022
849 Clear 28 1010 40 10000 2.06 300 23:46 28.07.2022
850 Clear 29 1010 32 10000 5.66 340 21:38 28.07.2022
851 Clear 30 1009 33 10000 4.63 330 20:50 28.07.2022
852 Clear 31 1009 34 10000 4.12 340 20:18 28.07.2022
853 Clear 31 1008 32 10000 6.17 350 19:40 28.07.2022
854 Clear 34 1008 27 10000 7.2 10 17:46 28.07.2022
855 Clear 35 1008 26 10000 6.26 63 17:23 28.07.2022
856 Clear 35 1008 25 10000 7.15 70 16:40 28.07.2022
857 Clear 36 1008 24 10000 6.17 340 13:56 28.07.2022
858 Clear 35 1008 25 10000 6.69 340 12:40 28.07.2022
859 Clear 31 1008 35 10000 6.26 79 08:49 28.07.2022
860 Clear 27 1006 42 10000 1.54 0 05:41 28.07.2022
861 Clear 27 1006 43 10000 3.09 320 05:20 28.07.2022
862 Clear 29 1008 38 10000 1.79 69 23:20 27.07.2022
863 Clear 30 1008 35 10000 3.13 342 21:31 27.07.2022
864 Clear 32 1007 32 10000 3.6 20 19:53 27.07.2022
865 Clear 33 1007 30 10000 4.02 74 19:20 27.07.2022
866 Clear 36 1007 26 10000 6.17 360 16:32 27.07.2022
867 Clouds 36 1007 26 10000 6.26 59 15:51 27.07.2022
868 Clear 36 1007 26 10000 5.14 20 14:42 27.07.2022
869 Clear 36 1008 26 10000 6.26 67 13:45 27.07.2022
870 Clear 34 1008 30 10000 5.36 60 10:39 27.07.2022
871 Clear 31 1008 34 10000 4.12 360 07:53 27.07.2022
872 Clear 27 1008 46 10000 0.89 37 04:54 27.07.2022
873 Clear 29 1009 38 10000 2.24 38 23:29 26.07.2022
874 Clear 30 1009 38 10000 2.68 75 22:19 26.07.2022
875 Clear 30 1009 36 10000 4.92 120 20:58 26.07.2022
876 Clear 32 1008 35 10000 4.02 47 19:33 26.07.2022
877 Clear 33 1007 32 10000 5.81 91 18:41 26.07.2022
878 Clouds 34 1007 33 10000 5.14 360 17:54 26.07.2022
879 Clouds 35 1008 29 10000 6.71 84 15:46 26.07.2022
880 Clouds 36 1009 28 10000 4.02 167 14:43 26.07.2022
881 Clouds 34 1010 29 10000 6.26 61 12:35 26.07.2022
882 Clear 33 1009 36 10000 5.14 350 10:32 26.07.2022
883 Clear 31 1009 43 10000 4.12 340 08:29 26.07.2022
884 Clear 28 1010 45 10000 2.57 360 02:25 26.07.2022
885 Clouds 29 1010 45 10000 2.06 350 00:22 26.07.2022
886 Clouds 29 1010 47 10000 1.34 18 22:41 25.07.2022
887 Clouds 29 1010 46 10000 1.79 53 22:21 25.07.2022
888 Clouds 30 1010 45 10000 2.57 10 21:31 25.07.2022
889 Clouds 30 1010 43 10000 3.13 71 20:39 25.07.2022
890 Clear 32 1009 42 10000 5.66 10 19:25 25.07.2022
891 Clear 33 1008 41 10000 5.14 10 18:18 25.07.2022
892 Clear 34 1008 36 10000 5.36 80 17:24 25.07.2022
893 Clear 35 1010 34 10000 5.81 70 14:19 25.07.2022
894 Clouds 34 1011 37 10000 7.15 76 10:56 25.07.2022
895 Clouds 33 1011 34 10000 3.58 97 08:22 25.07.2022
896 Clear 29 1010 42 10000 1.54 0 01:44 25.07.2022
897 Clear 30 1011 37 10000 1.79 58 23:46 24.07.2022
898 Clear 31 1011 39 10000 1.79 36 22:51 24.07.2022
899 Clear 31 1011 40 10000 3.13 19 22:24 24.07.2022
900 Clear 32 1011 36 10000 2.24 304 21:18 24.07.2022
901 Clear 32 1011 33 10000 2.68 87 20:45 24.07.2022
902 Clear 32 1009 34 10000 3.09 180 19:37 24.07.2022
903 Clear 37 1010 24 10000 4.12 10 18:27 24.07.2022
904 Clear 38 1010 26 10000 5.14 20 15:57 24.07.2022
905 Clear 38 1011 27 10000 5.14 40 15:31 24.07.2022
906 Clear 38 1011 26 10000 5.66 10 13:51 24.07.2022
907 Clear 38 1012 24 10000 5.36 94 12:50 24.07.2022
908 Clear 37 1012 26 10000 5.14 360 11:35 24.07.2022
909 Clear 36 1012 27 10000 2.06 0 10:26 24.07.2022
910 Clear 33 1013 34 10000 1.34 55 08:29 24.07.2022
911 Clear 32 1013 35 10000 1.34 219 07:44 24.07.2022
912 Clear 29 1013 33 10000 2.06 300 03:35 24.07.2022
913 Clear 30 1014 31 10000 2.06 330 23:48 23.07.2022
914 Clear 31 1013 27 10000 1.54 0 20:51 23.07.2022
915 Clear 33 1013 22 10000 4.12 350 19:31 23.07.2022
916 Clear 35 1013 25 10000 6.17 350 18:49 23.07.2022
917 Clear 36 1013 23 10000 5.66 360 17:28 23.07.2022
918 Clear 36 1013 24 10000 6.17 350 16:30 23.07.2022
919 Clear 36 1013 23 10000 5.66 10 15:22 23.07.2022
920 Clear 36 1014 23 10000 5.66 360 14:55 23.07.2022
921 Clear 36 1014 22 10000 4.92 88 14:24 23.07.2022
922 Clear 34 1015 24 10000 4.63 30 12:22 23.07.2022
923 Clear 33 1015 27 10000 7.15 78 10:44 23.07.2022
924 Clear 32 1015 29 10000 6.69 10 09:54 23.07.2022
925 Clear 31 1015 35 10000 5.66 10 08:30 23.07.2022
926 Clear 28 1014 41 10000 3.58 55 03:38 23.07.2022
927 Clear 29 1014 38 10000 1.79 360 00:39 23.07.2022
928 Clear 30 1013 39 10000 3.13 99 21:41 22.07.2022
929 Clear 30 1013 37 10000 1.54 0 20:39 22.07.2022
930 Clear 33 1013 31 10000 3.6 350 19:32 22.07.2022
931 Clear 34 1013 33 10000 3.58 37 18:23 22.07.2022
932 Clouds 35 1013 31 10000 5.36 327 16:46 22.07.2022
933 Clouds 36 1013 28 10000 4.92 14 14:20 22.07.2022
934 Clear 34 1013 30 10000 4.47 18 10:59 22.07.2022
935 Clear 32 1013 31 10000 3.6 340 09:25 22.07.2022
936 Clear 31 1013 33 10000 3.6 350 08:27 22.07.2022
937 Clear 27 1013 37 10000 1.34 21 04:48 22.07.2022
938 Clear 28 1013 34 10000 2.06 350 23:45 21.07.2022
939 Clear 28 1013 34 10000 3.09 350 22:25 21.07.2022
940 Clear 29 1014 29 10000 2.06 340 20:48 21.07.2022
941 Clear 32 1013 28 10000 4.12 20 19:23 21.07.2022
942 Clear 33 1012 27 10000 6.71 13 17:39 21.07.2022
943 Clear 33 1012 26 10000 4.92 85 17:19 21.07.2022
944 Clouds 33 1012 26 10000 6.17 30 14:52 21.07.2022
945 Clouds 33 1013 26 10000 6.69 360 14:24 21.07.2022
946 Clear 32 1013 30 10000 6.71 50 12:27 21.07.2022
947 Clear 31 1013 35 10000 6.69 360 10:48 21.07.2022
948 Clear 29 1014 38 10000 5.36 13 09:18 21.07.2022
949 Clear 28 1014 37 10000 5.36 322 08:45 21.07.2022
950 Clear 26 1013 41 10000 4.63 330 07:23 21.07.2022
951 Clear 25 1013 36 10000 6.17 330 03:55 21.07.2022
952 Clear 25 1014 44 10000 4.12 330 23:26 20.07.2022
953 Clear 26 1015 43 10000 3.6 330 22:21 20.07.2022
954 Clear 26 1014 41 10000 3.09 350 20:51 20.07.2022
955 Clouds 27 1015 37 10000 6.69 350 19:49 20.07.2022
956 Clouds 28 1015 34 10000 6.17 360 19:20 20.07.2022
957 Clouds 28 1015 31 10000 6.17 350 18:33 20.07.2022
958 Clouds 29 1014 27 10000 9.26 360 17:54 20.07.2022
959 Clouds 29 1014 26 10000 9.26 350 16:42 20.07.2022
960 Clouds 30 1015 27 10000 8.05 51 15:31 20.07.2022
961 Clouds 29 1015 30 10000 8.23 340 13:57 20.07.2022
962 Clouds 28 1015 37 10000 6.26 31 11:33 20.07.2022
963 Clouds 26 1015 40 10000 7.72 350 08:46 20.07.2022
964 Clouds 24 1014 43 10000 7.15 355 03:25 20.07.2022
965 Clouds 24 1016 53 10000 6.71 30 00:48 20.07.2022
966 Clouds 24 1016 54 10000 4.92 31 23:41 19.07.2022
967 Clear 25 1015 48 10000 4.92 24 22:31 19.07.2022
968 Clear 25 1016 43 10000 7.15 44 21:23 19.07.2022
969 Clear 25 1015 41 10000 5.36 42 20:28 19.07.2022
970 Clear 27 1015 37 10000 8.49 29 18:44 19.07.2022
971 Clear 27 1015 34 10000 8.49 55 17:58 19.07.2022
972 Clouds 28 1015 32 10000 13.89 30 16:37 19.07.2022
973 Clouds 28 1015 32 10000 8.49 90 14:53 19.07.2022
974 Clouds 27 1016 33 10000 9.77 10 11:43 19.07.2022
975 Clouds 27 1016 35 10000 8.94 51 10:52 19.07.2022
976 Clouds 26 1017 36 10000 10.28 343 09:23 19.07.2022
977 Clouds 25 1017 40 10000 8.49 62 08:38 19.07.2022
978 Clear 24 1017 47 10000 6.26 60 07:19 19.07.2022
979 Clear 23 1016 53 10000 6.26 5 05:30 19.07.2022
980 Clear 23 1016 53 10000 6.26 360 04:55 19.07.2022
981 Clear 25 1016 47 10000 4.92 340 01:19 19.07.2022
982 Clear 25 1017 52 10000 6.26 21 23:49 18.07.2022
983 Clear 26 1017 52 10000 4.47 31 23:18 18.07.2022
984 Clouds 26 1017 52 10000 5.36 50 22:18 18.07.2022
985 Clear 27 1017 47 10000 4.92 27 20:51 18.07.2022
986 Clear 28 1017 43 10000 5.36 355 19:33 18.07.2022
987 Clouds 30 1016 32 10000 8.94 68 17:52 18.07.2022
988 Clear 31 1016 32 10000 7.15 24 15:57 18.07.2022
989 Clouds 31 1017 30 10000 7.2 20 15:18 18.07.2022
990 Clouds 31 1017 30 10000 7.72 40 13:26 18.07.2022
991 Clouds 31 1017 30 10000 7.72 20 11:31 18.07.2022
992 Clear 31 1017 32 10000 7.15 62 09:43 18.07.2022
993 Clear 29 1016 36 10000 5.81 54 07:48 18.07.2022
994 Clear 28 1016 47 10000 4.92 346 02:34 18.07.2022
995 Clear 30 1016 38 10000 3.58 79 22:52 17.07.2022
996 Clear 29 1016 39 10000 2.68 355 22:28 17.07.2022
997 Clear 30 1016 41 10000 3.6 340 21:26 17.07.2022
998 Clear 30 1016 41 10000 4.12 350 20:44 17.07.2022
999 Clear 31 1015 39 10000 4.47 11 19:49 17.07.2022
1000 Clear 31 1015 37 10000 4.63 30 19:20 17.07.2022
1001 Clear 33 1015 34 10000 6.17 360 17:39 17.07.2022
1002 Clear 34 1014 31 10000 7.2 360 16:53 17.07.2022
1003 Clear 34 1014 30 10000 7.2 360 16:28 17.07.2022
1004 Clear 34 1014 30 10000 7.2 360 15:37 17.07.2022
1005 Clear 35 1015 30 10000 7.72 20 13:51 17.07.2022
1006 Clear 35 1015 32 10000 7.6 61 12:40 17.07.2022
1007 Clear 34 1014 32 10000 7.2 10 10:18 17.07.2022
1008 Clear 29 1013 38 10000 3.13 12 06:58 17.07.2022
1009 Clear 29 1014 36 10000 2.24 109 02:34 17.07.2022
1010 Clear 29 1014 35 10000 1.79 76 23:23 16.07.2022
1011 Clear 30 1014 34 10000 2.24 15 21:59 16.07.2022
1012 Clear 31 1013 32 10000 2.57 310 20:29 16.07.2022
1013 Clear 33 1013 27 10000 4.12 350 18:54 16.07.2022
1014 Clear 34 1013 27 10000 7.2 360 17:38 16.07.2022
1015 Clear 35 1012 26 10000 6.71 25 15:54 16.07.2022
1016 Clouds 34 1013 30 10000 5.81 14 12:26 16.07.2022
1017 Clear 32 1013 32 10000 6.17 340 10:18 16.07.2022
1018 Clear 32 1014 32 10000 6.17 340 09:25 16.07.2022
1019 Clear 30 1013 34 10000 5.66 340 08:40 16.07.2022
1020 Clear 28 1013 40 10000 3.09 340 06:59 16.07.2022
1021 Clear 26 1013 40 10000 5.14 340 03:33 16.07.2022
1022 Clear 27 1013 39 10000 1.79 24 00:23 16.07.2022
1023 Clear 27 1013 37 10000 3.58 358 22:54 15.07.2022
1024 Clear 27 1013 37 10000 3.58 313 22:24 15.07.2022
1025 Clear 28 1012 35 10000 3.6 360 20:40 15.07.2022
1026 Clear 29 1012 30 10000 5.66 350 19:34 15.07.2022
1027 Clear 31 1011 30 10000 5.81 46 18:23 15.07.2022
1028 Clear 32 1010 30 10000 7.2 330 16:53 15.07.2022
1029 Clear 32 1010 29 10000 7.2 330 14:19 15.07.2022
1030 Clear 32 1010 29 10000 7.2 330 14:19 15.07.2022
1031 Clear 32 1010 32 10000 6.69 350 12:37 15.07.2022
1032 Clear 30 1010 35 10000 8.94 53 10:52 15.07.2022
1033 Clear 28 1010 37 10000 7.6 20 07:48 15.07.2022
1034 Clear 26 1010 40 10000 8.05 39 03:41 15.07.2022
1035 Clear 26 1011 40 10000 6.26 46 00:43 15.07.2022
1036 Clear 26 1012 40 10000 5.81 105 23:24 14.07.2022
1037 Clear 26 1012 40 10000 8.49 5 22:24 14.07.2022
1038 Clear 26 1012 40 10000 5.81 24 21:40 14.07.2022
1039 Clear 27 1012 40 10000 5.81 13 21:21 14.07.2022
1040 Clear 27 1012 38 10000 6.26 43 20:43 14.07.2022
1041 Clear 27 1012 37 10000 8.49 13 20:18 14.07.2022
1042 Clear 28 1012 34 10000 7.6 48 18:38 14.07.2022
1043 Clouds 29 1012 33 10000 7.72 350 16:20 14.07.2022
1044 Clouds 29 1012 34 10000 10.29 360 15:26 14.07.2022
1045 Clouds 29 1013 33 10000 10.29 360 13:52 14.07.2022
1046 Clouds 29 1014 32 10000 9.26 360 12:39 14.07.2022
1047 Clouds 29 1014 32 10000 8.23 360 11:28 14.07.2022
1048 Clouds 29 1014 33 10000 7.15 50 10:58 14.07.2022
1049 Clouds 27 1014 37 10000 6.17 360 09:29 14.07.2022
1050 Clear 23 1015 50 10000 3.58 332 05:18 14.07.2022
1051 Clear 23 1016 43 10000 4.02 9 01:22 14.07.2022
1052 Clear 23 1016 43 10000 4.02 9 01:22 14.07.2022
1053 Clear 24 1016 42 10000 3.58 17 00:51 14.07.2022
1054 Clear 24 1017 45 10000 1.79 331 22:31 13.07.2022
1055 Clear 24 1017 45 10000 1.79 5 21:51 13.07.2022
1056 Clouds 25 1016 43 10000 3.09 350 20:44 13.07.2022
1057 Clouds 27 1015 39 10000 5.14 10 18:48 13.07.2022
1058 Clouds 28 1015 37 10000 6.26 5 17:34 13.07.2022
1059 Clouds 28 1015 39 10000 5.81 61 16:19 13.07.2022
1060 Clouds 28 1016 44 10000 7.2 10 14:54 13.07.2022
1061 Clouds 29 1016 37 10000 5.66 350 11:56 13.07.2022
1062 Clouds 28 1016 40 10000 5.14 350 10:45 13.07.2022
1063 Clouds 27 1017 43 10000 6.17 330 09:56 13.07.2022
1064 Clouds 27 1016 46 10000 6.17 360 09:20 13.07.2022
1065 Clouds 24 1016 50 10000 3.58 23 05:52 13.07.2022
1066 Clear 24 1016 45 10000 1.79 94 01:27 13.07.2022
1067 Clear 25 1017 46 10000 3.13 73 23:39 12.07.2022
1068 Clouds 25 1016 54 10000 1.34 38 21:54 12.07.2022
1069 Clouds 25 1016 55 10000 1.79 104 21:19 12.07.2022
1070 Clouds 26 1016 54 10000 1.79 163 20:41 12.07.2022
1071 Clouds 28 1015 49 10000 4.12 180 19:25 12.07.2022
1072 Clouds 29 1015 48 10000 5.14 180 17:49 12.07.2022
1073 Clouds 31 1015 43 10000 3.58 96 15:43 12.07.2022
1074 Clouds 31 1015 39 10000 5.66 10 14:30 12.07.2022
1075 Clouds 30 1016 38 10000 5.66 20 12:29 12.07.2022
1076 Clouds 29 1016 41 10000 5.14 360 11:22 12.07.2022
1077 Clouds 28 1016 45 10000 4.12 10 09:28 12.07.2022
1078 Clouds 26 1016 44 10000 5.14 350 08:19 12.07.2022
1079 Clouds 24 1016 50 10000 1.54 0 06:29 12.07.2022
1080 Clouds 24 1016 46 10000 2.06 320 05:39 12.07.2022
1081 Clouds 24 1015 48 10000 1.79 39 02:21 12.07.2022
1082 Clouds 25 1015 49 10000 1.34 8 23:28 11.07.2022
1083 Clouds 25 1015 48 10000 1.54 0 22:30 11.07.2022
1084 Clouds 26 1015 46 10000 2.68 68 20:41 11.07.2022
1085 Clouds 27 1014 44 10000 4.02 85 19:36 11.07.2022
1086 Clouds 28 1013 43 10000 4.63 360 18:32 11.07.2022
1087 Clouds 29 1013 42 10000 6.26 99 17:46 11.07.2022
1088 Clouds 30 1012 40 10000 6.17 360 16:20 11.07.2022
1089 Clouds 30 1013 38 10000 3.13 56 14:41 11.07.2022
1090 Clouds 28 1013 43 10000 7.2 360 11:58 11.07.2022
1091 Clouds 28 1013 47 10000 5.14 350 10:35 11.07.2022
1092 Clouds 28 1013 47 10000 5.14 340 09:43 11.07.2022
1093 Clouds 27 1013 48 10000 5.14 360 08:34 11.07.2022
1094 Clear 24 1013 52 10000 4.12 350 06:44 11.07.2022
1095 Clear 24 1011 52 10000 0.45 108 00:23 11.07.2022
1096 Clear 24 1012 49 10000 2.24 42 23:32 10.07.2022
1097 Clouds 25 1011 47 10000 2.57 350 22:21 10.07.2022
1098 Clouds 26 1011 46 10000 3.09 350 20:54 10.07.2022
1099 Clouds 27 1010 44 10000 3.09 360 19:55 10.07.2022
1100 Clouds 28 1010 44 10000 4.12 360 18:53 10.07.2022
1101 Clouds 29 1009 43 10000 5.14 360 17:50 10.07.2022
1102 Clouds 29 1009 43 10000 6.17 360 16:59 10.07.2022
1103 Clouds 29 1009 43 10000 6.17 360 16:20 10.07.2022
1104 Clouds 29 1009 45 10000 6.17 360 14:35 10.07.2022
1105 Clouds 27 1009 48 10000 6.17 360 12:38 10.07.2022
1106 Clouds 27 1009 50 10000 5.81 33 11:36 10.07.2022
1107 Clouds 25 1009 56 10000 7.2 350 09:30 10.07.2022
1108 Clouds 24 1009 60 10000 6.17 350 08:42 10.07.2022
1109 Clouds 22 1008 75 10000 4.12 340 06:32 10.07.2022
1110 Clouds 21 1009 84 10000 4.92 303 23:35 09.07.2022
1111 Clouds 21 1009 86 10000 7.2 340 22:26 09.07.2022
1112 Clouds 21 1009 83 10000 4.63 330 21:40 09.07.2022
1113 Clouds 22 1008 81 10000 4.02 10 19:37 09.07.2022
1114 Clouds 24 1008 61 10000 7.2 340 18:26 09.07.2022
1115 Clouds 26 1007 51 10000 7.2 330 17:21 09.07.2022
1116 Clouds 27 1007 46 10000 7.15 325 15:58 09.07.2022
1117 Clouds 27 1006 45 10000 5.81 355 15:38 09.07.2022
1118 Clouds 28 1006 46 10000 8.23 340 14:21 09.07.2022
1119 Clouds 28 1006 45 10000 7.72 340 13:28 09.07.2022
1120 Clouds 27 1007 53 10000 8.23 350 11:45 09.07.2022
1121 Clouds 26 1007 54 10000 7.2 330 10:25 09.07.2022
1122 Clouds 26 1007 57 10000 7.2 330 09:38 09.07.2022
1123 Clouds 22 1007 68 10000 3.09 290 07:43 09.07.2022
1124 Clouds 22 1007 72 9000 6.69 340 04:41 09.07.2022
1125 Clouds 26 1008 54 10000 0.45 12 23:40 08.07.2022
1126 Clouds 26 1009 52 10000 1.54 0 22:33 08.07.2022
1127 Clouds 27 1009 54 10000 2.57 110 21:26 08.07.2022
1128 Clouds 27 1009 54 10000 3.13 115 20:35 08.07.2022
1129 Clouds 28 1009 51 10000 3.58 33 19:38 08.07.2022
1130 Clouds 30 1009 46 10000 6.17 170 17:50 08.07.2022
1131 Rain 30 1010 47 10000 6.17 180 16:29 08.07.2022
1132 Clouds 32 1009 39 10000 6.17 180 14:50 08.07.2022
1133 Clouds 32 1010 41 10000 5.14 190 12:42 08.07.2022
1134 Clear 32 1011 39 10000 2.24 177 10:47 08.07.2022
1135 Clear 31 1011 41 10000 2.68 202 09:58 08.07.2022
1136 Clouds 29 1011 43 10000 4.02 48 07:53 08.07.2022
1137 Clouds 25 1011 55 10000 2.24 109 05:37 08.07.2022
1138 Clouds 26 1012 63 10000 0.89 348 00:40 08.07.2022
1139 Clear 26 1012 68 10000 0.89 124 22:52 07.07.2022
1140 Clear 27 1012 66 10000 2.24 249 21:48 07.07.2022
1141 Clouds 29 1011 56 10000 5.66 180 19:34 07.07.2022
1142 Clouds 32 1010 40 10000 6.17 180 17:50 07.07.2022
1143 Clouds 33 1010 36 10000 3.6 330 16:23 07.07.2022
1144 Clouds 33 1011 31 10000 6.17 20 14:21 07.07.2022
1145 Clouds 33 1011 32 10000 6.17 360 12:45 07.07.2022
1146 Clouds 33 1011 31 10000 5.66 360 12:23 07.07.2022
1147 Clouds 32 1012 32 10000 6.17 340 11:34 07.07.2022
1148 Clouds 31 1012 36 10000 5.14 360 10:46 07.07.2022
1149 Clear 31 1012 38 10000 5.36 32 10:27 07.07.2022
1150 Clouds 30 1012 42 10000 6.17 340 09:32 07.07.2022
1151 Clouds 27 1011 44 10000 4.12 350 06:26 07.07.2022
1152 Clear 28 1011 38 10000 1.34 59 00:28 07.07.2022
1153 Clear 28 1011 40 10000 1.34 71 23:36 06.07.2022
1154 Clear 28 1011 41 10000 1.34 40 23:18 06.07.2022
1155 Clear 28 1011 41 10000 1.34 52 22:51 06.07.2022
1156 Clear 28 1011 41 10000 1.34 52 22:51 06.07.2022
1157 Clear 28 1011 43 10000 2.68 53 22:33 06.07.2022
1158 Clear 29 1010 46 10000 3.09 180 20:23 06.07.2022
1159 Clear 30 1010 45 10000 5.14 180 19:18 06.07.2022
1160 Clear 33 1009 36 10000 4.92 163 17:21 06.07.2022
1161 Clouds 33 1009 33 10000 6.17 360 15:55 06.07.2022
1162 Clouds 34 1010 33 10000 5.36 11 12:44 06.07.2022
1163 Clouds 33 1010 35 10000 6.69 10 11:52 06.07.2022
1164 Clear 32 1010 36 10000 4.63 340 10:54 06.07.2022
1165 Clear 31 1010 37 10000 4.02 92 09:25 06.07.2022
1166 Clear 29 1010 40 10000 4.12 340 07:44 06.07.2022
1167 Clear 27 1010 42 10000 3.6 350 06:44 06.07.2022
1168 Clear 27 1011 34 10000 4.12 330 00:24 06.07.2022
1169 Clear 27 1011 31 10000 3.6 10 22:43 05.07.2022
1170 Clear 28 1011 28 10000 2.57 350 20:49 05.07.2022
1171 Clear 29 1010 28 10000 4.47 71 20:21 05.07.2022
1172 Clear 30 1010 27 10000 5.14 340 19:37 05.07.2022
1173 Clear 32 1010 24 10000 5.81 30 17:50 05.07.2022
1174 Clear 32 1010 24 10000 5.81 331 17:19 05.07.2022
1175 Clear 32 1011 24 10000 7.72 360 16:25 05.07.2022
1176 Clear 32 1011 26 10000 6.69 360 14:54 05.07.2022
1177 Clear 32 1011 23 10000 6.26 348 13:34 05.07.2022
1178 Clear 32 1011 25 10000 8.05 11 12:22 05.07.2022
1179 Clear 31 1011 27 10000 8.23 350 10:45 05.07.2022
1180 Clear 30 1011 30 10000 7.72 350 09:57 05.07.2022
1181 Clear 28 1011 32 10000 7.2 350 08:21 05.07.2022
1182 Clear 27 1011 34 10000 4.47 299 06:51 05.07.2022
1183 Clear 25 1010 27 10000 3.6 320 04:35 05.07.2022
1184 Clear 25 1010 30 10000 0.89 336 01:26 05.07.2022
1185 Clear 26 1011 27 10000 2.06 320 23:37 04.07.2022
1186 Clear 26 1012 25 10000 4.63 350 22:56 04.07.2022
1187 Clear 26 1012 24 10000 1.03 0 22:18 04.07.2022
1188 Clear 27 1011 17 10000 2.06 300 20:56 04.07.2022
1189 Clear 27 1011 19 10000 2.06 300 20:36 04.07.2022
1190 Clear 28 1011 19 10000 5.14 360 19:56 04.07.2022
1191 Clear 28 1010 18 10000 5.14 360 19:37 04.07.2022
1192 Clear 31 1010 11 10000 5.14 350 18:35 04.07.2022
1193 Clear 32 1010 13 10000 7.72 360 16:51 04.07.2022
1194 Clear 32 1011 15 10000 5.36 338 15:35 04.07.2022
1195 Clear 32 1011 15 10000 8.23 350 13:47 04.07.2022
1196 Clear 32 1011 16 10000 7.72 360 12:42 04.07.2022
1197 Clear 30 1011 16 10000 7.72 340 10:40 04.07.2022
1198 Clear 30 1011 17 10000 8.23 340 10:22 04.07.2022
1199 Clear 28 1012 23 10000 7.2 350 08:33 04.07.2022
1200 Clear 25 1012 31 10000 6.69 330 06:26 04.07.2022
1201 Clear 25 1011 42 10000 8.75 340 01:49 04.07.2022
1202 Clear 26 1012 40 10000 4.12 330 23:39 03.07.2022
1203 Clear 27 1012 43 10000 3.13 102 22:29 03.07.2022
1204 Clear 28 1012 38 10000 4.02 67 20:45 03.07.2022
1205 Clear 29 1012 36 10000 5.81 43 19:43 03.07.2022
1206 Clear 30 1012 35 10000 7.2 330 19:24 03.07.2022
1207 Clear 31 1012 32 10000 5.14 340 18:27 03.07.2022
1208 Clear 31 1012 29 10000 6.71 94 17:38 03.07.2022
1209 Clear 31 1013 29 10000 7.72 350 15:27 03.07.2022
1210 Clear 31 1013 32 10000 7.72 350 14:53 03.07.2022
1211 Clear 31 1012 31 10000 8.75 10 13:50 03.07.2022
1212 Clear 31 1013 32 10000 7.72 360 12:44 03.07.2022
1213 Clear 30 1013 34 10000 8.23 350 11:47 03.07.2022
1214 Clear 30 1013 37 10000 7.72 340 10:54 03.07.2022
1215 Clear 30 1013 37 10000 7.72 340 10:35 03.07.2022
1216 Clouds 27 1013 40 10000 6.26 14 07:38 03.07.2022
1217 Clear 27 1013 45 10000 5.36 53 06:35 03.07.2022
1218 Clear 27 1013 49 10000 4.92 77 00:39 03.07.2022
1219 Clear 27 1012 50 10000 4.02 353 23:37 02.07.2022
1220 Clear 29 1013 43 10000 3.58 74 22:31 02.07.2022
1221 Clear 30 1013 37 10000 4.63 350 20:28 02.07.2022
1222 Clear 31 1013 35 10000 5.14 350 19:49 02.07.2022
1223 Clouds 32 1012 36 10000 8.23 360 18:24 02.07.2022
1224 Clouds 33 1012 37 10000 8.23 20 17:38 02.07.2022
1225 Clouds 34 1012 35 10000 9.26 350 16:30 02.07.2022
1226 Clouds 34 1013 35 10000 6.69 350 13:40 02.07.2022
1227 Clouds 34 1013 38 10000 7.2 10 11:49 02.07.2022
1228 Clear 33 1013 40 10000 6.17 340 10:51 02.07.2022
1229 Clear 33 1013 40 10000 5.66 350 10:21 02.07.2022
1230 Clear 32 1013 38 10000 4.12 360 08:37 02.07.2022
1231 Clear 31 1013 38 10000 4.47 28 08:19 02.07.2022
1232 Clear 27 1013 47 10000 4.12 350 04:19 02.07.2022
1233 Clear 28 1013 38 10000 6.71 2 00:28 02.07.2022
1234 Clear 28 1013 36 10000 8.49 2 23:26 01.07.2022
1235 Clear 28 1013 36 10000 8.05 12 22:33 01.07.2022
1236 Clear 29 1012 35 10000 4.47 13 21:38 01.07.2022
1237 Clear 30 1012 32 10000 5.14 360 20:58 01.07.2022
1238 Clear 29 1012 35 10000 5.14 360 20:34 01.07.2022
1239 Clear 29 1011 38 10000 7.6 346 19:38 01.07.2022
1240 Clear 34 1011 27 10000 4.92 46 17:18 01.07.2022
1241 Clear 34 1012 30 10000 6.26 127 14:34 01.07.2022
1242 Clear 34 1012 31 10000 6.69 20 13:54 01.07.2022
1243 Clear 32 1013 36 10000 6.71 78 11:22 01.07.2022
1244 Clear 32 1012 37 10000 6.69 20 10:19 01.07.2022
1245 Clear 28 1012 46 10000 5.36 62 07:38 01.07.2022
1246 Clear 26 1011 50 10000 4.92 6 02:43 01.07.2022
1247 Clear 27 1011 45 10000 5.81 2 00:22 01.07.2022
1248 Clear 28 1011 42 10000 4.92 18 22:52 30.06.2022
1249 Clear 28 1011 41 10000 4.92 7 22:32 30.06.2022
1250 Clear 28 1011 38 10000 2.68 145 21:55 30.06.2022
1251 Clear 29 1011 39 10000 2.68 67 20:58 30.06.2022
1252 Clear 29 1010 39 10000 2.68 116 20:22 30.06.2022
1253 Clear 30 1010 36 10000 4.92 64 19:53 30.06.2022
1254 Clear 31 1010 35 10000 4.12 360 19:18 30.06.2022
1255 Clear 32 1010 33 10000 4.63 360 18:34 30.06.2022
1256 Clear 33 1010 32 10000 6.17 20 17:37 30.06.2022
1257 Clear 34 1010 32 10000 5.66 360 16:28 30.06.2022
1258 Clouds 34 1010 29 10000 8.49 17 14:47 30.06.2022
1259 Clear 34 1011 30 10000 6.71 54 13:30 30.06.2022
1260 Clear 33 1011 31 10000 6.17 350 12:35 30.06.2022
1261 Clear 33 1011 34 10000 6.17 20 11:28 30.06.2022
1262 Clear 31 1011 35 10000 4.47 5 09:53 30.06.2022
1263 Clear 31 1011 35 10000 4.47 36 09:31 30.06.2022
1264 Clear 29 1011 39 10000 3.6 350 07:41 30.06.2022
1265 Clouds 25 1011 48 10000 2.57 340 05:47 30.06.2022
1266 Clouds 26 1012 43 10000 1.34 315 00:31 30.06.2022
1267 Clouds 27 1012 43 10000 2.06 330 23:21 29.06.2022
1268 Clouds 27 1012 44 10000 2.24 42 22:39 29.06.2022
1269 Clouds 27 1012 41 10000 2.68 352 21:34 29.06.2022
1270 Clouds 28 1012 39 10000 4.12 10 20:33 29.06.2022
1271 Clouds 29 1012 37 10000 5.14 360 19:37 29.06.2022
1272 Clouds 31 1012 35 10000 6.17 360 17:43 29.06.2022
1273 Clouds 32 1012 34 10000 6.17 360 16:38 29.06.2022
1274 Clouds 32 1012 37 10000 7.2 360 14:56 29.06.2022
1275 Clouds 32 1013 38 10000 6.17 350 12:40 29.06.2022
1276 Clouds 31 1013 43 10000 6.17 360 11:19 29.06.2022
1277 Clouds 29 1013 45 10000 5.14 350 09:33 29.06.2022
1278 Clouds 28 1013 46 10000 4.12 350 07:44 29.06.2022
1279 Clouds 26 1013 48 10000 2.06 340 04:55 29.06.2022
1280 Clear 27 1013 47 10000 3.13 360 00:58 29.06.2022
1281 Clear 27 1013 47 10000 3.13 5 00:36 29.06.2022
1282 Clear 28 1014 46 10000 2.68 29 22:54 28.06.2022
1283 Clear 28 1014 45 10000 3.58 350 22:34 28.06.2022
1284 Clear 28 1014 43 10000 3.13 63 21:55 28.06.2022
1285 Clear 28 1014 43 10000 3.09 340 21:32 28.06.2022
1286 Clear 28 1013 42 10000 4.02 42 20:44 28.06.2022
1287 Clear 29 1012 39 10000 6.26 66 19:34 28.06.2022
1288 Clear 31 1013 37 10000 6.17 30 18:53 28.06.2022
1289 Clouds 32 1013 33 10000 7.2 10 17:40 28.06.2022
1290 Clouds 33 1013 33 10000 6.69 350 16:21 28.06.2022
1291 Clouds 33 1013 35 10000 7.2 350 15:42 28.06.2022
1292 Clouds 33 1013 31 10000 6.17 360 14:21 28.06.2022
1293 Clouds 33 1013 31 10000 6.17 360 14:21 28.06.2022
1294 Clouds 33 1013 32 10000 6.17 350 13:52 28.06.2022
1295 Clouds 32 1013 34 10000 7.2 350 12:57 28.06.2022
1296 Clouds 31 1013 39 10000 6.69 360 11:18 28.06.2022
1297 Clouds 30 1014 41 10000 5.14 340 09:30 28.06.2022
1298 Clouds 29 1014 42 10000 6.17 360 08:44 28.06.2022
1299 Clouds 28 1014 44 10000 4.92 38 07:42 28.06.2022
1300 Clouds 27 1014 47 10000 2.24 44 06:56 28.06.2022
1301 Clouds 25 1014 53 10000 5.36 3 01:32 28.06.2022
1302 Clouds 26 1015 56 10000 2.06 330 23:41 27.06.2022
1303 Clouds 26 1015 59 10000 1.54 0 22:52 27.06.2022
1304 Clouds 26 1015 59 10000 3.09 340 21:38 27.06.2022
1305 Clouds 27 1014 58 10000 4.02 17 20:52 27.06.2022
1306 Clouds 28 1014 51 10000 4.63 10 19:36 27.06.2022
1307 Clouds 30 1013 45 10000 6.17 10 18:26 27.06.2022
1308 Clouds 32 1013 41 10000 5.14 10 16:27 27.06.2022
1309 Clouds 32 1014 43 10000 5.14 360 15:23 27.06.2022
1310 Clouds 31 1014 44 10000 4.92 327 13:39 27.06.2022
1311 Clouds 31 1014 45 10000 3.09 20 12:56 27.06.2022
1312 Clouds 30 1016 42 10000 4.12 360 10:35 27.06.2022
1313 Clear 29 1016 44 10000 4.47 108 09:21 27.06.2022
1314 Clear 28 1016 49 10000 4.47 76 08:30 27.06.2022
1315 Clear 27 1016 51 10000 3.13 47 07:38 27.06.2022
1316 Clear 25 1014 56 10000 2.24 62 03:58 27.06.2022
1317 Clear 25 1015 66 10000 3.58 5 01:18 27.06.2022
1318 Clouds 26 1015 64 10000 3.13 33 22:22 26.06.2022
1319 Clouds 26 1014 64 10000 5.14 180 20:53 26.06.2022
1320 Clear 27 1013 59 10000 5.14 180 19:44 26.06.2022
1321 Clear 30 1013 48 10000 4.12 360 18:32 26.06.2022
1322 Clouds 32 1013 36 10000 6.69 10 17:22 26.06.2022
1323 Clouds 34 1012 34 10000 6.17 360 15:31 26.06.2022
1324 Clouds 33 1012 37 10000 5.14 360 13:55 26.06.2022
1325 Clouds 33 1012 38 10000 7.72 360 13:23 26.06.2022
1326 Clear 33 1013 33 10000 6.17 340 11:27 26.06.2022
1327 Clear 33 1013 34 10000 5.81 355 10:28 26.06.2022
1328 Clear 33 1013 33 10000 5.14 340 10:28 26.06.2022
1329 Clear 32 1013 36 10000 6.17 330 09:39 26.06.2022
1330 Clear 29 1012 51 10000 3.09 330 07:46 26.06.2022
1331 Clear 26 1011 66 10000 1.54 0 03:19 26.06.2022
1332 Clouds 26 1011 65 10000 2.68 215 00:36 26.06.2022
1333 Clouds 26 1012 64 10000 3.13 200 00:18 26.06.2022
1334 Clouds 26 1012 62 10000 2.68 240 23:24 25.06.2022
1335 Clouds 26 1012 59 10000 3.13 250 22:28 25.06.2022
1336 Clouds 27 1012 55 8000 4.02 217 21:50 25.06.2022
1337 Clouds 27 1013 49 10000 1.79 102 21:20 25.06.2022
1338 Clear 28 1013 45 10000 1.79 284 20:30 25.06.2022
1339 Clear 28 1012 44 10000 2.24 269 19:55 25.06.2022
1340 Clear 28 1012 43 10000 1.79 274 19:55 25.06.2022
1341 Clear 28 1012 43 10000 1.79 274 19:55 25.06.2022
1342 Clear 31 1012 35 10000 5.14 190 18:21 25.06.2022
1343 Clear 30 1012 36 10000 6.17 180 17:25 25.06.2022
1344 Clear 32 1012 34 10000 6.17 180 16:24 25.06.2022
1345 Clear 32 1013 37 10000 6.17 180 14:28 25.06.2022
1346 Clear 31 1013 41 10000 5.14 180 12:43 25.06.2022
1347 Clear 31 1014 43 10000 3.6 170 11:34 25.06.2022
1348 Clear 29 1014 49 10000 3.58 217 09:24 25.06.2022
1349 Clear 29 1014 49 10000 2.24 209 08:48 25.06.2022
1350 Clear 28 1014 51 10000 1.34 212 08:20 25.06.2022
1351 Clear 24 1014 59 10000 1.54 350 06:26 25.06.2022
1352 Clear 25 1014 53 10000 1.34 78 00:44 25.06.2022
1353 Clear 25 1014 52 10000 2.68 38 23:32 24.06.2022
1354 Clear 26 1014 51 10000 4.92 344 21:59 24.06.2022
1355 Clear 27 1014 47 10000 2.24 84 21:21 24.06.2022
1356 Clear 27 1013 45 10000 3.13 84 20:22 24.06.2022
1357 Clear 29 1013 44 10000 5.14 360 19:24 24.06.2022
1358 Clouds 29 1013 43 10000 5.14 360 18:50 24.06.2022
1359 Clouds 29 1013 44 10000 6.17 360 18:31 24.06.2022
1360 Clouds 30 1012 42 10000 6.26 117 17:46 24.06.2022
1361 Clouds 31 1012 42 10000 5.66 360 16:32 24.06.2022
1362 Clouds 30 1012 44 10000 11.32 60 14:29 24.06.2022
1363 Clear 30 1012 42 10000 6.71 126 13:55 24.06.2022
1364 Clouds 32 1011 43 10000 5.81 58 12:28 24.06.2022
1365 Clouds 32 1011 43 10000 4.12 20 11:40 24.06.2022
1366 Clear 31 1011 46 10000 4.12 330 10:26 24.06.2022
1367 Clouds 30 1011 47 10000 4.02 92 09:41 24.06.2022
1368 Clouds 29 1011 49 10000 6.26 59 08:53 24.06.2022
1369 Clear 28 1012 51 10000 4.12 350 07:33 24.06.2022
1370 Clouds 27 1011 52 10000 5.81 67 06:42 24.06.2022
1371 Clear 26 1012 54 10000 4.92 80 06:18 24.06.2022
1372 Clouds 26 1008 58 10000 3.58 0 03:33 24.06.2022
1373 Clouds 30 1009 48 10000 1.79 141 22:59 23.06.2022
1374 Clouds 30 1009 48 10000 2.68 192 22:40 23.06.2022
1375 Clouds 30 1009 44 10000 2.06 120 20:58 23.06.2022
1376 Clouds 31 1009 42 10000 2.06 120 20:35 23.06.2022
1377 Clouds 31 1010 40 10000 3.13 114 19:34 23.06.2022
1378 Clouds 34 1009 35 10000 4.02 166 17:53 23.06.2022
1379 Clouds 34 1009 35 10000 4.92 274 17:23 23.06.2022
1380 Clouds 35 1010 35 10000 4.92 207 15:50 23.06.2022
1381 Clouds 35 1009 35 10000 4.12 180 15:24 23.06.2022
1382 Clouds 37 1010 31 10000 4.63 190 13:40 23.06.2022
1383 Clear 36 1011 36 10000 3.6 200 11:27 23.06.2022
1384 Clear 35 1011 38 10000 4.02 227 10:37 23.06.2022
1385 Clear 34 1011 39 10000 3.6 180 09:18 23.06.2022
1386 Clear 27 1010 56 10000 0.45 225 03:39 23.06.2022
1387 Clear 29 1010 53 10000 2.24 239 00:26 23.06.2022
1388 Clear 29 1010 51 10000 2.24 250 23:41 22.06.2022
1389 Clear 29 1010 50 10000 3.58 203 22:41 22.06.2022
1390 Clear 30 1010 46 10000 1.54 0 21:22 22.06.2022
1391 Clear 30 1010 41 10000 1.79 275 20:45 22.06.2022
1392 Clear 31 1010 40 10000 2.24 134 19:58 22.06.2022
1393 Clear 32 1010 37 10000 4.92 157 18:49 22.06.2022
1394 Clouds 34 1009 38 10000 4.92 265 17:28 22.06.2022
1395 Clouds 34 1010 40 10000 4.92 261 16:33 22.06.2022
1396 Clouds 35 1010 37 10000 4.63 200 15:27 22.06.2022
1397 Clouds 35 1010 36 10000 4.12 200 14:31 22.06.2022
1398 Clouds 35 1011 37 10000 4.63 200 13:44 22.06.2022
1399 Clouds 35 1010 36 10000 4.63 200 13:23 22.06.2022
1400 Clouds 35 1011 36 10000 3.6 200 11:50 22.06.2022
1401 Clear 35 1010 38 10000 3.09 190 10:58 22.06.2022
1402 Clear 34 1011 40 10000 2.06 170 10:20 22.06.2022
1403 Clear 32 1011 44 10000 1.34 238 08:48 22.06.2022
1404 Clear 25 1010 61 10000 0.89 27 05:59 22.06.2022
1405 Clear 26 1010 52 10000 0.89 246 01:49 22.06.2022
1406 Clear 26 1010 51 10000 1.34 103 00:39 22.06.2022
1407 Clear 27 1011 47 10000 0.89 337 22:37 21.06.2022
1408 Clear 28 1011 47 10000 1.34 241 20:39 21.06.2022
1409 Clouds 30 1010 43 10000 5.14 200 18:53 21.06.2022
1410 Clear 31 1010 42 10000 5.66 170 17:42 21.06.2022
1411 Clouds 34 1010 34 10000 2.68 221 15:21 21.06.2022
1412 Clouds 32 1011 38 10000 4.47 285 11:55 21.06.2022
1413 Clear 31 1011 42 10000 4.02 266 10:27 21.06.2022
1414 Clear 28 1011 51 10000 3.58 278 08:51 21.06.2022
1415 Clear 26 1011 58 10000 2.68 230 07:35 21.06.2022
1416 Clouds 22 1011 66 10000 1.79 203 04:40 21.06.2022
1417 Clouds 23 1012 51 10000 0.89 327 23:27 20.06.2022
1418 Clouds 24 1013 49 10000 3.13 252 21:59 20.06.2022
1419 Clouds 24 1013 48 10000 2.24 225 21:32 20.06.2022
1420 Clouds 24 1012 48 10000 3.13 245 20:25 20.06.2022
1421 Clouds 26 1013 44 10000 5.66 180 18:56 20.06.2022
1422 Clouds 27 1012 47 10000 6.17 170 18:24 20.06.2022
1423 Clouds 27 1011 45 10000 6.17 180 17:41 20.06.2022
1424 Clouds 29 1012 37 10000 4.02 247 16:21 20.06.2022
1425 Clouds 29 1013 36 10000 5.14 360 14:36 20.06.2022
1426 Clouds 29 1013 36 10000 5.66 10 11:47 20.06.2022
1427 Clouds 27 1013 38 10000 4.63 350 09:55 20.06.2022
1428 Clouds 26 1013 42 10000 4.63 340 08:45 20.06.2022
1429 Clear 25 1013 47 10000 4.47 314 07:36 20.06.2022
1430 Clear 22 1013 56 10000 3.58 299 04:30 20.06.2022
1431 Clear 23 1014 51 10000 3.13 308 01:32 20.06.2022
1432 Clear 23 1015 49 10000 3.13 299 23:48 19.06.2022
1433 Clear 24 1015 46 10000 3.58 297 22:20 19.06.2022
1434 Clear 24 1015 47 10000 2.68 10 21:42 19.06.2022
1435 Clear 24 1015 46 10000 4.02 16 20:49 19.06.2022
1436 Clouds 25 1015 43 10000 4.63 350 19:49 19.06.2022
1437 Clouds 26 1015 42 10000 5.14 350 19:25 19.06.2022
1438 Clouds 27 1015 40 10000 6.17 350 18:32 19.06.2022
1439 Clouds 27 1014 39 10000 6.26 337 17:43 19.06.2022
1440 Clouds 27 1014 38 10000 6.26 337 17:20 19.06.2022
1441 Clouds 28 1015 37 10000 7.72 350 16:28 19.06.2022
1442 Clouds 28 1015 36 10000 6.71 84 15:35 19.06.2022
1443 Clouds 28 1015 35 10000 8.75 350 14:42 19.06.2022
1444 Clouds 28 1015 35 10000 7.72 340 13:52 19.06.2022
1445 Clouds 27 1015 38 10000 8.23 350 12:22 19.06.2022
1446 Clouds 26 1015 43 10000 9.39 27 10:53 19.06.2022
1447 Clouds 25 1016 48 10000 7.2 350 09:31 19.06.2022
1448 Clouds 25 1015 50 10000 6.69 330 08:32 19.06.2022
1449 Clouds 24 1015 54 10000 5.14 330 07:30 19.06.2022
1450 Clouds 22 1014 64 10000 8.94 334 04:27 19.06.2022
1451 Clouds 23 1015 60 10000 4.02 44 01:28 19.06.2022
1452 Clouds 23 1015 61 10000 3.6 350 00:23 19.06.2022
1453 Clouds 24 1014 61 10000 8.05 9 23:35 18.06.2022
1454 Clouds 24 1015 59 10000 4.12 350 22:33 18.06.2022
1455 Clouds 25 1014 53 10000 5.14 350 20:55 18.06.2022
1456 Clouds 25 1014 52 10000 6.17 340 20:26 18.06.2022
1457 Clouds 26 1014 45 10000 6.69 360 19:25 18.06.2022
1458 Clouds 27 1013 40 10000 7.72 360 18:44 18.06.2022
1459 Clouds 29 1013 34 10000 7.2 350 17:30 18.06.2022
1460 Clouds 29 1013 34 10000 7.2 350 17:30 18.06.2022
1461 Clouds 28 1013 34 10000 7.2 350 17:30 18.06.2022
1462 Clouds 29 1013 37 10000 8.05 5 16:23 18.06.2022
1463 Clouds 29 1013 38 10000 8.23 10 15:18 18.06.2022
1464 Clouds 29 1013 39 10000 7.2 360 14:42 18.06.2022
1465 Clouds 29 1013 42 10000 6.69 360 12:51 18.06.2022
1466 Clouds 28 1013 44 10000 7.72 360 11:31 18.06.2022
1467 Clouds 28 1013 47 10000 5.66 350 10:25 18.06.2022
1468 Clouds 27 1013 49 10000 5.66 320 09:19 18.06.2022
1469 Clear 26 1013 49 10000 7.2 330 08:18 18.06.2022
1470 Clear 23 1013 55 10000 4.02 298 06:26 18.06.2022
1471 Clear 23 1014 43 10000 2.06 290 02:54 18.06.2022
1472 Clear 23 1014 40 10000 1.79 48 01:24 18.06.2022
1473 Clear 24 1014 39 10000 1.54 0 00:42 18.06.2022
1474 Clear 24 1014 46 10000 0.89 20 23:45 17.06.2022
1475 Clear 24 1014 47 10000 1.34 251 22:56 17.06.2022
1476 Clear 26 1014 49 10000 2.57 170 20:42 17.06.2022
1477 Clear 27 1014 40 10000 3.58 70 19:29 17.06.2022
1478 Clear 29 1013 36 10000 4.92 89 18:34 17.06.2022
1479 Clear 30 1013 34 10000 5.66 360 17:34 17.06.2022
1480 Clouds 31 1014 34 10000 5.36 342 16:42 17.06.2022
1481 Clouds 31 1015 34 10000 5.14 350 15:42 17.06.2022
1482 Clouds 30 1015 36 10000 5.66 360 14:50 17.06.2022
1483 Clouds 30 1015 36 10000 5.14 10 14:19 17.06.2022
1484 Clouds 31 1015 36 10000 7.6 34 13:44 17.06.2022
1485 Clouds 30 1015 37 10000 5.14 20 12:45 17.06.2022
1486 Clear 30 1016 39 10000 4.12 340 11:56 17.06.2022
1487 Clear 30 1016 37 10000 4.92 353 11:35 17.06.2022
1488 Clear 29 1016 36 10000 5.66 360 10:48 17.06.2022
1489 Clouds 26 1015 42 10000 4.47 18 08:29 17.06.2022
1490 Clouds 24 1015 47 10000 1.54 0 06:58 17.06.2022
1491 Clouds 23 1016 52 10000 2.06 290 05:35 17.06.2022
1492 Clouds 23 1017 47 10000 1.34 28 02:42 17.06.2022
1493 Clouds 24 1016 43 10000 3.09 330 00:36 17.06.2022
1494 Clouds 24 1017 43 10000 2.57 330 22:44 16.06.2022
1495 Clouds 25 1016 40 10000 3.6 330 21:36 16.06.2022
1496 Clouds 25 1016 39 10000 3.6 330 21:18 16.06.2022
1497 Clouds 26 1016 36 10000 4.12 350 20:36 16.06.2022
1498 Clouds 27 1016 35 10000 4.63 360 19:55 16.06.2022
1499 Clear 28 1016 31 10000 6.71 76 18:30 16.06.2022
1500 Clouds 29 1015 30 10000 6.17 360 17:43 16.06.2022
1501 Clouds 30 1015 31 10000 5.81 71 16:40 16.06.2022
1502 Clouds 31 1016 30 10000 7.15 86 15:24 16.06.2022
1503 Clouds 31 1015 30 10000 6.71 119 14:56 16.06.2022
1504 Clouds 30 1016 31 10000 6.17 360 13:45 16.06.2022
1505 Clouds 30 1016 34 10000 6.26 86 12:37 16.06.2022
1506 Clouds 29 1016 35 10000 6.26 5 11:53 16.06.2022
1507 Clouds 29 1017 37 10000 6.26 360 11:18 16.06.2022
1508 Clouds 28 1016 38 10000 6.71 32 10:33 16.06.2022
1509 Clouds 27 1016 44 10000 4.92 315 09:25 16.06.2022
1510 Clouds 27 1016 45 10000 5.36 332 08:46 16.06.2022
1511 Clouds 25 1016 52 10000 3.13 355 07:29 16.06.2022
1512 Clear 24 1016 61 10000 4.02 32 05:31 16.06.2022
1513 Clear 24 1016 57 10000 2.57 350 02:52 16.06.2022
1514 Clear 24 1015 58 10000 6.71 3 01:51 16.06.2022
1515 Clear 24 1016 54 10000 3.58 84 01:21 16.06.2022
1516 Clear 24 1016 54 10000 3.13 59 01:21 16.06.2022
1517 Clear 25 1016 50 10000 3.13 355 23:49 15.06.2022
1518 Clouds 25 1016 50 10000 4.92 26 22:44 15.06.2022
1519 Clouds 26 1016 46 10000 4.47 45 21:23 15.06.2022
1520 Clouds 26 1016 47 10000 4.92 99 20:56 15.06.2022
1521 Clouds 26 1016 47 10000 4.02 55 20:35 15.06.2022
1522 Clouds 27 1015 47 10000 5.81 70 19:46 15.06.2022
1523 Clouds 29 1015 45 10000 5.36 102 18:29 15.06.2022
1524 Clouds 29 1015 45 10000 3.13 63 17:42 15.06.2022
1525 Clear 29 1015 45 10000 5.81 68 15:51 15.06.2022
1526 Clouds 30 1015 43 10000 4.02 10 14:33 15.06.2022
1527 Clouds 31 1016 42 10000 4.92 72 13:20 15.06.2022
1528 Clouds 30 1016 43 10000 5.81 16 12:33 15.06.2022
1529 Clouds 29 1016 46 10000 7.2 350 10:53 15.06.2022
1530 Clouds 29 1016 47 10000 5.36 10 10:20 15.06.2022
1531 Clouds 28 1016 50 10000 4.47 343 08:57 15.06.2022
1532 Clouds 26 1014 53 10000 3.6 350 07:32 15.06.2022
1533 Clouds 24 1015 60 10000 3.09 360 05:24 15.06.2022
1534 Clear 25 1014 55 10000 1.54 0 02:31 15.06.2022
1535 Clear 25 1015 54 10000 2.57 330 01:33 15.06.2022
1536 Clear 26 1014 49 10000 1.54 0 23:55 14.06.2022
1537 Clear 26 1014 49 10000 4.02 97 23:37 14.06.2022
1538 Clouds 26 1014 45 10000 1.54 0 22:33 14.06.2022
1539 Clouds 27 1014 44 10000 1.34 76 21:42 14.06.2022
1540 Clouds 27 1013 44 10000 2.24 320 20:58 14.06.2022
1541 Clouds 28 1013 44 10000 1.54 0 20:36 14.06.2022
1542 Clouds 29 1012 42 10000 4.12 360 19:32 14.06.2022
1543 Clouds 29 1012 44 10000 4.92 5 18:33 14.06.2022
1544 Clouds 31 1011 37 10000 4.92 5 16:50 14.06.2022
1545 Clouds 31 1011 35 10000 4.12 360 16:25 14.06.2022
1546 Clouds 32 1011 33 10000 5.36 86 15:34 14.06.2022
1547 Clouds 32 1012 33 10000 4.12 10 14:53 14.06.2022
1548 Clouds 32 1012 34 10000 7.15 102 13:53 14.06.2022
1549 Clouds 31 1013 37 10000 5.14 10 12:58 14.06.2022
1550 Clouds 30 1013 40 10000 6.26 338 11:54 14.06.2022
1551 Clouds 30 1013 43 10000 5.36 19 10:51 14.06.2022
1552 Clouds 29 1013 45 10000 6.17 360 10:25 14.06.2022
1553 Clouds 29 1013 44 10000 6.17 360 10:25 14.06.2022
1554 Clouds 28 1012 50 10000 4.47 51 08:52 14.06.2022
1555 Clouds 28 1012 51 10000 5.14 350 08:23 14.06.2022
1556 Clouds 25 1012 55 10000 3.13 52 06:19 14.06.2022
1557 Clouds 24 1011 57 10000 4.92 11 03:39 14.06.2022
1558 Clouds 25 1010 50 10000 6.71 352 01:36 14.06.2022
1559 Clouds 25 1011 47 10000 2.06 320 00:21 14.06.2022
1560 Clouds 26 1011 47 10000 6.26 351 22:39 13.06.2022
1561 Clouds 26 1011 44 10000 1.03 0 22:19 13.06.2022
1562 Clouds 26 1010 46 10000 2.57 320 21:24 13.06.2022
1563 Clouds 28 1010 40 10000 2.24 42 19:48 13.06.2022
1564 Clouds 29 1009 37 10000 6.17 350 18:54 13.06.2022
1565 Clouds 30 1009 37 10000 6.17 360 17:55 13.06.2022
1566 Clouds 30 1009 37 10000 6.17 360 17:23 13.06.2022
1567 Clouds 30 1009 38 10000 7.72 360 16:30 13.06.2022
1568 Clouds 30 1010 37 10000 7.72 360 14:48 13.06.2022
1569 Clouds 30 1010 39 10000 8.23 360 14:23 13.06.2022
1570 Clouds 29 1010 41 10000 6.17 360 13:31 13.06.2022
1571 Clouds 29 1011 45 10000 7.2 360 12:22 13.06.2022
1572 Clouds 27 1011 51 10000 5.14 340 10:37 13.06.2022
1573 Clouds 26 1011 55 10000 3.58 9 09:54 13.06.2022
1574 Clouds 25 1011 59 10000 4.12 350 08:40 13.06.2022
1575 Clouds 23 1010 71 10000 3.13 74 06:36 13.06.2022
1576 Clouds 22 1009 73 10000 3.09 330 04:43 13.06.2022
1577 Clouds 23 1009 74 10000 8.05 325 01:45 13.06.2022
1578 Clouds 23 1009 72 10000 7.6 332 01:18 13.06.2022
1579 Clouds 24 1009 68 10000 6.71 315 23:43 12.06.2022
1580 Clouds 24 1010 65 10000 6.71 313 22:39 12.06.2022
1581 Clouds 24 1010 65 10000 8.05 314 21:46 12.06.2022
1582 Clouds 24 1010 59 10000 7.15 337 20:53 12.06.2022
1583 Clouds 25 1010 57 10000 3.6 360 19:58 12.06.2022
1584 Clouds 26 1009 55 10000 4.12 330 19:25 12.06.2022
1585 Clouds 27 1009 50 10000 5.66 360 17:36 12.06.2022
1586 Clouds 28 1009 46 10000 6.26 257 15:54 12.06.2022
1587 Clouds 28 1009 46 10000 7.2 350 14:51 12.06.2022
1588 Clouds 28 1009 46 10000 6.26 329 14:19 12.06.2022
1589 Clouds 28 1009 46 10000 6.71 16 13:46 12.06.2022
1590 Clouds 27 1009 50 10000 6.17 350 12:31 12.06.2022
1591 Clouds 27 1009 49 10000 8.05 20 11:19 12.06.2022
1592 Clouds 26 1009 52 10000 7.15 334 10:21 12.06.2022
1593 Clouds 26 1009 55 10000 5.14 10 08:52 12.06.2022
1594 Clouds 25 1009 56 10000 5.14 10 08:33 12.06.2022
1595 Clouds 22 1009 69 10000 4.47 345 06:49 12.06.2022
1596 Clouds 21 1008 72 10000 2.57 280 04:35 12.06.2022
1597 Clouds 22 1009 71 10000 1.79 357 02:32 12.06.2022
1598 Clouds 22 1009 70 10000 2.24 322 01:36 12.06.2022
1599 Clouds 22 1009 70 10000 4.47 310 00:57 12.06.2022
1600 Clouds 22 1009 69 10000 2.68 327 00:19 12.06.2022
1601 Clouds 22 1009 69 10000 3.13 307 00:19 12.06.2022
1602 Clouds 22 1009 67 10000 1.79 311 23:21 11.06.2022
1603 Clouds 23 1009 66 10000 3.58 345 22:38 11.06.2022
1604 Clouds 23 1009 64 10000 2.24 346 21:36 11.06.2022
1605 Clouds 23 1008 67 10000 4.47 4 20:33 11.06.2022
1606 Clouds 24 1007 66 10000 4.92 355 19:39 11.06.2022
1607 Clouds 25 1007 63 10000 6.26 338 18:50 11.06.2022
1608 Clouds 25 1007 55 10000 3.09 350 18:32 11.06.2022
1609 Clouds 27 1007 51 10000 4.12 350 17:49 11.06.2022
1610 Clouds 26 1006 54 10000 4.12 350 17:26 11.06.2022
1611 Clouds 27 1006 54 10000 4.12 350 16:50 11.06.2022
1612 Clouds 26 1006 60 10000 4.02 302 16:26 11.06.2022
1613 Clouds 24 1005 64 10000 3.09 20 15:27 11.06.2022
1614 Clouds 23 1005 74 10000 4.92 310 13:53 11.06.2022
1615 Clouds 25 1006 63 10000 5.14 360 12:25 11.06.2022
1616 Clouds 26 1006 58 10000 4.12 310 10:46 11.06.2022
1617 Clouds 25 1005 62 10000 4.47 216 09:43 11.06.2022
1618 Clouds 24 1006 64 10000 5.36 215 08:46 11.06.2022
1619 Clouds 22 1005 72 10000 3.09 340 06:47 11.06.2022
1620 Clouds 22 1005 75 10000 2.68 13 06:24 11.06.2022
1621 Clouds 22 1005 73 10000 2.57 320 03:46 11.06.2022
1622 Clouds 23 1005 77 10000 2.68 76 01:52 11.06.2022
1623 Clouds 22 1005 78 10000 3.6 350 01:26 11.06.2022
1624 Clouds 23 1005 71 10000 2.06 20 23:29 10.06.2022
1625 Clouds 24 1005 71 10000 1.54 0 22:29 10.06.2022
1626 Clouds 24 1005 72 10000 2.68 127 21:50 10.06.2022
1627 Clouds 24 1005 73 10000 3.58 126 20:39 10.06.2022
1628 Clouds 24 1004 72 10000 5.36 153 20:21 10.06.2022
1629 Clouds 25 1004 74 10000 4.92 137 19:19 10.06.2022
1630 Clouds 25 1004 72 10000 6.26 213 18:55 10.06.2022
1631 Clouds 26 1004 66 10000 7.6 142 17:55 10.06.2022
1632 Clouds 27 1004 68 10000 8.05 164 17:32 10.06.2022
1633 Clouds 27 1004 67 10000 8.94 234 16:36 10.06.2022
1634 Clouds 28 1004 61 10000 9.77 160 15:40 10.06.2022
1635 Clouds 27 1005 62 10000 10.8 190 14:34 10.06.2022
1636 Clouds 27 1005 63 10000 8.49 188 13:23 10.06.2022
1637 Clouds 28 1006 61 10000 6.17 150 11:59 10.06.2022
1638 Clouds 27 1006 64 10000 5.36 191 10:59 10.06.2022
1639 Clouds 26 1005 68 10000 4.47 231 10:35 10.06.2022
1640 Clouds 25 1005 74 10000 4.02 144 09:21 10.06.2022
1641 Clouds 25 1005 71 10000 3.58 132 07:51 10.06.2022
1642 Clouds 24 1004 71 10000 1.79 117 06:47 10.06.2022
1643 Clouds 24 1004 72 10000 1.34 179 06:28 10.06.2022
1644 Clouds 24 1004 71 10000 1.34 115 04:55 10.06.2022
1645 Clouds 25 1005 67 10000 1.34 182 02:31 10.06.2022
1646 Clouds 25 1005 67 10000 0.89 253 01:37 10.06.2022
1647 Clouds 25 1005 67 10000 3.13 188 23:58 09.06.2022
1648 Clouds 25 1006 69 10000 2.24 262 22:43 09.06.2022
1649 Clouds 26 1005 68 10000 1.79 146 21:43 09.06.2022
1650 Clouds 26 1005 68 10000 1.79 230 21:24 09.06.2022
1651 Clouds 26 1005 65 10000 3.13 138 20:38 09.06.2022
1652 Clouds 27 1005 60 10000 2.24 308 19:46 09.06.2022
1653 Clouds 28 1005 56 10000 4.02 256 18:41 09.06.2022
1654 Clouds 29 1005 51 10000 3.58 255 17:33 09.06.2022
1655 Clouds 29 1005 49 10000 4.63 160 16:28 09.06.2022
1656 Clouds 28 1006 51 10000 7.72 180 15:22 09.06.2022
1657 Clouds 29 1006 45 10000 6.69 180 14:30 09.06.2022
1658 Clouds 29 1007 46 10000 6.17 180 13:44 09.06.2022
1659 Clouds 29 1007 46 10000 5.14 170 13:19 09.06.2022
1660 Clouds 29 1008 49 10000 4.92 279 11:35 09.06.2022
1661 Clouds 28 1008 51 10000 2.06 170 09:56 09.06.2022
1662 Clouds 27 1008 53 10000 2.24 209 09:38 09.06.2022
1663 Clouds 27 1008 56 10000 1.79 265 09:20 09.06.2022
1664 Clouds 24 1008 69 10000 1.03 0 07:29 09.06.2022
1665 Clouds 21 1008 71 10000 0.89 225 04:30 09.06.2022
1666 Clouds 23 1009 50 10000 1.79 150 00:35 09.06.2022
1667 Clouds 24 1009 48 10000 1.34 171 23:23 08.06.2022
1668 Clouds 24 1009 49 10000 1.34 267 22:44 08.06.2022
1669 Clouds 24 1009 46 10000 1.79 150 22:24 08.06.2022
1670 Clouds 24 1009 44 10000 1.79 270 21:40 08.06.2022
1671 Clouds 25 1009 43 10000 2.68 281 20:25 08.06.2022
1672 Clouds 25 1009 41 10000 3.6 190 19:42 08.06.2022
1673 Clouds 26 1008 40 10000 4.63 180 18:48 08.06.2022
1674 Clouds 27 1009 41 10000 5.14 180 17:46 08.06.2022
1675 Clouds 28 1009 41 10000 7.2 180 15:56 08.06.2022
1676 Clouds 29 1009 43 10000 7.2 180 14:44 08.06.2022
1677 Clouds 29 1009 43 10000 5.14 180 12:55 08.06.2022
1678 Clouds 29 1009 43 10000 5.14 180 12:55 08.06.2022
1679 Clouds 29 1009 44 10000 5.14 180 12:55 08.06.2022
1680 Clouds 29 1009 43 10000 5.14 180 12:55 08.06.2022
1681 Clouds 29 1010 42 10000 4.12 180 11:41 08.06.2022
1682 Clouds 28 1010 44 10000 4.02 279 11:19 08.06.2022
1683 Clouds 27 1010 43 10000 2.06 160 09:30 08.06.2022
1684 Clouds 27 1010 45 10000 2.06 180 08:55 08.06.2022
1685 Clouds 24 1009 51 10000 0.45 147 07:22 08.06.2022
1686 Clouds 22 1009 56 10000 1.34 13 04:49 08.06.2022
1687 Clouds 22 1010 57 10000 0.89 80 01:27 08.06.2022
1688 Clouds 23 1010 56 10000 0.89 68 23:41 07.06.2022
1689 Clouds 23 1011 56 10000 1.34 61 23:22 07.06.2022
1690 Clouds 23 1010 58 10000 1.79 56 22:38 07.06.2022
1691 Clouds 24 1010 57 10000 4.02 36 21:41 07.06.2022
1692 Clouds 24 1010 55 10000 4.47 56 21:23 07.06.2022
1693 Clouds 25 1010 50 10000 3.58 60 20:42 07.06.2022
1694 Clouds 25 1010 46 10000 2.68 78 19:58 07.06.2022
1695 Clouds 27 1009 41 10000 4.47 360 18:42 07.06.2022
1696 Clouds 27 1009 42 10000 4.47 360 17:51 07.06.2022
1697 Clouds 27 1010 42 10000 4.92 36 16:49 07.06.2022
1698 Clouds 27 1010 42 10000 4.47 360 16:31 07.06.2022
1699 Clouds 28 1010 42 10000 6.71 65 15:40 07.06.2022
1700 Clouds 28 1010 42 10000 6.71 119 15:21 07.06.2022
1701 Clouds 28 1010 45 10000 6.71 49 14:45 07.06.2022
1702 Clouds 28 1010 48 10000 6.71 67 13:46 07.06.2022
1703 Clouds 28 1011 50 10000 5.36 42 13:26 07.06.2022
1704 Clouds 28 1011 46 10000 4.92 71 11:56 07.06.2022
1705 Clouds 28 1011 47 10000 4.47 63 11:56 07.06.2022
1706 Clouds 28 1012 50 10000 4.92 40 10:57 07.06.2022
1707 Clouds 26 1012 54 10000 5.36 77 09:28 07.06.2022
1708 Clouds 25 1012 58 10000 5.36 59 08:31 07.06.2022
1709 Clouds 24 1012 64 10000 4.02 71 07:19 07.06.2022
1710 Clouds 23 1011 69 10000 3.58 355 05:19 07.06.2022
1711 Clouds 23 1011 74 10000 3.09 330 01:44 07.06.2022
1712 Clouds 25 1012 66 10000 3.09 280 23:59 06.06.2022
1713 Clouds 25 1012 66 10000 3.13 191 22:59 06.06.2022
1714 Clouds 25 1012 65 10000 4.12 330 22:30 06.06.2022
1715 Thunderstorm 24 1011 71 9000 5.36 78 21:33 06.06.2022
1716 Clouds 27 1011 54 10000 7.72 80 19:37 06.06.2022
1717 Clouds 28 1010 54 10000 7.6 69 19:19 06.06.2022
1718 Clouds 29 1010 52 10000 3.58 84 18:34 06.06.2022
1719 Clouds 29 1009 49 10000 5.14 180 17:36 06.06.2022
1720 Clouds 28 1008 45 10000 5.14 180 16:21 06.06.2022
1721 Clouds 28 1008 46 10000 1.79 152 15:33 06.06.2022
1722 Clouds 33 1010 33 10000 3.09 200 14:36 06.06.2022
1723 Clouds 33 1010 39 10000 4.47 269 13:27 06.06.2022
1724 Clouds 34 1010 36 10000 3.58 331 12:37 06.06.2022
1725 Clouds 34 1011 37 10000 6.26 17 11:58 06.06.2022
1726 Clear 34 1012 37 10000 5.36 9 11:28 06.06.2022
1727 Clear 33 1011 40 10000 1.79 224 09:40 06.06.2022
1728 Clear 31 1011 43 10000 1.34 257 08:35 06.06.2022
1729 Clear 29 1011 49 10000 0.45 319 07:28 06.06.2022
1730 Clear 25 1011 57 10000 1.34 360 05:29 06.06.2022
1731 Clear 25 1011 57 10000 1.34 360 05:29 06.06.2022
1732 Clear 25 1011 57 10000 1.34 360 05:29 06.06.2022
1733 Clear 25 1011 58 10000 1.34 45 03:46 06.06.2022
1734 Clear 26 1012 59 10000 1.03 0 01:29 06.06.2022
1735 Clear 26 1012 58 10000 1.03 0 00:42 06.06.2022
1736 Clear 27 1012 56 10000 0.89 294 23:49 05.06.2022
1737 Clear 27 1012 57 10000 2.24 5 22:52 05.06.2022
1738 Clear 27 1012 58 10000 1.79 258 21:26 05.06.2022
1739 Clear 28 1011 57 10000 2.68 207 19:52 05.06.2022
1740 Clear 31 1011 44 10000 5.66 360 18:31 05.06.2022
1741 Clear 32 1011 43 10000 5.66 360 18:31 05.06.2022
1742 Clouds 33 1010 42 10000 5.81 36 17:56 05.06.2022
1743 Clouds 33 1011 39 10000 6.17 10 17:27 05.06.2022
1744 Clouds 34 1011 38 10000 4.63 360 16:58 05.06.2022
1745 Clouds 34 1011 36 10000 4.63 360 16:37 05.06.2022
1746 Clouds 34 1011 36 10000 4.63 360 16:37 05.06.2022
1747 Clouds 35 1012 33 10000 5.14 360 14:46 05.06.2022
1748 Clouds 34 1012 34 10000 4.92 73 13:21 05.06.2022
1749 Clear 33 1012 37 10000 6.17 360 11:51 05.06.2022
1750 Clouds 32 1012 40 10000 5.36 350 10:43 05.06.2022
1751 Clouds 31 1013 40 10000 5.36 33 10:23 05.06.2022
1752 Clear 30 1013 43 10000 5.14 340 08:41 05.06.2022
1753 Clear 30 1013 44 10000 5.14 330 08:20 05.06.2022
1754 Clouds 25 1013 52 10000 2.24 35 05:23 05.06.2022
1755 Clouds 25 1013 51 10000 0.89 325 04:33 05.06.2022
1756 Clouds 27 1013 47 10000 3.09 360 01:45 05.06.2022
1757 Clouds 27 1013 47 10000 3.09 360 01:45 05.06.2022
1758 Clouds 27 1013 47 10000 3.09 360 01:45 05.06.2022
1759 Clouds 27 1013 47 10000 3.09 360 01:45 05.06.2022
1760 Clouds 27 1013 48 10000 3.13 334 01:45 05.06.2022
1761 Clouds 27 1013 48 10000 3.13 334 01:45 05.06.2022
1762 Clouds 27 1013 47 10000 2.68 325 01:23 05.06.2022
1763 Clouds 27 1013 47 10000 2.68 325 01:23 05.06.2022
1764 Clouds 27 1014 44 10000 2.57 340 22:45 04.06.2022
1765 Clouds 28 1014 39 10000 2.57 340 21:21 04.06.2022
1766 Clouds 31 1013 32 10000 4.92 317 18:54 04.06.2022
1767 Clouds 32 1013 33 10000 6.26 52 16:48 04.06.2022
1768 Clouds 32 1013 32 10000 6.71 350 16:19 04.06.2022
1769 Clouds 32 1014 34 10000 6.17 350 15:27 04.06.2022
1770 Clouds 32 1014 35 10000 5.14 360 13:54 04.06.2022
1771 Clouds 31 1015 39 10000 7.15 344 11:28 04.06.2022
1772 Clouds 30 1015 40 10000 9.83 308 10:52 04.06.2022
1773 Clear 30 1015 39 10000 9.39 77 09:46 04.06.2022
1774 Clear 29 1015 39 10000 5.81 360 08:50 04.06.2022
1775 Clear 29 1015 39 10000 4.47 38 08:31 04.06.2022
1776 Clouds 25 1014 45 10000 1.54 0 06:20 04.06.2022
1777 Clouds 26 1013 45 10000 1.03 0 02:57 04.06.2022
1778 Clouds 27 1014 47 10000 2.57 320 00:20 04.06.2022
1779 Clouds 27 1015 45 10000 3.6 340 22:53 03.06.2022
1780 Clouds 28 1014 42 10000 2.57 320 21:46 03.06.2022
1781 Clouds 28 1013 40 10000 3.6 330 20:40 03.06.2022
1782 Clouds 30 1012 36 10000 5.66 350 19:19 03.06.2022
1783 Clouds 31 1013 35 10000 6.71 12 16:54 03.06.2022
1784 Clouds 32 1012 35 10000 8.49 329 15:52 03.06.2022
1785 Clouds 32 1013 37 10000 7.15 19 13:58 03.06.2022
1786 Clouds 31 1012 39 10000 7.6 339 11:54 03.06.2022
1787 Clouds 30 1013 43 10000 10.28 320 09:57 03.06.2022
1788 Clouds 29 1012 45 10000 13.41 315 09:29 03.06.2022
1789 Clear 28 1012 45 10000 7.15 35 07:45 03.06.2022
1790 Clear 27 1012 46 10000 8.94 325 06:59 03.06.2022
1791 Clear 26 1012 46 10000 3.6 350 06:28 03.06.2022
1792 Clear 26 1011 51 10000 5.66 350 03:39 03.06.2022
1793 Clear 27 1011 45 10000 3.6 320 23:52 02.06.2022
1794 Clear 27 1012 42 10000 2.57 10 22:23 02.06.2022
1795 Clear 28 1011 38 10000 2.57 360 20:56 02.06.2022
1796 Clear 29 1011 34 10000 4.92 348 19:56 02.06.2022
1797 Clear 29 1011 33 10000 2.24 27 19:38 02.06.2022
1798 Clear 30 1011 31 10000 4.92 71 18:41 02.06.2022
1799 Clear 32 1011 31 10000 7.2 20 16:28 02.06.2022
1800 Clear 31 1011 33 10000 6.71 30 15:47 02.06.2022
1801 Clear 31 1012 37 10000 7.2 10 13:31 02.06.2022
1802 Clear 30 1012 40 10000 7.6 59 12:49 02.06.2022
1803 Clear 30 1012 44 10000 5.14 360 10:45 02.06.2022
1804 Clear 29 1012 44 10000 5.14 360 09:30 02.06.2022
1805 Clear 28 1012 43 10000 6.26 5 08:45 02.06.2022
1806 Clear 28 1012 44 10000 4.92 32 08:23 02.06.2022
1807 Clear 25 1012 51 10000 2.68 247 06:21 02.06.2022
1808 Clear 25 1011 50 10000 1.34 64 03:50 02.06.2022
1809 Clear 25 1012 47 10000 1.34 42 00:55 02.06.2022
1810 Clear 26 1013 48 10000 1.79 55 22:58 01.06.2022
1811 Clear 26 1013 48 10000 2.24 40 22:18 01.06.2022
1812 Clear 26 1013 49 10000 2.68 71 21:24 01.06.2022
1813 Clear 27 1012 50 10000 1.54 0 20:39 01.06.2022
1814 Clear 27 1011 50 10000 1.54 0 19:52 01.06.2022
1815 Clouds 29 1011 43 10000 3.6 190 18:41 01.06.2022
1816 Clouds 31 1011 40 10000 4.12 200 16:58 01.06.2022
1817 Clouds 32 1011 37 10000 4.63 190 15:56 01.06.2022
1818 Clouds 32 1011 36 10000 5.14 180 14:50 01.06.2022
1819 Clouds 32 1012 34 10000 3.6 190 13:39 01.06.2022
1820 Clouds 31 1013 37 10000 3.58 38 11:24 01.06.2022
1821 Clear 30 1013 40 10000 2.57 310 09:34 01.06.2022
1822 Clear 28 1013 42 10000 2.57 320 08:28 01.06.2022
1823 Clear 26 1013 49 10000 2.68 350 07:20 01.06.2022
1824 Clouds 23 1013 57 10000 1.54 0 04:53 01.06.2022
1825 Clouds 24 1014 59 10000 1.54 0 23:50 31.05.2022
1826 Clouds 25 1014 58 10000 0.89 50 22:43 31.05.2022
1827 Clouds 25 1014 58 10000 1.03 0 22:25 31.05.2022
1828 Clouds 25 1014 57 10000 1.34 0 21:44 31.05.2022
1829 Clouds 25 1013 57 10000 2.24 24 20:44 31.05.2022
1830 Clouds 26 1013 57 10000 3.58 264 19:46 31.05.2022
1831 Clouds 28 1013 48 10000 4.02 246 18:44 31.05.2022
1832 Clouds 29 1012 47 10000 3.6 200 17:49 31.05.2022
1833 Clouds 30 1012 42 10000 4.47 100 16:48 31.05.2022
1834 Clouds 32 1012 38 10000 3.58 233 15:40 31.05.2022
1835 Clouds 31 1013 39 10000 4.63 200 13:37 31.05.2022
1836 Clouds 31 1014 40 10000 4.63 210 12:19 31.05.2022
1837 Clouds 30 1014 43 10000 2.68 195 10:52 31.05.2022
1838 Clear 28 1014 50 10000 2.06 150 08:37 31.05.2022
1839 Clear 24 1014 63 10000 1.34 221 06:52 31.05.2022
1840 Clear 22 1013 69 10000 1.79 68 04:34 31.05.2022
1841 Clear 23 1013 58 10000 1.79 283 23:53 30.05.2022
1842 Clear 23 1013 60 10000 1.54 0 23:25 30.05.2022
1843 Clear 23 1012 58 10000 1.54 0 22:44 30.05.2022
1844 Clear 24 1013 56 10000 1.34 175 21:47 30.05.2022
1845 Clear 24 1012 55 10000 1.54 0 21:29 30.05.2022
1846 Clear 25 1012 56 10000 3.6 190 19:51 30.05.2022
1847 Clouds 26 1011 53 10000 4.63 180 18:34 30.05.2022
1848 Clouds 27 1011 52 10000 5.81 271 17:23 30.05.2022
1849 Clouds 28 1010 51 10000 6.17 170 16:39 30.05.2022
1850 Clouds 29 1011 44 10000 4.63 210 13:44 30.05.2022
1851 Clouds 29 1010 46 10000 4.12 220 12:19 30.05.2022
1852 Clouds 28 1010 48 10000 2.57 310 10:40 30.05.2022
1853 Clear 26 1010 54 10000 1.34 127 09:19 30.05.2022
1854 Clouds 22 1009 67 10000 2.68 282 06:30 30.05.2022
1855 Clouds 21 1008 68 10000 2.24 215 05:47 30.05.2022
1856 Clouds 22 1007 62 10000 3.13 247 01:32 30.05.2022
1857 Clouds 24 1007 55 10000 3.58 265 22:50 29.05.2022
1858 Clouds 24 1007 54 10000 3.58 265 22:31 29.05.2022
1859 Clouds 25 1006 51 10000 2.68 284 20:53 29.05.2022
1860 Clouds 25 1005 49 10000 3.09 350 19:31 29.05.2022
1861 Clouds 27 1005 49 10000 5.36 312 18:37 29.05.2022
1862 Clouds 29 1004 43 10000 4.12 260 17:23 29.05.2022
1863 Clouds 29 1004 44 10000 6.26 172 15:48 29.05.2022
1864 Clouds 30 1004 40 10000 5.81 134 14:57 29.05.2022
1865 Clouds 30 1004 44 10000 5.36 168 13:46 29.05.2022
1866 Clear 29 1005 44 10000 8.49 179 11:41 29.05.2022
1867 Clear 28 1005 43 10000 8.94 142 10:38 29.05.2022
1868 Clear 29 1005 33 10000 4.02 120 08:47 29.05.2022
1869 Clear 23 1006 45 10000 2.06 320 05:54 29.05.2022
1870 Clear 23 1006 41 10000 0.89 133 04:44 29.05.2022
1871 Clear 24 1006 39 10000 1.79 25 03:41 29.05.2022
1872 Clear 25 1007 40 10000 2.06 300 23:49 28.05.2022
1873 Clear 25 1008 37 10000 1.34 107 23:26 28.05.2022
1874 Clear 26 1007 35 10000 1.54 0 22:35 28.05.2022
1875 Clear 26 1008 33 10000 1.79 117 21:38 28.05.2022
1876 Clouds 28 1008 28 10000 2.68 190 19:41 28.05.2022
1877 Clear 29 1007 25 10000 3.6 190 18:50 28.05.2022
1878 Clear 31 1008 27 10000 4.12 210 17:37 28.05.2022
1879 Clear 32 1007 25 10000 4.02 248 16:38 28.05.2022
1880 Clear 32 1008 27 10000 5.14 180 15:43 28.05.2022
1881 Clear 32 1009 28 10000 5.14 170 14:23 28.05.2022
1882 Clear 31 1010 38 10000 4.12 190 12:51 28.05.2022
1883 Clear 31 1010 39 10000 4.92 221 12:33 28.05.2022
1884 Clear 31 1010 43 10000 2.68 262 11:21 28.05.2022
1885 Clear 29 1011 48 10000 2.68 235 09:58 28.05.2022
1886 Clear 28 1011 51 10000 2.24 198 09:21 28.05.2022
1887 Clear 25 1011 63 10000 0.45 223 07:23 28.05.2022
1888 Clear 23 1010 68 10000 0.89 38 05:36 28.05.2022
1889 Clear 23 1011 67 10000 1.34 37 02:44 28.05.2022
1890 Clear 24 1012 65 10000 0.89 0 00:32 28.05.2022
1891 Clear 25 1013 66 10000 0.89 46 23:20 27.05.2022
1892 Clear 25 1014 65 10000 0.89 219 21:46 27.05.2022
1893 Clear 26 1013 65 10000 1.34 269 20:56 27.05.2022
1894 Clear 26 1013 60 10000 1.79 244 20:25 27.05.2022
1895 Clear 26 1013 63 10000 3.13 14 19:42 27.05.2022
1896 Clear 28 1013 54 10000 3.13 19 19:24 27.05.2022
1897 Clear 30 1013 46 10000 4.12 200 17:58 27.05.2022
1898 Clear 31 1014 42 10000 4.12 190 16:39 27.05.2022
1899 Clear 32 1014 36 10000 3.6 200 15:22 27.05.2022
1900 Clear 32 1015 37 10000 4.02 130 14:25 27.05.2022
1901 Clear 32 1015 37 10000 3.6 200 13:18 27.05.2022
1902 Clear 32 1016 37 10000 4.02 34 11:34 27.05.2022
1903 Clear 31 1016 38 10000 3.58 84 10:56 27.05.2022
1904 Clear 30 1016 41 10000 4.02 51 10:31 27.05.2022
1905 Clear 29 1016 45 10000 4.02 92 09:35 27.05.2022
1906 Clear 28 1016 48 10000 1.34 105 07:55 27.05.2022
1907 Clear 23 1015 59 10000 1.34 90 05:44 27.05.2022
1908 Clear 23 1015 56 10000 1.79 46 02:47 27.05.2022
1909 Clear 24 1017 56 10000 1.03 0 00:29 27.05.2022
1910 Clear 25 1017 55 10000 1.34 56 22:43 26.05.2022
1911 Clear 26 1016 54 10000 0.89 31 21:40 26.05.2022
1912 Clear 26 1016 52 10000 0.89 330 20:53 26.05.2022
1913 Clouds 27 1016 50 10000 2.06 250 19:24 26.05.2022
1914 Clouds 27 1016 50 10000 2.06 250 19:24 26.05.2022
1915 Clear 30 1016 44 10000 3.13 269 18:18 26.05.2022
1916 Clouds 31 1015 39 10000 3.6 200 16:42 26.05.2022
1917 Clouds 31 1016 40 10000 3.6 200 15:46 26.05.2022
1918 Clouds 31 1016 39 10000 4.12 200 14:46 26.05.2022
1919 Clear 33 1017 33 10000 4.12 190 12:50 26.05.2022
1920 Clear 32 1017 37 10000 3.13 273 11:29 26.05.2022
1921 Clear 30 1017 41 10000 3.13 261 10:19 26.05.2022
1922 Clear 30 1017 44 10000 2.24 242 09:33 26.05.2022
1923 Clear 27 1017 48 10000 1.34 245 08:35 26.05.2022
1924 Clear 22 1016 63 10000 0.89 76 04:41 26.05.2022
1925 Clear 23 1016 56 10000 1.34 30 00:57 26.05.2022
1926 Clear 24 1017 53 10000 0.89 236 23:40 25.05.2022
1927 Clear 25 1017 49 10000 0.89 289 22:22 25.05.2022
1928 Clear 25 1016 49 10000 2.24 178 21:33 25.05.2022
1929 Clear 26 1016 48 10000 1.03 0 20:38 25.05.2022
1930 Clouds 27 1015 46 10000 2.24 250 19:31 25.05.2022
1931 Clear 29 1015 44 10000 3.58 261 17:46 25.05.2022
1932 Clear 30 1015 42 10000 3.58 186 16:40 25.05.2022
1933 Clear 31 1015 37 10000 3.58 229 15:57 25.05.2022
1934 Clear 31 1015 38 10000 4.63 200 14:55 25.05.2022
1935 Clear 31 1015 39 10000 4.63 200 14:33 25.05.2022
1936 Clear 31 1015 40 10000 3.13 269 13:56 25.05.2022
1937 Clear 31 1015 39 10000 4.47 153 12:45 25.05.2022
1938 Clear 30 1016 39 10000 2.24 212 10:58 25.05.2022
1939 Clear 30 1016 40 10000 1.54 0 10:20 25.05.2022
1940 Clear 27 1014 47 10000 0.89 265 08:41 25.05.2022
1941 Clear 24 1014 57 10000 1.79 288 07:23 25.05.2022
1942 Clear 21 1013 66 10000 0.89 79 05:18 25.05.2022
1943 Clear 23 1013 62 10000 0.89 180 00:28 25.05.2022
1944 Clear 23 1013 61 10000 1.34 215 23:47 24.05.2022
1945 Clear 24 1012 58 10000 0.45 360 22:52 24.05.2022
1946 Clear 24 1013 56 10000 0.89 277 21:46 24.05.2022
1947 Clear 24 1012 56 10000 1.34 259 21:21 24.05.2022
1948 Clear 25 1011 54 10000 1.34 272 20:38 24.05.2022
1949 Clear 27 1010 49 10000 3.13 259 18:57 24.05.2022
1950 Clear 28 1010 46 10000 4.92 255 17:19 24.05.2022
1951 Clouds 29 1010 44 10000 5.14 200 16:29 24.05.2022
1952 Clouds 29 1010 45 10000 5.14 180 15:27 24.05.2022
1953 Clouds 30 1010 43 10000 5.14 180 14:36 24.05.2022
1954 Clouds 30 1010 42 10000 4.12 180 13:34 24.05.2022
1955 Clear 30 1010 42 10000 4.47 238 12:18 24.05.2022
1956 Clear 28 1010 48 10000 2.06 180 09:50 24.05.2022
1957 Clear 26 1010 53 10000 1.34 142 08:51 24.05.2022
1958 Clear 23 1010 58 10000 1.34 144 07:32 24.05.2022
1959 Clouds 22 1009 63 10000 0.89 260 06:27 24.05.2022
1960 Clouds 22 1009 62 10000 2.24 208 03:32 24.05.2022
1961 Clouds 22 1009 56 10000 1.79 230 01:46 24.05.2022
1962 Clouds 23 1009 54 10000 0.89 342 00:21 24.05.2022
1963 Clouds 23 1010 53 10000 0.89 274 22:24 23.05.2022
1964 Clouds 24 1010 51 10000 1.03 0 21:45 23.05.2022
1965 Clouds 24 1009 50 10000 2.24 177 20:46 23.05.2022
1966 Clouds 25 1009 50 10000 2.68 180 19:51 23.05.2022
1967 Clouds 25 1009 50 10000 3.58 251 19:22 23.05.2022
1968 Clouds 27 1008 45 10000 4.02 271 18:40 23.05.2022
1969 Clouds 28 1008 42 10000 5.14 180 17:56 23.05.2022
1970 Clouds 29 1008 39 10000 5.66 180 16:28 23.05.2022
1971 Clouds 30 1008 35 10000 3.6 190 14:18 23.05.2022
1972 Clouds 29 1009 39 10000 3.13 241 11:52 23.05.2022
1973 Clear 29 1010 36 10000 3.6 320 10:49 23.05.2022
1974 Clouds 28 1009 40 10000 3.09 330 09:48 23.05.2022
1975 Clouds 27 1009 42 10000 2.57 350 08:46 23.05.2022
1976 Clouds 27 1009 42 10000 2.57 350 08:46 23.05.2022
1977 Clouds 24 1009 49 10000 0.45 338 07:31 23.05.2022
1978 Clouds 22 1009 56 10000 1.03 0 06:40 23.05.2022
1979 Clouds 22 1008 52 10000 1.34 133 03:41 23.05.2022
1980 Clouds 22 1008 48 10000 0.89 63 01:52 23.05.2022
1981 Clouds 22 1008 47 10000 1.79 20 01:32 23.05.2022
1982 Clouds 23 1009 42 10000 0.45 275 23:18 22.05.2022
1983 Drizzle 24 1009 39 10000 1.54 0 22:27 22.05.2022
1984 Clouds 24 1009 38 10000 1.54 0 21:52 22.05.2022
1985 Clouds 24 1009 35 10000 0.89 336 20:50 22.05.2022
1986 Clouds 24 1009 35 10000 1.34 323 20:23 22.05.2022
1987 Clouds 25 1008 35 10000 1.54 0 19:39 22.05.2022
1988 Clouds 26 1009 34 10000 1.79 173 18:52 22.05.2022
1989 Clouds 27 1008 33 10000 2.68 254 18:21 22.05.2022
1990 Clouds 27 1008 34 10000 4.47 226 17:26 22.05.2022
1991 Clear 28 1008 37 10000 4.63 180 15:59 22.05.2022
1992 Clear 28 1008 37 10000 4.63 190 14:48 22.05.2022
1993 Clear 28 1009 39 10000 4.47 237 13:22 22.05.2022
1994 Clear 29 1009 36 10000 3.58 228 12:48 22.05.2022
1995 Clear 28 1009 34 10000 3.09 190 11:32 22.05.2022
1996 Clear 27 1009 35 10000 1.79 252 09:41 22.05.2022
1997 Clear 24 1010 39 10000 0.89 252 08:21 22.05.2022
1998 Clear 22 1010 46 10000 0.45 338 07:21 22.05.2022
1999 Clear 18 1010 55 10000 0.89 350 05:22 22.05.2022
2000 Clear 19 1011 60 10000 2.57 350 01:26 22.05.2022
2001 Clear 19 1012 62 10000 2.06 360 00:43 22.05.2022
2002 Clear 19 1013 63 10000 1.54 0 23:52 21.05.2022
2003 Clear 20 1013 62 10000 1.79 216 22:28 21.05.2022
2004 Clear 21 1013 58 10000 1.34 189 21:42 21.05.2022
2005 Clear 21 1013 52 10000 2.57 160 20:51 21.05.2022
2006 Clear 22 1013 49 10000 1.79 217 20:21 21.05.2022
2007 Clear 24 1013 42 10000 3.09 200 19:27 21.05.2022
2008 Clear 26 1013 34 10000 5.14 170 17:48 21.05.2022
2009 Clear 28 1014 30 10000 5.66 180 15:54 21.05.2022
2010 Clear 28 1014 27 10000 4.02 78 14:37 21.05.2022
2011 Clear 28 1015 25 10000 4.02 134 13:42 21.05.2022
2012 Clear 28 1015 26 10000 5.81 79 12:49 21.05.2022
2013 Clear 26 1016 28 10000 4.92 94 11:58 21.05.2022
2014 Clear 25 1017 29 10000 5.66 340 10:24 21.05.2022
2015 Clear 25 1016 28 10000 5.66 350 09:43 21.05.2022
2016 Clear 23 1017 31 10000 6.26 23 08:52 21.05.2022
2017 Clear 22 1017 35 10000 4.63 340 07:53 21.05.2022
2018 Clouds 18 1016 42 10000 2.57 290 03:58 21.05.2022
2019 Clouds 19 1018 40 10000 1.54 0 23:53 20.05.2022
2020 Clouds 19 1019 40 10000 1.34 36 22:57 20.05.2022
2021 Clouds 19 1019 40 10000 1.79 332 22:23 20.05.2022
2022 Clouds 19 1019 40 10000 3.13 338 21:43 20.05.2022
2023 Clouds 20 1019 39 10000 4.12 350 20:56 20.05.2022
2024 Clouds 20 1020 35 10000 5.14 10 19:59 20.05.2022
2025 Clouds 21 1020 34 10000 4.92 74 19:26 20.05.2022
2026 Clouds 22 1020 34 10000 5.36 67 18:44 20.05.2022
2027 Clear 23 1020 29 10000 8.05 80 17:24 20.05.2022
2028 Clear 23 1021 30 10000 11.83 30 16:19 20.05.2022
2029 Clear 23 1021 32 10000 7.72 360 15:47 20.05.2022
2030 Clouds 23 1021 33 10000 8.23 360 14:30 20.05.2022
2031 Clouds 22 1022 35 10000 8.23 360 13:55 20.05.2022
2032 Clouds 21 1022 36 10000 7.72 360 11:38 20.05.2022
2033 Clouds 21 1023 39 10000 9.39 14 10:19 20.05.2022
2034 Clouds 19 1022 47 10000 5.81 347 08:45 20.05.2022
2035 Clouds 18 1022 52 10000 5.81 22 07:18 20.05.2022
2036 Clouds 17 1023 55 10000 4.12 350 06:34 20.05.2022
2037 Clouds 16 1022 56 10000 5.36 346 04:59 20.05.2022
2038 Clouds 16 1023 51 10000 4.02 26 00:54 20.05.2022
2039 Clouds 16 1023 51 10000 8.49 3 22:48 19.05.2022
2040 Clouds 16 1024 50 10000 3.58 83 22:25 19.05.2022
2041 Clouds 17 1024 48 10000 2.68 38 21:48 19.05.2022
2042 Clouds 17 1023 48 10000 10.28 325 21:23 19.05.2022
2043 Clear 17 1023 47 10000 12.07 355 20:39 19.05.2022
2044 Clear 17 1023 46 10000 12.96 2 19:52 19.05.2022
2045 Clouds 19 1022 41 10000 12.96 356 18:34 19.05.2022
2046 Clouds 19 1022 38 10000 12.96 5 17:31 19.05.2022
2047 Clouds 19 1023 42 10000 13.41 353 15:21 19.05.2022
2048 Clouds 19 1023 42 10000 12.96 1 14:26 19.05.2022
2049 Clouds 19 1023 42 10000 13.41 352 13:47 19.05.2022
2050 Clouds 18 1024 43 10000 12.52 358 11:46 19.05.2022
2051 Clouds 16 1023 48 10000 10.28 7 09:34 19.05.2022
2052 Clouds 15 1022 52 10000 14.31 4 08:18 19.05.2022
2053 Drizzle 14 1021 58 10000 12.52 9 06:31 19.05.2022
2054 Clouds 14 1018 73 10000 11.62 62 02:54 19.05.2022
2055 Clouds 15 1017 83 10000 9.83 61 00:44 19.05.2022
2056 Clouds 17 1016 86 9000 9.83 83 22:53 18.05.2022
2057 Thunderstorm 18 1016 86 9000 4.92 334 22:35 18.05.2022
2058 Thunderstorm 19 1015 83 8000 9.26 340 21:31 18.05.2022
2059 Thunderstorm 22 1012 61 10000 4.02 109 20:54 18.05.2022
2060 Clouds 24 1012 53 10000 2.24 117 20:19 18.05.2022
2061 Clouds 26 1010 44 10000 2.24 153 18:43 18.05.2022
2062 Clouds 26 1010 47 10000 4.02 192 17:41 18.05.2022
2063 Clouds 27 1010 46 10000 4.02 270 17:23 18.05.2022
2064 Clouds 27 1011 49 10000 5.14 190 16:35 18.05.2022
2065 Clouds 27 1011 49 10000 5.14 190 15:42 18.05.2022
2066 Thunderstorm 28 1011 47 10000 6.17 170 14:54 18.05.2022
2067 Thunderstorm 29 1011 47 10000 5.14 180 13:47 18.05.2022
2068 Clouds 29 1011 46 10000 4.47 216 12:51 18.05.2022
2069 Clouds 29 1011 46 10000 4.63 190 11:41 18.05.2022
2070 Clouds 28 1011 47 10000 3.13 222 11:23 18.05.2022
2071 Clear 27 1012 53 10000 2.24 265 09:57 18.05.2022
2072 Clear 24 1012 63 10000 2.68 252 07:55 18.05.2022
2073 Clouds 23 1011 64 10000 0.89 261 06:49 18.05.2022
2074 Clouds 21 1012 67 10000 1.03 0 02:44 18.05.2022
2075 Clouds 22 1013 60 10000 1.79 14 00:26 18.05.2022
2076 Clouds 23 1013 59 10000 1.03 0 22:57 17.05.2022
2077 Clouds 24 1014 59 10000 1.34 255 21:21 17.05.2022
2078 Clouds 24 1014 57 10000 0.89 295 20:30 17.05.2022
2079 Clouds 25 1014 55 10000 1.79 211 19:29 17.05.2022
2080 Clouds 26 1014 49 10000 3.58 251 17:53 17.05.2022
2081 Clouds 27 1014 48 10000 3.58 286 17:28 17.05.2022
2082 Clouds 27 1014 47 10000 4.12 190 16:36 17.05.2022
2083 Clouds 28 1015 43 10000 5.81 242 15:43 17.05.2022
2084 Clouds 28 1015 46 10000 5.14 180 14:31 17.05.2022
2085 Clouds 28 1015 48 10000 5.14 200 13:54 17.05.2022
2086 Clouds 28 1016 46 10000 5.14 190 12:32 17.05.2022
2087 Clear 27 1016 52 10000 1.34 250 09:53 17.05.2022
2088 Clear 25 1016 59 10000 1.79 244 08:44 17.05.2022
2089 Clear 23 1016 63 10000 1.34 188 07:40 17.05.2022
2090 Clear 20 1015 70 10000 0.89 338 04:33 17.05.2022
2091 Clouds 22 1016 68 10000 0.89 38 00:47 17.05.2022
2092 Clouds 22 1017 66 10000 0.89 274 22:45 16.05.2022
2093 Clouds 23 1017 65 10000 0.45 320 22:18 16.05.2022
2094 Clouds 23 1017 64 10000 1.54 220 20:56 16.05.2022
2095 Clouds 24 1016 59 10000 1.79 182 20:25 16.05.2022
2096 Clouds 25 1016 58 10000 2.06 230 18:39 16.05.2022
2097 Clouds 27 1016 51 10000 3.58 260 16:37 16.05.2022
2098 Thunderstorm 28 1016 44 10000 5.14 170 14:48 16.05.2022
2099 Clouds 28 1018 44 10000 4.47 239 13:27 16.05.2022
2100 Clouds 28 1018 47 10000 3.6 190 11:42 16.05.2022
2101 Clouds 27 1018 49 10000 1.79 188 10:30 16.05.2022
2102 Clouds 23 1017 60 10000 1.03 0 07:45 16.05.2022
2103 Clear 20 1017 72 10000 0.45 338 05:40 16.05.2022
2104 Clouds 21 1017 59 10000 1.03 0 00:35 16.05.2022
2105 Clouds 22 1018 54 10000 1.03 0 22:39 15.05.2022
2106 Clouds 23 1018 51 10000 1.03 0 21:54 15.05.2022
2107 Clouds 23 1018 51 10000 1.34 292 21:34 15.05.2022
2108 Clouds 23 1017 48 10000 1.34 138 20:35 15.05.2022
2109 Clouds 24 1017 48 10000 4.63 190 18:30 15.05.2022
2110 Clouds 26 1016 47 10000 4.92 249 16:37 15.05.2022
2111 Clouds 28 1016 44 10000 4.63 180 14:18 15.05.2022
2112 Clouds 27 1016 47 10000 4.63 190 13:35 15.05.2022
2113 Clear 27 1017 47 10000 4.12 180 11:55 15.05.2022
2114 Clear 27 1017 47 10000 4.12 190 10:40 15.05.2022
2115 Clear 24 1017 48 10000 1.79 240 08:57 15.05.2022
2116 Clear 21 1016 59 10000 0.89 338 07:22 15.05.2022
2117 Clear 19 1016 66 10000 1.79 288 06:42 15.05.2022
2118 Clouds 18 1015 71 10000 2.24 24 02:38 15.05.2022
2119 Clouds 19 1015 70 10000 2.06 360 23:59 14.05.2022
2120 Clouds 19 1015 73 10000 2.06 360 23:35 14.05.2022
2121 Clouds 19 1015 73 10000 2.06 360 23:35 14.05.2022
2122 Clouds 20 1016 73 10000 1.03 0 21:45 14.05.2022
2123 Clouds 20 1015 75 10000 1.79 103 21:25 14.05.2022
2124 Clouds 20 1015 76 10000 1.03 0 20:25 14.05.2022
2125 Clouds 21 1014 73 10000 1.79 255 19:20 14.05.2022
2126 Clouds 22 1014 71 10000 3.09 210 18:57 14.05.2022
2127 Clouds 24 1013 56 10000 3.6 190 17:44 14.05.2022
2128 Clouds 25 1014 52 10000 4.12 190 15:58 14.05.2022
2129 Clouds 25 1014 53 10000 4.12 190 14:38 14.05.2022
2130 Clouds 25 1014 51 10000 4.63 190 13:24 14.05.2022
2131 Clouds 24 1015 56 10000 3.6 190 11:42 14.05.2022
2132 Clouds 24 1015 56 10000 3.09 170 10:43 14.05.2022
2133 Clouds 23 1015 57 10000 2.57 180 10:18 14.05.2022
2134 Clear 22 1015 62 10000 1.79 236 09:23 14.05.2022
2135 Clouds 20 1014 64 10000 0.89 282 07:26 14.05.2022
2136 Clouds 17 1014 61 10000 0.51 0 04:35 14.05.2022
2137 Clouds 19 1015 51 10000 1.79 138 00:27 14.05.2022
2138 Clouds 20 1016 47 10000 1.54 0 23:25 13.05.2022
2139 Clouds 20 1015 44 10000 1.03 0 22:55 13.05.2022
2140 Clouds 20 1016 45 10000 1.03 0 22:21 13.05.2022
2141 Clouds 21 1016 40 10000 1.34 133 20:59 13.05.2022
2142 Clouds 21 1015 39 10000 2.68 134 20:37 13.05.2022
2143 Clouds 21 1016 38 10000 2.68 168 20:19 13.05.2022
2144 Clouds 22 1015 37 10000 3.13 243 19:18 13.05.2022
2145 Clouds 24 1015 40 10000 4.63 180 17:42 13.05.2022
2146 Clouds 25 1015 41 10000 5.14 180 17:22 13.05.2022
2147 Clouds 26 1016 34 10000 6.17 180 15:47 13.05.2022
2148 Clouds 26 1017 35 10000 4.12 200 14:39 13.05.2022
2149 Clouds 26 1017 33 10000 4.12 180 12:53 13.05.2022
2150 Clouds 25 1018 36 10000 2.68 198 11:56 13.05.2022
2151 Clouds 24 1018 39 10000 2.24 162 09:55 13.05.2022
2152 Clouds 23 1018 42 10000 1.34 283 09:29 13.05.2022
2153 Clouds 21 1018 50 10000 1.03 0 07:52 13.05.2022
2154 Clouds 20 1018 51 10000 2.06 340 07:18 13.05.2022
2155 Clouds 19 1017 54 10000 1.34 64 05:23 13.05.2022
2156 Clouds 19 1018 50 10000 2.24 63 01:21 13.05.2022
2157 Clouds 20 1019 52 10000 1.54 0 23:23 12.05.2022
2158 Clouds 20 1019 50 10000 1.54 0 22:34 12.05.2022
2159 Clouds 21 1020 49 10000 2.24 262 21:26 12.05.2022
2160 Clouds 22 1019 41 10000 4.02 17 19:51 12.05.2022
2161 Clouds 24 1019 35 10000 3.6 190 18:27 12.05.2022
2162 Clouds 25 1019 32 10000 4.12 200 16:45 12.05.2022
2163 Clouds 26 1020 31 10000 3.6 200 14:57 12.05.2022
2164 Clear 26 1021 30 10000 3.13 154 13:52 12.05.2022
2165 Clouds 27 1021 29 10000 3.09 160 12:29 12.05.2022
2166 Clouds 25 1021 32 10000 3.58 46 10:34 12.05.2022
2167 Clear 23 1021 38 10000 0.89 203 08:56 12.05.2022
2168 Clear 22 1021 39 10000 1.34 113 08:35 12.05.2022
2169 Clear 20 1021 44 10000 0.51 0 07:25 12.05.2022
2170 Clear 17 1019 50 10000 1.34 66 04:45 12.05.2022
2171 Clear 18 1020 47 10000 0.89 101 01:37 12.05.2022
2172 Clear 19 1020 43 10000 1.34 41 23:36 11.05.2022
2173 Clear 20 1019 36 10000 2.68 45 22:22 11.05.2022
2174 Clear 21 1019 35 10000 1.34 333 21:26 11.05.2022
2175 Clear 21 1019 30 10000 1.34 72 20:45 11.05.2022
2176 Clear 25 1017 26 10000 4.92 17 17:43 11.05.2022
2177 Clear 26 1017 26 10000 4.92 108 16:39 11.05.2022
2178 Clear 26 1018 22 10000 4.12 360 14:49 11.05.2022
2179 Clear 25 1018 23 10000 4.63 20 14:25 11.05.2022
2180 Clear 25 1018 25 10000 5.66 350 13:37 11.05.2022
2181 Clear 24 1018 28 10000 5.66 10 11:48 11.05.2022
2182 Clear 22 1018 28 10000 5.14 340 09:39 11.05.2022
2183 Clear 19 1017 35 10000 1.79 174 07:52 11.05.2022
2184 Clear 15 1016 37 10000 1.34 152 03:38 11.05.2022
2185 Clear 17 1017 32 10000 2.57 350 23:48 10.05.2022
2186 Clouds 17 1017 28 10000 2.06 310 22:30 10.05.2022
2187 Clouds 17 1016 28 10000 2.57 330 21:43 10.05.2022
2188 Clouds 18 1016 28 10000 3.09 340 20:48 10.05.2022
2189 Clouds 19 1015 32 10000 4.47 13 19:25 10.05.2022
2190 Clouds 21 1015 29 10000 4.12 320 17:44 10.05.2022
2191 Clouds 23 1015 24 10000 5.14 360 16:39 10.05.2022
2192 Clear 24 1016 24 10000 5.14 340 13:59 10.05.2022
2193 Clear 23 1017 25 10000 5.14 360 12:36 10.05.2022
2194 Clear 23 1017 28 10000 7.6 339 11:49 10.05.2022
2195 Clear 22 1017 31 10000 5.81 360 11:18 10.05.2022
2196 Clear 21 1017 31 10000 4.47 50 09:57 10.05.2022
2197 Clear 21 1017 30 10000 5.14 350 09:18 10.05.2022
2198 Clear 17 1017 47 10000 4.12 340 06:35 10.05.2022
2199 Clear 16 1017 35 10000 2.06 310 02:59 10.05.2022
2200 Clear 17 1018 37 10000 3.09 280 00:24 10.05.2022
2201 Clear 17 1017 28 10000 2.06 330 22:43 09.05.2022
2202 Clear 17 1017 32 10000 2.68 322 21:48 09.05.2022
2203 Clear 19 1017 25 10000 4.92 35 20:25 09.05.2022
2204 Clear 21 1017 27 10000 4.63 350 18:43 09.05.2022
2205 Clear 22 1017 27 10000 6.26 61 17:39 09.05.2022
2206 Clear 24 1017 28 10000 7.15 22 16:29 09.05.2022
2207 Clear 24 1017 29 10000 6.71 61 15:49 09.05.2022
2208 Clear 24 1017 28 10000 6.17 330 14:47 09.05.2022
2209 Clear 24 1017 28 10000 6.69 350 14:22 09.05.2022
2210 Clear 24 1018 29 10000 5.66 350 13:36 09.05.2022
2211 Clouds 23 1018 32 10000 6.26 37 11:56 09.05.2022
2212 Clouds 22 1018 35 10000 7.15 46 10:51 09.05.2022
2213 Clouds 22 1018 37 10000 6.26 53 10:31 09.05.2022
2214 Clouds 20 1018 39 10000 4.12 330 08:31 09.05.2022
2215 Clouds 19 1018 42 10000 4.12 350 07:49 09.05.2022
2216 Clouds 17 1017 48 10000 4.12 330 02:55 09.05.2022
2217 Clouds 18 1017 52 10000 4.63 320 23:29 08.05.2022
2218 Clouds 18 1016 52 10000 6.71 10 22:51 08.05.2022
2219 Clouds 18 1017 48 10000 4.63 330 21:48 08.05.2022
2220 Clouds 18 1017 51 10000 8.05 12 21:48 08.05.2022
2221 Clouds 19 1016 49 10000 5.14 330 20:33 08.05.2022
2222 Clouds 19 1016 51 10000 4.12 340 19:37 08.05.2022
2223 Clouds 20 1016 49 10000 5.66 330 18:52 08.05.2022
2224 Clouds 20 1016 47 10000 6.69 330 17:52 08.05.2022
2225 Clouds 21 1016 50 10000 6.69 340 16:33 08.05.2022
2226 Rain 22 1016 49 10000 4.63 320 15:25 08.05.2022
2227 Clouds 22 1016 50 10000 5.66 330 14:27 08.05.2022
2228 Clouds 23 1017 42 10000 5.14 330 12:21 08.05.2022
2229 Clouds 20 1017 45 10000 5.14 340 10:27 08.05.2022
2230 Clouds 19 1017 50 10000 9.83 19 09:56 08.05.2022
2231 Clouds 19 1017 48 10000 9.39 16 08:52 08.05.2022
2232 Clouds 17 1016 47 10000 6.26 84 06:51 08.05.2022
2233 Clouds 16 1016 53 10000 7.6 13 03:25 08.05.2022
2234 Clouds 16 1016 54 10000 8.49 12 02:23 08.05.2022
2235 Clouds 17 1017 48 10000 6.26 10 00:21 08.05.2022
2236 Clouds 17 1018 45 10000 5.81 55 23:46 07.05.2022
2237 Clouds 17 1017 45 10000 4.92 55 22:46 07.05.2022
2238 Clouds 17 1016 43 10000 6.26 69 21:57 07.05.2022
2239 Clouds 17 1017 42 10000 8.05 100 21:33 07.05.2022
2240 Clouds 18 1017 41 10000 6.26 95 20:27 07.05.2022
2241 Clouds 18 1016 43 10000 5.36 15 19:22 07.05.2022
2242 Clouds 21 1016 45 10000 5.36 71 17:33 07.05.2022
2243 Clouds 22 1016 45 10000 5.14 30 15:34 07.05.2022
2244 Clouds 22 1017 42 10000 7.6 74 12:34 07.05.2022
2245 Clouds 20 1018 48 10000 8.05 353 10:23 07.05.2022
2246 Clouds 19 1018 45 10000 6.26 8 08:52 07.05.2022
2247 Clouds 17 1018 43 10000 4.02 40 07:43 07.05.2022
2248 Clouds 16 1017 48 10000 5.81 10 06:43 07.05.2022
2249 Clouds 16 1018 44 10000 3.13 85 04:24 07.05.2022
2250 Clouds 17 1017 45 10000 6.71 8 00:50 07.05.2022
2251 Clouds 18 1018 39 10000 4.92 17 23:28 06.05.2022
2252 Clouds 18 1018 38 10000 4.47 22 22:21 06.05.2022
2253 Clouds 18 1018 37 10000 5.81 55 21:36 06.05.2022
2254 Rain 18 1019 42 10000 4.47 90 20:20 06.05.2022
2255 Clouds 19 1018 38 10000 4.92 96 19:29 06.05.2022
2256 Clouds 19 1018 39 10000 5.81 78 18:54 06.05.2022
2257 Clouds 20 1018 41 10000 5.36 124 17:38 06.05.2022
2258 Clouds 21 1019 41 10000 4.02 71 15:56 06.05.2022
2259 Clouds 21 1019 41 10000 3.58 26 15:33 06.05.2022
2260 Clouds 21 1019 45 10000 4.47 67 14:23 06.05.2022
2261 Clouds 23 1020 45 10000 4.63 190 12:53 06.05.2022
2262 Clouds 23 1021 46 10000 3.09 190 12:30 06.05.2022
2263 Clouds 22 1021 46 10000 3.58 133 11:33 06.05.2022
2264 Clear 21 1021 44 10000 4.47 67 09:49 06.05.2022
2265 Clear 21 1021 44 10000 4.47 88 09:19 06.05.2022
2266 Clear 20 1021 50 10000 5.81 16 07:57 06.05.2022
2267 Clear 17 1020 58 10000 1.79 353 06:29 06.05.2022
2268 Clouds 15 1019 65 10000 3.13 58 04:32 06.05.2022
2269 Clouds 15 1020 66 10000 1.34 33 02:43 06.05.2022
2270 Clouds 16 1020 66 10000 1.54 360 23:34 05.05.2022
2271 Clouds 18 1021 62 10000 2.06 330 21:52 05.05.2022
2272 Clouds 18 1020 60 10000 1.03 0 20:48 05.05.2022
2273 Clouds 19 1020 59 10000 1.34 261 19:49 05.05.2022
2274 Clouds 22 1019 47 10000 5.36 6 16:53 05.05.2022
2275 Clouds 22 1019 46 10000 4.63 170 15:52 05.05.2022
2276 Clouds 23 1020 43 10000 4.63 190 14:37 05.05.2022
2277 Clouds 23 1020 43 10000 4.63 190 13:18 05.05.2022
2278 Clouds 23 1020 42 10000 3.09 210 11:48 05.05.2022
2279 Clouds 21 1020 50 10000 1.54 0 10:30 05.05.2022
2280 Clear 20 1020 57 10000 1.34 236 09:34 05.05.2022
2281 Clear 16 1019 75 10000 0.89 355 07:19 05.05.2022
2282 Clouds 14 1019 80 10000 4.92 358 02:33 05.05.2022
2283 Clouds 14 1019 80 10000 4.47 330 01:47 05.05.2022
2284 Clouds 14 1019 79 10000 4.47 322 01:20 05.05.2022
2285 Clouds 15 1019 78 10000 1.54 0 23:28 04.05.2022
2286 Clouds 15 1019 76 10000 0.89 241 22:25 04.05.2022
2287 Clouds 15 1019 76 10000 1.79 230 21:48 04.05.2022
2288 Clouds 16 1018 75 10000 2.06 170 21:26 04.05.2022
2289 Clouds 16 1018 71 10000 4.92 0 20:22 04.05.2022
2290 Clouds 17 1017 69 10000 2.24 181 19:51 04.05.2022
2291 Clouds 18 1017 64 10000 3.58 186 18:49 04.05.2022
2292 Clouds 18 1017 61 10000 7.6 337 18:20 04.05.2022
2293 Clouds 19 1017 59 10000 4.12 350 17:29 04.05.2022
2294 Clouds 19 1017 55 10000 4.63 350 15:38 04.05.2022
2295 Clouds 19 1017 56 10000 4.47 90 14:59 04.05.2022
2296 Clouds 20 1017 55 10000 2.06 310 14:20 04.05.2022
2297 Clouds 19 1017 56 10000 2.57 330 13:18 04.05.2022
2298 Clouds 18 1018 57 10000 7.15 341 12:29 04.05.2022
2299 Clouds 18 1018 57 10000 7.15 341 12:29 04.05.2022
2300 Clouds 17 1017 59 10000 2.68 20 10:40 04.05.2022
2301 Clouds 16 1017 63 10000 7.15 1 09:38 04.05.2022
2302 Clouds 16 1017 66 10000 2.24 342 08:34 04.05.2022
2303 Clouds 14 1015 77 9000 4.92 81 05:53 04.05.2022
2304 Clouds 14 1015 79 10000 7.15 13 02:49 04.05.2022
2305 Clouds 15 1015 72 10000 7.15 344 23:41 03.05.2022
2306 Clouds 16 1015 68 10000 7.6 9 22:20 03.05.2022
2307 Clouds 16 1015 67 10000 2.24 44 21:36 03.05.2022
2308 Clouds 16 1014 69 10000 2.06 90 20:53 03.05.2022
2309 Clouds 16 1012 66 10000 6.26 17 19:45 03.05.2022
2310 Clouds 17 1012 64 10000 6.71 17 18:50 03.05.2022
2311 Clouds 17 1012 64 10000 6.71 17 18:50 03.05.2022
2312 Clouds 18 1011 63 10000 7.15 14 17:45 03.05.2022
2313 Clouds 19 1011 61 10000 3.6 190 16:37 03.05.2022
2314 Clouds 20 1012 60 10000 3.58 159 15:32 03.05.2022
2315 Clouds 19 1011 55 10000 4.12 350 12:47 03.05.2022
2316 Clouds 19 1011 55 10000 4.63 350 12:27 03.05.2022
2317 Clouds 19 1012 56 10000 4.02 295 10:57 03.05.2022
2318 Clouds 18 1011 61 10000 3.09 330 09:21 03.05.2022
2319 Clouds 14 1010 77 10000 2.57 310 06:46 03.05.2022
2320 Clouds 13 1010 79 10000 1.54 0 05:56 03.05.2022
2321 Clouds 15 1011 72 10000 2.57 310 00:19 03.05.2022
2322 Clouds 15 1010 73 10000 1.54 0 22:36 02.05.2022
2323 Clouds 15 1011 74 10000 2.57 300 21:51 02.05.2022
2324 Clouds 15 1010 72 10000 2.57 310 20:51 02.05.2022
2325 Clouds 15 1009 78 10000 3.6 330 18:37 02.05.2022
2326 Clouds 14 1009 82 7000 1.79 5 17:57 02.05.2022
2327 Clouds 14 1009 83 7000 1.79 5 17:34 02.05.2022
2328 Clouds 15 1010 80 10000 5.14 330 16:21 02.05.2022
2329 Clouds 16 1009 75 10000 5.14 330 15:30 02.05.2022
2330 Clouds 16 1010 71 9000 3.58 348 13:50 02.05.2022
2331 Rain 16 1011 75 10000 3.13 294 12:19 02.05.2022
2332 Clouds 16 1010 72 10000 3.13 5 10:38 02.05.2022
2333 Rain 15 1011 77 10000 2.57 310 09:20 02.05.2022
2334 Rain 15 1011 78 10000 2.24 232 07:51 02.05.2022
2335 Clouds 17 1010 53 10000 6.26 49 03:48 02.05.2022
2336 Clouds 17 1014 54 10000 3.6 340 00:24 02.05.2022
2337 Clouds 17 1015 56 10000 4.02 350 23:48 01.05.2022
2338 Clouds 17 1015 53 10000 6.26 61 22:25 01.05.2022
2339 Clouds 18 1014 47 10000 5.36 355 21:19 01.05.2022
2340 Clouds 18 1014 46 10000 5.36 55 19:51 01.05.2022
2341 Clouds 18 1014 47 10000 4.92 83 18:57 01.05.2022
2342 Clouds 19 1014 47 10000 6.26 101 18:28 01.05.2022
2343 Clouds 20 1014 46 10000 5.81 95 17:29 01.05.2022
2344 Clouds 21 1014 41 10000 5.81 68 16:23 01.05.2022
2345 Clouds 21 1014 39 10000 5.81 77 15:25 01.05.2022
2346 Clouds 22 1015 40 10000 5.36 88 13:42 01.05.2022
2347 Clouds 21 1016 44 10000 6.26 322 11:23 01.05.2022
2348 Clouds 19 1017 50 10000 4.12 340 08:53 01.05.2022
2349 Clouds 19 1017 51 10000 4.12 340 08:34 01.05.2022
2350 Clouds 16 1016 62 10000 4.02 67 03:35 01.05.2022
2351 Clouds 17 1017 57 10000 3.13 347 00:18 01.05.2022
2352 Clouds 18 1017 54 10000 3.09 350 21:49 30.04.2022
2353 Clouds 18 1016 54 10000 5.36 72 20:59 30.04.2022
2354 Clouds 19 1015 52 10000 5.36 94 19:41 30.04.2022
2355 Clouds 21 1015 46 10000 5.14 10 18:21 30.04.2022
2356 Clouds 22 1015 42 10000 5.66 350 16:44 30.04.2022
2357 Clouds 23 1015 42 10000 6.26 19 15:47 30.04.2022
2358 Clouds 23 1015 42 10000 6.26 67 14:48 30.04.2022
2359 Clouds 22 1016 43 10000 8.05 37 12:55 30.04.2022
2360 Clouds 21 1016 45 10000 8.49 354 11:34 30.04.2022
2361 Clouds 21 1016 45 10000 6.71 24 10:45 30.04.2022
2362 Clouds 20 1016 48 10000 7.6 14 09:41 30.04.2022
2363 Clouds 17 1015 54 10000 4.47 338 06:43 30.04.2022
2364 Clouds 17 1015 50 10000 3.6 330 02:36 30.04.2022
2365 Clouds 18 1015 49 10000 5.14 330 23:37 29.04.2022
2366 Clouds 18 1015 48 10000 4.12 310 22:31 29.04.2022
2367 Clouds 19 1014 45 10000 4.12 320 21:39 29.04.2022
2368 Clouds 19 1014 48 10000 3.09 310 20:49 29.04.2022
2369 Clouds 19 1014 47 10000 3.6 320 19:47 29.04.2022
2370 Clouds 20 1014 44 10000 7.15 40 17:59 29.04.2022
2371 Clouds 21 1014 41 10000 5.81 67 17:23 29.04.2022
2372 Clouds 22 1013 36 10000 7.15 108 15:49 29.04.2022
2373 Clouds 23 1014 36 10000 8.75 340 14:22 29.04.2022
2374 Clouds 22 1013 37 10000 7.2 330 13:21 29.04.2022
2375 Clouds 22 1015 41 10000 7.72 340 11:49 29.04.2022
2376 Clouds 20 1014 43 10000 7.2 340 08:53 29.04.2022
2377 Clouds 18 1013 41 10000 8.75 330 07:28 29.04.2022
2378 Clouds 18 1013 39 10000 9.77 330 06:45 29.04.2022
2379 Clouds 19 1013 40 10000 7.72 350 04:53 29.04.2022
2380 Clouds 19 1014 36 10000 2.57 330 00:45 29.04.2022
2381 Clouds 20 1013 36 10000 2.57 330 23:34 28.04.2022
2382 Clouds 20 1013 32 10000 4.12 330 22:44 28.04.2022
2383 Clouds 21 1014 30 10000 2.06 360 21:47 28.04.2022
2384 Clouds 21 1012 30 10000 3.13 49 21:21 28.04.2022
2385 Clouds 22 1012 29 10000 4.47 63 20:35 28.04.2022
2386 Clouds 22 1011 29 10000 3.13 60 19:45 28.04.2022
2387 Clouds 22 1011 29 10000 3.13 60 19:45 28.04.2022
2388 Clouds 23 1012 30 10000 4.92 26 19:22 28.04.2022
2389 Clouds 24 1012 29 10000 4.47 50 18:36 28.04.2022
2390 Clear 26 1011 27 10000 6.17 30 17:26 28.04.2022
2391 Clear 27 1012 24 10000 5.14 20 16:41 28.04.2022
2392 Clear 27 1011 25 10000 5.66 20 16:19 28.04.2022
2393 Clear 28 1011 25 10000 5.81 73 15:29 28.04.2022
2394 Clear 28 1012 23 10000 4.02 78 14:36 28.04.2022
2395 Clear 28 1012 26 10000 5.81 34 12:55 28.04.2022
2396 Clear 27 1012 28 10000 5.81 66 11:59 28.04.2022
2397 Clear 26 1013 31 10000 5.36 75 10:47 28.04.2022
2398 Clear 26 1013 32 10000 5.36 46 10:26 28.04.2022
2399 Clear 24 1013 37 10000 3.13 360 08:59 28.04.2022
2400 Clear 21 1013 46 10000 0.89 344 07:37 28.04.2022
2401 Clear 18 1012 52 10000 1.79 33 06:33 28.04.2022
2402 Clouds 18 1012 53 10000 1.34 332 05:39 28.04.2022
2403 Clouds 18 1011 50 10000 2.24 28 04:40 28.04.2022
2404 Clouds 19 1013 60 10000 1.79 49 00:36 28.04.2022
2405 Clouds 20 1013 61 10000 1.54 0 22:49 27.04.2022
2406 Clouds 20 1013 57 10000 1.79 86 21:57 27.04.2022
2407 Clouds 21 1013 57 10000 2.24 67 21:27 27.04.2022
2408 Clouds 21 1013 56 10000 2.68 68 20:43 27.04.2022
2409 Clouds 22 1012 53 10000 2.24 48 19:39 27.04.2022
2410 Clouds 22 1012 53 10000 2.24 48 19:39 27.04.2022
2411 Clouds 22 1012 54 10000 3.13 42 19:39 27.04.2022
2412 Clouds 23 1012 52 10000 4.02 113 19:19 27.04.2022
2413 Clear 23 1012 49 10000 2.68 119 18:35 27.04.2022
2414 Clouds 26 1012 42 10000 3.13 163 17:26 27.04.2022
2415 Clouds 26 1012 38 10000 4.02 120 15:43 27.04.2022
2416 Clear 26 1012 35 10000 4.02 227 12:31 27.04.2022
2417 Clear 25 1013 38 10000 3.13 59 11:23 27.04.2022
2418 Clear 24 1013 40 10000 2.68 67 10:22 27.04.2022
2419 Clear 19 1012 53 10000 0.45 351 07:28 27.04.2022
2420 Clear 17 1011 56 10000 2.24 30 06:30 27.04.2022
2421 Clear 17 1011 56 10000 2.68 30 02:21 27.04.2022
2422 Clear 18 1011 56 10000 2.68 59 00:57 27.04.2022
2423 Clear 18 1011 56 10000 1.03 0 23:58 26.04.2022
2424 Clear 18 1012 54 10000 2.06 340 23:23 26.04.2022
2425 Clear 19 1012 54 10000 1.54 0 22:42 26.04.2022
2426 Clear 19 1011 53 10000 1.03 0 21:49 26.04.2022
2427 Clear 20 1011 52 10000 0.89 246 20:56 26.04.2022
2428 Clear 20 1011 52 10000 1.79 243 20:35 26.04.2022
2429 Clouds 21 1010 50 10000 1.54 0 19:34 26.04.2022
2430 Clear 22 1010 50 10000 3.6 170 18:51 26.04.2022
2431 Clear 23 1010 47 10000 4.12 170 18:19 26.04.2022
2432 Clear 24 1010 45 10000 4.12 170 17:33 26.04.2022
2433 Clear 26 1010 32 10000 4.12 190 14:46 26.04.2022
2434 Clear 26 1011 31 10000 3.13 181 13:34 26.04.2022
2435 Clear 26 1011 34 10000 3.6 200 12:34 26.04.2022
2436 Clear 25 1011 37 10000 3.09 200 10:46 26.04.2022
2437 Clear 25 1011 37 10000 2.24 279 09:50 26.04.2022
2438 Clear 22 1011 44 10000 1.79 261 08:28 26.04.2022
2439 Clouds 17 1009 57 10000 1.03 0 04:37 26.04.2022
2440 Clouds 19 1009 50 10000 2.24 200 02:40 26.04.2022
2441 Clouds 20 1010 48 10000 1.34 267 00:28 26.04.2022
2442 Clouds 21 1010 49 10000 3.6 340 22:50 25.04.2022
2443 Clouds 21 1010 51 10000 2.57 30 21:44 25.04.2022
2444 Clouds 21 1010 51 10000 2.57 30 21:44 25.04.2022
2445 Clouds 21 1009 52 10000 3.13 211 20:46 25.04.2022
2446 Clouds 22 1009 50 10000 1.79 275 19:39 25.04.2022
2447 Clouds 23 1008 46 10000 2.24 155 18:25 25.04.2022
2448 Clouds 24 1008 44 10000 3.58 236 17:32 25.04.2022
2449 Clouds 26 1008 38 10000 4.12 170 15:51 25.04.2022
2450 Clouds 26 1008 38 10000 5.66 170 15:18 25.04.2022
2451 Clouds 26 1008 37 10000 5.14 180 13:59 25.04.2022
2452 Clouds 26 1008 40 10000 4.02 240 12:22 25.04.2022
2453 Clouds 23 1009 46 10000 2.24 165 10:29 25.04.2022
2454 Clouds 22 1010 49 10000 0.89 146 09:23 25.04.2022
2455 Clouds 18 1009 65 10000 0.89 234 07:19 25.04.2022
2456 Clouds 16 1008 68 10000 0.89 27 05:32 25.04.2022
2457 Clouds 18 1009 61 10000 1.34 265 01:24 25.04.2022
2458 Clouds 18 1010 61 10000 1.34 44 23:54 24.04.2022
2459 Clouds 18 1010 61 10000 1.03 0 22:53 24.04.2022
2460 Clouds 19 1010 61 10000 1.03 0 22:32 24.04.2022
2461 Clouds 19 1010 61 10000 1.03 0 22:32 24.04.2022
2462 Clouds 19 1010 60 10000 0.89 288 21:54 24.04.2022
2463 Clouds 19 1010 60 10000 1.54 0 21:20 24.04.2022
2464 Clouds 20 1009 59 10000 0.89 272 20:39 24.04.2022
2465 Clouds 20 1009 60 10000 1.79 135 19:51 24.04.2022
2466 Clouds 22 1008 50 10000 3.58 289 18:28 24.04.2022
2467 Clouds 22 1009 49 10000 4.47 253 17:40 24.04.2022
2468 Clouds 23 1009 47 10000 4.02 270 17:19 24.04.2022
2469 Clouds 24 1009 45 10000 4.63 180 16:49 24.04.2022
2470 Clouds 24 1008 45 10000 4.63 180 16:20 24.04.2022
2471 Clouds 24 1009 44 10000 4.12 190 15:32 24.04.2022
2472 Clouds 25 1010 42 10000 4.63 190 14:30 24.04.2022
2473 Clouds 25 1010 43 10000 4.63 200 13:26 24.04.2022
2474 Clouds 25 1009 44 10000 4.12 200 12:38 24.04.2022
2475 Clouds 24 1010 46 10000 3.13 198 11:39 24.04.2022
2476 Clouds 23 1010 48 10000 3.13 104 10:32 24.04.2022
2477 Clear 22 1010 51 10000 1.34 290 09:39 24.04.2022
2478 Clear 18 1010 65 10000 0.89 232 07:31 24.04.2022
2479 Clear 15 1009 74 10000 1.03 0 04:56 24.04.2022
2480 Clear 16 1009 71 10000 1.79 30 01:50 24.04.2022
2481 Clear 16 1009 72 10000 1.34 186 00:33 24.04.2022
2482 Clear 17 1009 72 10000 1.79 33 23:45 23.04.2022
2483 Clear 17 1009 72 10000 1.79 41 23:22 23.04.2022
2484 Clear 18 1009 70 10000 1.03 0 21:55 23.04.2022
2485 Clear 18 1009 70 10000 1.54 0 21:35 23.04.2022
2486 Clear 18 1008 71 10000 1.54 0 20:57 23.04.2022
2487 Clear 19 1008 71 10000 1.79 248 19:49 23.04.2022
2488 Clear 19 1008 68 10000 2.24 241 19:19 23.04.2022
2489 Clear 19 1007 68 10000 2.24 246 18:53 23.04.2022
2490 Clouds 21 1007 59 10000 3.13 267 18:24 23.04.2022
2491 Clouds 21 1007 56 10000 3.09 170 17:43 23.04.2022
2492 Clouds 22 1008 53 10000 4.12 190 16:43 23.04.2022
2493 Clouds 23 1007 46 10000 3.6 200 15:32 23.04.2022
2494 Clear 23 1008 45 10000 3.6 190 12:50 23.04.2022
2495 Clear 21 1009 53 10000 2.06 170 10:50 23.04.2022
2496 Clear 20 1009 60 10000 2.24 161 09:38 23.04.2022
2497 Clouds 16 1009 78 10000 0.89 263 07:21 23.04.2022
2498 Clouds 15 1007 79 10000 1.34 338 03:54 23.04.2022
2499 Clouds 16 1008 79 10000 0.89 292 01:32 23.04.2022
2500 Clouds 16 1009 74 10000 1.34 276 23:32 22.04.2022
2501 Clouds 17 1009 69 10000 1.54 0 22:22 22.04.2022
2502 Clouds 17 1010 67 10000 1.79 231 21:44 22.04.2022
2503 Clouds 18 1010 65 10000 2.68 113 20:54 22.04.2022
2504 Clouds 18 1009 63 10000 3.58 114 20:27 22.04.2022
2505 Clouds 18 1009 59 10000 2.68 176 19:21 22.04.2022
2506 Clouds 18 1010 62 10000 3.58 160 18:45 22.04.2022
2507 Clouds 20 1009 50 10000 4.92 252 17:50 22.04.2022
2508 Clouds 21 1010 42 10000 4.92 281 16:46 22.04.2022
2509 Clouds 22 1009 36 10000 4.63 160 15:45 22.04.2022
2510 Clouds 22 1010 38 10000 5.66 140 15:18 22.04.2022
2511 Clouds 22 1011 39 10000 5.81 245 13:54 22.04.2022
2512 Clouds 22 1011 40 10000 4.12 160 12:59 22.04.2022
2513 Clouds 21 1012 46 10000 3.13 162 12:28 22.04.2022
2514 Clouds 21 1012 56 10000 3.6 190 11:22 22.04.2022
2515 Clouds 20 1012 58 10000 2.68 268 10:51 22.04.2022
2516 Clouds 20 1013 64 10000 2.57 170 10:31 22.04.2022
2517 Clouds 19 1013 65 10000 1.79 238 09:53 22.04.2022
2518 Clouds 18 1013 67 10000 1.79 274 08:51 22.04.2022
2519 Clouds 15 1013 77 10000 1.54 0 07:33 22.04.2022
2520 Clouds 14 1013 80 10000 1.34 28 03:47 22.04.2022
2521 Clouds 15 1015 78 10000 1.03 0 00:52 22.04.2022
2522 Clouds 15 1015 71 10000 1.34 262 23:26 21.04.2022
2523 Clouds 15 1015 69 10000 1.54 0 22:29 21.04.2022
2524 Clouds 16 1015 68 10000 1.79 151 20:46 21.04.2022
2525 Clouds 17 1015 67 10000 1.79 137 20:26 21.04.2022
2526 Clouds 18 1015 58 10000 3.13 147 18:47 21.04.2022
2527 Clear 19 1014 54 10000 3.6 190 18:19 21.04.2022
2528 Clear 20 1014 54 10000 4.12 190 16:47 21.04.2022
2529 Clear 21 1015 47 10000 3.6 190 15:22 21.04.2022
2530 Clear 21 1015 46 10000 4.12 170 14:50 21.04.2022
2531 Clear 20 1015 46 10000 3.6 180 13:24 21.04.2022
2532 Clear 20 1015 45 10000 4.02 213 12:59 21.04.2022
2533 Clear 20 1015 45 10000 2.06 180 11:19 21.04.2022
2534 Clear 17 1016 57 10000 0.45 137 08:57 21.04.2022
2535 Clear 15 1015 63 10000 1.03 0 07:49 21.04.2022
2536 Clear 12 1014 74 10000 1.79 25 05:44 21.04.2022
2537 Clear 13 1015 71 10000 1.34 24 03:33 21.04.2022
2538 Clear 13 1015 71 10000 1.34 17 02:48 21.04.2022
2539 Clear 13 1015 71 10000 1.34 17 02:48 21.04.2022
2540 Clear 14 1015 70 10000 3.13 198 01:41 21.04.2022
2541 Clear 14 1015 64 10000 2.24 225 23:51 20.04.2022
2542 Clear 15 1015 64 10000 1.79 192 23:23 20.04.2022
2543 Clear 15 1015 63 10000 2.24 225 22:51 20.04.2022
2544 Clear 15 1015 62 10000 2.24 259 22:32 20.04.2022
2545 Clear 15 1015 59 10000 25.93 60 21:33 20.04.2022
2546 Clear 15 1014 59 10000 25.93 300 20:41 20.04.2022
2547 Clouds 16 1014 61 10000 25.93 171 19:53 20.04.2022
2548 Clouds 16 1013 63 10000 2.06 150 19:23 20.04.2022
2549 Clouds 17 1014 56 10000 3.13 271 18:26 20.04.2022
2550 Clouds 17 1014 51 10000 5.14 170 16:57 20.04.2022
2551 Clouds 18 1014 50 10000 5.36 234 16:38 20.04.2022
2552 Clouds 18 1015 50 10000 6.17 170 14:26 20.04.2022
2553 Clouds 17 1016 46 10000 5.36 227 11:55 20.04.2022
2554 Clouds 17 1016 49 10000 5.14 200 11:29 20.04.2022
2555 Clouds 16 1016 54 10000 4.47 165 10:27 20.04.2022
2556 Clouds 15 1016 58 10000 4.02 239 09:26 20.04.2022
2557 Clouds 14 1016 64 10000 25.93 280 08:24 20.04.2022
2558 Clear 13 1016 68 10000 25.93 160 07:42 20.04.2022
2559 Clouds 10 1014 86 10000 1.34 178 04:37 20.04.2022
2560 Clouds 12 1015 75 10000 25.93 41 00:55 20.04.2022
2561 Clouds 12 1015 76 10000 25.93 41 00:20 20.04.2022
2562 Clouds 12 1015 72 10000 25.93 151 22:28 19.04.2022
2563 Clouds 12 1015 71 10000 25.93 341 21:57 19.04.2022
2564 Clouds 12 1015 70 10000 25.93 341 21:34 19.04.2022
2565 Clouds 12 1015 74 10000 3.6 160 20:56 19.04.2022
2566 Clouds 12 1014 73 10000 3.6 160 20:34 19.04.2022
2567 Clouds 13 1014 71 10000 3.6 150 19:24 19.04.2022
2568 Clouds 13 1013 69 10000 4.63 170 18:18 19.04.2022
2569 Clouds 14 1013 66 10000 5.14 180 16:46 19.04.2022
2570 Clouds 15 1012 64 10000 4.47 63 16:24 19.04.2022
2571 Clouds 15 1012 62 10000 3.13 120 15:20 19.04.2022
2572 Clouds 15 1012 62 10000 2.68 230 14:31 19.04.2022
2573 Clouds 14 1012 63 10000 2.68 212 12:52 19.04.2022
2574 Clouds 14 1012 64 10000 2.68 229 12:26 19.04.2022
2575 Clouds 13 1012 69 10000 2.57 340 11:23 19.04.2022
2576 Clouds 12 1012 71 10000 2.57 320 09:26 19.04.2022
2577 Clouds 11 1011 78 10000 2.24 54 07:26 19.04.2022
2578 Clouds 10 1008 78 10000 1.79 19 04:19 19.04.2022
2579 Clouds 10 1009 81 10000 3.13 355 00:56 19.04.2022
2580 Clouds 10 1009 79 10000 3.13 357 23:38 18.04.2022
2581 Clouds 10 1008 78 10000 4.92 44 21:56 18.04.2022
2582 Clouds 10 1008 78 10000 3.58 46 21:24 18.04.2022
2583 Clouds 10 1008 78 10000 5.36 86 20:38 18.04.2022
2584 Clouds 10 1008 78 10000 3.58 81 20:38 18.04.2022
2585 Clouds 10 1008 77 10000 4.47 86 19:59 18.04.2022
2586 Clouds 10 1008 76 10000 3.13 348 19:29 18.04.2022
2587 Clouds 11 1007 76 10000 4.47 42 18:37 18.04.2022
2588 Clouds 11 1007 75 9000 6.71 75 17:39 18.04.2022
2589 Clouds 11 1007 75 9000 6.71 75 17:39 18.04.2022
2590 Clouds 11 1008 76 8000 4.02 71 17:19 18.04.2022
2591 Clouds 11 1008 77 8000 3.58 13 16:36 18.04.2022
2592 Clouds 11 1007 79 8000 5.81 38 15:30 18.04.2022
2593 Clouds 11 1008 80 10000 5.36 52 13:55 18.04.2022
2594 Clouds 12 1006 70 10000 4.92 33 12:54 18.04.2022
2595 Clouds 13 1006 68 10000 6.71 91 12:23 18.04.2022
2596 Clouds 12 1007 74 10000 4.47 52 10:46 18.04.2022
2597 Clouds 12 1006 73 10000 5.36 65 09:31 18.04.2022
2598 Clouds 12 1006 78 10000 4.92 69 08:39 18.04.2022
2599 Clouds 11 1005 80 10000 4.92 113 06:44 18.04.2022
2600 Clouds 13 1003 79 10000 3.09 330 02:27 18.04.2022
2601 Clouds 13 1003 81 10000 4.92 338 23:21 17.04.2022
2602 Clouds 14 1002 74 10000 25.93 90 22:36 17.04.2022
2603 Clouds 14 1002 80 10000 4.12 320 21:34 17.04.2022
2604 Clouds 14 1002 81 10000 4.12 330 20:51 17.04.2022
2605 Clouds 13 1002 82 10000 5.14 330 20:18 17.04.2022
2606 Clouds 13 1001 83 10000 5.14 310 18:42 17.04.2022
2607 Clouds 13 1002 85 10000 4.12 330 17:26 17.04.2022
2608 Clouds 13 1001 82 10000 5.36 58 15:34 17.04.2022
2609 Clouds 14 1002 78 7000 5.81 36 14:45 17.04.2022
2610 Clouds 14 1002 75 9000 6.26 72 13:29 17.04.2022
2611 Clouds 15 1002 73 9000 6.26 46 12:45 17.04.2022
2612 Clouds 15 1004 66 10000 4.63 340 10:58 17.04.2022
2613 Clouds 16 1004 63 10000 6.17 320 10:29 17.04.2022
2614 Clouds 16 1004 56 10000 6.71 360 09:51 17.04.2022
2615 Clouds 16 1003 56 10000 8.94 32 09:20 17.04.2022
2616 Clouds 16 1004 54 10000 5.81 360 08:31 17.04.2022
2617 Clouds 17 1004 47 10000 5.36 90 06:29 17.04.2022
2618 Clouds 17 1007 43 10000 6.26 67 02:26 17.04.2022
2619 Clouds 17 1008 49 10000 5.81 96 00:41 17.04.2022
2620 Clouds 17 1008 49 10000 4.02 56 23:30 16.04.2022
2621 Clouds 18 1008 48 10000 3.13 53 21:49 16.04.2022
2622 Clouds 18 1009 53 10000 3.13 24 20:54 16.04.2022
2623 Clouds 18 1009 54 10000 1.79 142 19:28 16.04.2022
2624 Clouds 19 1009 52 10000 1.79 223 18:43 16.04.2022
2625 Clouds 21 1010 43 10000 3.13 136 17:20 16.04.2022
2626 Clouds 22 1011 40 10000 4.02 132 16:19 16.04.2022
2627 Clouds 22 1011 36 10000 4.12 190 14:58 16.04.2022
2628 Clouds 22 1011 37 10000 4.12 190 14:40 16.04.2022
2629 Clouds 22 1012 33 10000 3.13 212 13:50 16.04.2022
2630 Clouds 22 1012 36 10000 3.6 190 13:18 16.04.2022
2631 Clouds 22 1012 35 10000 4.02 111 13:18 16.04.2022
2632 Clouds 22 1012 36 10000 3.09 200 11:50 16.04.2022
2633 Clear 20 1013 42 10000 2.68 196 10:35 16.04.2022
2634 Clear 20 1012 42 10000 4.02 72 09:37 16.04.2022
2635 Clear 18 1013 47 10000 1.79 102 08:52 16.04.2022
2636 Clear 15 1013 51 10000 0.89 67 07:22 16.04.2022
2637 Clear 13 1013 57 10000 0.89 360 05:38 16.04.2022
2638 Clear 15 1015 56 10000 1.79 0 01:47 16.04.2022
2639 Clear 15 1015 58 10000 2.24 0 23:52 15.04.2022
2640 Clear 16 1016 58 10000 2.68 0 22:51 15.04.2022
2641 Clear 16 1016 57 10000 1.79 152 22:29 15.04.2022
2642 Clear 17 1016 50 10000 2.24 94 21:25 15.04.2022
2643 Clear 17 1016 46 10000 1.79 78 20:38 15.04.2022
2644 Clear 18 1016 45 10000 2.24 54 19:46 15.04.2022
2645 Clear 18 1016 44 10000 2.68 338 19:23 15.04.2022
2646 Clear 19 1015 43 10000 4.92 67 18:42 15.04.2022
2647 Clear 19 1015 41 10000 5.81 74 18:22 15.04.2022
2648 Clear 20 1015 39 10000 5.81 84 17:27 15.04.2022
2649 Clear 22 1016 36 10000 3.6 200 16:25 15.04.2022
2650 Clear 22 1016 35 10000 4.92 69 15:46 15.04.2022
2651 Clear 22 1018 33 10000 4.92 51 14:20 15.04.2022
2652 Clear 22 1017 32 10000 5.36 74 12:53 15.04.2022
2653 Clear 21 1018 32 10000 5.81 75 12:26 15.04.2022
2654 Clear 21 1019 34 10000 6.71 73 11:52 15.04.2022
2655 Clear 20 1019 36 10000 5.66 360 10:48 15.04.2022
2656 Clear 19 1019 37 10000 4.47 76 10:21 15.04.2022
2657 Clear 18 1020 39 10000 4.12 330 09:23 15.04.2022
2658 Clear 18 1020 39 10000 5.66 330 08:57 15.04.2022
2659 Clear 13 1020 54 10000 3.09 340 06:52 15.04.2022
2660 Clear 12 1020 54 10000 2.57 330 05:56 15.04.2022
2661 Clear 13 1020 54 10000 1.79 52 01:28 15.04.2022
2662 Clear 14 1020 54 10000 1.79 46 23:29 14.04.2022
2663 Clear 14 1020 53 10000 1.79 63 22:46 14.04.2022
2664 Clear 14 1020 52 10000 1.79 358 22:27 14.04.2022
2665 Clear 15 1020 52 10000 2.24 59 21:53 14.04.2022
2666 Clear 16 1019 49 10000 2.24 55 19:57 14.04.2022
2667 Clear 17 1019 47 10000 2.24 42 19:22 14.04.2022
2668 Clouds 18 1019 44 10000 5.14 180 17:56 14.04.2022
2669 Clouds 19 1020 43 10000 5.14 180 17:27 14.04.2022
2670 Clouds 19 1019 43 10000 5.14 180 16:32 14.04.2022
2671 Clouds 20 1020 46 10000 4.12 200 14:20 14.04.2022
2672 Rain 20 1020 47 10000 5.14 180 13:26 14.04.2022
2673 Clouds 20 1021 45 10000 4.12 180 12:38 14.04.2022
2674 Clouds 20 1021 42 10000 4.12 180 12:19 14.04.2022
2675 Clouds 19 1020 42 10000 4.12 180 11:21 14.04.2022
2676 Clouds 19 1020 41 10000 4.02 142 10:36 14.04.2022
2677 Clouds 18 1020 48 10000 4.02 133 09:54 14.04.2022
2678 Clouds 16 1020 57 10000 1.34 129 08:39 14.04.2022
2679 Clouds 11 1019 75 10000 1.54 0 06:26 14.04.2022
2680 Clouds 12 1019 73 10000 1.54 0 01:50 14.04.2022
2681 Clouds 14 1020 72 10000 1.54 0 22:45 13.04.2022
2682 Clouds 14 1019 69 10000 0.51 0 21:44 13.04.2022
2683 Clouds 15 1019 68 10000 1.54 0 20:53 13.04.2022
2684 Clouds 15 1018 63 10000 25.93 90 20:22 13.04.2022
2685 Clouds 15 1019 65 10000 4.02 237 19:23 13.04.2022
2686 Clouds 17 1019 58 10000 4.92 223 17:55 13.04.2022
2687 Clouds 18 1018 55 10000 4.47 252 17:23 13.04.2022
2688 Clouds 18 1018 51 10000 4.63 180 16:33 13.04.2022
2689 Clouds 19 1019 50 10000 5.14 190 15:32 13.04.2022
2690 Clouds 19 1019 51 10000 5.14 180 14:50 13.04.2022
2691 Clouds 19 1018 52 10000 4.12 180 14:18 13.04.2022
2692 Clouds 19 1020 53 10000 4.63 180 13:19 13.04.2022
2693 Clouds 18 1020 54 10000 4.12 190 12:25 13.04.2022
2694 Clouds 18 1019 52 10000 2.68 195 10:47 13.04.2022
2695 Clouds 16 1019 59 10000 0.45 338 08:58 13.04.2022
2696 Clear 16 1019 59 10000 0.45 207 08:33 13.04.2022
2697 Clear 11 1018 75 10000 1.54 350 06:51 13.04.2022
2698 Clouds 10 1019 76 10000 1.54 0 06:25 13.04.2022
2699 Clouds 10 1019 76 10000 1.79 25 04:55 13.04.2022
2700 Clouds 12 1020 68 10000 1.54 0 00:21 13.04.2022
2701 Clear 13 1020 67 10000 1.54 0 23:21 12.04.2022
2702 Clear 13 1020 65 10000 1.34 158 21:58 12.04.2022
2703 Clear 14 1019 63 10000 1.79 142 20:57 12.04.2022
2704 Clear 14 1019 60 10000 25.93 90 20:38 12.04.2022
2705 Clear 14 1019 57 10000 25.93 90 19:48 12.04.2022
2706 Clear 14 1020 59 10000 3.6 170 19:29 12.04.2022
2707 Clear 14 1020 60 10000 3.6 170 19:29 12.04.2022
2708 Clear 16 1019 50 10000 4.92 252 17:59 12.04.2022
2709 Clouds 16 1018 45 10000 25.93 90 16:58 12.04.2022
2710 Clouds 17 1019 45 10000 4.63 170 16:22 12.04.2022
2711 Clouds 18 1020 42 10000 3.6 190 15:29 12.04.2022
2712 Clouds 18 1020 39 10000 4.12 160 14:21 12.04.2022
2713 Clouds 17 1020 42 10000 4.63 180 13:29 12.04.2022
2714 Clouds 17 1021 42 10000 4.47 257 12:49 12.04.2022
2715 Clouds 17 1021 43 10000 3.58 191 11:46 12.04.2022
2716 Clear 16 1022 41 10000 3.58 121 10:32 12.04.2022
2717 Clear 15 1022 46 10000 2.68 13 09:18 12.04.2022
2718 Clear 13 1022 53 10000 2.57 310 07:51 12.04.2022
2719 Clouds 10 1021 64 10000 1.54 0 05:50 12.04.2022
2720 Clouds 10 1021 65 10000 1.03 0 04:55 12.04.2022
2721 Clouds 12 1021 55 10000 0.89 358 23:53 11.04.2022
2722 Clouds 12 1021 53 10000 1.03 0 22:44 11.04.2022
2723 Clouds 13 1019 51 10000 3.13 82 21:37 11.04.2022
2724 Clouds 13 1019 52 10000 3.58 82 20:56 11.04.2022
2725 Clouds 13 1019 51 10000 4.47 86 20:29 11.04.2022
2726 Clouds 13 1018 54 10000 4.47 76 19:42 11.04.2022
2727 Clouds 14 1017 51 10000 3.13 86 19:18 11.04.2022
2728 Clouds 15 1016 45 10000 4.92 38 18:41 11.04.2022
2729 Clouds 16 1017 35 10000 6.17 360 17:56 11.04.2022
2730 Clouds 17 1015 34 10000 5.14 360 16:54 11.04.2022
2731 Clouds 17 1015 34 10000 5.36 338 15:54 11.04.2022
2732 Clouds 16 1015 36 10000 5.36 350 13:59 11.04.2022
2733 Clouds 15 1015 35 10000 7.2 340 12:47 11.04.2022
2734 Clouds 15 1015 35 10000 5.14 320 12:29 11.04.2022
2735 Clouds 15 1015 36 10000 6.17 330 11:31 11.04.2022
2736 Clouds 14 1014 36 10000 4.92 334 10:24 11.04.2022
2737 Clouds 13 1012 41 10000 5.36 288 08:56 11.04.2022
2738 Clouds 12 1011 49 10000 5.36 257 06:21 11.04.2022
2739 Clouds 13 1009 56 10000 6.26 288 01:53 11.04.2022
2740 Clouds 15 1007 51 10000 7.15 316 22:34 10.04.2022
2741 Clouds 15 1007 48 10000 7.15 306 21:55 10.04.2022
2742 Clouds 16 1007 46 10000 8.05 261 21:28 10.04.2022
2743 Clouds 17 1007 40 10000 10.28 303 20:30 10.04.2022
2744 Clouds 18 1006 36 10000 8.23 290 19:43 10.04.2022
2745 Clouds 18 1005 38 10000 7.6 317 19:18 10.04.2022
2746 Clouds 19 1004 43 10000 7.15 275 18:41 10.04.2022
2747 Clouds 20 1004 42 10000 7.6 282 17:52 10.04.2022
2748 Clouds 20 1004 44 10000 7.6 342 17:33 10.04.2022
2749 Clouds 22 1003 48 10000 6.71 265 16:21 10.04.2022
2750 Clouds 22 1004 45 10000 5.36 321 14:59 10.04.2022
2751 Clouds 22 1004 43 10000 4.92 242 13:58 10.04.2022
2752 Clouds 21 1006 43 10000 4.63 180 12:33 10.04.2022
2753 Clouds 21 1007 39 10000 4.47 242 11:46 10.04.2022
2754 Clouds 21 1007 39 10000 3.6 160 11:28 10.04.2022
2755 Clouds 21 1007 37 10000 4.63 180 10:43 10.04.2022
2756 Clouds 21 1007 40 10000 4.92 250 09:50 10.04.2022
2757 Clouds 19 1007 48 10000 3.58 243 08:56 10.04.2022
2758 Clouds 18 1008 52 10000 4.47 218 08:21 10.04.2022
2759 Clouds 16 1008 53 10000 4.02 167 06:59 10.04.2022
2760 Clouds 16 1007 51 10000 2.68 230 05:19 10.04.2022
2761 Clear 17 1007 54 10000 3.58 250 02:20 10.04.2022
2762 Clear 18 1009 55 10000 4.92 227 23:54 09.04.2022
2763 Clear 18 1008 56 10000 4.02 236 23:29 09.04.2022
2764 Clear 18 1008 56 10000 2.68 234 22:39 09.04.2022
2765 Clear 18 1008 58 10000 4.47 260 21:31 09.04.2022
2766 Clear 18 1008 58 10000 3.13 250 20:35 09.04.2022
2767 Clear 19 1008 56 10000 4.02 242 19:59 09.04.2022
2768 Clear 19 1008 57 10000 3.58 215 19:41 09.04.2022
2769 Clear 19 1007 55 10000 4.47 246 18:54 09.04.2022
2770 Clear 21 1007 47 10000 4.02 219 18:18 09.04.2022
2771 Clear 22 1007 45 10000 5.14 190 17:18 09.04.2022
2772 Clear 22 1007 45 10000 4.02 229 16:42 09.04.2022
2773 Clear 22 1007 46 10000 5.14 190 15:52 09.04.2022
2774 Clear 23 1007 47 10000 6.17 170 15:26 09.04.2022
2775 Clear 22 1008 48 10000 5.66 200 14:26 09.04.2022
2776 Clear 22 1008 48 10000 6.17 200 13:38 09.04.2022
2777 Clear 23 1009 46 10000 5.36 255 12:59 09.04.2022
2778 Clear 22 1009 48 10000 5.81 234 11:52 09.04.2022
2779 Clear 21 1009 48 10000 5.36 247 10:53 09.04.2022
2780 Clear 21 1010 49 10000 4.02 217 10:19 09.04.2022
2781 Clear 20 1009 52 10000 3.58 244 09:24 09.04.2022
2782 Clear 18 1009 56 10000 3.58 194 08:35 09.04.2022
2783 Clear 15 1009 68 10000 1.34 254 05:35 09.04.2022
2784 Clear 17 1011 61 10000 3.13 189 00:36 09.04.2022
2785 Clear 17 1011 61 10000 3.13 189 00:36 09.04.2022
2786 Clear 17 1012 59 10000 3.58 212 23:24 08.04.2022
2787 Clear 18 1012 58 10000 1.34 283 21:54 08.04.2022
2788 Clear 18 1012 54 10000 2.68 192 20:45 08.04.2022
2789 Clear 18 1011 50 10000 2.57 210 19:57 08.04.2022
2790 Clear 19 1011 47 10000 5.14 190 18:59 08.04.2022
2791 Clear 20 1011 43 10000 5.14 210 18:25 08.04.2022
2792 Clear 21 1011 43 10000 4.47 225 17:38 08.04.2022
2793 Clear 21 1010 41 10000 5.36 254 17:19 08.04.2022
2794 Clear 22 1010 41 10000 4.92 241 16:32 08.04.2022
2795 Clear 22 1010 43 10000 7.15 259 15:38 08.04.2022
2796 Clear 23 1010 38 10000 8.05 246 14:52 08.04.2022
2797 Rain 24 1010 36 10000 4.92 290 14:21 08.04.2022
2798 Clear 23 1011 36 10000 6.71 232 13:41 08.04.2022
2799 Clear 23 1011 33 10000 6.26 246 13:22 08.04.2022
2800 Clear 22 1011 41 10000 4.47 235 11:43 08.04.2022
2801 Clear 20 1010 46 10000 6.71 282 10:31 08.04.2022
2802 Clear 19 1010 52 10000 5.36 270 09:25 08.04.2022
2803 Clear 17 1009 58 10000 4.92 284 08:25 08.04.2022
2804 Clear 14 1008 65 10000 4.02 272 06:47 08.04.2022
2805 Clouds 14 1007 64 10000 4.02 327 04:32 08.04.2022
2806 Clouds 16 1006 64 10000 6.71 258 00:33 08.04.2022
2807 Clouds 17 1006 61 10000 4.92 287 23:59 07.04.2022
2808 Clouds 17 1005 60 10000 4.47 286 22:58 07.04.2022
2809 Clear 17 1005 57 10000 4.92 283 22:37 07.04.2022
2810 Clouds 18 1005 55 10000 6.71 319 22:19 07.04.2022
2811 Clouds 18 1004 51 10000 5.81 259 21:47 07.04.2022
2812 Clouds 18 1004 50 10000 7.15 267 20:58 07.04.2022
2813 Clouds 18 1003 48 10000 8.05 281 20:30 07.04.2022
2814 Clouds 21 1002 45 10000 6.71 295 17:57 07.04.2022
2815 Clouds 22 1002 47 10000 7.15 267 17:24 07.04.2022
2816 Clouds 22 1002 44 10000 6.71 268 16:43 07.04.2022
2817 Clouds 23 1001 44 10000 7.15 295 16:20 07.04.2022
2818 Clouds 23 1002 54 9000 4.92 281 14:36 07.04.2022
2819 Clouds 21 1003 56 9000 4.92 265 13:42 07.04.2022
2820 Clouds 21 1003 60 9000 4.47 265 12:41 07.04.2022
2821 Clouds 18 1004 72 9000 3.58 252 11:29 07.04.2022
2822 Clouds 16 1003 75 8000 1.79 35 09:37 07.04.2022
2823 Drizzle 16 1006 76 9000 1.34 209 08:37 07.04.2022
2824 Clouds 15 1007 78 9000 2.06 270 06:42 07.04.2022
2825 Clear 15 1009 80 10000 2.57 10 02:47 07.04.2022
2826 Clear 15 1010 79 10000 0.45 86 02:18 07.04.2022
2827 Clear 15 1012 80 10000 0.89 307 23:57 06.04.2022
2828 Clear 15 1013 80 10000 0.89 275 22:48 06.04.2022
2829 Clear 15 1013 80 10000 2.06 200 22:26 06.04.2022
2830 Clear 15 1013 79 10000 2.68 229 21:34 06.04.2022
2831 Clear 16 1012 75 10000 1.54 0 20:35 06.04.2022
2832 Clouds 16 1012 74 10000 1.34 275 19:53 06.04.2022
2833 Clouds 16 1012 70 10000 2.24 251 18:51 06.04.2022
2834 Clouds 17 1012 68 10000 3.6 200 18:22 06.04.2022
2835 Clouds 18 1012 62 10000 3.13 193 17:35 06.04.2022
2836 Clouds 19 1013 59 10000 5.14 190 16:38 06.04.2022
2837 Clouds 19 1013 58 10000 4.02 237 15:48 06.04.2022
2838 Clouds 19 1013 56 10000 4.63 180 14:57 06.04.2022
2839 Clear 20 1013 54 10000 3.58 231 13:23 06.04.2022
2840 Clouds 19 1014 54 10000 3.6 190 12:26 06.04.2022
2841 Clouds 18 1014 56 10000 3.09 170 10:47 06.04.2022
2842 Clouds 18 1014 56 10000 1.54 0 10:25 06.04.2022
2843 Clouds 17 1014 60 10000 1.54 0 09:40 06.04.2022
2844 Clouds 14 1013 68 10000 0.45 238 08:32 06.04.2022
2845 Clouds 13 1013 72 10000 0.89 308 07:50 06.04.2022
2846 Clouds 12 1011 75 10000 0.89 348 03:54 06.04.2022
2847 Clouds 13 1011 72 10000 3.09 310 23:53 05.04.2022
2848 Clouds 13 1011 71 10000 1.54 0 22:57 05.04.2022
2849 Clouds 14 1011 68 10000 3.6 320 21:23 05.04.2022
2850 Clouds 14 1011 66 10000 3.09 320 20:26 05.04.2022
2851 Clouds 15 1010 66 10000 4.02 94 19:47 05.04.2022
2852 Clouds 16 1009 57 10000 5.81 84 18:18 05.04.2022
2853 Clouds 18 1008 53 10000 5.81 96 16:54 05.04.2022
2854 Clouds 19 1008 51 10000 5.36 71 15:57 05.04.2022
2855 Clouds 19 1008 50 10000 9.26 60 15:34 05.04.2022
2856 Clouds 19 1009 47 10000 6.71 49 14:36 05.04.2022
2857 Clouds 20 1009 45 10000 3.13 192 13:35 05.04.2022
2858 Clouds 18 1010 48 10000 3.58 73 11:51 05.04.2022
2859 Clouds 18 1010 48 10000 3.58 73 11:51 05.04.2022
2860 Clouds 18 1010 49 10000 4.92 90 11:32 05.04.2022
2861 Clouds 17 1011 53 10000 4.47 29 10:41 05.04.2022
2862 Clouds 14 1011 64 10000 6.26 76 08:55 05.04.2022
2863 Clouds 12 1011 75 10000 6.71 90 07:22 05.04.2022
2864 Clear 13 1012 64 10000 3.13 92 01:58 05.04.2022
2865 Clear 14 1014 62 10000 2.24 70 22:44 04.04.2022
2866 Clear 14 1014 62 10000 2.24 82 22:26 04.04.2022
2867 Clear 14 1014 61 10000 2.68 53 21:21 04.04.2022
2868 Clear 15 1014 60 10000 1.79 91 20:50 04.04.2022
2869 Clear 15 1015 60 10000 1.34 39 20:22 04.04.2022
2870 Clear 15 1015 57 10000 2.68 125 19:26 04.04.2022
2871 Clear 16 1015 56 10000 1.79 92 18:37 04.04.2022
2872 Clouds 18 1016 49 10000 3.09 170 16:37 04.04.2022
2873 Clouds 18 1016 49 10000 4.63 180 15:58 04.04.2022
2874 Clouds 18 1016 52 10000 4.63 180 15:33 04.04.2022
2875 Clear 18 1015 47 10000 4.63 180 14:46 04.04.2022
2876 Clear 19 1016 41 10000 3.58 90 13:33 04.04.2022
2877 Clouds 18 1017 41 10000 2.24 140 12:26 04.04.2022
2878 Clouds 18 1018 41 10000 3.13 76 11:29 04.04.2022
2879 Clouds 16 1019 44 10000 2.24 168 09:51 04.04.2022
2880 Clear 12 1017 53 10000 0.89 338 05:27 04.04.2022
2881 Clear 13 1017 51 10000 3.09 340 02:41 04.04.2022
2882 Clouds 14 1015 48 10000 3.58 232 22:49 03.04.2022
2883 Clear 15 1015 47 10000 3.13 235 21:58 03.04.2022
2884 Clear 15 1015 46 10000 3.58 277 21:25 03.04.2022
2885 Clear 16 1014 42 10000 3.13 274 20:21 03.04.2022
2886 Clouds 17 1012 45 10000 4.47 236 18:37 03.04.2022
2887 Clouds 18 1012 42 10000 5.36 263 17:50 03.04.2022
2888 Clouds 18 1012 42 10000 4.47 158 17:32 03.04.2022
2889 Clouds 19 1012 41 10000 4.92 265 16:49 03.04.2022
2890 Clouds 20 1011 39 10000 3.6 200 15:42 03.04.2022
2891 Clouds 19 1013 38 10000 4.92 215 14:20 03.04.2022
2892 Clouds 19 1014 40 10000 3.58 266 12:59 03.04.2022
2893 Clouds 18 1014 45 10000 4.47 261 11:39 03.04.2022
2894 Clouds 16 1013 50 10000 5.81 247 09:52 03.04.2022
2895 Clouds 16 1013 54 10000 4.92 219 08:57 03.04.2022
2896 Clouds 14 1011 54 10000 3.13 280 05:45 03.04.2022
2897 Clear 15 1010 59 10000 4.92 240 02:55 03.04.2022
2898 Clouds 16 1009 56 10000 5.36 216 23:35 02.04.2022
2899 Clouds 16 1010 52 10000 4.47 194 22:43 02.04.2022
2900 Clouds 17 1009 52 10000 5.36 240 21:55 02.04.2022
2901 Clouds 17 1009 52 10000 4.02 188 21:20 02.04.2022
2902 Clouds 17 1009 53 10000 4.47 257 20:36 02.04.2022
2903 Clouds 19 1008 47 10000 3.58 258 18:47 02.04.2022
2904 Clouds 20 1008 45 10000 4.47 248 18:19 02.04.2022
2905 Clouds 21 1008 46 10000 4.92 217 17:23 02.04.2022
2906 Clouds 22 1008 44 10000 6.71 259 15:44 02.04.2022
2907 Clouds 22 1008 43 10000 6.71 263 15:19 02.04.2022
2908 Clouds 22 1008 44 10000 4.92 207 14:31 02.04.2022
2909 Clouds 21 1009 42 10000 5.36 268 13:34 02.04.2022
2910 Clouds 20 1010 42 10000 4.92 273 12:21 02.04.2022
2911 Clouds 19 1009 48 10000 4.92 252 10:31 02.04.2022
2912 Clouds 17 1009 60 10000 3.58 255 08:26 02.04.2022
2913 Clear 15 1007 69 10000 2.68 246 05:24 02.04.2022
2914 Clear 16 1005 65 10000 5.81 232 02:56 02.04.2022
2915 Clear 17 1006 69 10000 5.36 222 23:54 01.04.2022
2916 Clear 17 1005 68 10000 5.36 148 22:51 01.04.2022
2917 Clear 17 1005 72 10000 6.71 238 21:24 01.04.2022
2918 Clear 18 1004 74 10000 6.71 225 20:48 01.04.2022
2919 Clear 18 1004 73 10000 5.36 262 19:46 01.04.2022
2920 Clear 18 1003 71 10000 6.26 148 19:26 01.04.2022
2921 Clear 18 1002 71 10000 7.15 142 18:42 01.04.2022
2922 Clear 20 1002 70 10000 8.05 158 17:43 01.04.2022
2923 Clear 21 1002 65 10000 6.71 157 16:33 01.04.2022
2924 Clear 22 1002 56 10000 8.05 134 15:18 01.04.2022
2925 Clear 23 1003 53 10000 6.26 144 14:18 01.04.2022
2926 Clear 23 1003 53 10000 6.17 160 13:32 01.04.2022
2927 Clouds 22 1004 53 8000 8.05 212 12:30 01.04.2022
2928 Clouds 21 1004 54 8000 6.26 157 10:54 01.04.2022
2929 Clouds 20 1005 59 10000 4.92 140 09:49 01.04.2022
2930 Clouds 17 1005 72 8000 4.47 128 07:50 01.04.2022
2931 Clouds 16 1005 77 10000 2.24 146 06:30 01.04.2022
2932 Clouds 16 1005 79 10000 3.13 143 04:44 01.04.2022
2933 Clouds 16 1006 78 10000 2.68 240 03:21 01.04.2022
2934 Clear 15 1007 83 10000 3.13 30 01:52 01.04.2022
2935 Clouds 15 1009 79 10000 3.09 140 22:37 31.03.2022
2936 Clouds 16 1009 77 10000 3.6 150 21:44 31.03.2022
2937 Clouds 16 1009 77 10000 5.14 170 21:21 31.03.2022
2938 Clouds 16 1010 76 10000 6.17 160 20:28 31.03.2022
2939 Clouds 16 1009 76 10000 5.14 160 19:44 31.03.2022
2940 Clouds 17 1010 74 10000 5.81 138 18:38 31.03.2022
2941 Clouds 17 1009 74 10000 5.14 150 17:32 31.03.2022
2942 Clouds 18 1010 75 9000 6.69 150 16:18 31.03.2022
2943 Clouds 17 1010 77 9000 6.17 150 15:33 31.03.2022
2944 Clouds 18 1011 74 9000 6.17 150 14:52 31.03.2022
2945 Clouds 18 1011 73 9000 6.69 150 14:19 31.03.2022
2946 Clouds 16 1012 78 9000 5.14 140 11:32 31.03.2022
2947 Clouds 16 1013 81 9000 5.36 148 10:41 31.03.2022
2948 Clouds 15 1012 83 8000 4.12 140 09:44 31.03.2022
2949 Clouds 15 1012 87 9000 2.68 131 07:49 31.03.2022
2950 Clouds 14 1011 88 9000 3.13 140 03:57 31.03.2022
2951 Clouds 15 1013 86 9000 2.68 141 23:27 30.03.2022
2952 Clouds 15 1013 84 9000 3.13 152 22:23 30.03.2022
2953 Clouds 15 1013 82 9000 2.68 142 21:33 30.03.2022
2954 Clouds 15 1013 79 9000 2.68 159 20:44 30.03.2022
2955 Clouds 16 1012 77 10000 4.02 148 19:57 30.03.2022
2956 Clouds 16 1012 74 10000 3.58 189 18:50 30.03.2022
2957 Clouds 17 1010 69 10000 5.14 170 17:52 30.03.2022
2958 Clouds 17 1009 69 10000 5.14 170 17:52 30.03.2022
2959 Clouds 17 1012 70 10000 5.14 170 17:32 30.03.2022
2960 Clear 19 1012 58 10000 3.13 187 16:42 30.03.2022
2961 Clear 19 1012 56 10000 4.12 160 16:19 30.03.2022
2962 Clear 19 1013 54 10000 4.12 180 14:47 30.03.2022
2963 Clear 19 1011 52 10000 4.02 237 13:32 30.03.2022
2964 Clear 19 1013 52 10000 2.68 252 12:36 30.03.2022
2965 Clouds 17 1012 62 10000 2.68 224 10:48 30.03.2022
2966 Clear 17 1014 66 10000 1.79 137 09:58 30.03.2022
2967 Clear 15 1014 76 10000 0.45 341 08:29 30.03.2022
2968 Clear 12 1012 81 10000 0.45 338 07:29 30.03.2022
2969 Clouds 11 1011 82 10000 0.89 338 05:40 30.03.2022
2970 Clouds 12 1011 79 10000 1.34 26 03:20 30.03.2022
2971 Clouds 14 1013 78 10000 0 0 22:56 29.03.2022
2972 Clouds 14 1012 77 10000 0.89 17 21:58 29.03.2022
2973 Clouds 14 1012 77 10000 0.89 222 21:37 29.03.2022
2974 Clouds 15 1012 74 10000 0.89 251 20:39 29.03.2022
2975 Clouds 16 1012 69 10000 1.79 298 19:34 29.03.2022
2976 Clouds 16 1011 65 10000 2.57 190 18:54 29.03.2022
2977 Clouds 18 1012 58 10000 3.09 200 17:57 29.03.2022
2978 Clouds 18 1014 57 10000 3.09 180 17:20 29.03.2022
2979 Clouds 18 1014 57 10000 3.09 180 16:54 29.03.2022
2980 Clouds 18 1014 50 10000 3.58 242 15:44 29.03.2022
2981 Clouds 19 1015 54 10000 4.12 200 14:43 29.03.2022
2982 Clouds 19 1013 53 10000 4.02 263 13:41 29.03.2022
2983 Clouds 18 1015 53 10000 2.57 200 12:40 29.03.2022
2984 Clouds 18 1017 56 10000 3.13 142 11:27 29.03.2022
2985 Clouds 16 1017 59 10000 2.24 80 10:23 29.03.2022
2986 Clouds 15 1015 60 10000 1.79 69 08:57 29.03.2022
2987 Clouds 12 1016 68 10000 0.89 34 06:53 29.03.2022
2988 Clouds 12 1017 65 10000 1.34 58 03:19 29.03.2022
2989 Clouds 13 1020 71 10000 2.06 350 23:46 28.03.2022
2990 Clouds 14 1020 71 10000 1.79 106 22:58 28.03.2022
2991 Clouds 14 1020 69 10000 1.34 40 22:35 28.03.2022
2992 Clouds 14 1020 68 10000 1.34 86 21:48 28.03.2022
2993 Clouds 15 1021 67 10000 1.79 86 20:41 28.03.2022
2994 Clouds 15 1021 63 10000 1.34 59 19:59 28.03.2022
2995 Clouds 15 1021 63 10000 1.34 71 19:40 28.03.2022
2996 Clouds 16 1020 61 10000 1.54 0 18:51 28.03.2022
2997 Clouds 17 1021 55 10000 1.34 170 17:41 28.03.2022
2998 Clouds 18 1022 57 10000 0.89 221 16:58 28.03.2022
2999 Clouds 16 1024 63 10000 2.24 151 15:38 28.03.2022
3000 Clear 16 1024 66 10000 2.68 215 14:24 28.03.2022
3001 Clear 17 1023 61 10000 3.09 190 13:26 28.03.2022
3002 Clear 18 1024 57 10000 2.24 257 11:53 28.03.2022
3003 Clear 16 1024 70 10000 1.79 148 10:35 28.03.2022
3004 Clear 15 1024 73 10000 0.89 306 09:21 28.03.2022
3005 Clear 15 1024 79 10000 0 0 08:45 28.03.2022
3006 Clear 14 1024 81 10000 1.54 0 08:21 28.03.2022
3007 Clear 13 1024 81 10000 0.89 360 07:23 28.03.2022
3008 Clear 13 1024 75 10000 1.54 0 02:46 28.03.2022
3009 Clear 13 1025 70 10000 1.03 0 22:57 27.03.2022
3010 Clear 14 1025 64 10000 1.34 36 21:55 27.03.2022
3011 Clear 14 1025 65 10000 1.03 0 21:36 27.03.2022
3012 Clear 14 1025 67 10000 0.45 247 20:41 27.03.2022
3013 Clear 15 1024 71 10000 1.03 0 19:44 27.03.2022
3014 Clear 15 1024 73 10000 2.57 200 18:47 27.03.2022
3015 Clear 16 1024 71 10000 2.68 257 18:24 27.03.2022
3016 Clear 17 1024 63 10000 2.68 161 17:37 27.03.2022
3017 Clear 18 1023 52 10000 4.63 190 15:55 27.03.2022
3018 Clear 19 1027 43 10000 3.13 229 13:59 27.03.2022
3019 Clouds 19 1027 45 10000 2.68 253 13:25 27.03.2022
3020 Clear 18 1027 50 10000 2.24 210 11:41 27.03.2022
3021 Clouds 16 1027 59 10000 1.34 330 09:49 27.03.2022
3022 Clouds 12 1025 72 10000 0.45 13 07:47 27.03.2022
3023 Clouds 11 1024 76 10000 1.79 19 04:49 27.03.2022
3024 Clouds 12 1024 69 10000 1.54 0 00:26 27.03.2022
3025 Clear 12 1025 67 10000 1.54 0 22:52 26.03.2022
3026 Clear 12 1025 66 10000 1.54 0 22:25 26.03.2022
3027 Clear 13 1025 65 10000 1.54 0 21:31 26.03.2022
3028 Clear 13 1024 61 10000 1.79 247 19:39 26.03.2022
3029 Clear 14 1024 60 10000 2.06 210 18:44 26.03.2022
3030 Clouds 15 1025 54 10000 3.09 180 17:44 26.03.2022
3031 Clouds 15 1026 52 10000 4.63 180 16:46 26.03.2022
3032 Clouds 17 1025 45 10000 4.47 110 15:43 26.03.2022
3033 Clouds 18 1025 42 10000 4.92 157 14:18 26.03.2022
3034 Clear 18 1025 41 10000 4.92 140 13:47 26.03.2022
3035 Clear 18 1026 42 10000 5.36 142 12:31 26.03.2022
3036 Clear 17 1026 39 10000 4.02 87 10:56 26.03.2022
3037 Clear 16 1026 40 10000 4.92 44 09:21 26.03.2022
3038 Clear 15 1026 41 10000 3.09 360 07:34 26.03.2022
3039 Clear 13 1022 48 10000 1.79 132 05:49 26.03.2022
3040 Clear 15 1022 44 10000 1.79 311 02:34 26.03.2022
3041 Clear 15 1018 59 10000 3.09 360 22:50 25.03.2022
3042 Clear 15 1017 58 10000 3.09 360 20:58 25.03.2022
3043 Clear 16 1018 56 10000 3.13 226 20:26 25.03.2022
3044 Clear 17 1017 52 10000 4.12 360 19:20 25.03.2022
3045 Clear 17 1016 51 10000 3.09 360 18:36 25.03.2022
3046 Clear 18 1017 38 10000 4.12 300 17:34 25.03.2022
3047 Clear 21 1016 26 10000 3.58 287 16:29 25.03.2022
3048 Clear 22 1018 27 10000 4.02 244 15:37 25.03.2022
3049 Clear 22 1018 22 10000 4.02 260 13:32 25.03.2022
3050 Clear 21 1019 26 10000 4.92 308 11:38 25.03.2022
3051 Clear 19 1018 38 10000 3.09 140 09:43 25.03.2022
3052 Clear 17 1020 42 10000 3.13 261 08:56 25.03.2022
3053 Clear 15 1021 50 10000 2.24 220 07:47 25.03.2022
3054 Clear 13 1020 57 10000 1.34 241 07:19 25.03.2022
3055 Clear 10 1017 62 10000 1.34 202 03:58 25.03.2022
3056 Clear 11 1018 59 10000 2.68 142 23:54 24.03.2022
3057 Clear 12 1018 49 10000 3.13 203 22:24 24.03.2022
3058 Clear 12 1019 44 10000 1.79 253 21:24 24.03.2022
3059 Clear 13 1019 40 10000 1.85 316 19:50 24.03.2022
3060 Clear 14 1020 41 10000 0.89 238 18:45 24.03.2022
3061 Clouds 16 1020 23 10000 1.54 0 17:38 24.03.2022
3062 Clouds 17 1021 24 10000 3.6 360 16:41 24.03.2022
3063 Clouds 17 1019 24 10000 6.17 350 14:58 24.03.2022
3064 Clouds 17 1019 25 10000 6.17 350 14:39 24.03.2022
3065 Clouds 17 1019 26 10000 6.26 311 13:36 24.03.2022
3066 Clouds 16 1020 28 10000 6.17 350 12:35 24.03.2022
3067 Clouds 15 1020 33 10000 6.71 360 11:31 24.03.2022
3068 Clouds 15 1021 32 10000 6.17 350 11:31 24.03.2022
3069 Clouds 14 1020 39 10000 7.6 350 09:34 24.03.2022
3070 Clouds 13 1020 41 10000 9.39 333 08:39 24.03.2022
3071 Clouds 8 1022 54 10000 4.12 300 06:18 24.03.2022
3072 Clouds 8 1019 57 10000 3.09 240 01:20 24.03.2022
3073 Clouds 7 1019 60 10000 2.06 290 22:26 23.03.2022
3074 Clouds 8 1019 59 10000 2.57 320 21:25 23.03.2022
3075 Clouds 8 1019 58 10000 2.57 320 20:46 23.03.2022
3076 Clouds 8 1019 54 10000 2.57 340 19:33 23.03.2022
3077 Clouds 9 1019 50 10000 4.12 340 18:22 23.03.2022
3078 Clouds 10 1018 48 10000 5.14 350 17:31 23.03.2022
3079 Clouds 10 1020 58 10000 6.17 10 16:18 23.03.2022
3080 Clouds 9 1020 73 7000 5.36 38 14:49 23.03.2022
3081 Clouds 9 1018 74 7000 8.05 19 13:34 23.03.2022
3082 Clouds 8 1019 78 7000 5.36 60 11:38 23.03.2022
3083 Drizzle 8 1018 69 8000 6.26 318 08:51 23.03.2022
3084 Clouds 8 1018 68 10000 5.81 52 06:29 23.03.2022
3085 Clouds 7 1016 68 8000 4.92 5 03:57 23.03.2022
3086 Clouds 8 1017 68 9000 6.26 102 00:29 23.03.2022
3087 Clouds 8 1017 68 9000 6.26 102 00:29 23.03.2022
3088 Clouds 8 1016 77 9000 6.26 18 22:25 22.03.2022
3089 Clouds 8 1018 83 8000 8.05 56 21:29 22.03.2022
3090 Clouds 8 1016 82 8000 7.15 315 20:34 22.03.2022
3091 Clouds 7 1016 84 10000 4.02 356 19:31 22.03.2022
3092 Clouds 8 1017 75 8194 5.36 360 18:54 22.03.2022
3093 Clouds 10 1018 60 10000 6.17 360 17:46 22.03.2022
3094 Clouds 10 1018 55 10000 7.6 338 17:23 22.03.2022
3095 Clouds 12 1018 42 10000 7.72 360 15:52 22.03.2022
3096 Rain 12 1018 40 10000 10.29 360 15:22 22.03.2022
3097 Clouds 12 1018 39 10000 7.72 360 14:46 22.03.2022
3098 Clouds 12 1018 38 10000 8.05 27 14:25 22.03.2022
3099 Clouds 12 1019 36 10000 8.94 360 12:46 22.03.2022
3100 Clouds 11 1020 38 10000 10.8 360 11:36 22.03.2022
3101 Clouds 10 1021 39 10000 8.23 360 10:23 22.03.2022
3102 Clouds 9 1019 44 10000 5.36 332 07:48 22.03.2022
3103 Clear 7 1019 50 10000 4.02 5 05:20 22.03.2022
3104 Clouds 7 1020 49 10000 5.36 26 03:38 22.03.2022
3105 Clouds 7 1021 58 10000 5.36 30 23:49 21.03.2022
3106 Clouds 6 1022 73 8000 5.81 344 21:58 21.03.2022
3107 Clouds 6 1023 81 8000 4.92 346 20:45 21.03.2022
3108 Clouds 6 1023 82 10000 6.71 355 20:27 21.03.2022
3109 Clouds 5 1023 82 8000 6.71 45 19:57 21.03.2022
3110 Clouds 5 1024 83 8000 4.47 347 19:25 21.03.2022
3111 Clouds 6 1024 77 9000 4.47 20 17:53 21.03.2022
3112 Clouds 6 1024 71 10000 4.92 77 17:18 21.03.2022
3113 Clouds 7 1024 66 10000 4.92 340 16:39 21.03.2022
3114 Clouds 7 1025 65 10000 8.05 353 15:48 21.03.2022
3115 Drizzle 8 1025 58 8000 5.81 34 14:56 21.03.2022
3116 Clouds 7 1025 61 9000 5.36 19 13:46 21.03.2022
3117 Drizzle 8 1025 56 9000 10.28 338 12:34 21.03.2022
3118 Rain 7 1026 63 9000 7.6 36 11:45 21.03.2022
3119 Drizzle 7 1026 55 7000 7.15 360 10:36 21.03.2022
3120 Clouds 7 1026 48 8000 7.6 5 08:30 21.03.2022
3121 Clouds 6 1025 52 7000 6.26 33 06:38 21.03.2022
3122 Clouds 6 1025 46 10000 5.36 337 02:48 21.03.2022
3123 Clouds 7 1026 49 10000 12.07 90 23:43 20.03.2022
3124 Clouds 7 1026 51 10000 8.05 360 22:44 20.03.2022
3125 Clouds 7 1026 54 10000 8.49 59 21:51 20.03.2022
3126 Rain 7 1026 54 10000 8.49 31 21:23 20.03.2022
3127 Clouds 7 1026 55 10000 7.6 28 20:43 20.03.2022
3128 Clouds 7 1026 57 10000 8.05 56 19:59 20.03.2022
3129 Clouds 7 1026 62 10000 8.94 52 19:28 20.03.2022
3130 Clouds 6 1027 73 9000 6.26 22 18:22 20.03.2022
3131 Clouds 6 1028 74 9000 6.17 360 17:33 20.03.2022
3132 Clouds 6 1028 75 9000 5.36 338 16:57 20.03.2022
3133 Clouds 6 1028 72 9000 5.81 32 15:34 20.03.2022
3134 Clouds 6 1028 74 8000 7.15 90 14:34 20.03.2022
3135 Clouds 5 1029 83 8000 5.36 90 12:30 20.03.2022
3136 Clouds 5 1030 80 7000 5.81 90 11:23 20.03.2022
3137 Clouds 5 1031 76 8000 7.6 5 09:26 20.03.2022
3138 Clouds 4 1031 75 10000 6.71 90 07:47 20.03.2022
3139 Clouds 3 1031 69 10000 7.2 360 05:48 20.03.2022
3140 Clouds 3 1031 87 10000 4.12 350 01:56 20.03.2022
3141 Clouds 3 1030 85 10000 5.36 105 00:45 20.03.2022
3142 Clouds 3 1032 81 10000 4.02 14 23:19 19.03.2022
3143 Clouds 4 1030 66 10000 5.36 317 21:28 19.03.2022
3144 Clouds 4 1030 63 10000 5.14 360 20:58 19.03.2022
3145 Clouds 5 1031 50 10000 5.14 20 18:58 19.03.2022
3146 Clouds 5 1031 49 10000 4.92 40 18:24 19.03.2022
3147 Clouds 5 1033 50 10000 5.66 20 17:40 19.03.2022
3148 Clouds 6 1032 40 10000 6.26 122 15:46 19.03.2022
3149 Clouds 7 1032 40 10000 7.15 38 14:57 19.03.2022
3150 Clouds 7 1032 41 10000 5.66 40 13:20 19.03.2022
3151 Clouds 7 1032 41 10000 7.15 14 12:40 19.03.2022
3152 Clouds 7 1033 42 10000 7.15 52 11:54 19.03.2022
3153 Clouds 7 1033 42 10000 5.81 66 10:53 19.03.2022
3154 Clouds 5 1034 47 10000 4.47 9 07:33 19.03.2022
3155 Clouds 5 1032 51 10000 7.2 40 03:49 19.03.2022
3156 Clouds 6 1032 50 10000 6.26 30 02:30 19.03.2022
3157 Clouds 6 1032 54 10000 4.92 355 23:46 18.03.2022
3158 Clouds 6 1032 50 10000 3.58 338 22:28 18.03.2022
3159 Clouds 6 1032 49 10000 5.81 17 21:46 18.03.2022
3160 Clouds 6 1031 49 10000 4.02 40 19:54 18.03.2022
3161 Clouds 6 1031 51 10000 5.36 35 19:22 18.03.2022
3162 Clouds 6 1031 50 10000 5.36 34 18:18 18.03.2022
3163 Clouds 7 1030 51 10000 5.81 68 16:51 18.03.2022
3164 Clouds 7 1031 52 10000 6.71 18 15:43 18.03.2022
3165 Clouds 7 1031 48 10000 7.72 20 14:24 18.03.2022
3166 Clouds 7 1032 49 10000 7.6 53 12:39 18.03.2022
3167 Clouds 8 1032 53 10000 9.39 58 10:58 18.03.2022
3168 Rain 7 1031 54 10000 7.6 90 09:30 18.03.2022
3169 Clouds 7 1031 55 10000 6.69 50 08:42 18.03.2022
3170 Clouds 7 1030 63 10000 8.49 76 06:40 18.03.2022
3171 Clouds 8 1028 69 10000 6.69 30 03:19 18.03.2022
3172 Clouds 9 1027 69 10000 7.15 54 00:53 18.03.2022
3173 Clouds 10 1026 70 10000 6.26 90 23:44 17.03.2022
3174 Clouds 10 1026 71 10000 5.14 360 22:25 17.03.2022
3175 Clouds 10 1026 71 10000 4.63 360 21:48 17.03.2022
3176 Clouds 10 1026 71 10000 4.63 360 21:48 17.03.2022
3177 Clouds 10 1025 70 10000 4.12 340 21:27 17.03.2022
3178 Clouds 10 1025 70 10000 4.92 9 20:50 17.03.2022
3179 Clouds 11 1024 70 10000 5.36 48 19:53 17.03.2022
3180 Clouds 11 1024 71 10000 5.36 51 19:32 17.03.2022
3181 Clouds 11 1024 71 10000 4.92 57 18:49 17.03.2022
3182 Clouds 11 1023 73 10000 3.13 30 17:18 17.03.2022
3183 Clouds 13 1022 73 10000 4.02 355 15:44 17.03.2022
3184 Clouds 13 1022 72 10000 7.15 38 15:26 17.03.2022
3185 Clouds 14 1021 65 10000 5.36 90 14:38 17.03.2022
3186 Clouds 16 1021 53 10000 4.12 360 12:59 17.03.2022
3187 Clouds 16 1022 53 10000 4.02 347 12:37 17.03.2022
3188 Clouds 17 1022 51 10000 4.12 360 11:30 17.03.2022
3189 Clouds 16 1021 52 10000 2.57 350 10:32 17.03.2022
3190 Clouds 14 1021 62 10000 2.57 330 08:40 17.03.2022
3191 Clear 13 1022 69 10000 3.09 350 07:52 17.03.2022
3192 Clear 10 1014 79 10000 24.14 47 05:48 17.03.2022
3193 Clear 10 1019 81 10000 1.34 90 03:41 17.03.2022
3194 Clear 11 1019 76 10000 4.02 274 23:57 16.03.2022
3195 Clear 11 1019 75 10000 3.13 200 22:51 16.03.2022
3196 Clear 11 1019 75 10000 2.68 225 22:33 16.03.2022
3197 Clouds 11 1019 73 10000 3.13 229 21:52 16.03.2022
3198 Clouds 11 1020 71 10000 1.79 146 20:28 16.03.2022
3199 Clouds 12 1020 67 10000 1.54 0 19:22 16.03.2022
3200 Clouds 12 1020 65 10000 1.54 0 18:40 16.03.2022
3201 Clouds 13 1020 64 10000 3.09 160 17:44 16.03.2022
3202 Clouds 13 1021 63 10000 3.6 170 17:26 16.03.2022
3203 Clouds 14 1020 60 10000 5.14 160 15:56 16.03.2022
3204 Clouds 15 1021 58 10000 4.63 180 14:31 16.03.2022
3205 Clouds 15 1021 54 10000 4.02 214 13:32 16.03.2022
3206 Clouds 15 1024 56 10000 3.13 215 11:59 16.03.2022
3207 Clouds 14 1024 57 10000 3.13 202 11:22 16.03.2022
3208 Clouds 13 1025 60 8000 3.13 205 10:28 16.03.2022
3209 Clouds 12 1025 62 9000 3.13 266 09:55 16.03.2022
3210 Clouds 7 1026 79 10000 2.06 10 06:33 16.03.2022
3211 Clouds 6 1027 73 10000 1.34 38 02:29 16.03.2022
3212 Clouds 7 1029 65 10000 1.34 48 22:54 15.03.2022
3213 Clouds 7 1029 64 10000 1.79 26 22:33 15.03.2022
3214 Clouds 9 1030 58 10000 1.79 36 20:42 15.03.2022
3215 Clouds 10 1030 51 10000 1.79 101 19:27 15.03.2022
3216 Clouds 12 1030 38 10000 3.09 20 17:35 15.03.2022
3217 Clouds 13 1031 35 10000 2.57 340 16:34 15.03.2022
3218 Clouds 13 1031 36 10000 4.63 350 15:26 15.03.2022
3219 Clouds 13 1031 38 10000 4.63 350 14:46 15.03.2022
3220 Clouds 13 1032 41 10000 4.12 340 13:55 15.03.2022
3221 Clouds 12 1033 43 10000 4.12 20 12:46 15.03.2022
3222 Clouds 12 1034 46 10000 3.13 53 11:32 15.03.2022
3223 Clouds 11 1035 48 10000 4.47 70 09:54 15.03.2022
3224 Clouds 9 1036 54 10000 3.13 259 08:50 15.03.2022
3225 Clouds 7 1036 61 10000 3.13 311 07:53 15.03.2022
3226 Clouds 7 1035 66 10000 2.06 320 07:35 15.03.2022
3227 Clear 4 1034 72 10000 1.34 114 05:42 15.03.2022
3228 Clouds 5 1034 64 10000 3.6 340 23:58 14.03.2022
3229 Clear 6 1033 65 10000 1.54 0 23:25 14.03.2022
3230 Clouds 6 1033 66 10000 0.89 310 22:30 14.03.2022
3231 Clouds 6 1033 65 10000 1.34 90 21:49 14.03.2022
3232 Clouds 6 1033 65 10000 1.54 0 20:54 14.03.2022
3233 Clouds 6 1033 65 10000 1.34 10 20:23 14.03.2022
3234 Clouds 6 1032 66 10000 2.24 90 19:21 14.03.2022
3235 Clouds 7 1032 63 10000 4.47 90 17:55 14.03.2022
3236 Clouds 7 1032 62 10000 4.47 90 17:24 14.03.2022
3237 Clouds 8 1031 67 10000 4.12 360 16:18 14.03.2022
3238 Clouds 8 1030 61 10000 5.14 360 14:41 14.03.2022
3239 Clouds 8 1030 52 10000 4.47 52 12:54 14.03.2022
3240 Clouds 9 1031 57 10000 4.02 30 10:54 14.03.2022
3241 Clouds 9 1031 55 10000 4.12 340 09:56 14.03.2022
3242 Clouds 8 1031 56 10000 4.63 360 09:22 14.03.2022
3243 Clouds 8 1031 56 10000 4.02 91 08:57 14.03.2022
3244 Clouds 7 1030 65 10000 4.92 17 07:43 14.03.2022
3245 Clouds 5 1029 72 10000 4.47 91 05:46 14.03.2022
3246 Clouds 5 1028 74 10000 1.79 26 01:58 14.03.2022
3247 Clouds 4 1028 74 10000 1.79 360 01:29 14.03.2022
3248 Clouds 5 1028 72 10000 1.54 0 22:56 13.03.2022
3249 Clouds 5 1027 68 10000 2.24 57 21:31 13.03.2022
3250 Clouds 5 1027 66 10000 1.34 343 20:59 13.03.2022
3251 Clouds 5 1027 66 10000 1.34 55 20:37 13.03.2022
3252 Clouds 6 1027 65 10000 1.34 72 20:19 13.03.2022
3253 Clouds 6 1027 64 10000 1.54 0 19:39 13.03.2022
3254 Clouds 6 1026 63 10000 1.54 0 19:18 13.03.2022
3255 Clouds 6 1026 61 10000 2.57 180 18:39 13.03.2022
3256 Clouds 7 1026 60 10000 3.58 109 17:47 13.03.2022
3257 Clouds 7 1025 58 10000 3.58 144 17:21 13.03.2022
3258 Clouds 8 1025 55 10000 4.12 180 16:33 13.03.2022
3259 Clouds 8 1025 55 10000 3.58 127 15:49 13.03.2022
3260 Clouds 9 1025 53 10000 2.24 79 14:58 13.03.2022
3261 Clouds 9 1026 49 10000 2.24 210 13:53 13.03.2022
3262 Clouds 8 1026 49 10000 2.68 213 13:19 13.03.2022
3263 Clouds 8 1027 50 10000 2.06 30 12:19 13.03.2022
3264 Clouds 8 1027 51 10000 3.09 340 11:36 13.03.2022
3265 Clouds 7 1028 52 10000 4.12 350 10:48 13.03.2022
3266 Clouds 7 1028 52 10000 4.12 350 10:48 13.03.2022
3267 Clouds 7 1027 55 10000 4.12 350 10:25 13.03.2022
3268 Clouds 6 1028 56 10000 4.12 340 09:41 13.03.2022
3269 Clouds 7 1028 56 10000 4.12 340 09:41 13.03.2022
3270 Clouds 6 1028 59 10000 3.09 360 08:47 13.03.2022
3271 Clouds 4 1028 66 10000 1.03 0 07:47 13.03.2022
3272 Clouds 1 1027 76 10000 2.06 340 05:48 13.03.2022
3273 Clouds 1 1027 74 10000 2.57 280 02:50 13.03.2022
3274 Clouds 1 1028 74 10000 3.09 300 00:20 13.03.2022
3275 Clouds 2 1028 73 10000 3.09 300 22:44 12.03.2022
3276 Clouds 2 1027 73 10000 2.68 5 20:58 12.03.2022
3277 Clouds 2 1027 71 10000 3.6 10 19:56 12.03.2022
3278 Clouds 2 1027 71 10000 3.6 10 19:38 12.03.2022
3279 Clouds 2 1026 72 8000 4.12 350 18:27 12.03.2022
3280 Clouds 2 1025 72 8000 7.15 49 17:39 12.03.2022
3281 Clouds 3 1025 74 10000 6.17 30 16:24 12.03.2022
3282 Clouds 3 1025 73 10000 4.47 73 15:24 12.03.2022
3283 Clouds 3 1025 73 10000 4.47 73 15:24 12.03.2022
3284 Clouds 4 1025 70 10000 7.15 53 14:51 12.03.2022
3285 Clouds 4 1025 67 10000 5.36 69 13:47 12.03.2022
3286 Clouds 5 1024 68 10000 5.81 11 12:18 12.03.2022
3287 Clouds 5 1025 67 10000 6.17 350 11:45 12.03.2022
3288 Clouds 5 1025 65 10000 5.14 340 11:19 12.03.2022
3289 Clouds 5 1025 65 10000 6.17 360 09:46 12.03.2022
3290 Clouds 5 1025 66 10000 5.14 360 09:20 12.03.2022
3291 Clouds 3 1024 71 10000 4.92 66 07:29 12.03.2022
3292 Clouds 2 1024 74 10000 3.09 270 03:54 12.03.2022
3293 Clouds 2 1025 71 10000 3.09 30 23:56 11.03.2022
3294 Clouds 2 1025 71 10000 3.09 30 23:56 11.03.2022
3295 Clouds 2 1024 71 10000 2.57 20 23:19 11.03.2022
3296 Clouds 2 1025 71 10000 2.57 20 23:19 11.03.2022
3297 Clouds 3 1024 68 10000 2.57 10 21:43 11.03.2022
3298 Clouds 3 1024 68 10000 1.79 18 20:57 11.03.2022
3299 Clouds 3 1024 69 10000 2.24 360 20:37 11.03.2022
3300 Clouds 3 1024 69 10000 1.79 18 19:52 11.03.2022
3301 Clouds 3 1024 68 10000 2.68 22 19:22 11.03.2022
3302 Clouds 4 1023 60 10000 3.6 350 17:34 11.03.2022
3303 Clouds 5 1023 56 10000 3.6 350 16:42 11.03.2022
3304 Clouds 5 1023 53 10000 4.63 10 15:57 11.03.2022
3305 Clouds 5 1024 56 10000 4.47 5 14:21 11.03.2022
3306 Clouds 5 1023 64 8000 4.92 81 12:52 11.03.2022
3307 Drizzle 5 1023 59 8000 4.02 41 12:21 11.03.2022
3308 Clouds 5 1023 60 10000 4.02 0 11:55 11.03.2022
3309 Clouds 4 1023 64 10000 4.47 90 10:18 11.03.2022
3310 Clouds 3 1023 70 10000 5.36 40 08:57 11.03.2022
3311 Clouds 3 1022 72 10000 3.58 5 08:24 11.03.2022
3312 Clouds 3 1022 76 10000 3.58 13 07:45 11.03.2022
3313 Clouds 1 1021 86 2000 4.02 355 05:49 11.03.2022
3314 Drizzle 2 1021 87 7000 1.34 90 03:49 11.03.2022
3315 Drizzle 2 1020 82 7000 3.58 304 23:46 10.03.2022
3316 Clouds 2 1021 78 10000 3.58 0 22:31 10.03.2022
3317 Clouds 2 1020 78 10000 1.34 323 21:47 10.03.2022
3318 Clouds 2 1020 78 10000 1.34 5 21:19 10.03.2022
3319 Clouds 3 1019 75 10000 2.68 347 19:45 10.03.2022
3320 Clouds 3 1018 73 10000 2.68 90 18:55 10.03.2022
3321 Clouds 3 1017 78 10000 3.13 20 17:36 10.03.2022
3322 Clouds 3 1017 86 3000 6.69 350 15:55 10.03.2022
3323 Drizzle 3 1016 89 5000 2.57 330 14:48 10.03.2022
3324 Clouds 3 1016 83 3000 4.92 22 13:21 10.03.2022
3325 Clouds 4 1016 78 6000 11.18 17 11:58 10.03.2022
3326 Clouds 5 1016 73 5000 5.36 328 10:54 10.03.2022
3327 Clouds 4 1015 78 6000 5.36 21 09:21 10.03.2022
3328 Clouds 4 1015 89 6000 3.6 340 07:38 10.03.2022
3329 Clouds 3 1013 89 8000 4.92 9 04:36 10.03.2022
3330 Drizzle 5 1012 79 10000 4.12 340 01:49 10.03.2022
3331 Clouds 6 1012 72 10000 5.14 330 23:26 09.03.2022
3332 Clouds 6 1012 70 10000 4.92 47 21:51 09.03.2022
3333 Clouds 6 1012 70 10000 5.36 74 21:31 09.03.2022
3334 Clouds 6 1012 71 10000 4.47 50 19:44 09.03.2022
3335 Clouds 6 1011 71 10000 1.34 33 18:34 09.03.2022
3336 Clouds 7 1010 67 10000 6.26 12 17:27 09.03.2022
3337 Clouds 7 1010 68 10000 6.71 341 16:31 09.03.2022
3338 Clouds 8 1010 69 10000 5.81 44 15:19 09.03.2022
3339 Clouds 6 1010 79 8000 6.17 340 13:53 09.03.2022
3340 Clouds 6 1010 76 7000 4.12 340 12:47 09.03.2022
3341 Clouds 7 1010 75 8000 4.92 302 11:54 09.03.2022
3342 Clouds 7 1010 75 8000 4.12 310 11:35 09.03.2022
3343 Clouds 7 1011 71 10000 4.63 330 10:26 09.03.2022
3344 Drizzle 7 1008 80 9000 4.63 330 08:54 09.03.2022
3345 Drizzle 7 1009 79 10000 3.09 310 07:38 09.03.2022
3346 Clouds 8 1008 77 10000 4.02 109 02:46 09.03.2022
3347 Clouds 8 1008 76 10000 3.58 43 00:41 09.03.2022
3348 Clouds 9 1009 73 10000 3.58 90 22:47 08.03.2022
3349 Clouds 9 1009 73 10000 3.58 90 22:26 08.03.2022
3350 Clouds 9 1009 73 10000 5.36 45 21:23 08.03.2022
3351 Clouds 8 1009 72 10000 4.47 90 20:35 08.03.2022
3352 Clouds 8 1009 71 10000 5.36 50 19:35 08.03.2022
3353 Clouds 9 1008 69 10000 4.92 65 18:44 08.03.2022
3354 Clouds 10 1008 67 10000 5.36 70 17:30 08.03.2022
3355 Clouds 12 1007 60 10000 6.17 360 15:45 08.03.2022
3356 Clouds 13 1007 53 10000 5.36 316 14:19 08.03.2022
3357 Clouds 13 1008 54 10000 1.79 327 12:43 08.03.2022
3358 Clouds 13 1008 52 10000 4.12 340 11:45 08.03.2022
3359 Clouds 12 1008 55 10000 4.47 340 10:41 08.03.2022
3360 Clouds 12 1009 60 10000 4.12 330 09:43 08.03.2022
3361 Clouds 10 1008 71 10000 0.45 284 06:43 08.03.2022
3362 Clouds 10 1008 73 10000 1.54 0 04:47 08.03.2022
3363 Clouds 11 1009 76 10000 1.34 140 23:50 07.03.2022
3364 Clouds 11 1010 76 10000 3.13 100 21:54 07.03.2022
3365 Clouds 11 1010 76 10000 4.47 117 21:31 07.03.2022
3366 Clouds 11 1010 76 10000 4.02 75 20:44 07.03.2022
3367 Clouds 11 1010 76 10000 3.6 80 19:55 07.03.2022
3368 Clouds 11 1010 75 10000 2.57 110 19:31 07.03.2022
3369 Clouds 12 1010 73 10000 4.02 143 18:42 07.03.2022
3370 Clouds 12 1009 66 10000 2.68 90 17:47 07.03.2022
3371 Clouds 13 1009 60 10000 3.58 132 16:55 07.03.2022
3372 Clouds 14 1010 51 10000 3.58 110 15:32 07.03.2022
3373 Clouds 15 1011 41 10000 5.36 222 13:24 07.03.2022
3374 Clouds 15 1011 39 10000 4.02 268 12:23 07.03.2022
3375 Clouds 14 1011 47 10000 2.24 325 10:38 07.03.2022
3376 Clouds 12 1012 59 10000 2.68 296 08:48 07.03.2022
3377 Clouds 10 1010 72 10000 3.09 340 03:49 07.03.2022
3378 Clouds 11 1010 67 10000 1.54 0 00:22 07.03.2022
3379 Clouds 11 1009 66 10000 1.54 0 23:35 06.03.2022
3380 Clouds 12 1009 65 10000 1.54 0 22:40 06.03.2022
3381 Clouds 12 1009 64 10000 2.57 330 21:46 06.03.2022
3382 Clouds 12 1009 66 10000 1.34 272 20:38 06.03.2022
3383 Clouds 12 1009 66 10000 1.54 0 20:20 06.03.2022
3384 Clouds 13 1009 63 10000 2.68 338 18:52 06.03.2022
3385 Clouds 13 1010 61 10000 4.02 350 18:23 06.03.2022
3386 Clouds 14 1008 59 10000 2.24 227 17:21 06.03.2022
3387 Clouds 15 1009 57 10000 2.24 244 16:41 06.03.2022
3388 Clouds 16 1008 58 10000 3.58 278 15:49 06.03.2022
3389 Clouds 16 1008 58 10000 4.47 269 15:49 06.03.2022
3390 Clouds 16 1007 59 10000 4.02 263 14:49 06.03.2022
3391 Clouds 16 1008 59 10000 3.13 277 14:30 06.03.2022
3392 Clouds 16 1007 66 10000 2.57 230 12:50 06.03.2022
3393 Clouds 16 1008 66 10000 3.13 259 11:56 06.03.2022
3394 Clouds 15 1008 73 10000 3.58 284 10:53 06.03.2022
3395 Clouds 14 1008 81 10000 1.79 266 09:54 06.03.2022
3396 Clouds 13 1007 87 10000 0 0 08:29 06.03.2022
3397 Clouds 13 1007 87 10000 0 0 08:29 06.03.2022
3398 Clouds 12 1007 90 10000 0.89 81 07:34 06.03.2022
3399 Clouds 11 1006 91 10000 0 0 05:32 06.03.2022
3400 Clouds 11 1007 91 8000 1.34 79 00:49 06.03.2022
3401 Clouds 11 1007 90 8000 0.89 7 00:29 06.03.2022
3402 Clouds 11 1007 91 10000 2.24 83 23:21 05.03.2022
3403 Clouds 11 1007 89 9000 1.34 36 22:43 05.03.2022
3404 Clouds 11 1008 90 8000 1.79 98 21:46 05.03.2022
3405 Clouds 12 1008 90 8000 2.24 34 21:21 05.03.2022
3406 Clouds 12 1008 86 10000 1.79 59 19:26 05.03.2022
3407 Clouds 12 1008 84 10000 1.79 55 18:53 05.03.2022
3408 Clouds 12 1008 83 10000 2.24 131 17:53 05.03.2022
3409 Clouds 13 1008 75 9000 1.79 5 16:32 05.03.2022
3410 Clouds 13 1008 69 10000 2.24 123 15:31 05.03.2022
3411 Clouds 13 1009 69 10000 1.34 151 14:47 05.03.2022
3412 Clouds 13 1009 68 10000 1.54 180 14:29 05.03.2022
3413 Clouds 14 1010 61 10000 1.54 200 13:21 05.03.2022
3414 Clouds 15 1010 59 10000 1.79 210 11:48 05.03.2022
3415 Clouds 14 1010 62 10000 0.89 267 11:18 05.03.2022
3416 Clouds 13 1011 66 10000 0.89 142 10:18 05.03.2022
3417 Clouds 12 1010 71 10000 0.89 177 08:59 05.03.2022
3418 Clouds 11 1010 78 10000 0.89 30 07:38 05.03.2022
3419 Clouds 10 1010 79 10000 1.54 0 05:43 05.03.2022
3420 Clouds 10 1010 76 10000 1.34 55 02:27 05.03.2022
3421 Clouds 10 1011 71 10000 2.06 360 23:37 04.03.2022
3422 Clouds 10 1011 70 10000 1.03 0 22:42 04.03.2022
3423 Clouds 10 1011 68 10000 1.54 0 21:49 04.03.2022
3424 Clouds 11 1011 68 10000 1.79 62 20:54 04.03.2022
3425 Clouds 11 1012 67 10000 1.79 143 20:24 04.03.2022
3426 Clouds 11 1011 64 10000 2.24 44 19:36 04.03.2022
3427 Clouds 12 1011 62 10000 1.34 145 18:44 04.03.2022
3428 Clouds 13 1011 59 10000 3.6 150 17:32 04.03.2022
3429 Clouds 13 1011 57 10000 3.09 160 16:54 04.03.2022
3430 Clouds 14 1011 49 10000 3.6 170 15:29 04.03.2022
3431 Clouds 15 1011 46 10000 3.13 204 14:29 04.03.2022
3432 Clouds 14 1012 46 10000 4.02 220 13:26 04.03.2022
3433 Clouds 14 1012 46 10000 3.6 180 13:26 04.03.2022
3434 Clouds 14 1013 51 10000 3.58 199 11:41 04.03.2022
3435 Clouds 14 1012 53 10000 2.24 207 10:52 04.03.2022
3436 Clouds 13 1013 58 10000 1.79 205 09:52 04.03.2022
3437 Clouds 12 1012 63 10000 1.03 0 08:39 04.03.2022
3438 Clouds 9 1012 72 10000 1.03 0 07:36 04.03.2022
3439 Clouds 8 1013 71 10000 0.89 55 03:56 04.03.2022
3440 Clouds 9 1014 62 10000 1.03 0 00:28 04.03.2022
3441 Clouds 9 1014 57 10000 1.54 0 22:27 03.03.2022
3442 Clouds 9 1014 55 10000 1.79 139 21:44 03.03.2022
3443 Clouds 9 1014 55 10000 1.34 138 21:26 03.03.2022
3444 Clouds 9 1014 51 10000 2.06 200 19:55 03.03.2022
3445 Clouds 10 1014 51 10000 2.24 109 18:54 03.03.2022
3446 Clouds 10 1014 50 10000 2.57 170 18:24 03.03.2022
3447 Clouds 10 1014 48 10000 3.58 146 17:30 03.03.2022
3448 Clouds 12 1015 39 10000 2.68 206 16:24 03.03.2022
3449 Clouds 12 1015 37 10000 3.6 170 15:24 03.03.2022
3450 Clouds 12 1014 37 10000 2.68 343 14:43 03.03.2022
3451 Clouds 12 1014 37 10000 3.58 281 14:20 03.03.2022
3452 Clouds 12 1014 38 10000 5.81 269 14:20 03.03.2022
3453 Clouds 12 1014 37 10000 3.58 281 14:20 03.03.2022
3454 Clouds 11 1015 39 10000 5.14 310 12:23 03.03.2022
3455 Clouds 10 1015 42 10000 4.63 340 10:48 03.03.2022
3456 Clouds 9 1015 44 10000 4.92 317 09:41 03.03.2022
3457 Clouds 7 1016 52 10000 4.63 340 08:19 03.03.2022
3458 Clouds 5 1014 62 10000 2.24 5 06:37 03.03.2022
3459 Clouds 6 1013 59 10000 3.09 330 03:21 03.03.2022
3460 Clouds 7 1012 63 10000 4.47 307 23:39 02.03.2022
3461 Clouds 7 1012 64 10000 3.13 298 22:53 02.03.2022
3462 Clouds 7 1012 63 10000 2.68 317 21:36 02.03.2022
3463 Clouds 7 1012 62 10000 5.14 330 20:57 02.03.2022
3464 Clouds 7 1012 61 10000 5.14 330 20:25 02.03.2022
3465 Clouds 7 1011 61 10000 6.17 330 19:37 02.03.2022
3466 Clouds 7 1011 61 10000 4.63 330 18:57 02.03.2022
3467 Clouds 8 1011 60 10000 7.72 330 18:26 02.03.2022
3468 Clouds 8 1010 58 10000 7.2 330 17:36 02.03.2022
3469 Clouds 8 1009 58 10000 6.71 340 16:51 02.03.2022
3470 Clouds 9 1009 54 10000 7.72 350 15:19 02.03.2022
3471 Clouds 9 1009 59 10000 8.94 22 13:35 02.03.2022
3472 Clouds 8 1010 59 10000 8.94 22 12:45 02.03.2022
3473 Clouds 8 1011 58 10000 8.94 22 12:21 02.03.2022
3474 Clouds 7 1012 61 10000 8.05 5 11:26 02.03.2022
3475 Clouds 7 1012 61 10000 8.94 57 10:31 02.03.2022
3476 Clouds 7 1012 65 10000 7.6 92 09:35 02.03.2022
3477 Clouds 7 1012 66 10000 8.05 90 08:28 02.03.2022
3478 Clouds 7 1012 66 10000 7.15 39 07:23 02.03.2022
3479 Clouds 7 1013 70 10000 8.49 46 04:46 02.03.2022
3480 Clouds 7 1015 74 10000 5.36 90 00:40 02.03.2022
3481 Clouds 7 1015 74 10000 5.36 90 00:40 02.03.2022
3482 Clouds 8 1015 72 10000 5.81 55 23:24 01.03.2022
3483 Clouds 7 1015 71 10000 4.47 55 22:37 01.03.2022
3484 Clouds 8 1016 72 10000 4.47 355 21:37 01.03.2022
3485 Clouds 8 1016 72 10000 5.36 65 20:40 01.03.2022
3486 Clouds 8 1016 72 10000 5.36 77 20:19 01.03.2022
3487 Clouds 8 1016 73 10000 6.71 36 18:53 01.03.2022
3488 Clouds 8 1016 72 10000 4.02 51 18:24 01.03.2022
3489 Clouds 8 1016 71 10000 5.81 86 17:42 01.03.2022
3490 Clouds 9 1015 66 10000 6.26 21 16:36 01.03.2022
3491 Clouds 10 1016 65 10000 5.36 76 15:47 01.03.2022
3492 Clouds 10 1016 67 10000 5.81 33 14:54 01.03.2022
3493 Clouds 10 1016 67 10000 4.02 38 14:31 01.03.2022
3494 Clouds 10 1016 66 10000 4.02 36 13:26 01.03.2022
3495 Clouds 10 1017 65 10000 4.02 340 12:37 01.03.2022
3496 Clouds 11 1017 65 10000 5.36 60 11:38 01.03.2022
3497 Clouds 10 1017 72 10000 5.36 82 09:53 01.03.2022
3498 Clouds 9 1017 78 10000 4.92 57 08:30 01.03.2022
3499 Clouds 8 1017 82 10000 2.68 90 07:19 01.03.2022
3500 Clouds 8 1016 81 10000 4.02 53 03:27 01.03.2022
3501 Clouds 8 1018 83 10000 2.68 63 00:49 01.03.2022
3502 Clouds 8 1018 83 10000 2.68 0 23:47 28.02.2022
3503 Clouds 8 1018 84 10000 3.13 25 22:43 28.02.2022
3504 Clouds 8 1018 83 10000 4.02 31 21:48 28.02.2022
3505 Clouds 8 1018 82 10000 3.58 90 20:55 28.02.2022
3506 Clouds 8 1017 83 10000 4.47 42 19:51 28.02.2022
3507 Clouds 8 1017 84 10000 4.02 90 18:57 28.02.2022
3508 Clouds 8 1017 85 10000 5.36 90 17:57 28.02.2022
3509 Clouds 8 1016 85 10000 5.36 90 17:23 28.02.2022
3510 Clouds 8 1016 84 10000 4.47 71 16:32 28.02.2022
3511 Clouds 9 1016 79 10000 2.68 87 15:19 28.02.2022
3512 Clouds 9 1015 75 10000 3.58 73 14:29 28.02.2022
3513 Clouds 10 1015 71 10000 4.47 48 13:24 28.02.2022
3514 Clouds 10 1017 68 10000 4.12 330 12:31 28.02.2022
3515 Clouds 11 1015 66 10000 5.14 330 11:21 28.02.2022
3516 Clouds 11 1015 67 10000 3.6 330 10:24 28.02.2022
3517 Clouds 11 1015 68 10000 3.6 330 09:53 28.02.2022
3518 Clouds 11 1015 69 10000 2.57 300 09:27 28.02.2022
3519 Clouds 10 1015 74 10000 1.54 0 08:22 28.02.2022
3520 Clouds 9 1014 81 10000 2.68 98 06:53 28.02.2022
3521 Clouds 9 1014 82 10000 1.54 0 04:31 28.02.2022
3522 Clouds 9 1012 79 10000 1.54 0 02:41 28.02.2022
3523 Clouds 10 1013 77 10000 0.89 37 23:19 27.02.2022
3524 Clouds 10 1013 76 10000 2.24 33 22:33 27.02.2022
3525 Clouds 10 1013 74 10000 1.54 0 21:46 27.02.2022
3526 Clouds 11 1012 72 10000 2.06 330 20:54 27.02.2022
3527 Clouds 11 1012 70 10000 1.34 167 20:25 27.02.2022
3528 Clouds 12 1012 69 10000 1.34 237 19:56 27.02.2022
3529 Clouds 12 1012 68 10000 1.79 295 19:26 27.02.2022
3530 Clouds 13 1011 64 10000 3.58 269 18:39 27.02.2022
3531 Clouds 13 1011 60 10000 1.79 295 17:53 27.02.2022
3532 Clouds 15 1010 54 10000 4.47 283 16:36 27.02.2022
3533 Clouds 16 1010 54 10000 3.13 264 15:55 27.02.2022
3534 Clouds 13 1009 87 8000 6.71 90 12:53 27.02.2022
3535 Clouds 14 1009 83 8000 8.94 186 12:29 27.02.2022
3536 Clouds 14 1010 78 10000 8.94 151 10:50 27.02.2022
3537 Clouds 14 1010 71 10000 9.83 156 09:58 27.02.2022
3538 Clouds 14 1010 74 10000 8.05 167 09:29 27.02.2022
3539 Clouds 14 1011 77 10000 8.94 157 09:00 27.02.2022
3540 Clouds 12 1012 87 10000 3.58 138 06:43 27.02.2022
3541 Clouds 11 1012 87 10000 4.02 139 05:36 27.02.2022
3542 Clouds 11 1015 69 10000 2.68 84 00:52 27.02.2022
3543 Clouds 11 1015 67 10000 3.13 60 22:58 26.02.2022
3544 Clouds 12 1016 66 10000 2.68 48 21:44 26.02.2022
3545 Clouds 12 1016 66 10000 4.02 132 20:52 26.02.2022
3546 Clouds 12 1016 66 10000 2.68 111 20:19 26.02.2022
3547 Clouds 12 1016 66 10000 3.13 138 19:46 26.02.2022
3548 Clouds 12 1016 65 10000 3.09 80 19:19 26.02.2022
3549 Clouds 13 1015 64 10000 3.58 57 17:46 26.02.2022
3550 Clouds 13 1015 62 10000 3.6 170 16:51 26.02.2022
3551 Clouds 13 1015 59 10000 4.63 170 15:57 26.02.2022
3552 Clouds 14 1016 59 10000 4.63 170 15:23 26.02.2022
3553 Clouds 14 1015 59 10000 4.63 180 14:54 26.02.2022
3554 Clouds 14 1016 59 10000 4.63 180 14:36 26.02.2022
3555 Clouds 15 1016 57 10000 4.47 162 13:19 26.02.2022
3556 Clouds 15 1016 56 10000 2.68 182 12:31 26.02.2022
3557 Clouds 14 1018 57 10000 1.79 150 11:29 26.02.2022
3558 Clouds 14 1017 58 10000 1.34 124 10:51 26.02.2022
3559 Clouds 12 1018 67 10000 0.45 307 08:59 26.02.2022
3560 Clouds 10 1017 76 10000 2.06 10 07:43 26.02.2022
3561 Clouds 8 1015 75 10000 2.06 350 01:53 26.02.2022
3562 Clouds 8 1015 71 10000 1.79 37 23:31 25.02.2022
3563 Clouds 9 1016 68 10000 1.03 0 21:48 25.02.2022
3564 Clouds 9 1016 68 10000 1.34 0 21:29 25.02.2022
3565 Clouds 10 1016 66 10000 1.34 99 20:33 25.02.2022
3566 Clear 10 1015 64 10000 1.79 19 19:39 25.02.2022
3567 Clear 12 1015 56 10000 3.58 128 17:35 25.02.2022
3568 Clear 13 1014 49 10000 3.58 123 16:45 25.02.2022
3569 Clouds 14 1015 43 10000 3.09 190 15:48 25.02.2022
3570 Clouds 14 1016 42 10000 3.13 291 15:23 25.02.2022
3571 Clouds 15 1016 39 10000 3.6 200 14:45 25.02.2022
3572 Clouds 15 1016 39 10000 3.13 217 14:18 25.02.2022
3573 Clouds 14 1015 43 10000 3.13 280 13:20 25.02.2022
3574 Clouds 13 1016 46 10000 4.63 340 11:39 25.02.2022
3575 Clouds 13 1016 46 10000 4.63 340 11:18 25.02.2022
3576 Clouds 12 1018 49 10000 3.09 350 10:23 25.02.2022
3577 Clouds 11 1018 53 10000 4.47 360 09:36 25.02.2022
3578 Clouds 10 1018 63 10000 2.68 313 07:48 25.02.2022
3579 Clouds 8 1016 69 10000 0.89 48 06:51 25.02.2022
3580 Clouds 9 1016 67 10000 3.58 291 05:38 25.02.2022
3581 Clouds 9 1015 61 10000 5.14 360 00:46 25.02.2022
3582 Clouds 10 1015 62 10000 5.14 350 22:31 24.02.2022
3583 Clouds 10 1015 62 10000 4.12 350 21:43 24.02.2022
3584 Clouds 10 1015 62 10000 4.12 350 21:21 24.02.2022
3585 Clouds 10 1015 63 10000 6.17 330 20:44 24.02.2022
3586 Clouds 9 1015 68 9000 6.69 350 19:31 24.02.2022
3587 Clouds 8 1015 77 10000 4.02 321 18:20 24.02.2022
3588 Clouds 8 1014 77 7000 4.12 360 17:52 24.02.2022
3589 Clouds 8 1015 77 9000 4.92 355 17:19 24.02.2022
3590 Clouds 10 1014 66 9000 7.15 357 16:25 24.02.2022
3591 Clouds 10 1014 67 7000 8.05 0 15:42 24.02.2022
3592 Clouds 11 1013 56 10000 11.32 360 14:45 24.02.2022
3593 Clear 11 1013 55 10000 8.94 315 13:57 24.02.2022
3594 Clouds 11 1014 53 10000 10.29 350 13:35 24.02.2022
3595 Clouds 11 1015 58 10000 8.94 82 11:38 24.02.2022
3596 Clouds 12 1014 48 10000 8.49 13 10:31 24.02.2022
3597 Clouds 11 1013 52 10000 6.26 338 08:43 24.02.2022
3598 Clouds 11 1014 63 10000 0.45 90 06:45 24.02.2022
3599 Clouds 11 1014 62 10000 8.75 330 05:40 24.02.2022
3600 Clouds 11 1013 78 10000 7.15 319 00:31 24.02.2022
3601 Clouds 12 1014 74 10000 5.66 330 22:22 23.02.2022
3602 Clouds 12 1014 74 10000 5.14 320 20:45 23.02.2022
3603 Clouds 12 1014 74 10000 5.36 43 20:26 23.02.2022
3604 Clouds 12 1013 74 10000 6.17 330 19:35 23.02.2022
3605 Clouds 12 1013 77 10000 7.6 19 18:26 23.02.2022
3606 Clouds 12 1011 74 10000 5.14 330 16:28 23.02.2022
3607 Clouds 14 1011 63 10000 6.26 308 13:58 23.02.2022
3608 Clouds 14 1012 61 10000 7.6 276 12:36 23.02.2022
3609 Clouds 14 1012 64 10000 7.2 330 10:58 23.02.2022
3610 Clouds 14 1010 65 10000 8.23 330 10:23 23.02.2022
3611 Clouds 13 1009 67 10000 4.63 320 08:55 23.02.2022
3612 Clouds 12 1009 70 10000 6.26 348 07:55 23.02.2022
3613 Clouds 13 1006 78 10000 3.58 82 03:29 23.02.2022
3614 Clouds 13 1004 77 10000 3.13 86 00:18 23.02.2022
3615 Clouds 13 1003 75 10000 1.34 40 23:34 22.02.2022
3616 Clouds 13 1003 75 10000 1.54 280 22:28 22.02.2022
3617 Clouds 13 1003 77 10000 2.24 309 21:48 22.02.2022
3618 Clouds 13 1002 78 10000 2.57 320 21:24 22.02.2022
3619 Clouds 13 1002 78 10000 2.57 310 20:47 22.02.2022
3620 Clouds 13 1002 78 10000 3.09 330 20:28 22.02.2022
3621 Clouds 14 1001 77 10000 2.06 320 19:34 22.02.2022
3622 Clouds 15 1001 74 10000 2.68 281 18:50 22.02.2022
3623 Clouds 16 1000 71 10000 1.79 209 17:36 22.02.2022
3624 Clouds 16 1000 67 10000 4.12 160 16:58 22.02.2022
3625 Clouds 16 1000 65 10000 4.12 160 16:26 22.02.2022
3626 Clouds 17 1000 57 10000 6.17 180 15:36 22.02.2022
3627 Clouds 18 1001 54 10000 3.58 196 14:42 22.02.2022
3628 Clouds 18 1002 56 10000 4.12 160 11:41 22.02.2022
3629 Clouds 17 1003 59 10000 4.02 245 10:22 22.02.2022
3630 Clear 13 1003 82 10000 0.45 342 07:43 22.02.2022
3631 Clouds 13 1003 85 10000 0.45 184 07:25 22.02.2022
3632 Clouds 13 1003 84 10000 2.24 258 02:51 22.02.2022
3633 Clouds 14 1004 82 10000 0.89 253 00:44 22.02.2022
3634 Clouds 14 1006 79 10000 2.68 229 22:38 21.02.2022
3635 Clouds 14 1006 78 10000 1.34 264 21:25 21.02.2022
3636 Clouds 14 1006 75 10000 0.89 36 20:19 21.02.2022
3637 Clear 15 1006 70 10000 2.06 70 18:40 21.02.2022
3638 Clear 17 1007 62 10000 3.6 180 16:47 21.02.2022
3639 Clouds 20 1010 54 10000 3.6 170 14:24 21.02.2022
3640 Clear 19 1009 54 10000 3.6 170 13:56 21.02.2022
3641 Clear 19 1010 55 10000 5.14 180 12:58 21.02.2022
3642 Clear 19 1010 55 10000 4.63 190 12:22 21.02.2022
3643 Clear 18 1012 60 10000 3.13 255 10:35 21.02.2022
3644 Clear 15 1013 77 10000 1.34 167 08:44 21.02.2022
3645 Clouds 13 1013 78 10000 1.54 0 02:31 21.02.2022
3646 Clouds 15 1014 73 10000 3.13 270 22:45 20.02.2022
3647 Clouds 15 1014 73 10000 4.02 278 22:18 20.02.2022
3648 Clouds 15 1014 74 10000 3.13 221 21:41 20.02.2022
3649 Clouds 15 1014 71 10000 3.13 255 20:51 20.02.2022
3650 Clouds 15 1014 72 10000 2.24 282 20:22 20.02.2022
3651 Clouds 15 1014 73 10000 2.24 256 19:29 20.02.2022
3652 Clouds 15 1014 73 10000 3.58 218 18:49 20.02.2022
3653 Clouds 15 1014 73 10000 2.24 156 18:30 20.02.2022
3654 Clouds 15 1014 73 10000 3.13 197 17:30 20.02.2022
3655 Clouds 15 1014 72 10000 3.58 260 15:30 20.02.2022
3656 Clouds 16 1015 71 8000 3.13 248 14:39 20.02.2022
3657 Clouds 16 1015 69 10000 2.68 231 13:22 20.02.2022
3658 Clouds 16 1015 69 10000 2.68 231 13:22 20.02.2022
3659 Clouds 16 1015 69 10000 0.45 90 13:22 20.02.2022
3660 Clouds 16 1016 70 8000 4.02 262 12:20 20.02.2022
3661 Clouds 15 1016 76 10000 2.24 170 10:21 20.02.2022
3662 Clouds 14 1016 77 10000 3.13 257 09:52 20.02.2022
3663 Clouds 11 1016 88 10000 1.34 307 06:46 20.02.2022
3664 Clouds 12 1017 86 10000 1.79 131 00:34 20.02.2022
3665 Clear 12 1018 85 10000 1.34 146 23:42 19.02.2022
3666 Clear 12 1018 84 10000 2.24 144 22:25 19.02.2022
3667 Clouds 13 1018 82 10000 2.24 165 21:57 19.02.2022
3668 Clouds 13 1018 78 10000 2.24 167 20:48 19.02.2022
3669 Clear 13 1018 74 10000 2.24 142 19:42 19.02.2022
3670 Clear 13 1018 74 10000 1.79 159 19:20 19.02.2022
3671 Clear 14 1018 71 10000 1.79 161 18:29 19.02.2022
3672 Clear 14 1018 68 10000 2.57 180 17:33 19.02.2022
3673 Clear 16 1019 51 10000 4.02 244 16:22 19.02.2022
3674 Clear 17 1019 45 10000 3.13 158 14:56 19.02.2022
3675 Clear 17 1019 44 10000 3.09 180 14:37 19.02.2022
3676 Clear 17 1019 45 10000 3.13 268 11:59 19.02.2022
3677 Clear 17 1019 45 10000 3.13 228 11:36 19.02.2022
3678 Clear 15 1019 46 10000 0.89 220 09:36 19.02.2022
3679 Clear 11 1017 60 10000 0.45 90 06:53 19.02.2022
3680 Clear 11 1016 47 10000 2.57 340 02:38 19.02.2022
3681 Clear 12 1016 51 10000 2.06 330 23:28 18.02.2022
3682 Clouds 12 1015 50 10000 2.57 360 21:49 18.02.2022
3683 Clouds 12 1015 48 10000 2.06 330 20:39 18.02.2022
3684 Clouds 13 1017 46 10000 2.24 69 19:51 18.02.2022
3685 Clouds 13 1015 36 10000 1.54 0 18:50 18.02.2022
3686 Clear 14 1015 33 10000 1.54 0 18:20 18.02.2022
3687 Clear 15 1014 29 10000 3.09 340 17:25 18.02.2022
3688 Clouds 18 1010 37 10000 4.63 350 14:48 18.02.2022
3689 Clouds 18 1011 43 10000 5.66 360 13:54 18.02.2022
3690 Clouds 17 1011 46 10000 6.71 20 12:51 18.02.2022
3691 Clouds 17 1011 47 10000 6.26 73 11:58 18.02.2022
3692 Clouds 17 1011 47 10000 6.26 73 11:58 18.02.2022
3693 Clouds 17 1011 47 10000 6.26 73 11:58 18.02.2022
3694 Clouds 17 1012 48 10000 4.92 360 11:21 18.02.2022
3695 Clouds 14 1013 64 10000 1.54 0 09:33 18.02.2022
3696 Clouds 10 1009 88 10000 3.58 206 06:52 18.02.2022
3697 Clouds 9 1007 87 10000 2.68 219 05:38 18.02.2022
3698 Clouds 10 1009 90 10000 0.89 240 22:57 17.02.2022
3699 Clouds 10 1009 89 10000 0.89 44 21:44 17.02.2022
3700 Clouds 11 1009 88 10000 0.89 82 20:59 17.02.2022
3701 Clouds 11 1009 88 10000 1.34 62 20:34 17.02.2022
3702 Clouds 11 1009 87 10000 1.54 320 19:48 17.02.2022
3703 Clouds 12 1009 85 10000 0.45 90 18:41 17.02.2022
3704 Clouds 13 1009 83 10000 1.79 240 17:50 17.02.2022
3705 Clouds 14 1009 75 10000 2.24 128 16:20 17.02.2022
3706 Clouds 14 1009 75 10000 2.24 128 16:20 17.02.2022
3707 Clouds 14 1009 75 10000 0.89 212 15:30 17.02.2022
3708 Clouds 14 1010 81 10000 1.03 0 14:25 17.02.2022
3709 Clouds 14 1010 81 10000 2.24 188 12:35 17.02.2022
3710 Clouds 13 1011 81 10000 2.24 150 11:21 17.02.2022
3711 Clouds 13 1010 83 10000 1.54 0 08:43 17.02.2022
3712 Clouds 12 1012 85 10000 2.68 90 00:31 17.02.2022
3713 Clouds 14 1012 84 10000 4.92 198 22:59 16.02.2022
3714 Clouds 14 1012 85 10000 4.02 167 21:25 16.02.2022
3715 Clouds 14 1012 83 10000 2.68 153 19:46 16.02.2022
3716 Clouds 14 1012 83 10000 4.02 152 18:38 16.02.2022
3717 Clouds 14 1012 82 10000 4.12 130 17:48 16.02.2022
3718 Clouds 15 1013 75 10000 4.12 160 15:36 16.02.2022
3719 Clouds 15 1013 74 10000 4.92 202 14:59 16.02.2022
3720 Clouds 16 1016 71 10000 3.58 236 12:35 16.02.2022
3721 Clouds 16 1017 72 10000 3.13 170 11:55 16.02.2022
3722 Clouds 16 1017 73 10000 2.68 192 11:24 16.02.2022
3723 Clouds 14 1018 77 10000 0.45 338 10:30 16.02.2022
3724 Clouds 10 1018 87 10000 0.45 90 07:21 16.02.2022
3725 Clouds 9 1018 86 10000 0.89 25 05:20 16.02.2022
3726 Clouds 10 1021 83 10000 1.34 46 23:44 15.02.2022
3727 Clouds 10 1021 80 10000 1.34 90 22:28 15.02.2022
3728 Clouds 10 1021 79 10000 0.89 67 21:46 15.02.2022
3729 Clouds 11 1021 78 10000 1.34 34 21:27 15.02.2022
3730 Clouds 11 1021 78 10000 1.34 40 20:56 15.02.2022
3731 Clouds 11 1021 77 10000 0.45 90 19:57 15.02.2022
3732 Clouds 12 1020 76 10000 0.45 90 18:56 15.02.2022
3733 Clouds 12 1020 75 10000 0.89 102 18:21 15.02.2022
3734 Clouds 13 1020 73 10000 2.24 90 17:49 15.02.2022
3735 Clouds 13 1021 69 10000 3.58 251 16:38 15.02.2022
3736 Clouds 15 1021 57 10000 2.24 90 15:26 15.02.2022
3737 Clouds 15 1021 58 10000 2.68 90 13:27 15.02.2022
3738 Clouds 15 1022 60 10000 2.57 180 12:37 15.02.2022
3739 Clouds 14 1022 62 10000 1.79 151 11:27 15.02.2022
3740 Clouds 12 1022 73 10000 0.89 260 09:31 15.02.2022
3741 Clouds 8 1021 86 10000 1.34 90 06:58 15.02.2022
3742 Clear 7 1020 84 10000 1.54 0 04:54 15.02.2022
3743 Clouds 9 1021 77 10000 1.54 0 23:33 14.02.2022
3744 Clouds 10 1021 74 10000 1.34 163 21:47 14.02.2022
3745 Clouds 10 1020 72 10000 1.79 5 20:40 14.02.2022
3746 Clouds 11 1020 69 10000 1.34 227 19:36 14.02.2022
3747 Clouds 11 1020 68 10000 0.45 90 18:44 14.02.2022
3748 Clouds 11 1020 68 10000 1.34 262 18:23 14.02.2022
3749 Clouds 12 1020 65 10000 2.24 141 17:26 14.02.2022
3750 Clouds 12 1022 63 10000 2.06 180 16:25 14.02.2022
3751 Clouds 13 1021 59 10000 3.09 210 14:31 14.02.2022
3752 Clouds 13 1021 57 10000 3.13 184 13:33 14.02.2022
3753 Clouds 13 1020 58 10000 3.13 184 13:33 14.02.2022
3754 Clouds 13 1021 57 10000 2.68 90 12:52 14.02.2022
3755 Clouds 13 1021 56 10000 1.54 0 11:55 14.02.2022
3756 Clouds 12 1022 60 10000 1.79 144 10:58 14.02.2022
3757 Clouds 10 1022 70 10000 3.58 61 08:45 14.02.2022
3758 Clouds 8 1022 76 10000 1.79 316 07:32 14.02.2022
3759 Clouds 7 1021 80 10000 1.54 0 05:56 14.02.2022
3760 Clouds 9 1022 73 10000 2.24 37 22:43 13.02.2022
3761 Clouds 9 1022 73 10000 2.06 350 22:25 13.02.2022
3762 Clouds 9 1022 72 10000 4.02 109 21:36 13.02.2022
3763 Clouds 9 1023 72 10000 3.13 90 20:42 13.02.2022
3764 Clouds 10 1023 72 10000 3.13 38 19:51 13.02.2022
3765 Clouds 10 1023 72 10000 3.58 23 18:56 13.02.2022
3766 Clouds 10 1022 72 10000 4.47 80 18:38 13.02.2022
3767 Clouds 10 1021 67 10000 5.36 74 16:39 13.02.2022
3768 Clouds 11 1021 63 10000 4.47 327 15:42 13.02.2022
3769 Clouds 12 1022 62 10000 4.92 20 14:37 13.02.2022
3770 Clouds 12 1022 66 10000 4.63 330 12:52 13.02.2022
3771 Clouds 12 1022 68 10000 4.63 340 12:33 13.02.2022
3772 Clouds 11 1022 77 10000 4.47 82 10:38 13.02.2022
3773 Clouds 11 1022 80 10000 5.81 53 09:49 13.02.2022
3774 Clouds 11 1022 81 10000 4.92 54 08:33 13.02.2022
3775 Clouds 12 1021 78 10000 4.02 90 01:24 13.02.2022
3776 Clouds 13 1022 76 10000 1.79 15 00:21 13.02.2022
3777 Clouds 12 1023 76 10000 2.24 57 22:34 12.02.2022
3778 Clouds 13 1023 77 10000 1.34 90 21:41 12.02.2022
3779 Clouds 13 1023 78 10000 2.24 90 20:55 12.02.2022
3780 Clouds 13 1023 78 10000 1.79 63 19:56 12.02.2022
3781 Drizzle 13 1022 78 10000 1.79 76 18:54 12.02.2022
3782 Drizzle 13 1022 77 10000 2.24 68 18:36 12.02.2022
3783 Clouds 14 1022 74 10000 3.13 59 17:39 12.02.2022
3784 Clouds 14 1022 70 10000 1.79 154 16:45 12.02.2022
3785 Clouds 15 1022 66 10000 2.57 170 15:53 12.02.2022
3786 Clouds 15 1021 64 10000 3.09 180 15:20 12.02.2022
3787 Clouds 15 1021 65 10000 3.13 164 14:25 12.02.2022
3788 Clouds 15 1022 64 10000 1.79 117 11:31 12.02.2022
3789 Clouds 15 1022 65 10000 2.24 186 10:32 12.02.2022
3790 Clouds 14 1022 70 10000 1.54 0 09:37 12.02.2022
3791 Clouds 12 1022 76 10000 1.34 338 08:46 12.02.2022
3792 Clouds 10 1021 84 10000 2.24 90 07:44 12.02.2022
3793 Clouds 8 1021 83 10000 1.79 3 04:50 12.02.2022
3794 Clouds 8 1020 79 10000 0.89 40 02:19 12.02.2022
3795 Clouds 9 1021 76 10000 0.89 90 23:34 11.02.2022
3796 Clouds 10 1021 75 10000 0.89 174 22:23 11.02.2022
3797 Clouds 10 1021 75 10000 0.89 11 21:35 11.02.2022
3798 Clouds 11 1021 75 10000 0.45 184 20:28 11.02.2022
3799 Clouds 11 1021 72 10000 1.34 184 19:29 11.02.2022
3800 Clouds 12 1021 70 10000 0.89 185 18:44 11.02.2022
3801 Clear 13 1020 65 10000 2.24 261 17:27 11.02.2022
3802 Clear 14 1021 62 10000 2.57 200 16:47 11.02.2022
3803 Clear 16 1021 47 10000 2.24 168 15:22 11.02.2022
3804 Clear 16 1021 41 10000 2.57 200 14:38 11.02.2022
3805 Clear 16 1021 42 10000 2.57 200 14:19 11.02.2022
3806 Clear 16 1021 44 10000 2.68 90 13:47 11.02.2022
3807 Clear 16 1021 43 10000 2.68 90 13:28 11.02.2022
3808 Clear 15 1023 44 10000 1.79 74 11:23 11.02.2022
3809 Clear 13 1023 48 10000 1.34 71 09:37 11.02.2022
3810 Clear 11 1023 54 10000 0.45 90 08:36 11.02.2022
3811 Clear 9 1023 58 10000 1.54 0 07:47 11.02.2022
3812 Clouds 7 1022 67 10000 1.54 0 06:29 11.02.2022
3813 Clear 8 1022 66 10000 0.45 18 02:22 11.02.2022
3814 Clouds 9 1023 68 10000 3.09 340 23:48 10.02.2022
3815 Clouds 9 1024 70 10000 1.54 0 22:39 10.02.2022
3816 Clouds 9 1024 69 10000 1.79 98 21:43 10.02.2022
3817 Clouds 10 1024 66 10000 2.24 50 20:50 10.02.2022
3818 Clouds 10 1025 62 10000 1.54 0 19:59 10.02.2022
3819 Clouds 11 1024 62 10000 1.79 37 19:23 10.02.2022
3820 Clouds 11 1025 62 10000 1.54 0 18:33 10.02.2022
3821 Clouds 12 1024 57 10000 2.57 350 17:25 10.02.2022
3822 Clouds 13 1024 54 10000 3.09 10 16:47 10.02.2022
3823 Clouds 14 1024 49 10000 5.14 360 15:42 10.02.2022
3824 Clouds 14 1024 49 10000 5.14 340 15:24 10.02.2022
3825 Clouds 14 1024 48 10000 5.14 360 14:44 10.02.2022
3826 Clouds 14 1024 49 10000 4.12 350 14:22 10.02.2022
3827 Clouds 14 1024 48 10000 4.47 67 13:20 10.02.2022
3828 Clouds 13 1027 53 10000 3.58 316 11:58 10.02.2022
3829 Clouds 13 1027 54 10000 3.13 48 11:32 10.02.2022
3830 Clouds 12 1028 57 10000 5.36 330 10:32 10.02.2022
3831 Clouds 12 1028 61 10000 3.13 321 09:46 10.02.2022
3832 Clouds 10 1028 64 10000 1.34 302 08:42 10.02.2022
3833 Clear 7 1027 76 10000 0.89 292 06:34 10.02.2022
3834 Clear 7 1026 74 10000 1.54 0 03:39 10.02.2022
3835 Clear 8 1026 67 10000 3.09 330 01:18 10.02.2022
3836 Clouds 8 1026 66 10000 1.34 90 00:42 10.02.2022
3837 Clouds 8 1026 67 10000 3.09 350 00:23 10.02.2022
3838 Clouds 9 1026 66 10000 3.09 350 22:57 09.02.2022
3839 Clouds 9 1027 68 10000 3.09 350 22:33 09.02.2022
3840 Clouds 9 1026 69 10000 2.06 330 21:49 09.02.2022
3841 Clouds 9 1026 68 10000 1.79 90 21:28 09.02.2022
3842 Clouds 9 1026 70 10000 2.06 10 20:45 09.02.2022
3843 Clouds 10 1025 67 10000 2.06 10 20:23 09.02.2022
3844 Clouds 9 1025 65 10000 0.51 0 19:43 09.02.2022
3845 Clouds 10 1025 61 10000 0.89 324 18:55 09.02.2022
3846 Clouds 11 1023 55 10000 2.24 343 17:24 09.02.2022
3847 Clouds 12 1023 50 10000 4.47 355 16:25 09.02.2022
3848 Clouds 12 1023 45 10000 5.36 14 15:27 09.02.2022
3849 Clouds 11 1023 43 10000 7.15 346 13:32 09.02.2022
3850 Clouds 11 1023 42 10000 6.26 9 12:25 09.02.2022
3851 Clouds 10 1024 46 10000 4.63 310 10:37 09.02.2022
3852 Clouds 9 1024 48 10000 5.81 318 09:57 09.02.2022
3853 Clouds 8 1024 49 10000 4.92 352 09:22 09.02.2022
3854 Clouds 8 1024 49 10000 8.49 63 08:51 09.02.2022
3855 Clouds 6 1024 52 10000 5.36 323 07:28 09.02.2022
3856 Clouds 6 1022 57 10000 8.23 330 05:29 09.02.2022
3857 Clouds 7 1021 57 10000 6.71 14 03:49 09.02.2022
3858 Clouds 7 1019 64 10000 6.71 317 23:57 08.02.2022
3859 Clouds 7 1019 68 10000 9.26 330 23:19 08.02.2022
3860 Clouds 6 1019 73 10000 8.23 330 22:39 08.02.2022
3861 Clouds 6 1019 74 9000 7.2 330 22:20 08.02.2022
3862 Clouds 6 1018 75 8000 7.2 350 21:38 08.02.2022
3863 Clouds 6 1018 77 10000 6.17 340 21:19 08.02.2022
3864 Clouds 6 1018 77 9000 5.66 350 20:41 08.02.2022
3865 Clouds 6 1017 73 10000 8.94 360 19:31 08.02.2022
3866 Clouds 6 1015 72 10000 8.49 22 18:24 08.02.2022
3867 Clouds 6 1014 74 7000 8.49 22 17:33 08.02.2022
3868 Clouds 6 1013 72 7000 5.81 298 15:52 08.02.2022
3869 Clouds 6 1013 72 7000 7.15 332 15:28 08.02.2022
3870 Clouds 6 1011 68 7000 9.39 302 13:54 08.02.2022
3871 Clouds 7 1011 64 7000 13.41 295 12:39 08.02.2022
3872 Clouds 7 1009 61 10000 8.23 330 10:55 08.02.2022
3873 Clouds 8 1008 62 10000 7.6 233 09:51 08.02.2022
3874 Clouds 7 1008 64 8000 6.17 330 08:54 08.02.2022
3875 Clouds 8 1005 74 8000 6.69 320 06:50 08.02.2022
3876 Clouds 12 1004 67 10000 8.94 287 04:40 08.02.2022
3877 Clouds 12 1004 67 10000 6.71 275 04:22 08.02.2022
3878 Clouds 13 1004 69 10000 8.05 248 03:36 08.02.2022
3879 Clouds 13 1004 70 10000 4.02 279 03:18 08.02.2022
3880 Clouds 13 1004 69 10000 4.47 285 02:59 08.02.2022
3881 Clouds 13 1004 68 10000 4.92 266 02:37 08.02.2022
3882 Clouds 14 1004 66 10000 5.81 192 02:18 08.02.2022
3883 Clouds 14 1005 65 10000 4.47 198 01:45 08.02.2022
3884 Clouds 14 1005 65 10000 5.81 226 01:25 08.02.2022
3885 Clouds 14 1005 65 10000 6.71 215 00:55 08.02.2022
3886 Clouds 14 1005 65 10000 4.02 90 00:36 08.02.2022
3887 Clouds 14 1006 67 10000 5.81 200 23:45 07.02.2022
3888 Clouds 13 1006 68 10000 5.36 229 23:18 07.02.2022
3889 Clouds 13 1006 69 10000 6.26 206 22:59 07.02.2022
3890 Clouds 14 1007 68 10000 2.24 184 22:19 07.02.2022
3891 Clouds 14 1007 68 10000 2.06 190 21:51 07.02.2022
3892 Clouds 14 1008 67 10000 3.13 281 21:28 07.02.2022
3893 Clouds 14 1008 65 10000 5.36 234 20:47 07.02.2022
3894 Clouds 15 1007 65 10000 5.36 234 20:29 07.02.2022
3895 Clouds 15 1007 65 10000 6.26 220 19:47 07.02.2022
3896 Clouds 15 1008 67 10000 3.13 188 18:58 07.02.2022
3897 Clouds 15 1008 64 10000 1.79 246 17:38 07.02.2022
3898 Clouds 16 1008 63 10000 2.06 250 16:52 07.02.2022
3899 Clouds 17 1008 61 10000 3.13 244 15:48 07.02.2022
3900 Clouds 17 1010 61 10000 4.02 252 14:30 07.02.2022
3901 Clouds 17 1010 62 10000 4.92 269 13:27 07.02.2022
3902 Clouds 16 1011 63 10000 0.89 90 12:36 07.02.2022
3903 Clouds 16 1012 67 10000 0.45 90 11:52 07.02.2022
3904 Clouds 16 1013 68 10000 0.45 90 11:24 07.02.2022
3905 Clouds 16 1014 69 10000 0.89 90 10:43 07.02.2022
3906 Clouds 15 1014 70 10000 0.89 90 10:24 07.02.2022
3907 Clouds 15 1015 73 10000 0.45 90 09:52 07.02.2022
3908 Clouds 14 1016 77 10000 0.45 292 09:18 07.02.2022
3909 Clouds 12 1015 86 10000 0.45 159 07:58 07.02.2022
3910 Clouds 10 1016 89 10000 0.45 90 06:35 07.02.2022
3911 Clouds 10 1016 89 10000 0.89 158 05:26 07.02.2022
3912 Clouds 10 1018 86 10000 0.45 90 02:56 07.02.2022
3913 Clouds 9 1021 83 10000 0.89 90 00:29 07.02.2022
3914 Clouds 10 1021 82 10000 0.45 90 23:33 06.02.2022
3915 Clouds 10 1022 81 10000 0.45 90 22:45 06.02.2022
3916 Clouds 10 1022 80 10000 0.45 90 21:47 06.02.2022
3917 Clouds 10 1022 79 10000 0.45 90 21:21 06.02.2022
3918 Clouds 10 1022 79 10000 0.45 90 21:21 06.02.2022
3919 Clouds 10 1022 79 10000 0.45 90 21:21 06.02.2022
3920 Clouds 10 1022 79 10000 0.45 160 21:21 06.02.2022
3921 Clouds 11 1022 78 10000 1.79 76 20:48 06.02.2022
3922 Clouds 11 1022 77 10000 0.45 350 20:24 06.02.2022
3923 Clouds 11 1022 75 10000 0.45 90 19:30 06.02.2022
3924 Clouds 12 1022 73 10000 0.45 167 18:35 06.02.2022
3925 Clouds 13 1022 70 10000 0.89 170 17:54 06.02.2022
3926 Clouds 14 1022 66 10000 0.45 243 16:52 06.02.2022
3927 Clouds 15 1021 64 10000 0.45 90 16:30 06.02.2022
3928 Clouds 15 1022 65 10000 0.89 254 15:47 06.02.2022
3929 Clouds 15 1021 61 10000 0.89 90 15:25 06.02.2022
3930 Clouds 16 1021 59 10000 0.89 90 14:25 06.02.2022
3931 Clouds 16 1022 57 10000 2.24 90 13:24 06.02.2022
3932 Clouds 16 1022 57 10000 1.34 90 12:45 06.02.2022
3933 Clouds 15 1023 59 10000 1.34 90 11:19 06.02.2022
3934 Clouds 14 1023 65 10000 0.45 90 09:48 06.02.2022
3935 Clouds 12 1022 74 10000 0.45 338 08:47 06.02.2022
3936 Clouds 11 1022 79 10000 0.45 90 07:36 06.02.2022
3937 Clouds 11 1022 79 10000 0.45 90 07:36 06.02.2022
3938 Clouds 10 1020 82 10000 0.89 21 05:29 06.02.2022
3939 Clouds 10 1020 81 10000 0.45 90 02:26 06.02.2022
3940 Clouds 10 1020 81 10000 0.45 360 01:21 06.02.2022
3941 Clouds 10 1020 79 10000 1.34 90 00:24 06.02.2022
3942 Clouds 10 1019 79 10000 0.89 90 22:19 05.02.2022
3943 Clouds 11 1019 79 10000 0.45 90 20:52 05.02.2022
3944 Clouds 11 1019 79 10000 0.45 90 20:24 05.02.2022
3945 Clouds 11 1019 78 10000 0.45 90 19:45 05.02.2022
3946 Clouds 11 1018 75 10000 0.45 155 18:52 05.02.2022
3947 Clouds 12 1018 71 10000 0.89 90 17:38 05.02.2022
3948 Clouds 13 1016 67 10000 2.24 90 16:48 05.02.2022
3949 Clouds 15 1016 64 10000 1.34 90 15:33 05.02.2022
3950 Clouds 15 1017 61 10000 1.34 250 14:47 05.02.2022
3951 Clouds 15 1017 61 10000 2.24 90 12:47 05.02.2022
3952 Clouds 14 1017 62 10000 0.89 90 11:49 05.02.2022
3953 Clear 13 1019 63 10000 2.68 90 10:47 05.02.2022
3954 Clear 12 1019 65 10000 1.34 90 09:53 05.02.2022
3955 Clear 11 1019 69 10000 1.34 90 09:29 05.02.2022
3956 Clouds 7 1019 77 10000 0.89 90 07:38 05.02.2022
3957 Clear 6 1019 81 10000 0.45 90 06:56 05.02.2022
3958 Clouds 6 1019 79 10000 0.89 105 04:28 05.02.2022
3959 Clouds 6 1020 79 10000 0.45 16 01:19 05.02.2022
3960 Clouds 7 1020 78 10000 0.45 105 00:51 05.02.2022
3961 Clear 7 1020 77 10000 0.45 105 23:38 04.02.2022
3962 Clouds 7 1020 76 10000 0.89 105 23:20 04.02.2022
3963 Clouds 7 1021 72 10000 1.34 105 21:37 04.02.2022
3964 Clouds 7 1021 72 10000 1.34 105 21:18 04.02.2022
3965 Clouds 8 1021 72 10000 0.45 90 20:50 04.02.2022
3966 Clouds 8 1021 70 10000 0.89 90 19:33 04.02.2022
3967 Clouds 10 1020 60 10000 0.45 90 17:28 04.02.2022
3968 Clouds 12 1019 45 10000 0.89 90 15:39 04.02.2022
3969 Clouds 12 1019 44 10000 0.45 90 14:52 04.02.2022
3970 Clouds 11 1021 50 10000 2.24 90 12:43 04.02.2022
3971 Clouds 11 1021 52 10000 0.89 90 11:47 04.02.2022
3972 Clouds 10 1022 52 10000 0.89 90 11:22 04.02.2022
3973 Clouds 10 1022 53 10000 0.89 90 10:32 04.02.2022
3974 Clouds 7 1022 62 10000 0.89 259 08:34 04.02.2022
3975 Clouds 6 1020 86 10000 0.45 90 05:23 04.02.2022
3976 Clouds 7 1019 76 9000 1.34 90 02:40 04.02.2022
3977 Clouds 7 1018 75 10000 1.34 90 00:31 04.02.2022
3978 Drizzle 7 1017 71 10000 0.45 90 23:28 03.02.2022
3979 Clouds 7 1017 70 10000 2.24 90 22:31 03.02.2022
3980 Clouds 7 1017 71 10000 1.34 90 21:48 03.02.2022
3981 Clouds 7 1016 75 10000 2.24 90 20:36 03.02.2022
3982 Clouds 7 1016 75 10000 2.24 90 20:18 03.02.2022
3983 Clouds 7 1015 77 10000 4.02 90 19:26 03.02.2022
3984 Clouds 7 1014 73 10000 3.58 90 18:28 03.02.2022
3985 Clouds 8 1014 70 10000 2.68 90 17:32 03.02.2022
3986 Clouds 8 1013 72 10000 2.68 90 16:24 03.02.2022
3987 Drizzle 9 1011 68 10000 6.26 90 14:28 03.02.2022
3988 Drizzle 9 1009 65 10000 5.36 90 12:51 03.02.2022
3989 Clouds 8 1009 76 10000 2.24 90 10:45 03.02.2022
3990 Clouds 8 1007 71 10000 3.58 90 08:35 03.02.2022
3991 Clouds 7 1003 72 10000 1.34 90 03:57 03.02.2022
3992 Clouds 7 1004 78 10000 0.45 90 00:30 03.02.2022
3993 Clouds 7 1003 81 10000 0.45 90 22:55 02.02.2022
3994 Clouds 8 1003 78 10000 0.89 90 21:54 02.02.2022
3995 Clouds 8 1003 75 10000 0.89 90 21:30 02.02.2022
3996 Clouds 8 1002 71 10000 0.45 90 20:38 02.02.2022
3997 Clouds 8 1001 72 10000 0.89 90 19:55 02.02.2022
3998 Clouds 8 1001 73 10000 0.89 90 19:26 02.02.2022
3999 Clouds 9 1000 77 8000 2.24 90 18:34 02.02.2022
4000 Clouds 9 1001 81 8000 3.13 329 17:44 02.02.2022
4001 Clouds 10 1000 81 6000 0.45 90 17:19 02.02.2022
4002 Clouds 11 999 79 10000 0.45 90 16:31 02.02.2022
4003 Clouds 13 999 75 10000 2.68 90 12:55 02.02.2022
4004 Clouds 13 1000 72 9000 3.58 90 12:18 02.02.2022
4005 Clouds 13 1001 74 9000 3.58 90 11:32 02.02.2022
4006 Clouds 13 1001 80 10000 3.13 90 09:46 02.02.2022
4007 Clouds 10 1001 88 7000 3.13 90 07:33 02.02.2022
4008 Clouds 12 1003 89 9000 0.45 90 22:51 01.02.2022
4009 Rain 12 1004 88 8000 0.89 90 21:40 01.02.2022
4010 Clouds 13 1003 85 10000 5.36 90 19:58 01.02.2022
4011 Clouds 15 1002 80 10000 4.02 90 17:43 01.02.2022
4012 Clouds 15 1001 76 10000 4.02 90 16:39 01.02.2022
4013 Clouds 16 1001 71 10000 4.47 90 13:56 01.02.2022
4014 Clouds 16 1001 71 10000 4.47 90 12:42 01.02.2022
4015 Clouds 16 1002 70 10000 4.47 90 11:20 01.02.2022
4016 Clouds 11 1004 75 10000 2.24 90 02:34 01.02.2022
4017 Clouds 11 1007 73 10000 3.58 90 23:41 31.01.2022
4018 Clouds 11 1008 73 10000 3.13 90 22:57 31.01.2022
4019 Clouds 11 1009 73 10000 2.68 90 21:40 31.01.2022
4020 Clouds 11 1009 73 10000 2.68 90 21:19 31.01.2022
4021 Clouds 10 1010 70 10000 1.34 90 20:29 31.01.2022
4022 Clear 10 1011 67 10000 0.45 90 19:29 31.01.2022
4023 Clear 10 1011 63 10000 0.45 90 18:26 31.01.2022
4024 Clear 11 1011 58 10000 1.34 90 17:32 31.01.2022
4025 Clear 12 1010 51 10000 2.24 90 16:29 31.01.2022
4026 Clouds 13 1012 44 10000 0.89 169 14:54 31.01.2022
4027 Clear 14 1011 42 10000 1.34 90 13:52 31.01.2022
4028 Clear 13 1013 43 10000 2.24 90 12:38 31.01.2022
4029 Clear 13 1014 41 10000 0.89 219 11:55 31.01.2022
4030 Clear 12 1015 46 10000 0.45 60 10:50 31.01.2022
4031 Clear 12 1015 49 10000 0.45 105 10:25 31.01.2022
4032 Clear 11 1015 52 10000 0.89 355 09:23 31.01.2022
4033 Clouds 10 1015 55 10000 0.89 12 08:47 31.01.2022
4034 Clouds 10 1015 58 10000 1.34 63 08:20 31.01.2022
4035 Clouds 6 1014 75 10000 0.89 90 06:18 31.01.2022
4036 Clouds 6 1014 74 10000 0.45 76 00:55 31.01.2022
4037 Clouds 7 1015 73 10000 1.34 69 22:55 30.01.2022
4038 Clouds 7 1015 72 10000 0.89 225 22:25 30.01.2022
4039 Clouds 7 1015 72 10000 0.45 323 21:40 30.01.2022
4040 Clouds 7 1015 72 10000 0.89 132 21:18 30.01.2022
4041 Clouds 7 1016 70 10000 0.45 338 20:46 30.01.2022
4042 Clouds 7 1015 70 10000 0.89 69 20:27 30.01.2022
4043 Clouds 8 1015 68 10000 0.45 61 19:45 30.01.2022
4044 Clouds 8 1015 65 10000 0.89 291 18:43 30.01.2022
4045 Clouds 9 1015 64 10000 0.89 311 18:18 30.01.2022
4046 Clouds 10 1015 60 10000 0.89 322 17:22 30.01.2022
4047 Clouds 10 1015 57 10000 1.34 256 16:40 30.01.2022
4048 Clouds 11 1015 57 10000 1.79 318 16:21 30.01.2022
4049 Clouds 11 1015 55 10000 1.34 304 15:50 30.01.2022
4050 Clouds 11 1015 56 10000 0.45 244 15:31 30.01.2022
4051 Clouds 11 1015 57 10000 0.89 11 14:46 30.01.2022
4052 Clouds 11 1016 59 10000 1.79 88 12:47 30.01.2022
4053 Clouds 11 1016 62 10000 2.24 68 11:58 30.01.2022
4054 Clouds 10 1017 66 10000 4.47 107 10:36 30.01.2022
4055 Clouds 10 1017 66 10000 2.68 355 09:51 30.01.2022
4056 Clouds 9 1017 69 10000 1.34 355 08:56 30.01.2022
4057 Clouds 8 1017 71 10000 1.34 315 07:29 30.01.2022
4058 Clouds 8 1017 78 10000 4.02 10 01:56 30.01.2022
4059 Clouds 8 1017 80 10000 5.36 34 00:34 30.01.2022
4060 Clouds 8 1017 82 10000 5.36 26 23:20 29.01.2022
4061 Clouds 8 1017 83 10000 4.47 17 21:58 29.01.2022
4062 Clouds 7 1017 84 10000 4.47 26 21:25 29.01.2022
4063 Clouds 7 1018 81 10000 3.13 360 20:35 29.01.2022
4064 Drizzle 7 1017 80 10000 2.68 42 19:35 29.01.2022
4065 Drizzle 7 1017 78 10000 3.58 12 18:53 29.01.2022
4066 Clouds 7 1017 77 9000 3.13 53 18:24 29.01.2022
4067 Clouds 7 1016 75 9000 0.45 65 17:31 29.01.2022
4068 Clouds 7 1016 73 9000 0.89 20 16:37 29.01.2022
4069 Clouds 8 1017 72 10000 1.34 69 14:23 29.01.2022
4070 Clouds 8 1017 70 9000 1.79 329 13:45 29.01.2022
4071 Clouds 8 1017 69 9000 1.79 355 13:24 29.01.2022
4072 Clouds 8 1018 68 10000 1.34 112 11:50 29.01.2022
4073 Clouds 9 1018 65 10000 1.79 340 11:27 29.01.2022
4074 Clouds 8 1019 68 10000 2.24 30 09:29 29.01.2022
4075 Clouds 7 1019 77 10000 0.89 37 06:55 29.01.2022
4076 Clear 6 1019 80 10000 0.45 132 00:49 29.01.2022
4077 Clear 6 1019 79 10000 0.89 132 00:31 29.01.2022
4078 Clear 6 1020 79 10000 0.89 40 22:51 28.01.2022
4079 Clear 6 1020 78 10000 0.45 37 22:26 28.01.2022
4080 Clear 7 1020 77 10000 0.89 61 21:50 28.01.2022
4081 Clear 7 1020 75 10000 0.89 66 20:30 28.01.2022
4082 Clear 7 1020 74 10000 0.45 148 19:42 28.01.2022
4083 Clear 7 1019 71 10000 0.89 82 18:47 28.01.2022
4084 Clear 8 1019 68 10000 1.79 204 17:43 28.01.2022
4085 Clear 12 1019 53 10000 0.45 213 15:28 28.01.2022
4086 Clear 12 1019 52 10000 0.45 210 13:59 28.01.2022
4087 Clear 11 1021 54 10000 0.45 193 12:32 28.01.2022
4088 Clear 11 1022 53 10000 0.45 222 11:38 28.01.2022
4089 Clear 9 1023 56 10000 0.45 92 09:59 28.01.2022
4090 Clear 7 1023 59 10000 0.45 292 08:41 28.01.2022
4091 Clear 4 1023 67 10000 0.89 72 07:36 28.01.2022
4092 Clear 3 1023 70 10000 0.45 18 05:23 28.01.2022
4093 Clouds 4 1023 67 10000 1.34 28 03:47 28.01.2022
4094 Clouds 5 1024 66 10000 0.89 58 02:23 28.01.2022
4095 Clouds 5 1024 66 10000 0 0 01:33 28.01.2022
4096 Clouds 5 1024 66 10000 0.45 13 23:30 27.01.2022
4097 Clouds 5 1025 66 10000 0.45 11 21:50 27.01.2022
4098 Clouds 5 1025 65 10000 0.45 108 21:30 27.01.2022
4099 Clouds 5 1025 63 10000 0.89 5 20:44 27.01.2022
4100 Clouds 6 1024 60 10000 0.89 17 19:21 27.01.2022
4101 Clouds 6 1023 58 10000 1.34 9 17:56 27.01.2022
4102 Clouds 9 1024 42 10000 0.45 5 15:30 27.01.2022
4103 Clouds 10 1024 43 10000 0.45 90 13:37 27.01.2022
4104 Clouds 9 1024 46 10000 0.45 333 12:45 27.01.2022
4105 Clouds 8 1025 53 10000 0.45 279 10:46 27.01.2022
4106 Clouds 7 1025 62 10000 0.45 295 09:19 27.01.2022
4107 Clouds 5 1025 67 10000 0.89 277 08:37 27.01.2022
4108 Clouds 4 1024 71 10000 0.89 0 05:59 27.01.2022
4109 Clear 4 1023 63 10000 0.45 14 02:57 27.01.2022
4110 Clouds 3 1025 64 10000 0.89 266 23:33 26.01.2022
4111 Clouds 3 1025 62 10000 0.89 20 22:25 26.01.2022
4112 Clouds 3 1025 64 10000 0.45 17 21:36 26.01.2022
4113 Clouds 3 1025 65 10000 0.89 194 20:41 26.01.2022
4114 Clouds 3 1025 66 10000 0.89 200 20:23 26.01.2022
4115 Clouds 3 1024 62 10000 0.45 0 19:23 26.01.2022
4116 Clouds 3 1024 59 10000 1.34 137 18:45 26.01.2022
4117 Clouds 3 1023 56 10000 0.45 71 17:51 26.01.2022
4118 Clouds 4 1024 53 10000 0.45 321 17:23 26.01.2022
4119 Clouds 5 1023 49 10000 2.68 311 16:33 26.01.2022
4120 Clouds 6 1023 48 10000 0.45 313 15:49 26.01.2022
4121 Clouds 6 1023 45 10000 0.89 313 14:21 26.01.2022
4122 Clouds 5 1024 46 10000 3.13 38 11:54 26.01.2022
4123 Clouds 4 1024 46 10000 4.02 327 10:43 26.01.2022
4124 Clouds 4 1024 50 10000 2.68 344 09:48 26.01.2022
4125 Clouds 2 1024 58 10000 1.34 348 08:27 26.01.2022
4126 Clouds 2 1023 62 10000 1.79 327 04:24 26.01.2022
4127 Clouds 2 1024 58 10000 0.45 340 23:58 25.01.2022
4128 Clouds 2 1024 60 10000 0.89 338 23:20 25.01.2022
4129 Clouds 1 1024 60 10000 1.34 12 22:22 25.01.2022
4130 Clouds 2 1025 58 10000 1.79 5 21:59 25.01.2022
4131 Clouds 2 1024 57 10000 1.79 337 20:59 25.01.2022
4132 Clouds 2 1024 58 10000 1.79 36 20:40 25.01.2022
4133 Clouds 2 1024 57 10000 1.34 335 19:53 25.01.2022
4134 Clouds 2 1024 61 10000 1.34 300 18:38 25.01.2022
4135 Clouds 2 1024 64 10000 0.89 327 17:45 25.01.2022
4136 Clouds 2 1024 67 10000 2.24 318 16:45 25.01.2022
4137 Clouds 2 1024 69 10000 3.58 321 16:21 25.01.2022
4138 Clouds 2 1024 71 10000 4.02 333 15:38 25.01.2022
4139 Clouds 3 1024 72 10000 4.02 327 14:57 25.01.2022
4140 Clouds 2 1024 78 5000 3.58 335 13:46 25.01.2022
4141 Clouds 4 1025 60 10000 5.36 28 10:58 25.01.2022
4142 Clouds 3 1025 66 10000 4.02 13 08:38 25.01.2022
4143 Clouds 3 1025 69 10000 6.26 22 07:29 25.01.2022
4144 Clouds 2 1024 72 10000 5.81 21 06:49 25.01.2022
4145 Clouds 2 1023 77 10000 3.13 46 05:22 25.01.2022
4146 Rain 2 1022 84 5000 5.81 15 23:37 24.01.2022
4147 Snow 2 1022 84 5000 4.47 360 23:19 24.01.2022
4148 Clouds 2 1022 85 6000 4.47 349 22:59 24.01.2022
4149 Snow 2 1022 87 6000 4.02 355 22:41 24.01.2022
4150 Snow 2 1022 89 2000 4.02 11 21:54 24.01.2022
4151 Snow 1 1021 91 500 3.13 19 21:29 24.01.2022
4152 Clouds 1 1022 93 5983 1.79 76 20:30 24.01.2022
4153 Clouds 1 1022 94 300 3.09 340 19:52 24.01.2022
4154 Clouds 1 1022 94 200 1.54 0 19:30 24.01.2022
4155 Clouds 1 1020 94 200 0.45 14 18:19 24.01.2022
4156 Clouds 1 1020 93 300 0.45 337 17:24 24.01.2022
4157 Clouds 1 1020 93 300 0.89 90 16:55 24.01.2022
4158 Clouds 1 1020 92 500 0.89 90 16:19 24.01.2022
4159 Clouds 1 1019 91 300 0.89 90 14:43 24.01.2022
4160 Snow 1 1019 90 400 0.45 90 13:24 24.01.2022
4161 Rain 1 1020 91 1000 2.24 347 12:23 24.01.2022
4162 Snow 1 1020 91 500 0.89 90 10:31 24.01.2022
4163 Rain 1 1020 90 4675 0.45 90 09:48 24.01.2022
4164 Clouds 0 1020 87 800 3.13 90 08:41 24.01.2022
4165 Clouds 2 1020 64 10000 1.34 90 06:41 24.01.2022
4166 Clouds 2 1020 69 10000 1.34 90 01:31 24.01.2022
4167 Clouds 1 1020 67 10000 2.68 90 00:38 24.01.2022
4168 Clouds 2 1020 65 10000 2.68 90 00:20 24.01.2022
4169 Clear 2 1021 55 10000 0.89 90 22:37 23.01.2022
4170 Clouds 2 1021 56 10000 0.45 90 21:50 23.01.2022
4171 Clouds 2 1021 56 10000 0.45 90 21:26 23.01.2022
4172 Clouds 2 1021 55 10000 0.89 90 20:45 23.01.2022
4173 Clear 2 1021 53 10000 0.89 90 19:52 23.01.2022
4174 Clouds 3 1021 52 10000 0.89 90 18:52 23.01.2022
4175 Clouds 3 1021 51 10000 0.45 90 17:49 23.01.2022
4176 Clouds 4 1021 47 10000 0.45 90 16:47 23.01.2022
4177 Clouds 5 1020 48 10000 2.68 90 15:18 23.01.2022
4178 Clouds 5 1021 52 10000 2.24 90 14:31 23.01.2022
4179 Clouds 5 1021 52 10000 2.24 90 14:31 23.01.2022
4180 Clouds 5 1021 52 10000 2.24 90 13:22 23.01.2022
4181 Clouds 5 1021 51 10000 0.45 90 12:36 23.01.2022
4182 Clouds 5 1021 51 10000 0.45 90 12:18 23.01.2022
4183 Clouds 5 1021 55 10000 0.45 90 11:23 23.01.2022
4184 Clear 4 1021 58 10000 1.34 90 10:28 23.01.2022
4185 Clouds 4 1021 58 500 0.89 90 09:52 23.01.2022
4186 Clouds 3 1021 65 5000 3.58 90 08:59 23.01.2022
4187 Clouds 2 1018 59 10000 1.34 90 05:58 23.01.2022
4188 Clouds 2 1017 51 10000 0.45 34 01:54 23.01.2022
4189 Clouds 2 1017 51 10000 0.45 289 01:33 23.01.2022
4190 Clouds 3 1018 49 10000 0.45 312 00:31 23.01.2022
4191 Clouds 3 1018 48 10000 0.45 90 23:57 22.01.2022
4192 Clouds 3 1018 50 10000 0.45 90 22:46 22.01.2022
4193 Clear 3 1018 51 10000 1.34 360 21:38 22.01.2022
4194 Clouds 3 1017 52 10000 0.45 90 20:23 22.01.2022
4195 Clouds 4 1017 52 10000 1.79 5 19:21 22.01.2022
4196 Clouds 4 1016 54 10000 0.45 90 18:25 22.01.2022
4197 Clouds 4 1016 60 10000 0.45 90 17:41 22.01.2022
4198 Clouds 4 1015 61 10000 0.45 90 16:57 22.01.2022
4199 Clouds 4 1015 58 10000 1.34 90 15:55 22.01.2022
4200 Clouds 4 1014 58 10000 1.34 90 15:37 22.01.2022
4201 Clouds 5 1014 61 10000 0.89 90 13:59 22.01.2022
4202 Clouds 5 1014 61 10000 0.89 90 12:58 22.01.2022
4203 Clouds 5 1014 61 10000 0.89 90 12:30 22.01.2022
4204 Clouds 5 1014 62 10000 0.45 90 11:57 22.01.2022
4205 Clouds 5 1015 66 10000 1.34 90 10:38 22.01.2022
4206 Clouds 5 1015 66 10000 1.34 90 10:19 22.01.2022
4207 Clouds 5 1015 73 10000 0.89 90 08:54 22.01.2022
4208 Clouds 5 1015 74 10000 0.89 90 08:31 22.01.2022
4209 Clouds 5 1014 85 9000 1.34 90 05:20 22.01.2022
4210 Clouds 8 1014 76 10000 0.89 340 01:58 22.01.2022
4211 Clouds 10 1013 71 10000 0.89 0 23:49 21.01.2022
4212 Clouds 11 1014 72 10000 0.45 335 22:44 21.01.2022
4213 Clouds 11 1015 73 10000 1.79 320 20:46 21.01.2022
4214 Clouds 12 1015 66 10000 0.89 265 18:41 21.01.2022
4215 Clouds 13 1014 65 10000 0.89 282 17:48 21.01.2022
4216 Clouds 15 1015 63 10000 1.34 90 15:48 21.01.2022
4217 Clouds 15 1015 58 10000 2.68 90 14:37 21.01.2022
4218 Clouds 16 1013 58 10000 2.68 90 12:43 21.01.2022
4219 Clouds 14 1017 61 10000 2.24 90 11:29 21.01.2022
4220 Clouds 14 1018 64 10000 0.89 206 10:27 21.01.2022
4221 Clouds 11 1018 75 10000 0.45 148 08:50 21.01.2022
4222 Clouds 9 1018 81 10000 0.45 103 07:48 21.01.2022
4223 Clouds 8 1020 81 10000 0.45 156 01:48 21.01.2022
4224 Clear 10 1021 75 10000 0.45 90 22:47 20.01.2022
4225 Clear 10 1021 73 10000 0.45 216 21:48 20.01.2022
4226 Clear 10 1021 74 10000 0.45 156 21:25 20.01.2022
4227 Clear 11 1021 71 10000 0.45 90 19:47 20.01.2022
4228 Clear 11 1021 71 10000 0.45 90 19:18 20.01.2022
4229 Clear 11 1021 67 10000 3.13 223 17:37 20.01.2022
4230 Clouds 12 1020 63 10000 1.34 90 16:19 20.01.2022
4231 Clouds 13 1021 59 10000 2.68 90 15:29 20.01.2022
4232 Clear 13 1022 58 10000 0.45 191 14:19 20.01.2022
4233 Clear 13 1023 56 10000 2.24 90 12:49 20.01.2022
4234 Clear 13 1022 56 10000 2.24 90 12:29 20.01.2022
4235 Clouds 12 1024 57 10000 2.24 90 11:19 20.01.2022
4236 Clouds 10 1025 65 10000 0.45 90 09:50 20.01.2022
4237 Clear 8 1025 75 10000 1.34 126 08:51 20.01.2022
4238 Clear 5 1026 81 10000 0.45 45 06:57 20.01.2022
4239 Clouds 5 1028 71 10000 0.45 90 00:40 20.01.2022
4240 Clouds 5 1030 69 10000 0.45 90 22:39 19.01.2022
4241 Clouds 5 1030 69 10000 0.45 90 21:36 19.01.2022
4242 Clouds 5 1030 68 10000 0.45 90 20:58 19.01.2022
4243 Clouds 5 1030 68 10000 0.45 90 20:40 19.01.2022
4244 Clouds 6 1030 65 10000 0.45 90 18:59 19.01.2022
4245 Clouds 6 1029 61 10000 1.34 90 17:51 19.01.2022
4246 Clouds 7 1029 60 10000 1.34 90 17:18 19.01.2022
4247 Clouds 7 1029 60 10000 1.34 90 17:18 19.01.2022
4248 Clouds 8 1029 53 10000 1.34 90 15:35 19.01.2022
4249 Clouds 8 1029 57 10000 2.24 90 13:26 19.01.2022
4250 Clouds 8 1031 63 10000 4.02 90 11:59 19.01.2022
4251 Clouds 8 1031 63 10000 4.02 90 11:38 19.01.2022
4252 Clouds 7 1031 72 10000 2.68 90 09:49 19.01.2022
4253 Clouds 7 1031 76 10000 2.68 90 09:22 19.01.2022
4254 Clouds 6 1029 68 10000 2.24 90 05:29 19.01.2022
4255 Clear 8 1026 45 10000 2.68 90 00:22 19.01.2022
4256 Clouds 8 1026 48 10000 2.24 90 23:18 18.01.2022
4257 Clouds 7 1027 47 10000 2.24 5 21:50 18.01.2022
4258 Clouds 8 1026 46 10000 3.13 21 20:44 18.01.2022
4259 Clouds 8 1026 48 10000 4.47 333 19:52 18.01.2022
4260 Clouds 8 1026 49 10000 4.02 360 19:33 18.01.2022
4261 Clouds 8 1026 50 10000 3.58 316 18:25 18.01.2022
4262 Clouds 8 1025 50 10000 3.13 317 17:33 18.01.2022
4263 Clouds 9 1024 46 10000 5.36 355 16:33 18.01.2022
4264 Clouds 11 1024 41 10000 4.92 5 15:26 18.01.2022
4265 Clouds 11 1024 38 10000 4.02 14 14:34 18.01.2022
4266 Clouds 11 1024 39 10000 4.47 38 11:52 18.01.2022
4267 Clouds 11 1023 45 10000 4.02 22 10:40 18.01.2022
4268 Clouds 11 1022 53 10000 3.13 300 08:49 18.01.2022
4269 Clouds 10 1021 53 10000 3.13 14 07:45 18.01.2022
4270 Clouds 9 1018 84 10000 0.45 0 02:20 18.01.2022
4271 Clouds 9 1019 82 10000 1.34 155 23:22 17.01.2022
4272 Clouds 9 1019 81 10000 1.79 238 21:58 17.01.2022
4273 Clouds 10 1019 80 10000 0.45 157 21:31 17.01.2022
4274 Clouds 10 1019 79 10000 0.89 250 19:51 17.01.2022
4275 Clouds 11 1019 78 10000 0.89 156 18:28 17.01.2022
4276 Clouds 11 1019 73 10000 0.45 156 17:24 17.01.2022
4277 Clouds 13 1019 69 10000 2.24 161 16:24 17.01.2022
4278 Clear 14 1019 61 10000 0.45 205 14:59 17.01.2022
4279 Clouds 13 1019 61 10000 0.89 226 14:33 17.01.2022
4280 Clouds 13 1021 64 10000 0.45 198 13:20 17.01.2022
4281 Clouds 13 1021 64 10000 0.89 191 12:52 17.01.2022
4282 Clouds 12 1022 65 10000 0.89 200 11:48 17.01.2022
4283 Clouds 11 1023 67 10000 0.45 240 10:21 17.01.2022
4284 Clear 9 1024 77 10000 1.19 214 08:51 17.01.2022
4285 Clouds 5 1024 84 10000 0.89 23 07:22 17.01.2022
4286 Clear 4 1025 77 10000 1.34 3 02:23 17.01.2022
4287 Clear 5 1026 75 10000 1.79 24 00:53 17.01.2022
4288 Clear 6 1027 73 10000 0.45 58 21:44 16.01.2022
4289 Clear 6 1027 72 10000 0.45 349 20:33 16.01.2022
4290 Clear 6 1027 72 10000 0.45 349 20:33 16.01.2022
4291 Clear 7 1027 71 10000 1.79 22 18:50 16.01.2022
4292 Clouds 8 1027 66 10000 0.89 13 17:55 16.01.2022
4293 Clouds 9 1027 61 10000 0.89 360 16:56 16.01.2022
4294 Clouds 9 1027 58 10000 1.34 5 16:20 16.01.2022
4295 Clouds 10 1026 55 10000 2.24 360 14:30 16.01.2022
4296 Clouds 10 1026 55 10000 1.79 46 13:34 16.01.2022
4297 Clouds 10 1026 58 10000 1.79 342 12:27 16.01.2022
4298 Clouds 9 1027 58 10000 1.79 350 11:38 16.01.2022
4299 Clouds 10 1027 57 10000 1.79 335 10:46 16.01.2022
4300 Clouds 10 1027 57 10000 1.79 64 09:59 16.01.2022
4301 Clouds 10 1027 56 10000 1.34 10 09:40 16.01.2022
4302 Clouds 9 1027 57 10000 2.24 355 09:21 16.01.2022
4303 Clouds 9 1025 58 10000 1.34 27 07:23 16.01.2022
4304 Clouds 9 1023 66 10000 1.34 17 00:36 16.01.2022
4305 Clouds 10 1022 64 10000 2.24 27 23:22 15.01.2022
4306 Clouds 10 1023 64 10000 0.89 61 21:23 15.01.2022
4307 Clouds 9 1021 64 10000 2.24 347 20:48 15.01.2022
4308 Clouds 10 1021 64 10000 0.89 355 20:29 15.01.2022
4309 Clouds 10 1021 63 10000 1.34 360 19:27 15.01.2022
4310 Clouds 10 1021 61 10000 0.45 41 18:23 15.01.2022
4311 Clouds 11 1021 62 10000 1.79 340 16:49 15.01.2022
4312 Clouds 12 1019 57 10000 4.02 16 14:48 15.01.2022
4313 Clouds 12 1018 60 10000 4.47 48 13:29 15.01.2022
4314 Clouds 14 1018 52 10000 3.13 24 11:33 15.01.2022
4315 Clear 12 1017 48 10000 0.45 164 09:46 15.01.2022
4316 Clear 5 1016 69 10000 0.89 21 05:18 15.01.2022
4317 Clear 5 1018 59 10000 0.45 0 23:40 14.01.2022
4318 Clear 6 1019 53 10000 0.45 359 21:19 14.01.2022
4319 Clear 6 1019 51 10000 0.89 20 20:37 14.01.2022
4320 Clear 7 1019 51 10000 2.57 290 19:55 14.01.2022
4321 Clear 7 1019 48 10000 0.89 146 18:43 14.01.2022
4322 Clear 8 1019 46 10000 0.45 355 17:52 14.01.2022
4323 Clear 9 1019 39 10000 0.89 216 16:43 14.01.2022
4324 Clear 9 1018 38 10000 0.89 175 16:43 14.01.2022
4325 Clear 10 1020 34 10000 0.89 290 15:33 14.01.2022
4326 Clear 10 1020 31 10000 2.24 333 14:29 14.01.2022
4327 Clear 10 1021 33 10000 2.24 311 12:59 14.01.2022
4328 Clear 9 1023 39 10000 1.79 303 11:53 14.01.2022
4329 Clear 7 1025 46 10000 2.68 347 10:40 14.01.2022
4330 Clouds 5 1026 60 10000 0.89 283 08:53 14.01.2022
4331 Clouds 3 1026 66 10000 0.45 232 07:35 14.01.2022
4332 Clouds 4 1027 61 10000 0.89 111 02:28 14.01.2022
4333 Clouds 5 1027 56 10000 0.89 360 00:33 14.01.2022
4334 Clouds 5 1028 57 10000 2.24 311 21:52 13.01.2022
4335 Clouds 5 1028 56 10000 2.24 355 21:29 13.01.2022
4336 Clouds 5 1028 55 10000 3.58 326 20:27 13.01.2022
4337 Clouds 5 1028 53 10000 4.47 360 19:30 13.01.2022
4338 Clouds 5 1028 53 10000 4.47 5 18:49 13.01.2022
4339 Clouds 5 1028 55 10000 5.36 355 16:58 13.01.2022
4340 Clouds 5 1027 52 10000 4.02 348 15:46 13.01.2022
4341 Clouds 5 1027 53 10000 4.47 26 15:26 13.01.2022
4342 Clouds 5 1027 59 10000 5.81 336 13:36 13.01.2022
4343 Clouds 5 1028 53 10000 5.36 343 11:38 13.01.2022
4344 Clouds 4 1028 55 10000 6.26 5 09:24 13.01.2022
4345 Clouds 4 1028 57 10000 4.92 44 08:52 13.01.2022
4346 Clouds 4 1028 57 10000 4.92 355 08:18 13.01.2022
4347 Clouds 4 1028 61 10000 5.36 344 07:20 13.01.2022
4348 Clouds 4 1026 62 10000 5.81 360 05:21 13.01.2022
4349 Clouds 4 1026 63 10000 4.02 346 04:55 13.01.2022
4350 Clouds 4 1024 65 10000 4.47 5 01:41 13.01.2022
4351 Clouds 5 1024 66 10000 4.02 360 23:54 12.01.2022
4352 Clouds 5 1023 67 10000 5.36 30 23:34 12.01.2022
4353 Clouds 5 1024 71 10000 5.81 5 22:35 12.01.2022
4354 Clouds 5 1023 76 10000 5.36 344 21:49 12.01.2022
4355 Clouds 5 1023 77 10000 4.92 12 21:20 12.01.2022
4356 Clouds 5 1023 78 10000 4.47 5 20:49 12.01.2022
4357 Clouds 5 1022 80 10000 5.36 19 19:23 12.01.2022
4358 Clouds 5 1021 80 10000 5.81 11 18:27 12.01.2022
4359 Clouds 5 1019 80 10000 6.71 90 16:58 12.01.2022
4360 Clouds 6 1018 79 10000 6.71 90 15:49 12.01.2022
4361 Clouds 6 1017 77 10000 6.71 90 14:45 12.01.2022
4362 Clouds 7 1017 73 10000 6.26 9 12:57 12.01.2022
4363 Clouds 7 1017 74 10000 6.71 19 09:58 12.01.2022
4364 Clouds 7 1014 73 10000 8.05 9 07:59 12.01.2022
4365 Clouds 7 1014 72 10000 7.15 9 07:33 12.01.2022
4366 Clouds 7 1010 78 10000 5.81 32 04:54 12.01.2022
4367 Clouds 9 1005 85 10000 0.89 90 23:27 11.01.2022
4368 Clouds 9 1004 85 10000 0.45 90 22:41 11.01.2022
4369 Clouds 9 1004 84 10000 0.45 90 22:20 11.01.2022
4370 Clouds 9 1003 86 9000 0.45 90 20:40 11.01.2022
4371 Clouds 10 1002 87 9000 0.45 90 19:41 11.01.2022
4372 Clouds 11 1002 86 10000 1.34 323 18:22 11.01.2022
4373 Clouds 11 1001 85 10000 2.24 90 16:59 11.01.2022
4374 Clouds 11 1000 85 10000 2.24 90 16:35 11.01.2022
4375 Clouds 11 1001 83 10000 2.24 114 14:57 11.01.2022
4376 Clouds 12 1001 82 10000 1.34 78 14:39 11.01.2022
4377 Clouds 12 1001 78 10000 0.89 13 13:53 11.01.2022
4378 Clouds 12 1001 79 10000 1.34 351 13:31 11.01.2022
4379 Clouds 12 1000 79 10000 2.68 80 12:37 11.01.2022
4380 Clouds 11 1001 80 10000 0.89 10 10:45 11.01.2022
4381 Clouds 11 1000 83 10000 0.89 19 08:53 11.01.2022
4382 Clouds 8 998 90 10000 0.89 73 06:22 11.01.2022
4383 Clouds 11 996 87 10000 4.02 90 00:28 11.01.2022
4384 Clouds 11 996 89 10000 2.68 90 23:40 10.01.2022
4385 Clouds 11 996 89 10000 0.45 90 22:43 10.01.2022
4386 Clouds 11 997 90 10000 0.45 90 22:18 10.01.2022
4387 Clouds 11 997 90 10000 0.89 90 21:42 10.01.2022
4388 Clouds 11 997 88 10000 0.89 90 21:18 10.01.2022
4389 Clouds 12 997 86 10000 0.89 90 20:55 10.01.2022
4390 Clouds 12 997 84 10000 0.89 90 20:24 10.01.2022
4391 Clouds 12 997 83 10000 0.45 90 19:41 10.01.2022
4392 Clouds 12 997 83 10000 0.45 90 19:19 10.01.2022
4393 Clouds 12 997 81 10000 1.34 90 18:48 10.01.2022
4394 Clouds 12 996 81 10000 0.45 117 17:24 10.01.2022
4395 Clouds 13 996 81 10000 0.89 90 16:41 10.01.2022
4396 Clouds 13 996 78 10000 0.45 169 15:20 10.01.2022
4397 Clouds 13 996 81 10000 0.89 250 13:39 10.01.2022
4398 Clouds 12 996 87 10000 0.45 128 11:57 10.01.2022
4399 Clouds 12 997 88 10000 0.45 88 11:24 10.01.2022
4400 Clouds 12 997 88 10000 0.45 59 09:46 10.01.2022
4401 Clouds 10 997 91 10000 0.45 46 06:22 10.01.2022
4402 Clouds 10 997 91 10000 0.45 23 05:49 10.01.2022
4403 Clouds 9 998 89 10000 0.45 90 01:26 10.01.2022
4404 Clouds 10 998 89 10000 0.45 90 00:23 10.01.2022
4405 Clouds 10 999 88 10000 0.89 118 23:28 09.01.2022
4406 Clouds 10 999 88 10000 1.34 35 22:37 09.01.2022
4407 Clouds 10 1000 87 10000 0.89 18 21:44 09.01.2022
4408 Clouds 10 1000 87 10000 0.45 11 21:23 09.01.2022
4409 Clouds 11 1000 88 10000 1.34 29 20:50 09.01.2022
4410 Clouds 11 1000 87 10000 0.45 55 20:32 09.01.2022
4411 Drizzle 11 1000 87 10000 0.45 17 19:44 09.01.2022
4412 Clouds 11 1000 86 10000 0.89 47 19:23 09.01.2022
4413 Clouds 11 1001 86 10000 0.45 191 18:51 09.01.2022
4414 Clouds 11 1001 85 10000 1.79 49 18:33 09.01.2022
4415 Clouds 12 1000 84 10000 1.79 29 17:31 09.01.2022
4416 Clouds 12 1000 83 10000 0.89 34 16:51 09.01.2022
4417 Clouds 13 1001 80 10000 0.89 133 15:57 09.01.2022
4418 Clouds 14 1000 79 10000 0.89 125 15:35 09.01.2022
4419 Clouds 14 1001 77 10000 0.89 32 14:40 09.01.2022
4420 Clouds 14 1000 74 10000 0.89 57 13:50 09.01.2022
4421 Clouds 14 1001 81 10000 0.45 62 12:50 09.01.2022
4422 Clouds 14 1002 81 10000 0.89 360 11:51 09.01.2022
4423 Clouds 12 1003 87 10000 0.89 56 10:52 09.01.2022
4424 Clouds 11 1003 87 10000 0.89 62 09:47 09.01.2022
4425 Clouds 11 1003 88 10000 1.34 7 08:51 09.01.2022
4426 Rain 10 1004 91 10000 1.79 14 05:21 09.01.2022
4427 Clouds 12 1006 81 10000 1.79 203 01:24 09.01.2022
4428 Clouds 12 1006 82 10000 2.24 66 23:44 08.01.2022
4429 Clouds 12 1006 83 10000 0.45 22 23:26 08.01.2022
4430 Clouds 12 1007 82 10000 0.89 19 22:28 08.01.2022
4431 Clouds 12 1008 84 10000 0.45 15 21:25 08.01.2022
4432 Clouds 12 1008 83 10000 0.45 30 20:42 08.01.2022
4433 Clouds 12 1009 83 10000 0.89 17 20:20 08.01.2022
4434 Clouds 12 1009 79 10000 0.89 34 18:45 08.01.2022
4435 Clouds 13 1008 76 10000 0.89 18 17:22 08.01.2022
4436 Clouds 14 1008 70 10000 0.45 235 15:56 08.01.2022
4437 Clouds 14 1008 69 10000 0.45 202 14:46 08.01.2022
4438 Clouds 14 1009 76 10000 1.34 78 13:28 08.01.2022
4439 Rain 14 1012 78 10000 7.15 236 11:28 08.01.2022
4440 Clouds 16 1011 78 10000 1.34 163 10:30 08.01.2022
4441 Clouds 15 1012 81 10000 0.89 163 09:48 08.01.2022
4442 Clouds 13 1012 88 10000 0.45 5 08:22 08.01.2022
4443 Clouds 13 1013 90 7000 0.45 105 03:31 08.01.2022
4444 Clouds 13 1014 85 10000 0.89 170 00:57 08.01.2022
4445 Clouds 13 1014 83 10000 0.45 46 22:54 07.01.2022
4446 Clouds 13 1014 82 10000 0.45 32 21:21 07.01.2022
4447 Clouds 14 1015 79 10000 0.89 45 20:23 07.01.2022
4448 Clouds 14 1014 79 10000 1.79 46 19:26 07.01.2022
4449 Clouds 14 1014 77 10000 0.89 25 18:45 07.01.2022
4450 Clouds 15 1014 69 10000 0.89 183 17:28 07.01.2022
4451 Clouds 15 1013 68 10000 0.89 142 16:41 07.01.2022
4452 Clouds 17 1013 61 10000 0.89 190 14:37 07.01.2022
4453 Clouds 17 1013 59 10000 0.89 202 13:41 07.01.2022
4454 Clouds 17 1013 63 10000 1.34 173 12:50 07.01.2022
4455 Clouds 16 1014 74 10000 2.24 136 09:48 07.01.2022
4456 Clouds 14 1014 89 10000 0.45 142 02:58 07.01.2022
4457 Clouds 14 1014 88 10000 0.89 126 02:19 07.01.2022
4458 Clouds 15 1014 87 10000 0.89 196 01:41 07.01.2022
4459 Clouds 15 1014 87 10000 0.89 178 01:20 07.01.2022
4460 Clouds 15 1014 88 10000 0.89 178 00:28 07.01.2022
4461 Clouds 14 1014 88 10000 1.34 147 21:40 06.01.2022
4462 Clouds 15 1014 88 10000 1.34 188 20:36 06.01.2022
4463 Clouds 15 1014 86 10000 0.89 175 19:54 06.01.2022
4464 Clouds 15 1014 87 10000 1.34 134 19:28 06.01.2022
4465 Clouds 15 1014 84 10000 0.89 163 17:51 06.01.2022
4466 Clouds 15 1014 84 10000 0.89 163 17:51 06.01.2022
4467 Clouds 15 1013 83 10000 1.34 167 17:19 06.01.2022
4468 Clouds 16 1013 83 10000 1.34 154 16:22 06.01.2022
4469 Clouds 16 1013 81 10000 1.79 94 15:41 06.01.2022
4470 Clouds 16 1013 80 10000 1.79 128 15:20 06.01.2022
4471 Clouds 17 1012 74 10000 1.79 194 14:19 06.01.2022
4472 Clouds 18 1013 69 10000 2.68 209 12:59 06.01.2022
4473 Clouds 18 1013 67 10000 1.34 163 11:58 06.01.2022
4474 Clouds 17 1013 69 10000 1.34 175 11:29 06.01.2022
4475 Clouds 16 1015 75 10000 0.45 355 09:33 06.01.2022
4476 Clouds 10 1014 89 10000 0.45 82 05:55 06.01.2022
4477 Clouds 12 1014 86 10000 1.63 237 23:56 05.01.2022
4478 Clouds 12 1014 84 10000 0.45 144 23:21 05.01.2022
4479 Clouds 13 1014 83 10000 0.89 144 22:41 05.01.2022
4480 Clear 13 1014 82 10000 0.89 144 21:59 05.01.2022
4481 Clear 13 1014 82 10000 0.89 106 21:22 05.01.2022
4482 Clear 13 1014 80 10000 2.24 144 20:30 05.01.2022
4483 Clear 14 1013 76 10000 1.79 138 19:28 05.01.2022
4484 Clear 14 1013 74 10000 0.89 238 17:56 05.01.2022
4485 Clear 15 1012 71 10000 0.45 172 16:56 05.01.2022
4486 Clear 16 1012 69 10000 0.45 172 16:18 05.01.2022
4487 Clear 17 1012 65 10000 0.45 162 14:54 05.01.2022
4488 Clear 18 1012 62 10000 0.45 221 13:33 05.01.2022
4489 Clear 17 1013 62 10000 1.34 204 11:59 05.01.2022
4490 Clear 13 1015 80 10000 2.24 168 08:29 05.01.2022
4491 Clear 11 1014 85 10000 0.45 341 06:37 05.01.2022
4492 Clear 11 1014 85 10000 0.45 341 06:37 05.01.2022
4493 Clear 12 1014 80 10000 0.45 208 01:24 05.01.2022
4494 Clear 13 1014 79 10000 0.45 196 23:42 04.01.2022
4495 Clear 13 1015 79 10000 0.45 204 23:19 04.01.2022
4496 Clear 13 1015 77 10000 0.45 215 21:36 04.01.2022
4497 Clear 13 1015 78 10000 0.45 223 20:41 04.01.2022
4498 Clear 14 1015 73 10000 0.45 242 18:35 04.01.2022
4499 Clear 14 1015 70 10000 0.45 213 17:30 04.01.2022
4500 Clear 15 1015 66 10000 0.45 238 16:33 04.01.2022
4501 Clear 17 1015 60 10000 0.89 183 15:20 04.01.2022
4502 Clear 17 1015 56 10000 0.89 234 14:37 04.01.2022
4503 Clear 17 1015 56 10000 0.45 215 13:55 04.01.2022
4504 Clear 17 1016 57 10000 0.89 174 12:20 04.01.2022
4505 Clear 16 1017 60 10000 0.45 277 10:23 04.01.2022
4506 Clear 14 1017 69 10000 1.79 237 08:57 04.01.2022
4507 Clear 10 1016 82 10000 0.45 60 06:28 04.01.2022
4508 Clear 12 1015 80 10000 0.89 265 00:43 04.01.2022
4509 Clouds 13 1015 82 10000 0.45 140 23:55 03.01.2022
4510 Clear 13 1015 80 10000 0.45 205 22:22 03.01.2022
4511 Clear 14 1015 79 10000 0.45 206 21:39 03.01.2022
4512 Clear 14 1015 79 10000 1.34 187 20:41 03.01.2022
4513 Clear 15 1016 77 10000 1.34 230 18:55 03.01.2022
4514 Clear 14 1016 74 10000 1.34 266 18:31 03.01.2022
4515 Clear 15 1016 73 10000 0.45 242 17:21 03.01.2022
4516 Clear 15 1016 71 10000 0.89 182 16:53 03.01.2022
4517 Clear 17 1017 63 10000 0.45 241 14:32 03.01.2022
4518 Clouds 17 1018 65 10000 1.34 200 12:53 03.01.2022
4519 Clouds 17 1018 68 10000 0.89 234 11:50 03.01.2022
4520 Clear 16 1019 72 10000 0.45 212 10:52 03.01.2022
4521 Clear 14 1021 76 10000 1.34 94 09:29 03.01.2022
4522 Clear 11 1020 83 10000 0.45 91 07:54 03.01.2022
4523 Clouds 10 1021 83 10000 0.45 26 04:23 03.01.2022
4524 Clouds 11 1023 76 10000 0.45 61 23:32 02.01.2022
4525 Clouds 11 1023 75 10000 0.45 60 22:56 02.01.2022
4526 Clouds 11 1023 75 10000 0.45 5 22:20 02.01.2022
4527 Clouds 13 1024 71 10000 0.89 334 20:52 02.01.2022
4528 Clouds 13 1024 70 10000 0.45 344 20:30 02.01.2022
4529 Clouds 13 1024 69 10000 0.45 13 19:32 02.01.2022
4530 Clouds 14 1024 69 10000 0.45 78 18:56 02.01.2022
4531 Clouds 14 1024 68 10000 0.45 25 18:30 02.01.2022
4532 Clouds 14 1024 67 10000 0.89 59 17:42 02.01.2022
4533 Clouds 15 1024 67 10000 0.45 109 17:21 02.01.2022
4534 Clouds 16 1023 61 10000 0.89 21 16:30 02.01.2022
4535 Clouds 17 1023 58 10000 1.79 19 15:39 02.01.2022
4536 Clouds 18 1023 52 10000 1.79 39 13:57 02.01.2022
4537 Clouds 18 1024 53 10000 2.24 22 12:33 02.01.2022
4538 Clouds 18 1024 54 10000 2.24 12 11:55 02.01.2022
4539 Clouds 17 1024 55 10000 1.79 15 10:55 02.01.2022
4540 Clouds 17 1024 58 10000 0.89 35 10:18 02.01.2022
4541 Clouds 13 1023 70 10000 0.45 57 07:45 02.01.2022
4542 Clear 13 1021 70 10000 0.45 79 02:57 02.01.2022
4543 Clear 13 1020 71 10000 0.45 67 23:54 01.01.2022
4544 Clear 13 1020 71 10000 0.45 94 23:35 01.01.2022
4545 Clear 13 1020 72 10000 0.45 22 22:39 01.01.2022
4546 Clear 13 1020 71 10000 0.89 45 22:18 01.01.2022
4547 Clear 13 1020 71 10000 0.89 45 22:18 01.01.2022
4548 Clear 13 1020 72 10000 0.89 66 21:42 01.01.2022
4549 Clear 13 1019 72 10000 0.45 78 20:50 01.01.2022
4550 Clear 13 1018 72 10000 0.89 126 19:47 01.01.2022
4551 Clear 13 1018 75 10000 0.45 139 18:53 01.01.2022
4552 Clouds 14 1017 72 10000 0.89 270 17:45 01.01.2022
4553 Clouds 15 1016 65 10000 0.45 96 16:35 01.01.2022
4554 Clouds 16 1017 60 10000 0.89 96 15:50 01.01.2022
4555 Clouds 17 1017 56 10000 0.45 196 14:40 01.01.2022
4556 Clouds 17 1017 55 10000 0.45 225 13:42 01.01.2022
4557 Clouds 17 1017 55 10000 0.45 225 13:42 01.01.2022
4558 Clouds 17 1018 55 10000 1.34 182 12:26 01.01.2022
4559 Clouds 16 1018 56 10000 0.45 85 11:46 01.01.2022
4560 Clouds 16 1020 59 10000 0.45 220 11:18 01.01.2022
4561 Clouds 15 1020 62 10000 0.45 67 09:48 01.01.2022
4562 Clear 13 1020 65 10000 0.45 105 08:49 01.01.2022
4563 Clear 12 1020 69 10000 0.45 67 08:22 01.01.2022
4564 Clear 11 1018 73 10000 1.79 104 07:40 01.01.2022
4565 Clear 9 1019 79 10000 1.34 43 06:45 01.01.2022
4566 Clouds 9 1018 77 10000 0.45 247 05:25 01.01.2022
4567 Clear 10 1019 75 10000 0.89 172 04:37 01.01.2022
4568 Clouds 11 1020 71 10000 0.89 292 00:37 01.01.2022
4569 Clouds 12 1020 69 10000 0.45 138 22:40 31.12.2021
4570 Clouds 12 1020 68 10000 0.45 40 21:51 31.12.2021
4571 Clouds 12 1022 69 10000 3.09 320 20:28 31.12.2021
4572 Clouds 12 1021 67 10000 0.45 5 19:28 31.12.2021
4573 Clouds 13 1019 58 10000 2.06 300 18:30 31.12.2021
4574 Clouds 13 1020 71 10000 0.45 136 17:37 31.12.2021
4575 Clouds 13 1020 71 10000 0.45 136 17:18 31.12.2021
4576 Clouds 14 1019 66 10000 1.34 332 16:19 31.12.2021
4577 Clouds 14 1018 65 10000 1.34 69 15:53 31.12.2021
4578 Clouds 14 1018 65 10000 2.24 71 15:28 31.12.2021
4579 Clouds 14 1019 66 10000 1.79 49 14:43 31.12.2021
4580 Clouds 14 1018 64 10000 2.68 94 14:18 31.12.2021
4581 Clouds 14 1018 65 10000 4.47 76 13:36 31.12.2021
4582 Clouds 15 1019 68 10000 4.92 46 12:44 31.12.2021
4583 Clouds 14 1019 67 10000 4.92 18 11:43 31.12.2021
4584 Clouds 14 1019 70 10000 4.47 32 11:20 31.12.2021
4585 Clouds 13 1020 72 10000 6.26 88 10:32 31.12.2021
4586 Clouds 13 1020 75 10000 2.68 355 09:35 31.12.2021
4587 Clouds 12 1019 76 10000 3.58 5 08:56 31.12.2021
4588 Clouds 12 1019 77 10000 2.24 355 08:25 31.12.2021
4589 Clouds 12 1017 78 10000 1.79 328 07:30 31.12.2021
4590 Clouds 12 1012 86 8000 2.68 28 23:23 30.12.2021
4591 Clouds 12 1012 86 9000 2.68 23 22:33 30.12.2021
4592 Clouds 12 1012 86 10000 1.79 44 21:54 30.12.2021
4593 Clouds 12 1012 86 10000 3.13 5 21:36 30.12.2021
4594 Clouds 12 1011 85 10000 1.34 327 20:45 30.12.2021
4595 Clouds 12 1012 85 10000 3.13 25 20:24 30.12.2021
4596 Clouds 12 1011 81 10000 3.58 29 19:44 30.12.2021
4597 Clouds 12 1010 73 10000 2.68 334 18:29 30.12.2021
4598 Clouds 12 1009 71 10000 4.02 360 17:52 30.12.2021
4599 Clouds 12 1008 71 10000 3.58 13 16:19 30.12.2021
4600 Clouds 12 1008 72 10000 1.34 310 15:42 30.12.2021
4601 Clouds 13 1008 72 10000 3.13 355 14:38 30.12.2021
4602 Clouds 13 1008 70 10000 4.02 324 13:49 30.12.2021
4603 Clouds 13 1008 67 10000 2.68 322 12:40 30.12.2021
4604 Clouds 13 1008 69 10000 3.13 326 10:58 30.12.2021
4605 Clouds 13 1008 66 10000 3.58 355 09:58 30.12.2021
4606 Clouds 13 1007 66 10000 3.13 360 08:58 30.12.2021
4607 Clouds 13 1005 68 10000 1.79 38 06:52 30.12.2021
4608 Clouds 11 1005 84 10000 0.45 138 03:43 30.12.2021
4609 Clouds 11 1005 84 10000 0.45 30 03:23 30.12.2021
4610 Clouds 11 1005 88 10000 0.89 38 23:50 29.12.2021
4611 Clouds 11 1005 87 10000 1.79 43 23:23 29.12.2021
4612 Clouds 11 1005 87 10000 0.45 292 22:22 29.12.2021
4613 Clouds 12 1005 87 10000 0.45 247 21:43 29.12.2021
4614 Clouds 12 1005 87 10000 0.45 173 20:39 29.12.2021
4615 Clouds 13 1005 85 10000 0.89 279 19:50 29.12.2021
4616 Clouds 13 1005 83 10000 0.45 213 18:54 29.12.2021
4617 Clouds 14 1005 81 10000 1.34 242 17:56 29.12.2021
4618 Clouds 14 1005 81 10000 0.89 236 17:28 29.12.2021
4619 Clouds 14 1005 80 10000 1.34 237 16:41 29.12.2021
4620 Clouds 15 1005 79 10000 1.79 280 16:19 29.12.2021
4621 Clouds 16 1005 78 10000 0.89 240 14:24 29.12.2021
4622 Clouds 16 1006 80 10000 0.45 195 12:42 29.12.2021
4623 Clouds 15 1006 85 10000 0.89 250 11:49 29.12.2021
4624 Clouds 14 1007 88 10000 0.89 337 09:59 29.12.2021
4625 Clouds 12 1006 92 10000 1.79 65 07:52 29.12.2021
4626 Clouds 12 1006 94 10000 0.89 48 06:43 29.12.2021
4627 Clouds 12 1006 93 10000 0.89 77 06:23 29.12.2021
4628 Clouds 12 1007 94 10000 0.89 315 05:42 29.12.2021
4629 Clouds 13 1007 93 10000 0.45 353 03:20 29.12.2021
4630 Clouds 14 1007 92 10000 0.89 330 00:24 29.12.2021
4631 Clouds 14 1007 92 10000 0.45 155 23:47 28.12.2021
4632 Clouds 14 1007 92 6000 1.34 153 22:45 28.12.2021
4633 Clouds 14 1007 92 6000 0.89 168 22:24 28.12.2021
4634 Clouds 14 1007 92 7000 0.89 182 21:53 28.12.2021
4635 Clouds 14 1007 90 8000 0.89 136 20:47 28.12.2021
4636 Clouds 14 1008 89 10000 1.79 156 19:39 28.12.2021
4637 Clouds 14 1008 89 9000 0.45 194 18:44 28.12.2021
4638 Clouds 14 1008 88 10000 0.45 204 18:23 28.12.2021
4639 Clouds 15 1008 85 10000 2.24 180 16:35 28.12.2021
4640 Clouds 15 1008 84 10000 2.24 171 15:52 28.12.2021
4641 Clouds 15 1008 83 10000 2.24 211 15:25 28.12.2021
4642 Clouds 15 1008 83 10000 1.79 102 14:52 28.12.2021
4643 Clouds 15 1008 84 10000 2.24 176 14:21 28.12.2021
4644 Clouds 16 1008 84 10000 2.24 215 13:54 28.12.2021
4645 Clouds 16 1008 84 10000 1.79 167 13:31 28.12.2021
4646 Clouds 16 1007 81 10000 2.24 186 12:55 28.12.2021
4647 Clouds 16 1009 85 10000 1.79 142 11:51 28.12.2021
4648 Clouds 16 1011 83 10000 2.24 183 09:30 28.12.2021
4649 Clouds 15 1010 88 10000 1.79 181 07:31 28.12.2021
4650 Clouds 15 1012 88 10000 0.45 198 03:28 28.12.2021
4651 Clouds 15 1014 81 10000 1.79 157 23:26 27.12.2021
4652 Clouds 15 1015 84 10000 1.34 173 22:20 27.12.2021
4653 Clouds 15 1015 85 10000 1.79 144 21:29 27.12.2021
4654 Clouds 15 1015 84 10000 0.89 205 20:27 27.12.2021
4655 Clouds 15 1015 84 10000 0.45 209 19:47 27.12.2021
4656 Clouds 15 1014 81 10000 0.45 263 18:56 27.12.2021
4657 Clouds 16 1015 78 10000 0.45 229 17:50 27.12.2021
4658 Clouds 16 1015 77 10000 1.34 200 17:27 27.12.2021
4659 Clouds 16 1014 70 10000 0.89 166 15:53 27.12.2021
4660 Clouds 17 1015 71 10000 1.34 183 14:35 27.12.2021
4661 Clouds 17 1014 70 10000 1.34 209 13:59 27.12.2021
4662 Clouds 18 1015 69 10000 2.24 226 12:49 27.12.2021
4663 Clouds 17 1017 74 10000 1.34 140 10:37 27.12.2021
4664 Clouds 17 1017 77 10000 1.79 187 10:18 27.12.2021
4665 Clouds 16 1018 83 10000 0.89 193 08:42 27.12.2021
4666 Clouds 16 1018 82 10000 0.89 206 08:42 27.12.2021
4667 Clouds 14 1017 88 10000 0.45 180 07:34 27.12.2021
4668 Clouds 14 1017 88 10000 0.45 207 02:29 27.12.2021
4669 Clouds 14 1017 87 10000 0.89 196 00:57 27.12.2021
4670 Clouds 14 1017 86 10000 0.45 205 23:43 26.12.2021
4671 Clouds 14 1018 86 10000 1.79 149 23:18 26.12.2021
4672 Clouds 14 1017 86 10000 0.45 187 21:33 26.12.2021
4673 Clouds 14 1017 82 10000 0.45 176 19:55 26.12.2021
4674 Clouds 15 1016 80 10000 0.89 182 18:39 26.12.2021
4675 Clouds 15 1016 80 10000 0.89 207 18:19 26.12.2021
4676 Clouds 17 1016 74 10000 1.34 192 15:35 26.12.2021
4677 Clouds 18 1016 61 10000 1.34 197 13:43 26.12.2021
4678 Clouds 18 1016 62 10000 3.13 187 13:21 26.12.2021
4679 Clouds 18 1016 60 10000 3.13 167 12:35 26.12.2021
4680 Clouds 17 1018 63 10000 3.13 192 11:18 26.12.2021
4681 Clouds 15 1020 72 10000 0.45 181 09:31 26.12.2021
4682 Clouds 13 1019 77 10000 1.34 146 08:45 26.12.2021
4683 Clouds 12 1019 81 10000 1.34 148 08:26 26.12.2021
4684 Clouds 10 1018 86 10000 1.34 39 01:50 26.12.2021
4685 Clouds 11 1017 86 10000 0.89 60 00:39 26.12.2021
4686 Clouds 11 1018 83 10000 0.89 141 23:37 25.12.2021
4687 Clouds 11 1018 81 10000 0.45 226 22:38 25.12.2021
4688 Clouds 11 1018 79 10000 0.45 174 22:20 25.12.2021
4689 Clouds 13 1018 72 10000 0.45 100 20:26 25.12.2021
4690 Clouds 13 1019 70 10000 0.89 22 19:19 25.12.2021
4691 Clouds 12 1019 72 10000 0.45 355 18:39 25.12.2021
4692 Clouds 13 1016 65 10000 1.34 221 16:50 25.12.2021
4693 Clouds 15 1016 62 10000 0.45 224 15:38 25.12.2021
4694 Clouds 15 1018 62 10000 0.45 205 14:23 25.12.2021
4695 Clouds 16 1018 55 10000 1.34 193 12:40 25.12.2021
4696 Clouds 15 1018 57 10000 0.45 201 11:21 25.12.2021
4697 Clouds 14 1020 68 10000 0.45 202 09:49 25.12.2021
4698 Clouds 10 1019 83 10000 0.45 54 07:39 25.12.2021
4699 Clouds 9 1021 82 10000 0.89 92 01:45 25.12.2021
4700 Clouds 10 1021 81 10000 0.89 354 00:23 25.12.2021
4701 Clouds 10 1020 83 10000 0.45 43 22:28 24.12.2021
4702 Clouds 11 1019 75 10000 2.24 250 19:36 24.12.2021
4703 Clouds 11 1019 71 10000 1.79 197 19:18 24.12.2021
4704 Clouds 11 1018 62 10000 2.24 213 16:50 24.12.2021
4705 Clouds 12 1017 62 10000 3.13 260 15:53 24.12.2021
4706 Clouds 13 1017 61 10000 2.68 279 15:34 24.12.2021
4707 Clear 13 1017 59 10000 2.24 168 14:40 24.12.2021
4708 Clear 13 1019 59 10000 1.79 219 14:19 24.12.2021
4709 Clouds 13 1019 56 10000 2.68 287 13:34 24.12.2021
4710 Clouds 13 1020 57 10000 0.89 226 12:47 24.12.2021
4711 Clouds 12 1021 60 10000 0.45 188 11:52 24.12.2021
4712 Clouds 12 1022 61 10000 0.45 192 11:25 24.12.2021
4713 Clouds 12 1021 63 10000 1.34 182 10:46 24.12.2021
4714 Clouds 10 1022 72 10000 0.45 287 09:33 24.12.2021
4715 Clouds 8 1022 79 10000 0.45 190 08:23 24.12.2021
4716 Clouds 6 1023 83 10000 0.89 35 07:47 24.12.2021
4717 Clouds 6 1023 78 10000 0.89 24 02:33 24.12.2021
4718 Clouds 6 1024 76 10000 0.89 360 23:56 23.12.2021
4719 Clouds 6 1025 75 10000 0.89 38 22:58 23.12.2021
4720 Clouds 6 1025 75 10000 1.79 35 22:37 23.12.2021
4721 Clouds 6 1025 74 10000 0.45 325 22:18 23.12.2021
4722 Clouds 6 1025 73 10000 0.45 329 20:59 23.12.2021
4723 Clouds 7 1025 73 10000 1.34 36 20:18 23.12.2021
4724 Clouds 7 1025 72 10000 1.34 36 20:18 23.12.2021
4725 Clouds 7 1025 71 10000 0.45 19 18:36 23.12.2021
4726 Clouds 7 1025 69 10000 0.45 10 17:57 23.12.2021
4727 Clouds 8 1025 66 10000 0.89 86 16:44 23.12.2021
4728 Clouds 9 1025 64 10000 1.34 98 16:24 23.12.2021
4729 Clouds 10 1024 52 10000 0.45 22 15:31 23.12.2021
4730 Clouds 10 1024 50 10000 0.89 13 14:52 23.12.2021
4731 Clouds 10 1024 48 10000 0.89 103 14:31 23.12.2021
4732 Clouds 11 1025 44 10000 0.89 5 12:57 23.12.2021
4733 Clouds 10 1025 48 10000 2.24 32 10:53 23.12.2021
4734 Clouds 9 1026 52 10000 2.24 355 09:47 23.12.2021
4735 Clouds 8 1026 57 10000 1.79 5 08:59 23.12.2021
4736 Clouds 7 1025 60 10000 2.24 17 06:59 23.12.2021
4737 Clouds 7 1025 59 10000 0.89 44 04:35 23.12.2021
4738 Clouds 8 1025 66 10000 0.89 5 23:26 22.12.2021
4739 Clouds 8 1025 67 10000 0.45 51 22:48 22.12.2021
4740 Clouds 8 1025 67 10000 1.34 355 21:57 22.12.2021
4741 Clouds 8 1025 67 10000 1.79 61 21:29 22.12.2021
4742 Clouds 8 1025 68 10000 0.45 11 20:50 22.12.2021
4743 Clouds 9 1025 68 10000 1.34 355 20:30 22.12.2021
4744 Clouds 9 1025 68 10000 0.89 10 19:32 22.12.2021
4745 Clouds 9 1024 67 10000 0.89 109 17:55 22.12.2021
4746 Clouds 9 1024 67 10000 0.45 79 17:34 22.12.2021
4747 Clouds 10 1024 60 10000 0.89 88 15:42 22.12.2021
4748 Clouds 11 1023 56 10000 0.89 145 13:37 22.12.2021
4749 Clouds 11 1023 55 10000 0.45 238 12:41 22.12.2021
4750 Clouds 10 1025 55 10000 0.89 325 10:46 22.12.2021
4751 Clouds 9 1025 58 10000 1.34 315 09:40 22.12.2021
4752 Clouds 7 1025 64 10000 1.79 49 07:31 22.12.2021
4753 Clouds 8 1025 63 10000 2.24 57 05:50 22.12.2021
4754 Clouds 7 1025 64 10000 0.45 5 05:27 22.12.2021
4755 Clouds 8 1025 63 10000 1.34 54 04:52 22.12.2021
4756 Clouds 8 1024 64 10000 1.34 37 04:29 22.12.2021
4757 Clouds 8 1024 64 10000 1.34 36 03:33 22.12.2021
4758 Clouds 8 1025 61 10000 1.34 360 00:50 22.12.2021
4759 Clouds 8 1025 60 10000 0.89 5 23:32 21.12.2021
4760 Clouds 8 1024 60 10000 1.79 42 22:29 21.12.2021
4761 Clouds 8 1024 59 10000 1.79 26 21:44 21.12.2021
4762 Clouds 8 1024 60 10000 2.24 10 21:23 21.12.2021
4763 Clouds 8 1024 59 10000 1.34 13 20:22 21.12.2021
4764 Clouds 8 1024 59 10000 0.89 96 19:43 21.12.2021
4765 Clouds 8 1024 59 10000 0.89 12 19:19 21.12.2021
4766 Clouds 8 1023 59 10000 2.68 22 18:22 21.12.2021
4767 Clouds 8 1023 60 10000 1.79 34 17:47 21.12.2021
4768 Clouds 8 1022 59 10000 1.34 346 16:35 21.12.2021
4769 Clouds 9 1022 57 10000 2.24 12 15:25 21.12.2021
4770 Clouds 10 1021 55 10000 1.79 79 13:51 21.12.2021
4771 Clouds 10 1021 54 10000 2.24 21 13:31 21.12.2021
4772 Clouds 10 1021 53 10000 1.79 62 11:57 21.12.2021
4773 Clouds 10 1021 57 10000 0.89 20 10:25 21.12.2021
4774 Clouds 10 1021 59 10000 0.89 5 09:33 21.12.2021
4775 Clouds 9 1020 66 10000 0.45 87 08:28 21.12.2021
4776 Clouds 8 1020 72 10000 0.89 11 07:32 21.12.2021
4777 Clouds 8 1020 73 10000 0.89 30 06:54 21.12.2021
4778 Clouds 8 1018 80 10000 1.34 5 03:20 21.12.2021
4779 Clouds 9 1017 65 10000 0.45 360 00:46 21.12.2021
4780 Clouds 8 1017 66 10000 1.34 5 23:34 20.12.2021
4781 Clouds 9 1017 63 10000 0.45 72 22:34 20.12.2021
4782 Clouds 10 1017 60 10000 0.45 86 21:48 20.12.2021
4783 Clear 10 1017 60 10000 0.89 113 21:24 20.12.2021
4784 Clear 9 1017 61 10000 0.45 73 20:48 20.12.2021
4785 Clear 9 1016 64 10000 0.89 360 19:55 20.12.2021
4786 Clear 9 1016 64 10000 0.89 56 19:32 20.12.2021
4787 Clouds 9 1016 64 10000 0.45 53 18:55 20.12.2021
4788 Clouds 9 1015 63 10000 0.45 57 18:25 20.12.2021
4789 Clouds 10 1015 61 10000 0.45 51 17:46 20.12.2021
4790 Clouds 10 1015 59 10000 0.89 67 16:43 20.12.2021
4791 Clouds 12 1014 55 10000 1.34 103 15:52 20.12.2021
4792 Clouds 13 1013 48 10000 1.34 22 14:58 20.12.2021
4793 Clouds 14 1012 40 10000 0.89 5 13:24 20.12.2021
4794 Clear 13 1013 51 10000 0.45 246 11:27 20.12.2021
4795 Clear 10 1013 57 10000 0.45 65 09:56 20.12.2021
4796 Clear 10 1013 58 10000 0.45 65 09:32 20.12.2021
4797 Clear 8 1013 60 10000 0.45 30 08:43 20.12.2021
4798 Clear 6 1013 67 10000 0.89 19 07:57 20.12.2021
4799 Clear 4 1014 73 10000 1.79 50 07:31 20.12.2021
4800 Clear 3 1014 71 10000 1.34 47 05:25 20.12.2021
4801 Clear 3 1015 67 10000 0.89 44 00:19 20.12.2021
4802 Clear 3 1016 68 10000 0.89 37 22:55 19.12.2021
4803 Clear 4 1016 65 10000 0.89 349 21:58 19.12.2021
4804 Clear 4 1016 63 10000 0.45 355 21:32 19.12.2021
4805 Clear 4 1016 62 10000 0.45 4 20:35 19.12.2021
4806 Clear 5 1016 60 10000 0.45 294 19:53 19.12.2021
4807 Clear 5 1016 59 10000 0.89 348 19:32 19.12.2021
4808 Clouds 6 1015 57 10000 1.79 281 18:30 19.12.2021
4809 Clouds 6 1015 58 10000 1.34 295 17:53 19.12.2021
4810 Clouds 6 1015 57 10000 2.24 342 17:27 19.12.2021
4811 Clouds 7 1015 55 10000 1.79 342 16:27 19.12.2021
4812 Clouds 7 1014 53 10000 2.68 317 15:50 19.12.2021
4813 Clouds 8 1014 52 10000 3.58 312 15:23 19.12.2021
4814 Clouds 8 1014 52 10000 2.24 30 14:44 19.12.2021
4815 Clouds 8 1015 57 10000 4.02 355 13:26 19.12.2021
4816 Clouds 8 1015 58 10000 4.02 18 12:50 19.12.2021
4817 Clouds 8 1015 60 10000 5.36 32 12:28 19.12.2021
4818 Clouds 7 1016 64 10000 4.47 302 11:30 19.12.2021
4819 Drizzle 7 1016 69 10000 4.47 309 10:30 19.12.2021
4820 Drizzle 6 1016 72 10000 5.36 314 09:53 19.12.2021
4821 Clouds 5 1017 82 10000 2.68 355 08:45 19.12.2021
4822 Clouds 5 1017 74 10000 2.68 355 05:37 19.12.2021
4823 Clear 5 1017 80 10000 2.24 360 01:39 19.12.2021
4824 Clouds 6 1017 76 10000 7.15 16 00:53 19.12.2021
4825 Clouds 6 1017 70 10000 4.47 5 22:50 18.12.2021
4826 Clouds 6 1017 70 9000 4.92 11 22:24 18.12.2021
4827 Clouds 6 1017 73 10000 4.47 17 21:41 18.12.2021
4828 Clouds 6 1017 74 10000 4.02 349 21:22 18.12.2021
4829 Clouds 6 1017 68 10000 5.36 340 20:25 18.12.2021
4830 Clouds 7 1016 62 8000 4.47 360 19:27 18.12.2021
4831 Clouds 8 1016 57 10000 3.58 355 18:23 18.12.2021
4832 Clouds 8 1015 57 10000 4.47 322 17:49 18.12.2021
4833 Clouds 8 1014 60 10000 5.81 23 16:27 18.12.2021
4834 Clouds 8 1014 57 10000 4.92 360 15:48 18.12.2021
4835 Clouds 8 1014 63 10000 5.81 355 14:53 18.12.2021
4836 Clouds 8 1014 64 10000 6.26 349 13:42 18.12.2021
4837 Clouds 7 1014 81 10000 4.47 24 11:48 18.12.2021
4838 Clouds 6 1013 82 9000 6.26 54 09:53 18.12.2021
4839 Clouds 6 1014 83 8000 5.81 31 09:30 18.12.2021
4840 Clouds 6 1013 82 8000 4.92 360 08:36 18.12.2021
4841 Clouds 6 1013 82 8000 4.92 360 08:36 18.12.2021
4842 Clouds 7 1014 74 10000 1.34 324 06:27 18.12.2021
4843 Clouds 10 1015 55 10000 2.24 5 00:58 18.12.2021
4844 Clouds 10 1015 54 10000 1.79 302 23:47 17.12.2021
4845 Clouds 10 1016 56 10000 0.89 285 22:37 17.12.2021
4846 Clouds 9 1017 57 10000 1.34 282 21:29 17.12.2021
4847 Clouds 9 1018 59 10000 0.45 71 20:43 17.12.2021
4848 Clear 9 1018 59 10000 0.45 334 19:51 17.12.2021
4849 Clouds 9 1018 59 10000 0.89 93 18:39 17.12.2021
4850 Clouds 9 1018 58 10000 0.45 69 17:47 17.12.2021
4851 Clouds 10 1018 54 10000 0.45 309 16:51 17.12.2021
4852 Clouds 10 1019 52 10000 0.89 327 16:27 17.12.2021
4853 Clouds 11 1018 49 10000 1.79 22 15:38 17.12.2021
4854 Clouds 12 1018 47 10000 1.79 290 14:42 17.12.2021
4855 Clouds 12 1018 48 10000 2.68 21 13:45 17.12.2021
4856 Clouds 12 1019 49 10000 2.24 313 12:36 17.12.2021
4857 Clouds 11 1021 55 10000 1.34 49 10:42 17.12.2021
4858 Clouds 10 1022 59 10000 2.24 281 09:47 17.12.2021
4859 Clouds 9 1022 69 10000 0.89 360 08:32 17.12.2021
4860 Clouds 8 1022 73 10000 0.89 24 07:30 17.12.2021
4861 Clouds 7 1022 74 10000 2.24 7 04:41 17.12.2021
4862 Clear 8 1023 71 10000 0.89 58 00:28 17.12.2021
4863 Clear 7 1024 71 10000 0.45 67 22:25 16.12.2021
4864 Clear 7 1024 70 10000 0.45 317 21:55 16.12.2021
4865 Clear 7 1024 70 10000 0.45 66 21:36 16.12.2021
4866 Clouds 8 1023 68 10000 0.45 90 20:40 16.12.2021
4867 Clouds 8 1023 68 10000 0.45 63 19:52 16.12.2021
4868 Clouds 8 1023 67 10000 0.89 59 19:27 16.12.2021
4869 Clouds 8 1023 65 10000 0.89 69 18:31 16.12.2021
4870 Clouds 9 1023 64 10000 0.89 5 17:36 16.12.2021
4871 Clouds 10 1023 61 10000 0.89 112 16:24 16.12.2021
4872 Clouds 11 1023 57 10000 2.68 292 15:26 16.12.2021
4873 Clouds 11 1022 56 10000 1.34 74 13:45 16.12.2021
4874 Clouds 11 1023 63 10000 0.89 83 11:56 16.12.2021
4875 Clouds 11 1024 64 10000 0.89 61 11:18 16.12.2021
4876 Clouds 10 1024 66 10000 0.89 69 10:39 16.12.2021
4877 Clouds 10 1024 69 10000 0.89 67 09:42 16.12.2021
4878 Clouds 8 1024 72 10000 1.34 272 06:23 16.12.2021
4879 Clouds 8 1023 72 10000 0.45 74 03:54 16.12.2021
4880 Clouds 9 1023 76 10000 1.34 5 23:47 15.12.2021
4881 Clouds 9 1023 78 10000 1.34 28 22:49 15.12.2021
4882 Clouds 9 1023 78 10000 1.34 355 22:21 15.12.2021
4883 Clouds 9 1023 79 10000 1.34 5 21:31 15.12.2021
4884 Clouds 9 1022 76 10000 1.79 17 20:41 15.12.2021
4885 Clouds 9 1022 75 10000 1.34 12 19:53 15.12.2021
4886 Clouds 9 1022 75 10000 0.45 5 18:50 15.12.2021
4887 Clouds 9 1022 75 10000 0.89 93 18:19 15.12.2021
4888 Clouds 9 1022 77 10000 0.89 5 17:45 15.12.2021
4889 Clouds 9 1022 77 10000 0.45 51 17:21 15.12.2021
4890 Drizzle 10 1021 74 10000 1.34 320 15:48 15.12.2021
4891 Clouds 10 1021 74 10000 1.34 355 15:29 15.12.2021
4892 Clouds 10 1021 72 10000 2.68 344 14:44 15.12.2021
4893 Clouds 10 1020 73 10000 4.02 36 13:34 15.12.2021
4894 Clouds 10 1020 71 10000 5.36 5 11:41 15.12.2021
4895 Clouds 9 1020 75 10000 4.47 355 10:20 15.12.2021
4896 Clouds 9 1018 82 10000 4.92 13 08:25 15.12.2021
4897 Clouds 9 1018 85 8000 1.34 355 05:51 15.12.2021
4898 Clouds 9 1015 80 10000 4.47 315 00:32 15.12.2021
4899 Clouds 9 1015 80 10000 3.13 5 23:27 14.12.2021
4900 Clouds 9 1015 81 10000 4.02 40 22:44 14.12.2021
4901 Clouds 9 1015 83 10000 2.68 299 21:40 14.12.2021
4902 Clouds 8 1015 84 10000 2.24 283 20:21 14.12.2021
4903 Clouds 8 1015 85 10000 1.34 317 19:34 14.12.2021
4904 Clouds 8 1015 86 8000 2.24 304 18:38 14.12.2021
4905 Rain 8 1014 86 8000 1.79 303 17:55 14.12.2021
4906 Clouds 8 1014 86 7000 0.89 332 16:44 14.12.2021
4907 Clouds 8 1014 87 7000 0.45 323 16:21 14.12.2021
4908 Clouds 9 1013 70 9000 3.58 355 13:59 14.12.2021
4909 Clouds 9 1013 71 10000 3.58 343 12:50 14.12.2021
4910 Clouds 8 1015 70 10000 3.13 23 11:44 14.12.2021
4911 Clouds 9 1015 69 10000 4.47 336 11:20 14.12.2021
4912 Clouds 9 1015 69 10000 2.68 278 09:55 14.12.2021
4913 Clouds 9 1014 69 10000 2.24 16 08:58 14.12.2021
4914 Clouds 8 1015 74 10000 1.34 337 08:21 14.12.2021
4915 Clouds 8 1015 78 10000 0.45 319 07:39 14.12.2021
4916 Clouds 8 1015 84 10000 1.34 294 23:59 13.12.2021
4917 Clouds 8 1015 82 10000 3.13 321 22:26 13.12.2021
4918 Clouds 9 1014 80 10000 1.34 5 21:44 13.12.2021
4919 Clouds 9 1014 75 10000 2.24 5 20:58 13.12.2021
4920 Clouds 10 1014 71 9000 1.79 16 20:26 13.12.2021
4921 Drizzle 10 1014 69 9000 1.34 333 19:49 13.12.2021
4922 Clouds 11 1014 71 10000 0.45 5 17:39 13.12.2021
4923 Clouds 11 1014 72 10000 0.45 70 17:18 13.12.2021
4924 Clouds 12 1013 62 10000 1.34 5 15:47 13.12.2021
4925 Clouds 13 1013 51 10000 0.89 269 14:55 13.12.2021
4926 Clouds 13 1014 52 10000 1.79 243 13:37 13.12.2021
4927 Clouds 14 1014 52 10000 0.89 337 12:41 13.12.2021
4928 Clouds 14 1014 52 10000 1.79 240 11:54 13.12.2021
4929 Clouds 14 1014 52 10000 2.68 243 11:34 13.12.2021
4930 Clouds 14 1014 53 10000 3.13 248 10:41 13.12.2021
4931 Clouds 13 1015 60 10000 2.24 209 08:52 13.12.2021
4932 Clouds 11 1014 70 10000 2.24 234 06:56 13.12.2021
4933 Clear 11 1014 76 10000 1.79 329 05:19 13.12.2021
4934 Clouds 11 1013 81 10000 0.89 18 00:42 13.12.2021
4935 Clouds 12 1014 76 10000 0.89 90 21:59 12.12.2021
4936 Clouds 13 1013 75 10000 1.34 295 21:30 12.12.2021
4937 Clear 13 1013 70 10000 0.45 213 19:38 12.12.2021
4938 Clouds 14 1012 63 10000 0.45 235 18:28 12.12.2021
4939 Clouds 15 1011 62 10000 0.89 217 16:54 12.12.2021
4940 Clouds 16 1011 60 10000 0.89 199 16:26 12.12.2021
4941 Clouds 16 1011 57 10000 1.34 211 15:28 12.12.2021
4942 Clouds 17 1011 56 10000 1.34 198 14:54 12.12.2021
4943 Clouds 17 1011 55 10000 1.34 216 14:28 12.12.2021
4944 Clouds 17 1010 50 10000 1.34 206 12:55 12.12.2021
4945 Clouds 17 1010 52 10000 1.34 232 12:24 12.12.2021
4946 Clouds 17 1010 52 10000 1.79 242 11:43 12.12.2021
4947 Clouds 17 1010 55 10000 1.79 194 10:56 12.12.2021
4948 Clouds 17 1010 55 10000 1.34 205 10:22 12.12.2021
4949 Clouds 16 1011 64 10000 0.45 207 08:53 12.12.2021
4950 Clear 13 1011 72 10000 1.34 162 07:31 12.12.2021
4951 Clouds 13 1010 70 10000 0.45 264 05:56 12.12.2021
4952 Clouds 14 1009 68 10000 0.45 110 04:55 12.12.2021
4953 Clouds 14 1009 65 10000 0.45 232 02:56 12.12.2021
4954 Clouds 15 1007 72 10000 0.89 200 23:30 11.12.2021
4955 Clouds 15 1007 77 10000 2.24 226 22:21 11.12.2021
4956 Clouds 15 1007 86 10000 2.68 248 21:50 11.12.2021
4957 Clouds 16 1005 83 10000 4.02 170 20:22 11.12.2021
4958 Clouds 16 1005 83 9000 3.58 117 19:21 11.12.2021
4959 Clouds 16 1005 83 9000 3.58 175 18:50 11.12.2021
4960 Clouds 17 1006 78 10000 4.47 181 17:56 11.12.2021
4961 Clouds 17 1006 75 10000 3.58 165 16:59 11.12.2021
4962 Clouds 17 1006 72 10000 4.02 178 15:48 11.12.2021
4963 Clouds 16 1007 82 10000 4.02 182 14:54 11.12.2021
4964 Clouds 16 1008 81 10000 2.68 181 12:42 11.12.2021
4965 Clouds 16 1009 78 10000 4.02 206 11:24 11.12.2021
4966 Clouds 16 1010 81 10000 2.68 240 09:45 11.12.2021
4967 Clouds 16 1010 81 10000 2.68 240 09:45 11.12.2021
4968 Clouds 16 1010 81 10000 2.68 240 09:45 11.12.2021
4969 Clouds 15 1010 82 8000 4.02 209 07:32 11.12.2021
4970 Clouds 12 1013 64 10000 0.89 140 00:51 11.12.2021
4971 Clouds 12 1014 64 10000 0.45 207 23:49 10.12.2021
4972 Clouds 13 1014 62 10000 0.45 213 23:18 10.12.2021
4973 Clouds 12 1014 64 10000 1.34 186 21:52 10.12.2021
4974 Clouds 12 1014 62 10000 2.24 178 20:57 10.12.2021
4975 Clouds 12 1013 61 10000 1.79 221 19:21 10.12.2021
4976 Clouds 13 1013 58 10000 1.79 261 17:55 10.12.2021
4977 Clouds 14 1012 49 10000 2.68 213 16:55 10.12.2021
4978 Clouds 15 1012 45 10000 2.68 251 16:19 10.12.2021
4979 Clouds 15 1012 48 10000 2.24 254 15:39 10.12.2021
4980 Clouds 16 1011 49 10000 3.13 188 15:20 10.12.2021
4981 Clouds 15 1011 58 10000 3.58 300 13:51 10.12.2021
4982 Clouds 16 1011 55 10000 3.13 200 13:26 10.12.2021
4983 Clouds 15 1011 61 10000 2.68 181 12:34 10.12.2021
4984 Clouds 15 1011 71 10000 0.45 180 11:28 10.12.2021
4985 Clouds 15 1011 71 10000 0.45 180 11:28 10.12.2021
4986 Clouds 14 1011 73 10000 0.89 240 09:54 10.12.2021
4987 Clouds 14 1011 73 10000 0.45 210 08:52 10.12.2021
4988 Clouds 16 1010 69 10000 2.68 170 06:22 10.12.2021
4989 Clear 17 1011 67 10000 3.58 177 02:48 10.12.2021
4990 Clear 17 1012 75 10000 3.58 176 23:54 09.12.2021
4991 Clear 17 1012 76 10000 4.02 84 23:20 09.12.2021
4992 Clouds 17 1013 72 10000 3.13 360 22:24 09.12.2021
4993 Clear 17 1012 73 10000 3.13 184 21:50 09.12.2021
4994 Clear 17 1013 79 10000 3.13 164 20:42 09.12.2021
4995 Clouds 17 1013 78 10000 2.68 195 20:21 09.12.2021
4996 Clouds 17 1013 75 10000 3.13 167 19:21 09.12.2021
4997 Clouds 17 1013 76 10000 2.68 173 18:46 09.12.2021
4998 Clouds 17 1013 77 10000 2.24 192 17:52 09.12.2021
4999 Clouds 17 1013 78 10000 2.68 219 17:26 09.12.2021
5000 Clouds 17 1013 76 10000 2.68 184 16:54 09.12.2021
5001 Clouds 18 1012 74 10000 1.79 199 15:34 09.12.2021
5002 Clouds 18 1012 69 10000 3.13 157 14:48 09.12.2021
5003 Clouds 18 1012 71 10000 1.79 168 13:23 09.12.2021
5004 Clouds 18 1013 70 10000 1.34 215 12:40 09.12.2021
5005 Clouds 18 1014 69 10000 1.34 207 11:24 09.12.2021
5006 Clouds 15 1016 64 10000 0.45 349 09:21 09.12.2021
5007 Clouds 10 1016 75 10000 0.45 338 06:50 09.12.2021
5008 Clouds 11 1015 72 10000 0.89 175 03:41 09.12.2021
5009 Clouds 11 1015 73 10000 1.79 252 23:44 08.12.2021
5010 Clouds 11 1015 72 10000 1.34 280 23:21 08.12.2021
5011 Clouds 11 1015 72 10000 1.34 246 22:48 08.12.2021
5012 Clouds 11 1015 69 10000 0.45 230 21:46 08.12.2021
5013 Clear 11 1015 68 10000 0.89 207 21:27 08.12.2021
5014 Clear 12 1014 64 10000 1.34 143 19:59 08.12.2021
5015 Clear 12 1014 64 10000 0.45 259 19:36 08.12.2021
5016 Clouds 12 1014 64 10000 0.45 243 18:46 08.12.2021
5017 Clouds 12 1013 61 10000 2.68 262 17:37 08.12.2021
5018 Clouds 14 1012 51 10000 4.02 298 15:57 08.12.2021
5019 Clouds 14 1011 48 10000 3.58 255 15:29 08.12.2021
5020 Clouds 15 1011 44 10000 3.58 244 14:40 08.12.2021
5021 Clouds 14 1009 50 10000 2.24 326 11:36 08.12.2021
5022 Clouds 13 1010 52 10000 0.89 314 10:32 08.12.2021
5023 Clouds 12 1009 55 10000 1.34 300 09:25 08.12.2021
5024 Clouds 10 1008 66 10000 0.45 306 07:29 08.12.2021
5025 Clouds 10 1005 75 10000 1.34 316 04:57 08.12.2021
5026 Clouds 12 1001 80 10000 2.24 235 23:34 07.12.2021
5027 Clouds 12 1001 76 10000 1.34 269 22:27 07.12.2021
5028 Clouds 12 1000 75 10000 0.45 317 21:23 07.12.2021
5029 Clouds 12 999 71 10000 0.89 333 20:24 07.12.2021
5030 Clouds 13 998 65 10000 1.34 298 18:55 07.12.2021
5031 Clouds 13 998 64 10000 1.34 262 18:18 07.12.2021
5032 Clouds 13 998 65 10000 0.45 300 17:20 07.12.2021
5033 Clouds 13 998 66 10000 1.34 252 16:36 07.12.2021
5034 Clouds 14 998 68 10000 1.34 280 15:35 07.12.2021
5035 Clouds 15 998 63 10000 2.24 261 14:36 07.12.2021
5036 Clouds 15 998 63 10000 2.68 296 13:18 07.12.2021
5037 Clouds 14 998 74 10000 1.34 282 12:21 07.12.2021
5038 Clouds 14 999 86 10000 0.45 338 10:44 07.12.2021
5039 Clouds 12 999 89 7000 1.34 338 08:46 07.12.2021
5040 Clouds 13 1000 83 10000 1.34 201 06:22 07.12.2021
5041 Clouds 13 1000 83 10000 2.68 233 05:45 07.12.2021
5042 Clouds 13 1004 89 10000 1.34 204 00:54 07.12.2021
5043 Clouds 14 1004 85 10000 3.13 182 23:18 06.12.2021
5044 Clouds 15 1004 82 10000 0.89 173 22:39 06.12.2021
5045 Clear 15 1004 81 10000 3.58 207 21:58 06.12.2021
5046 Clear 16 1005 77 10000 2.24 231 21:20 06.12.2021
5047 Clear 16 1005 82 10000 2.24 206 20:30 06.12.2021
5048 Clouds 16 1006 78 10000 1.79 180 19:24 06.12.2021
5049 Clouds 17 1006 74 10000 2.68 269 18:31 06.12.2021
5050 Clouds 17 1006 67 10000 3.13 134 17:53 06.12.2021
5051 Clouds 17 1005 64 10000 3.58 198 17:30 06.12.2021
5052 Clouds 18 1006 62 10000 2.24 164 15:51 06.12.2021
5053 Clouds 19 1006 60 10000 2.68 180 13:53 06.12.2021
5054 Clouds 19 1007 56 10000 2.68 173 12:40 06.12.2021
5055 Clouds 19 1008 65 10000 4.02 209 11:54 06.12.2021
5056 Clouds 17 1010 75 10000 2.24 182 09:44 06.12.2021
5057 Clouds 14 1010 89 10000 0.89 157 07:18 06.12.2021
5058 Clear 12 1011 87 10000 0.89 149 00:38 06.12.2021
5059 Clouds 12 1012 82 10000 0.45 338 22:20 05.12.2021
5060 Clear 13 1012 81 10000 0.89 200 21:25 05.12.2021
5061 Clear 13 1012 80 10000 0.89 301 20:20 05.12.2021
5062 Clear 13 1012 79 10000 0.45 284 19:58 05.12.2021
5063 Clouds 14 1012 79 10000 0.45 259 19:23 05.12.2021
5064 Clear 14 1012 79 10000 1.34 296 18:26 05.12.2021
5065 Clouds 14 1012 79 10000 0.45 197 17:49 05.12.2021
5066 Clouds 14 1011 78 10000 1.79 296 17:18 05.12.2021
5067 Clouds 15 1011 75 10000 1.34 172 16:28 05.12.2021
5068 Clouds 16 1011 73 10000 0.89 204 15:59 05.12.2021
5069 Clouds 17 1010 69 10000 0.89 182 14:48 05.12.2021
5070 Clouds 17 1011 68 10000 0.89 195 14:29 05.12.2021
5071 Clouds 17 1011 68 10000 0.89 226 13:32 05.12.2021
5072 Clouds 17 1011 66 10000 1.34 275 12:43 05.12.2021
5073 Clouds 17 1011 66 10000 1.34 275 12:25 05.12.2021
5074 Clouds 17 1011 71 10000 0.89 188 11:43 05.12.2021
5075 Clouds 16 1012 74 10000 0.89 235 10:25 05.12.2021
5076 Clouds 15 1012 76 10000 0.89 244 09:35 05.12.2021
5077 Clouds 10 1011 90 10000 0.45 319 05:30 05.12.2021
5078 Clear 11 1010 90 10000 0.89 45 01:24 05.12.2021
5079 Clear 11 1010 90 10000 0.45 45 01:24 05.12.2021
5080 Clear 12 1010 89 10000 0.89 91 22:44 04.12.2021
5081 Clear 12 1010 88 10000 1.34 313 21:38 04.12.2021
5082 Clear 12 1009 89 10000 0.45 15 20:47 04.12.2021
5083 Clear 12 1008 88 10000 1.34 14 19:54 04.12.2021
5084 Clouds 12 1008 88 10000 1.34 17 19:24 04.12.2021
5085 Clouds 13 1008 86 10000 0.45 74 17:53 04.12.2021
5086 Clouds 13 1008 86 10000 0.89 104 17:35 04.12.2021
5087 Clouds 14 1008 85 10000 0.89 171 16:47 04.12.2021
5088 Clouds 14 1008 84 10000 0.89 192 16:28 04.12.2021
5089 Clouds 15 1007 86 10000 0.45 217 13:30 04.12.2021
5090 Clouds 16 1008 82 10000 1.34 245 11:41 04.12.2021
5091 Clouds 16 1008 83 10000 1.34 213 11:19 04.12.2021
5092 Clouds 15 1008 87 10000 1.34 184 09:57 04.12.2021
5093 Clouds 14 1010 91 10000 0.89 163 08:38 04.12.2021
5094 Clouds 13 1008 92 10000 0.45 338 05:30 04.12.2021
5095 Clouds 13 1008 91 10000 0.89 340 04:40 04.12.2021
5096 Clouds 17 1008 79 10000 2.68 195 23:49 03.12.2021
5097 Clouds 17 1009 75 10000 2.24 141 22:55 03.12.2021
5098 Clouds 17 1010 74 10000 2.68 180 21:58 03.12.2021
5099 Clouds 17 1010 74 10000 2.68 185 21:24 03.12.2021
5100 Clouds 17 1010 74 10000 2.68 161 20:43 03.12.2021
5101 Clouds 17 1010 74 10000 1.34 139 19:36 03.12.2021
5102 Clouds 17 1010 72 10000 3.13 182 18:26 03.12.2021
5103 Clouds 17 1009 70 10000 2.68 198 17:42 03.12.2021
5104 Clouds 19 1010 71 10000 2.68 217 14:20 03.12.2021
5105 Clouds 18 1010 80 10000 2.24 186 12:52 03.12.2021
5106 Clouds 19 1012 73 10000 2.68 202 11:24 03.12.2021
5107 Clouds 18 1013 79 10000 2.24 185 09:55 03.12.2021
5108 Clouds 16 1013 77 10000 0.45 177 08:24 03.12.2021
5109 Clouds 15 1012 81 10000 0.89 223 07:37 03.12.2021
5110 Clear 14 1013 78 10000 0.45 0 01:56 03.12.2021
5111 Clouds 14 1013 77 10000 1.34 142 00:47 03.12.2021
5112 Clear 13 1013 76 10000 1.79 140 23:45 02.12.2021
5113 Clear 14 1013 71 10000 1.79 167 21:42 02.12.2021
5114 Clear 13 1013 72 10000 0.45 190 20:57 02.12.2021
5115 Clear 13 1013 72 10000 1.79 144 20:38 02.12.2021
5116 Clouds 13 1013 70 10000 1.79 148 19:25 02.12.2021
5117 Clouds 14 1012 64 10000 0.45 198 17:43 02.12.2021
5118 Clouds 16 1011 55 10000 0.89 206 15:42 02.12.2021
5119 Clouds 17 1011 50 10000 0.89 205 14:59 02.12.2021
5120 Clouds 17 1012 51 10000 0.89 159 14:33 02.12.2021
5121 Clouds 17 1013 51 10000 0.89 194 12:52 02.12.2021
5122 Clouds 17 1012 51 10000 0.89 165 12:18 02.12.2021
5123 Clouds 15 1014 53 10000 0.89 206 10:36 02.12.2021
5124 Clear 14 1015 63 10000 0.45 145 08:55 02.12.2021
5125 Clouds 10 1014 75 10000 0.89 96 04:54 02.12.2021
5126 Clear 11 1015 70 10000 0.45 277 00:53 02.12.2021
5127 Clear 11 1016 66 10000 0.45 238 23:28 01.12.2021
5128 Clear 11 1016 63 10000 1.34 263 22:24 01.12.2021
5129 Clear 12 1016 58 10000 1.34 284 21:21 01.12.2021
5130 Clear 12 1016 55 10000 1.79 292 19:58 01.12.2021
5131 Clear 12 1016 52 10000 2.68 23 19:28 01.12.2021
5132 Clear 13 1015 48 10000 1.79 202 17:50 01.12.2021
5133 Clouds 13 1014 49 10000 1.34 216 16:58 01.12.2021
5134 Clear 15 1015 44 10000 1.34 207 14:59 01.12.2021
5135 Clear 16 1016 41 10000 2.24 248 13:49 01.12.2021
5136 Clear 16 1014 42 10000 2.68 256 12:51 01.12.2021
5137 Clear 14 1016 47 10000 2.24 261 10:43 01.12.2021
5138 Clear 13 1017 47 10000 0.45 80 09:32 01.12.2021
5139 Clear 11 1017 48 10000 0.45 87 08:36 01.12.2021
5140 Clouds 9 1017 50 10000 0.45 115 07:37 01.12.2021
5141 Clear 8 1017 52 10000 0.89 76 07:19 01.12.2021
5142 Clear 8 1016 51 10000 0.45 315 03:47 01.12.2021
5143 Clear 8 1016 55 10000 0.45 74 02:34 01.12.2021
5144 Clear 9 1016 59 10000 0.45 22 23:56 30.11.2021
5145 Clear 9 1016 58 10000 0.45 321 23:28 30.11.2021
5146 Clear 10 1015 58 10000 2.24 331 21:55 30.11.2021
5147 Clear 11 1014 58 10000 0.89 329 20:46 30.11.2021
5148 Clouds 11 1013 58 10000 1.34 259 20:23 30.11.2021
5149 Clouds 11 1013 59 10000 3.13 297 19:38 30.11.2021
5150 Clouds 12 1013 59 10000 3.13 219 18:42 30.11.2021
5151 Clouds 12 1011 51 10000 3.58 238 17:21 30.11.2021
5152 Clouds 13 1010 52 10000 3.58 280 15:50 30.11.2021
5153 Clouds 13 1009 53 10000 3.13 215 14:29 30.11.2021
5154 Clouds 14 1008 52 10000 5.81 289 13:29 30.11.2021
5155 Clouds 14 1008 52 10000 4.92 255 12:53 30.11.2021
5156 Clear 14 1008 52 10000 3.13 275 11:53 30.11.2021
5157 Clouds 14 1008 55 10000 4.47 280 11:25 30.11.2021
5158 Clouds 14 1008 56 10000 4.92 269 10:35 30.11.2021
5159 Clouds 15 1006 51 10000 2.24 235 08:55 30.11.2021
5160 Clouds 14 1006 52 10000 2.24 242 08:32 30.11.2021
5161 Clouds 14 1006 55 10000 3.13 286 07:49 30.11.2021
5162 Clouds 13 1005 57 10000 2.24 259 06:32 30.11.2021
5163 Clouds 16 1004 64 10000 5.36 248 01:46 30.11.2021
5164 Clouds 16 1003 59 10000 4.47 213 01:26 30.11.2021
5165 Clear 16 1004 58 10000 2.24 219 23:27 29.11.2021
5166 Clear 15 1005 55 10000 1.79 200 22:59 29.11.2021
5167 Clear 15 1005 55 10000 1.79 200 22:59 29.11.2021
5168 Clear 15 1005 56 10000 0.89 225 22:36 29.11.2021
5169 Clear 15 1006 53 10000 0.89 219 21:46 29.11.2021
5170 Clear 16 1006 52 10000 1.79 208 21:19 29.11.2021
5171 Clear 15 1007 53 10000 1.79 213 20:45 29.11.2021
5172 Clear 15 1007 55 10000 0.89 228 19:58 29.11.2021
5173 Clear 15 1007 55 10000 0.89 228 19:38 29.11.2021
5174 Clouds 16 1007 54 10000 0.89 239 18:58 29.11.2021
5175 Clouds 15 1008 51 10000 9.61 235 18:39 29.11.2021
5176 Clouds 15 1007 55 10000 10.79 243 17:21 29.11.2021
5177 Clouds 15 1007 55 10000 10.74 243 16:40 29.11.2021
5178 Clouds 16 1006 57 10000 11.38 239 16:22 29.11.2021
5179 Clouds 17 1005 61 10000 13.01 236 14:45 29.11.2021
5180 Clouds 17 1005 63 10000 13.66 231 13:52 29.11.2021
5181 Clouds 18 1004 64 10000 13.83 231 12:56 29.11.2021
5182 Rain 18 1004 66 10000 12.96 231 11:51 29.11.2021
5183 Clouds 19 1004 62 10000 12.81 230 10:59 29.11.2021
5184 Clouds 19 1004 61 10000 12.67 226 09:57 29.11.2021
5185 Clouds 20 999 68 10000 2.06 320 06:44 29.11.2021
5186 Clouds 21 998 60 10000 3.09 280 05:48 29.11.2021
5187 Clear 19 1001 77 10000 2.06 40 00:46 29.11.2021
5188 Clear 18 1002 82 10000 3.09 100 23:47 28.11.2021
5189 Clear 18 1003 82 10000 4.12 130 23:29 28.11.2021
5190 Clouds 19 1004 77 10000 5.66 140 21:53 28.11.2021
5191 Clouds 19 1004 77 10000 5.66 140 21:53 28.11.2021
5192 Clouds 19 1004 77 10000 5.66 140 21:34 28.11.2021
5193 Clouds 19 1004 77 10000 5.66 160 20:36 28.11.2021
5194 Clouds 19 1005 77 10000 4.12 140 19:37 28.11.2021
5195 Clouds 18 1006 77 10000 4.63 160 18:40 28.11.2021
5196 Clouds 18 1005 77 10000 5.14 160 17:57 28.11.2021
5197 Clouds 18 1005 77 10000 5.14 160 17:32 28.11.2021
5198 Clouds 18 1006 77 10000 4.63 170 16:45 28.11.2021
5199 Clouds 19 1006 72 10000 5.14 160 16:27 28.11.2021
5200 Clouds 19 1005 68 10000 6.69 180 15:45 28.11.2021
5201 Clouds 20 1006 64 10000 5.66 170 14:51 28.11.2021
5202 Clouds 20 1006 60 10000 5.66 160 13:53 28.11.2021
5203 Clouds 20 1007 60 10000 4.63 150 12:54 28.11.2021
5204 Clouds 18 1008 68 10000 2.57 100 11:38 28.11.2021
5205 Clouds 18 1009 67 10000 0 0 10:31 28.11.2021
5206 Clouds 18 1008 63 10000 0 0 09:46 28.11.2021
5207 Clouds 18 1008 67 10000 1.54 0 09:27 28.11.2021
5208 Clouds 15 1003 88 10000 3.6 240 00:50 28.11.2021
5209 Clouds 17 1002 88 10000 9.77 180 21:49 27.11.2021
5210 Clouds 15 1004 94 10000 2.06 130 19:50 27.11.2021
5211 Clouds 18 1005 68 10000 0 0 18:26 27.11.2021
5212 Clouds 18 1005 77 10000 0 0 16:18 27.11.2021
5213 Clouds 19 1005 68 10000 0 0 14:44 27.11.2021
5214 Clouds 20 1006 64 10000 2.57 170 13:38 27.11.2021
5215 Clouds 18 1007 72 10000 0 0 11:37 27.11.2021
5216 Clouds 18 1008 82 10000 0 0 10:19 27.11.2021
5217 Clouds 13 1008 82 10000 0 0 08:54 27.11.2021
5218 Clouds 11 1008 87 10000 0 0 06:59 27.11.2021
5219 Clouds 11 1007 87 10000 1.54 310 04:53 27.11.2021
5220 Clouds 13 1007 93 10000 1.54 0 00:25 27.11.2021
5221 Clouds 11 1008 93 10000 1.03 0 22:51 26.11.2021
5222 Clouds 13 1008 93 10000 1.54 0 22:24 26.11.2021
5223 Clouds 12 1008 93 10000 1.54 0 21:31 26.11.2021
5224 Clouds 11 1007 93 10000 1.03 0 20:42 26.11.2021
5225 Clouds 10 1008 86 10000 2.8 255 19:56 26.11.2021
5226 Clouds 11 1006 100 10000 1.54 310 19:18 26.11.2021
5227 Clouds 12 1005 94 10000 0 0 17:46 26.11.2021
5228 Clouds 12 1005 100 10000 1.54 0 17:21 26.11.2021
5229 Clouds 14 1003 94 10000 2.57 140 15:29 26.11.2021
5230 Thunderstorm 17 1004 90 8000 3.13 166 13:35 26.11.2021
5231 Clouds 15 1007 91 6000 1.34 170 11:30 26.11.2021
5232 Clouds 14 1008 89 6000 0.89 172 10:35 26.11.2021
5233 Clouds 13 1009 89 10000 1.34 290 08:56 26.11.2021
5234 Clouds 12 1010 85 7000 0.45 209 08:21 26.11.2021
5235 Drizzle 12 1011 79 10000 1.79 158 07:24 26.11.2021
5236 Clouds 12 1011 79 10000 0.89 117 06:25 26.11.2021
5237 Clouds 11 1012 76 10000 0.45 19 03:56 26.11.2021
5238 Clouds 10 1015 76 10000 0.89 0 01:53 26.11.2021
5239 Clouds 10 1016 72 10000 0.89 346 22:46 25.11.2021
5240 Clouds 11 1016 70 10000 0.45 325 21:26 25.11.2021
5241 Clouds 11 1017 72 10000 0.89 39 20:27 25.11.2021
5242 Clouds 11 1017 68 10000 0.45 15 18:46 25.11.2021
5243 Clouds 12 1016 68 10000 0.89 17 17:47 25.11.2021
5244 Clouds 12 1016 67 10000 0.89 23 17:25 25.11.2021
5245 Clouds 12 1016 67 10000 1.34 107 16:32 25.11.2021
5246 Clouds 14 1017 62 10000 1.34 13 14:59 25.11.2021
5247 Clouds 14 1017 60 10000 2.24 65 13:37 25.11.2021
5248 Clouds 14 1017 58 10000 1.34 109 12:25 25.11.2021
5249 Clouds 14 1017 59 10000 3.58 5 11:49 25.11.2021
5250 Clouds 13 1019 64 10000 3.13 19 09:28 25.11.2021
5251 Clouds 11 1018 73 10000 2.24 360 06:18 25.11.2021
5252 Clouds 11 1018 72 10000 3.13 24 02:49 25.11.2021
5253 Clouds 12 1019 72 10000 3.13 59 22:57 24.11.2021
5254 Clouds 12 1019 72 10000 4.02 355 22:24 24.11.2021
5255 Clouds 12 1019 73 10000 3.13 15 21:37 24.11.2021
5256 Clouds 13 1019 71 10000 25.93 112 20:52 24.11.2021
5257 Clouds 13 1019 71 10000 25.93 112 20:19 24.11.2021
5258 Clouds 13 1018 71 10000 25.93 112 18:31 24.11.2021
5259 Clouds 13 1018 75 10000 4.92 360 17:58 24.11.2021
5260 Clouds 14 1018 75 10000 4.92 15 15:47 24.11.2021
5261 Clouds 14 1018 74 10000 3.58 355 14:53 24.11.2021
5262 Clouds 14 1018 74 10000 5.36 5 14:20 24.11.2021
5263 Clouds 14 1017 72 9000 25.93 112 12:47 24.11.2021
5264 Drizzle 14 1017 81 10000 5.36 346 11:21 24.11.2021
5265 Drizzle 14 1017 83 9000 4.92 42 10:49 24.11.2021
5266 Clouds 14 1017 83 10000 4.02 355 10:23 24.11.2021
5267 Clouds 15 1016 88 10000 2.68 14 07:55 24.11.2021
5268 Drizzle 14 1015 86 10000 25.93 112 06:55 24.11.2021
5269 Clouds 15 1014 92 10000 0.89 325 03:55 24.11.2021
5270 Clouds 15 1015 92 10000 0.89 17 00:58 24.11.2021
5271 Clouds 15 1015 91 7000 0.89 269 22:58 23.11.2021
5272 Clouds 15 1015 90 7000 0.45 320 22:34 23.11.2021
5273 Clouds 15 1015 89 7000 0.45 217 21:44 23.11.2021
5274 Clouds 16 1015 82 10000 2.68 150 20:19 23.11.2021
5275 Clouds 17 1015 85 10000 0.45 114 18:44 23.11.2021
5276 Clouds 17 1014 83 10000 0.45 89 18:24 23.11.2021
5277 Clouds 18 1014 81 10000 0.45 180 17:23 23.11.2021
5278 Clouds 18 1014 80 10000 0.45 251 16:35 23.11.2021
5279 Clouds 19 1013 75 10000 0.45 177 15:23 23.11.2021
5280 Clouds 19 1013 76 10000 0.89 213 14:32 23.11.2021
5281 Clouds 19 1014 79 10000 0.45 183 11:57 23.11.2021
5282 Clouds 19 1014 85 10000 0.89 176 10:24 23.11.2021
5283 Clouds 18 1015 90 10000 0.89 199 09:23 23.11.2021
5284 Drizzle 17 1015 90 10000 0.89 156 07:42 23.11.2021
5285 Clouds 17 1014 88 10000 1.34 204 03:58 23.11.2021
5286 Clouds 17 1014 89 10000 1.34 217 03:25 23.11.2021
5287 Clouds 17 1015 89 10000 0.45 174 23:23 22.11.2021
5288 Clouds 17 1015 90 10000 1.34 184 22:53 22.11.2021
5289 Clouds 17 1015 90 10000 1.34 178 22:29 22.11.2021
5290 Clouds 17 1015 89 10000 1.34 217 21:44 22.11.2021
5291 Clouds 17 1015 87 10000 1.34 171 20:56 22.11.2021
5292 Clouds 18 1014 83 10000 1.34 171 20:21 22.11.2021
5293 Clouds 17 1015 83 10000 1.79 167 19:19 22.11.2021
5294 Clouds 18 1015 82 10000 1.79 180 18:40 22.11.2021
5295 Clouds 17 1014 79 10000 1.34 167 17:46 22.11.2021
5296 Clouds 18 1014 76 10000 0.89 195 16:26 22.11.2021
5297 Clouds 19 1013 71 10000 1.34 107 14:26 22.11.2021
5298 Clouds 20 1013 68 10000 1.34 212 12:43 22.11.2021
5299 Clouds 18 1014 70 10000 0.45 229 10:45 22.11.2021
5300 Clouds 18 1014 74 10000 0.45 360 09:48 22.11.2021
5301 Clouds 16 1014 74 10000 0.45 16 08:41 22.11.2021
5302 Clouds 13 1015 84 10000 1.79 10 06:59 22.11.2021
5303 Clear 13 1015 79 10000 2.06 350 23:39 21.11.2021
5304 Clear 13 1015 76 10000 0.45 113 22:53 21.11.2021
5305 Clear 13 1015 76 10000 1.03 0 22:19 21.11.2021
5306 Clear 13 1015 74 10000 0.51 0 20:42 21.11.2021
5307 Clear 13 1014 74 10000 1.54 0 20:21 21.11.2021
5308 Clouds 14 1014 70 10000 0.45 17 18:30 21.11.2021
5309 Clouds 15 1014 68 10000 0.45 86 17:39 21.11.2021
5310 Clouds 16 1013 62 10000 1.34 110 16:46 21.11.2021
5311 Clouds 19 1013 55 10000 0.45 193 14:46 21.11.2021
5312 Clouds 19 1013 53 10000 0.45 327 13:54 21.11.2021
5313 Clouds 19 1013 52 10000 0.89 34 12:55 21.11.2021
5314 Clouds 18 1013 52 10000 0.45 40 11:57 21.11.2021
5315 Clouds 18 1014 52 10000 0.89 40 11:35 21.11.2021
5316 Clouds 17 1015 58 10000 0.89 325 10:19 21.11.2021
5317 Clouds 16 1015 61 10000 0.45 360 09:20 21.11.2021
5318 Clouds 15 1015 66 10000 0.45 360 08:30 21.11.2021
5319 Clouds 14 1017 69 10000 0.45 360 07:50 21.11.2021
5320 Clouds 13 1015 72 10000 2.24 16 06:23 21.11.2021
5321 Clouds 13 1015 73 10000 0.89 170 05:37 21.11.2021
5322 Clear 13 1015 68 10000 0.45 348 03:21 21.11.2021
5323 Clear 13 1015 69 10000 0.89 340 02:53 21.11.2021
5324 Clouds 13 1016 67 10000 2.24 17 01:23 21.11.2021
5325 Clouds 13 1015 67 10000 0.45 84 00:40 21.11.2021
5326 Clouds 13 1016 65 10000 0.45 321 21:51 20.11.2021
5327 Clouds 13 1016 66 10000 1.79 26 21:30 20.11.2021
5328 Clouds 14 1016 61 10000 2.68 324 19:24 20.11.2021
5329 Clouds 14 1015 63 10000 4.47 338 18:45 20.11.2021
5330 Clouds 14 1016 61 10000 4.47 338 18:19 20.11.2021
5331 Clouds 14 1015 60 10000 0.89 0 17:21 20.11.2021
5332 Clouds 15 1015 57 10000 1.79 321 14:51 20.11.2021
5333 Clouds 15 1015 57 10000 2.24 322 14:28 20.11.2021
5334 Clouds 15 1015 58 10000 1.79 28 13:35 20.11.2021
5335 Clouds 15 1016 57 10000 3.13 43 11:25 20.11.2021
5336 Clouds 15 1017 58 10000 4.02 355 09:55 20.11.2021
5337 Clouds 13 1018 62 10000 1.79 22 08:32 20.11.2021
5338 Clouds 12 1016 66 10000 1.79 16 05:30 20.11.2021
5339 Clouds 12 1016 64 10000 3.13 13 04:51 20.11.2021
5340 Clouds 12 1017 62 10000 1.34 309 03:54 20.11.2021
5341 Clouds 13 1018 65 10000 0.89 37 00:42 20.11.2021
5342 Clouds 13 1018 68 10000 1.34 355 23:45 19.11.2021
5343 Clouds 13 1019 70 10000 0.89 355 22:53 19.11.2021
5344 Clouds 13 1019 72 10000 1.34 9 21:24 19.11.2021
5345 Clouds 13 1019 73 10000 2.24 5 20:40 19.11.2021
5346 Clouds 13 1019 73 10000 2.24 360 20:22 19.11.2021
5347 Clouds 13 1019 73 10000 1.79 5 19:43 19.11.2021
5348 Clouds 13 1019 73 10000 0.89 135 18:45 19.11.2021
5349 Clouds 13 1019 77 10000 0.89 355 17:44 19.11.2021
5350 Clouds 13 1019 78 10000 1.34 98 16:43 19.11.2021
5351 Clouds 13 1019 80 10000 1.79 360 14:52 19.11.2021
5352 Clouds 14 1020 77 10000 1.79 351 11:32 19.11.2021
5353 Clouds 13 1021 78 10000 1.79 15 10:24 19.11.2021
5354 Clouds 13 1021 83 10000 1.79 15 08:35 19.11.2021
5355 Clouds 14 1020 83 10000 0.89 355 06:29 19.11.2021
5356 Clouds 14 1020 83 10000 0.89 355 04:19 19.11.2021
5357 Clouds 15 1021 76 10000 1.34 357 23:54 18.11.2021
5358 Clouds 15 1021 76 10000 0.45 337 23:18 18.11.2021
5359 Clouds 15 1021 74 10000 1.34 338 21:21 18.11.2021
5360 Clouds 15 1021 75 10000 0.45 274 20:46 18.11.2021
5361 Clouds 15 1021 74 10000 0.89 343 20:23 18.11.2021
5362 Clouds 15 1021 75 10000 0.89 0 19:42 18.11.2021
5363 Clouds 15 1021 74 10000 0.45 121 18:38 18.11.2021
5364 Clouds 15 1020 73 10000 0.45 93 17:52 18.11.2021
5365 Clouds 15 1020 72 10000 0.45 207 17:31 18.11.2021
5366 Clouds 16 1020 71 10000 0.45 176 16:42 18.11.2021
5367 Clouds 17 1020 66 10000 0.45 205 15:23 18.11.2021
5368 Clouds 17 1020 60 10000 0.45 229 13:21 18.11.2021
5369 Clouds 17 1021 60 10000 0.89 279 11:45 18.11.2021
5370 Clouds 17 1021 60 10000 0.45 339 11:26 18.11.2021
5371 Clouds 16 1022 63 10000 0.45 312 10:44 18.11.2021
5372 Clouds 15 1022 65 10000 0.45 315 09:28 18.11.2021
5373 Clouds 14 1022 71 10000 0.45 15 07:31 18.11.2021
5374 Clouds 13 1021 74 10000 0 0 05:47 18.11.2021
5375 Clear 13 1020 72 10000 0.45 338 02:35 18.11.2021
5376 Clear 13 1020 70 10000 0.89 360 01:21 18.11.2021
5377 Clear 13 1021 71 10000 0.89 5 22:41 17.11.2021
5378 Clear 13 1021 71 10000 0.89 19 22:20 17.11.2021
5379 Clear 13 1021 71 10000 1.79 9 21:36 17.11.2021
5380 Clear 13 1020 71 10000 0.89 78 20:18 17.11.2021
5381 Clouds 13 1019 72 10000 1.79 346 17:44 17.11.2021
5382 Clouds 14 1019 72 10000 2.24 30 16:59 17.11.2021
5383 Clouds 15 1019 70 10000 2.68 355 14:18 17.11.2021
5384 Clouds 15 1019 69 10000 1.79 355 12:39 17.11.2021
5385 Clouds 14 1019 68 10000 2.24 14 11:41 17.11.2021
5386 Clouds 14 1019 75 10000 3.13 26 10:28 17.11.2021
5387 Clouds 13 1020 77 10000 3.13 28 09:23 17.11.2021
5388 Clouds 13 1019 79 10000 2.68 95 07:42 17.11.2021
5389 Clouds 13 1018 80 10000 2.68 18 03:35 17.11.2021
5390 Clouds 13 1017 81 10000 2.24 320 00:47 17.11.2021
5391 Rain 14 1018 70 10000 4.02 46 22:44 16.11.2021
5392 Clouds 14 1018 70 10000 3.58 44 20:37 16.11.2021
5393 Clouds 15 1018 70 10000 4.92 5 20:18 16.11.2021
5394 Clouds 15 1018 71 10000 3.58 350 18:53 16.11.2021
5395 Clouds 15 1018 71 10000 2.68 329 18:30 16.11.2021
5396 Clouds 15 1018 71 10000 3.58 331 17:38 16.11.2021
5397 Clouds 15 1018 69 10000 3.58 9 16:35 16.11.2021
5398 Clouds 16 1018 67 10000 3.13 27 15:49 16.11.2021
5399 Clouds 16 1018 66 10000 3.13 51 15:26 16.11.2021
5400 Clouds 16 1019 66 10000 4.47 107 11:29 16.11.2021
5401 Clouds 16 1019 66 10000 4.92 5 09:46 16.11.2021
5402 Clouds 15 1019 72 10000 4.47 360 08:27 16.11.2021
5403 Clouds 15 1019 73 10000 4.47 360 07:32 16.11.2021
5404 Clouds 15 1019 72 10000 4.92 355 01:45 16.11.2021
5405 Clouds 15 1019 73 10000 4.02 5 23:22 15.11.2021
5406 Clouds 15 1019 72 10000 4.02 49 22:33 15.11.2021
5407 Clouds 15 1019 72 10000 3.58 5 21:53 15.11.2021
5408 Clouds 15 1019 73 10000 4.47 355 21:28 15.11.2021
5409 Clouds 15 1018 69 10000 3.58 5 19:42 15.11.2021
5410 Clouds 15 1018 73 10000 4.02 110 18:33 15.11.2021
5411 Clouds 16 1017 72 10000 2.24 355 16:20 15.11.2021
5412 Clouds 17 1017 69 10000 2.24 27 15:42 15.11.2021
5413 Clouds 17 1017 69 10000 2.68 35 15:24 15.11.2021
5414 Clouds 18 1017 66 10000 3.13 18 13:32 15.11.2021
5415 Clouds 18 1017 64 10000 2.24 342 11:21 15.11.2021
5416 Clouds 16 1018 70 10000 1.79 111 09:28 15.11.2021
5417 Clouds 15 1018 76 10000 1.34 360 07:52 15.11.2021
5418 Clouds 15 1018 81 10000 2.24 37 05:23 15.11.2021
5419 Clouds 15 1018 81 10000 0.45 360 23:57 14.11.2021
5420 Clouds 15 1018 80 10000 1.79 338 22:37 14.11.2021
5421 Clouds 16 1018 80 10000 0.45 307 19:59 14.11.2021
5422 Clouds 16 1018 80 10000 0.45 334 19:18 14.11.2021
5423 Clouds 16 1018 80 10000 0.45 360 18:54 14.11.2021
5424 Clouds 16 1018 79 10000 0.89 315 18:36 14.11.2021
5425 Clouds 16 1018 79 10000 0.89 338 18:18 14.11.2021
5426 Clouds 16 1018 79 10000 0.45 334 17:57 14.11.2021
5427 Clouds 16 1018 79 10000 0.45 273 17:39 14.11.2021
5428 Clouds 16 1018 79 10000 0.45 315 17:21 14.11.2021
5429 Clouds 16 1018 78 10000 0.45 5 16:47 14.11.2021
5430 Clouds 16 1017 76 10000 0 0 16:20 14.11.2021
5431 Clouds 17 1016 73 10000 1.34 312 15:23 14.11.2021
5432 Clouds 17 1016 72 10000 0.45 333 14:49 14.11.2021
5433 Clouds 17 1016 71 10000 0.45 16 14:29 14.11.2021
5434 Clouds 18 1016 70 10000 0.45 320 13:59 14.11.2021
5435 Clouds 17 1016 71 10000 0.89 299 13:40 14.11.2021
5436 Clouds 17 1016 71 10000 0.45 300 12:29 14.11.2021
5437 Clouds 17 1017 71 10000 0.45 5 11:58 14.11.2021
5438 Clouds 16 1019 77 10000 0.89 168 10:45 14.11.2021
5439 Clouds 16 1019 77 10000 0.89 142 10:26 14.11.2021
5440 Clouds 16 1018 76 10000 0.45 222 08:56 14.11.2021
5441 Clouds 15 1017 77 10000 1.79 103 07:24 14.11.2021
5442 Clouds 14 1018 78 10000 0.45 338 01:24 14.11.2021
5443 Clouds 14 1019 76 10000 0.89 338 22:27 13.11.2021
5444 Clouds 14 1019 76 10000 0.89 338 22:27 13.11.2021
5445 Clouds 14 1019 76 10000 0.89 338 21:57 13.11.2021
5446 Clouds 13 1019 76 10000 0.89 338 21:25 13.11.2021
5447 Clouds 13 1019 77 10000 0.45 250 19:50 13.11.2021
5448 Clouds 14 1018 75 10000 0.45 121 18:48 13.11.2021
5449 Clouds 14 1018 73 10000 0.45 121 18:26 13.11.2021
5450 Clouds 15 1017 64 10000 0.45 144 16:40 13.11.2021
5451 Clouds 16 1017 62 10000 0.45 207 15:41 13.11.2021
5452 Clouds 17 1019 57 10000 0.45 227 14:34 13.11.2021
5453 Clouds 18 1019 56 10000 0.89 222 13:45 13.11.2021
5454 Clouds 18 1019 53 10000 0.89 247 12:33 13.11.2021
5455 Clouds 17 1019 53 10000 0.45 167 11:39 13.11.2021
5456 Clouds 17 1020 55 10000 0.45 186 10:45 13.11.2021
5457 Clouds 16 1019 55 10000 0.45 87 10:23 13.11.2021
5458 Clouds 16 1019 55 10000 0.45 87 10:23 13.11.2021
5459 Clouds 16 1020 58 10000 0.89 307 09:39 13.11.2021
5460 Clear 15 1020 63 10000 0.89 338 08:59 13.11.2021
5461 Clear 14 1021 67 10000 0.89 349 08:34 13.11.2021
5462 Clear 11 1019 78 10000 0.45 17 06:55 13.11.2021
5463 Clouds 10 1018 78 10000 0.89 315 04:34 13.11.2021
5464 Clouds 11 1018 77 10000 0.45 338 01:55 13.11.2021
5465 Clear 11 1019 77 10000 0.45 299 23:23 12.11.2021
5466 Clear 12 1018 76 10000 0.89 331 21:51 12.11.2021
5467 Clear 13 1018 75 10000 0.45 30 20:19 12.11.2021
5468 Clouds 13 1018 73 10000 0.45 329 19:30 12.11.2021
5469 Clouds 14 1018 71 10000 0.89 326 18:53 12.11.2021
5470 Clouds 14 1018 69 10000 0.45 19 17:34 12.11.2021
5471 Clouds 17 1018 60 10000 0.45 229 15:51 12.11.2021
5472 Clouds 18 1017 51 10000 0.45 311 13:25 12.11.2021
5473 Clouds 17 1019 54 10000 0.45 306 11:21 12.11.2021
5474 Clouds 15 1019 60 10000 0.89 301 09:45 12.11.2021
5475 Clouds 14 1019 65 10000 0.45 102 08:44 12.11.2021
5476 Clouds 10 1018 76 10000 0.45 325 05:54 12.11.2021
5477 Clouds 11 1019 68 10000 0.89 344 23:43 11.11.2021
5478 Clouds 12 1019 68 10000 0.45 19 23:43 11.11.2021
5479 Clouds 11 1019 68 10000 0.89 344 23:43 11.11.2021
5480 Clouds 12 1019 66 10000 0.45 336 22:46 11.11.2021
5481 Clouds 12 1020 65 10000 1.34 70 21:29 11.11.2021
5482 Clouds 12 1020 65 10000 0.45 71 20:48 11.11.2021
5483 Clouds 12 1020 64 10000 0.89 45 19:36 11.11.2021
5484 Clouds 13 1020 63 10000 0.89 61 18:25 11.11.2021
5485 Clouds 13 1020 61 10000 0.89 61 17:37 11.11.2021
5486 Clouds 15 1019 58 10000 1.34 46 15:20 11.11.2021
5487 Clouds 15 1019 56 10000 0.89 263 14:38 11.11.2021
5488 Clouds 15 1020 57 10000 1.34 39 14:19 11.11.2021
5489 Clouds 15 1020 55 10000 2.24 103 13:35 11.11.2021
5490 Clouds 16 1020 54 10000 3.13 342 12:23 11.11.2021
5491 Clouds 15 1022 54 10000 2.24 5 09:54 11.11.2021
5492 Clouds 14 1023 59 10000 4.92 346 08:47 11.11.2021
5493 Clouds 12 1023 64 10000 0.89 351 06:45 11.11.2021
5494 Clouds 12 1025 62 10000 1.34 5 00:38 11.11.2021
5495 Clouds 13 1026 60 10000 5.81 348 22:41 10.11.2021
5496 Clouds 13 1026 62 10000 5.81 355 21:53 10.11.2021
5497 Clouds 13 1026 59 10000 3.58 42 20:55 10.11.2021
5498 Clouds 13 1026 59 10000 3.58 17 19:55 10.11.2021
5499 Clouds 13 1026 59 10000 3.58 347 19:35 10.11.2021
5500 Clouds 13 1026 60 10000 4.02 19 17:22 10.11.2021
5501 Clouds 14 1027 60 10000 4.47 360 15:46 10.11.2021
5502 Clouds 15 1027 54 10000 4.47 28 14:24 10.11.2021
5503 Clouds 16 1028 54 10000 4.02 30 13:36 10.11.2021
5504 Clouds 16 1028 55 10000 5.81 340 12:24 10.11.2021
5505 Clouds 15 1029 62 10000 5.36 351 09:21 10.11.2021
5506 Clouds 15 1028 65 10000 6.26 39 08:41 10.11.2021
5507 Clouds 14 1027 70 10000 7.15 11 06:45 10.11.2021
5508 Clouds 14 1026 69 10000 6.71 24 05:58 10.11.2021
5509 Clouds 16 1025 75 10000 5.81 355 01:57 10.11.2021
5510 Clouds 18 1024 79 10000 3.13 30 22:29 09.11.2021
5511 Clouds 18 1022 80 10000 1.79 355 20:50 09.11.2021
5512 Clouds 18 1022 79 9000 0.89 18 19:33 09.11.2021
5513 Clouds 18 1021 76 9000 0.89 11 18:50 09.11.2021
5514 Clouds 19 1021 74 8000 0.89 40 16:57 09.11.2021
5515 Clouds 19 1020 70 8000 1.34 25 15:36 09.11.2021
5516 Clouds 20 1019 68 8000 1.34 360 13:53 09.11.2021
5517 Clouds 20 1020 70 8000 0.89 341 12:47 09.11.2021
5518 Clouds 20 1019 71 8000 1.34 329 11:18 09.11.2021
5519 Clouds 19 1020 75 8000 0.89 16 09:59 09.11.2021
5520 Clouds 19 1020 77 8000 0.89 69 09:21 09.11.2021
5521 Clouds 18 1019 85 8000 0.45 40 07:54 09.11.2021
5522 Clouds 16 1016 89 10000 0.89 9 02:50 09.11.2021
5523 Clouds 17 1016 88 10000 0.45 324 01:55 09.11.2021
5524 Clouds 17 1016 88 10000 0.89 25 01:36 09.11.2021
5525 Clear 18 1015 87 10000 0.45 354 23:32 08.11.2021
5526 Clear 18 1015 87 10000 0.45 180 22:47 08.11.2021
5527 Clear 17 1014 87 10000 0.45 180 21:45 08.11.2021
5528 Clouds 17 1014 87 8000 0.89 228 20:36 08.11.2021
5529 Clouds 17 1013 87 8000 0.45 180 19:43 08.11.2021
5530 Clouds 18 1013 83 10000 0.89 167 17:48 08.11.2021
5531 Clouds 20 1011 75 10000 0.45 184 15:56 08.11.2021
5532 Clouds 21 1013 73 10000 0.45 202 14:57 08.11.2021
5533 Clouds 21 1013 72 10000 1.79 167 14:34 08.11.2021
5534 Clouds 21 1014 71 10000 1.34 179 13:20 08.11.2021
5535 Clouds 21 1013 69 9000 0.89 222 11:55 08.11.2021
5536 Clouds 20 1014 75 8000 0.45 222 10:50 08.11.2021
5537 Clouds 19 1014 81 8000 0.89 248 09:26 08.11.2021
5538 Clouds 18 1015 85 8000 0.45 315 08:42 08.11.2021
5539 Clouds 16 1012 89 7000 0.89 19 06:56 08.11.2021
5540 Clouds 16 1012 89 7000 0.89 19 06:56 08.11.2021
5541 Clouds 15 1012 87 10000 0.45 41 03:36 08.11.2021
5542 Clouds 16 1013 85 10000 1.34 49 01:35 08.11.2021
5543 Clouds 16 1013 83 10000 0.89 28 23:25 07.11.2021
5544 Clouds 17 1013 80 10000 0.89 11 21:31 07.11.2021
5545 Clouds 17 1013 77 10000 0.45 58 20:36 07.11.2021
5546 Clouds 18 1013 75 10000 0.45 0 19:19 07.11.2021
5547 Clouds 19 1013 72 10000 1.34 312 17:44 07.11.2021
5548 Clouds 20 1013 67 10000 1.79 33 16:44 07.11.2021
5549 Clouds 21 1015 63 10000 0.45 319 15:42 07.11.2021
5550 Clouds 22 1017 63 10000 0.89 299 14:28 07.11.2021
5551 Clouds 23 1017 59 10000 1.79 332 12:55 07.11.2021
5552 Clouds 23 1017 56 10000 0.89 87 11:42 07.11.2021
5553 Clouds 21 1018 64 10000 0.45 306 09:22 07.11.2021
5554 Clouds 18 1016 69 10000 0.45 281 04:33 07.11.2021
5555 Clouds 18 1016 68 10000 2.68 360 02:28 07.11.2021
5556 Clouds 19 1016 77 10000 0.45 34 22:57 06.11.2021
5557 Clouds 19 1016 77 10000 0.45 337 22:29 06.11.2021
5558 Clouds 18 1016 80 10000 0.89 28 21:27 06.11.2021
5559 Clouds 19 1017 80 10000 1.03 0 20:32 06.11.2021
5560 Clouds 19 1017 82 9000 0 0 18:56 06.11.2021
5561 Clouds 21 1016 76 10000 0 0 16:38 06.11.2021
5562 Clouds 25 1017 64 9000 0.45 215 14:31 06.11.2021
5563 Clouds 26 1016 61 8000 1.79 241 13:38 06.11.2021
5564 Clouds 24 1016 67 8000 0.45 78 11:25 06.11.2021
5565 Mist 21 1012 81 1000 0.45 109 09:21 06.11.2021
5566 Clouds 17 1016 95 10000 0.45 338 04:56 06.11.2021
5567 Clouds 18 1016 92 10000 1.34 41 01:27 06.11.2021
5568 Clouds 18 1016 91 10000 0.45 51 23:34 05.11.2021
5569 Clouds 18 1016 91 8000 0.45 342 22:33 05.11.2021
5570 Clouds 18 1016 91 8000 0.45 342 22:33 05.11.2021
5571 Clouds 18 1016 88 10000 0.45 211 20:50 05.11.2021
5572 Clouds 19 1016 87 10000 1.34 245 20:19 05.11.2021
5573 Clear 19 1016 86 10000 0.45 0 19:32 05.11.2021
5574 Clear 19 1016 86 10000 0.45 180 18:38 05.11.2021
5575 Clouds 20 1016 83 10000 0.89 256 17:26 05.11.2021
5576 Clear 24 1016 68 10000 0.89 193 15:20 05.11.2021
5577 Clear 24 1016 69 10000 0.89 198 13:35 05.11.2021
5578 Clouds 23 1017 73 8000 0.45 214 10:29 05.11.2021
5579 Clouds 20 1018 85 8000 0.45 315 08:39 05.11.2021
5580 Clouds 18 1017 86 8000 1.03 0 07:21 05.11.2021
5581 Clouds 17 1016 91 10000 0.45 52 04:43 05.11.2021
5582 Clouds 18 1017 91 10000 0.89 78 02:24 05.11.2021
5583 Clouds 19 1016 90 10000 0.45 322 00:31 05.11.2021
5584 Clear 19 1017 90 10000 0.89 113 22:59 04.11.2021
5585 Clear 19 1017 90 10000 0.89 67 22:18 04.11.2021
5586 Clear 19 1017 90 10000 0.89 103 21:31 04.11.2021
5587 Clear 19 1016 89 10000 0.45 116 20:40 04.11.2021
5588 Clouds 19 1016 90 10000 0.45 263 20:19 04.11.2021
5589 Clouds 19 1017 89 10000 0.89 239 19:40 04.11.2021
5590 Clouds 19 1017 88 10000 0.89 119 18:43 04.11.2021
5591 Clouds 20 1017 86 10000 0.45 246 17:37 04.11.2021
5592 Clouds 21 1016 79 10000 0.45 190 16:29 04.11.2021
5593 Clouds 23 1017 69 10000 1.34 200 14:20 04.11.2021
5594 Clouds 23 1017 69 10000 0.89 193 11:43 04.11.2021
5595 Clouds 21 1019 78 10000 0.45 203 09:29 04.11.2021
5596 Clouds 20 1019 82 10000 0 0 08:30 04.11.2021
5597 Clouds 19 1016 85 10000 0.45 56 07:34 04.11.2021
5598 Clear 17 1015 87 10000 0.45 26 23:54 03.11.2021
5599 Clear 17 1015 85 10000 0.45 75 22:50 03.11.2021
5600 Clear 17 1015 83 10000 0.45 84 21:47 03.11.2021
5601 Clear 17 1015 83 10000 0.45 78 21:25 03.11.2021
5602 Clear 17 1014 82 10000 1.34 34 20:34 03.11.2021
5603 Clear 18 1014 80 10000 0.89 338 19:40 03.11.2021
5604 Clear 19 1014 77 10000 0.45 85 18:51 03.11.2021
5605 Clear 19 1014 76 10000 0.45 113 18:18 03.11.2021
5606 Clear 20 1013 70 10000 0.89 169 17:20 03.11.2021
5607 Clear 22 1014 62 10000 0.89 192 16:18 03.11.2021
5608 Clear 22 1014 60 10000 0.89 219 15:42 03.11.2021
5609 Clouds 24 1014 51 10000 1.34 189 13:49 03.11.2021
5610 Clear 23 1013 53 10000 0.89 196 11:39 03.11.2021
5611 Clear 23 1014 55 10000 0.45 209 10:53 03.11.2021
5612 Clear 22 1014 58 10000 0.89 199 10:18 03.11.2021
5613 Clear 22 1015 64 10000 1.34 339 09:29 03.11.2021
5614 Clear 20 1014 71 10000 0.45 268 08:22 03.11.2021
5615 Clear 19 1012 72 10000 0 0 07:38 03.11.2021
5616 Clouds 16 1010 85 10000 0.45 55 04:24 03.11.2021
5617 Clouds 17 1009 80 10000 0.45 46 01:45 03.11.2021
5618 Clouds 18 1009 79 10000 0.45 294 23:33 02.11.2021
5619 Clear 18 1008 80 10000 0.45 144 22:29 02.11.2021
5620 Clear 19 1008 80 10000 1.79 298 20:54 02.11.2021
5621 Clear 19 1007 81 10000 1.79 286 20:30 02.11.2021
5622 Clear 19 1007 81 10000 1.34 310 19:47 02.11.2021
5623 Clouds 20 1006 82 10000 0.89 271 18:43 02.11.2021
5624 Clouds 20 1006 85 10000 0.89 309 17:58 02.11.2021
5625 Clouds 20 1006 85 10000 0.89 234 17:32 02.11.2021
5626 Clouds 22 1005 86 10000 2.24 150 16:29 02.11.2021
5627 Clouds 22 1006 85 9000 1.34 192 14:59 02.11.2021
5628 Clouds 21 1005 87 9000 1.79 181 13:50 02.11.2021
5629 Clouds 22 1005 84 9000 2.24 209 13:26 02.11.2021
5630 Clouds 21 1006 88 10000 1.79 208 12:33 02.11.2021
5631 Clouds 21 1006 84 10000 2.68 205 11:31 02.11.2021
5632 Clouds 20 1006 83 10000 2.68 202 10:51 02.11.2021
5633 Clouds 20 1007 82 10000 1.34 188 10:23 02.11.2021
5634 Clouds 19 1007 80 10000 1.79 240 08:42 02.11.2021
5635 Clouds 18 1007 85 10000 1.34 180 06:43 02.11.2021
5636 Clouds 16 1008 83 10000 1.34 144 03:33 02.11.2021
5637 Clouds 16 1010 79 10000 0.45 337 00:59 02.11.2021
5638 Clouds 15 1011 77 10000 0.45 111 22:39 01.11.2021
5639 Clouds 16 1011 73 10000 0.45 132 20:52 01.11.2021
5640 Clouds 16 1011 72 10000 0.45 45 20:32 01.11.2021
5641 Clouds 16 1010 70 10000 0.45 338 19:44 01.11.2021
5642 Clouds 17 1010 67 10000 0.45 175 18:57 01.11.2021
5643 Rain 17 1010 65 10000 0.45 159 18:19 01.11.2021
5644 Clouds 17 1010 63 10000 0.45 199 17:19 01.11.2021
5645 Clouds 18 1010 60 10000 0.45 163 16:37 01.11.2021
5646 Clouds 18 1009 57 10000 0.45 176 15:45 01.11.2021
5647 Clouds 19 1009 55 10000 0.45 220 15:19 01.11.2021
5648 Clouds 19 1013 54 10000 0.89 171 14:41 01.11.2021
5649 Clouds 19 1013 54 10000 0.89 212 14:19 01.11.2021
5650 Clouds 20 1013 48 10000 0.89 238 13:18 01.11.2021
5651 Clouds 20 1013 47 10000 0.89 179 11:56 01.11.2021
5652 Clouds 18 1013 50 10000 0.89 240 10:23 01.11.2021
5653 Clouds 16 1014 62 10000 0.89 327 08:43 01.11.2021
5654 Clouds 15 1013 68 10000 0.45 13 07:47 01.11.2021
5655 Clouds 12 1011 79 10000 0.45 323 05:53 01.11.2021
5656 Clear 13 1011 77 10000 0.89 90 03:40 01.11.2021
5657 Clouds 13 1012 78 10000 0.89 35 23:59 31.10.2021
5658 Clouds 15 1013 77 10000 0.45 332 21:31 31.10.2021
5659 Clouds 15 1014 77 10000 1.79 43 20:25 31.10.2021
5660 Clouds 16 1014 74 10000 1.79 350 18:51 31.10.2021
5661 Clouds 16 1014 73 10000 2.24 5 18:25 31.10.2021
5662 Clouds 16 1013 71 10000 1.79 5 16:48 31.10.2021
5663 Clouds 18 1015 64 10000 1.79 5 15:18 31.10.2021
5664 Clouds 18 1014 63 10000 2.24 53 13:27 31.10.2021
5665 Clouds 18 1015 64 10000 4.02 355 12:25 31.10.2021
5666 Clouds 17 1015 67 10000 2.24 75 10:51 31.10.2021
5667 Clouds 16 1017 72 10000 2.68 355 09:43 31.10.2021
5668 Clouds 16 1017 71 10000 2.24 350 08:47 31.10.2021
5669 Clouds 15 1015 77 10000 3.58 355 04:54 31.10.2021
5670 Clouds 16 1017 75 10000 0.45 350 00:47 31.10.2021
5671 Clear 15 1017 75 10000 0.89 48 22:28 30.10.2021
5672 Clouds 15 1017 73 10000 0.89 30 21:30 30.10.2021
5673 Clouds 16 1018 73 10000 1.79 12 19:57 30.10.2021
5674 Clouds 16 1016 71 10000 2.68 24 17:51 30.10.2021
5675 Clouds 18 1016 63 10000 3.58 339 15:58 30.10.2021
5676 Clouds 19 1016 62 10000 3.13 295 14:23 30.10.2021
5677 Clouds 19 1016 59 10000 2.68 43 13:38 30.10.2021
5678 Clouds 19 1016 59 10000 3.13 18 13:20 30.10.2021
5679 Clouds 18 1017 62 10000 2.68 51 11:50 30.10.2021
5680 Clouds 18 1017 64 10000 2.68 252 10:58 30.10.2021
5681 Clouds 17 1017 66 10000 2.24 339 09:40 30.10.2021
5682 Clouds 15 1016 71 10000 0.89 302 07:57 30.10.2021
5683 Clouds 14 1016 68 10000 0.45 344 05:49 30.10.2021
5684 Clouds 14 1016 67 10000 0.45 38 04:54 30.10.2021
5685 Clear 15 1017 67 10000 0.45 317 23:33 29.10.2021
5686 Clear 14 1017 66 10000 0.45 304 22:35 29.10.2021
5687 Clouds 15 1017 63 10000 1.79 5 21:20 29.10.2021
5688 Clouds 15 1017 63 10000 2.68 17 20:33 29.10.2021
5689 Clouds 15 1017 64 10000 2.68 17 19:34 29.10.2021
5690 Clouds 15 1016 64 10000 3.58 9 18:23 29.10.2021
5691 Clouds 17 1017 51 10000 4.47 94 16:20 29.10.2021
5692 Clouds 18 1017 54 10000 3.58 355 13:34 29.10.2021
5693 Clouds 17 1019 59 10000 4.47 355 10:50 29.10.2021
5694 Clouds 17 1018 59 10000 4.47 61 10:31 29.10.2021
5695 Clouds 14 1017 72 10000 2.24 5 05:43 29.10.2021
5696 Clear 14 1018 69 10000 3.13 23 00:35 29.10.2021
5697 Clouds 14 1018 68 10000 1.79 13 22:40 28.10.2021
5698 Clouds 15 1019 67 10000 2.24 35 21:20 28.10.2021
5699 Clouds 15 1019 65 10000 2.68 38 20:19 28.10.2021
5700 Clouds 15 1019 64 10000 3.13 355 18:57 28.10.2021
5701 Clouds 16 1019 60 10000 3.58 14 17:57 28.10.2021
5702 Clouds 17 1019 55 10000 3.13 342 16:54 28.10.2021
5703 Clouds 18 1020 51 10000 4.02 15 14:59 28.10.2021
5704 Clouds 18 1020 54 10000 4.02 338 13:35 28.10.2021
5705 Clouds 18 1021 54 10000 4.47 22 12:50 28.10.2021
5706 Clouds 18 1021 54 10000 4.02 21 11:51 28.10.2021
5707 Clouds 17 1021 55 10000 5.81 17 10:47 28.10.2021
5708 Clouds 16 1022 59 10000 4.47 355 09:37 28.10.2021
5709 Clouds 15 1022 66 10000 2.68 346 08:37 28.10.2021
5710 Clouds 15 1020 67 10000 3.13 42 07:47 28.10.2021
5711 Clear 14 1020 70 10000 1.34 339 04:19 28.10.2021
5712 Clouds 14 1021 64 10000 0.89 337 23:26 27.10.2021
5713 Clouds 14 1021 64 10000 0.89 47 22:29 27.10.2021
5714 Clouds 15 1021 64 10000 2.24 33 21:32 27.10.2021
5715 Clouds 15 1020 64 10000 2.68 23 20:48 27.10.2021
5716 Clouds 15 1020 66 10000 2.68 85 19:50 27.10.2021
5717 Clouds 16 1019 66 10000 3.58 21 18:56 27.10.2021
5718 Clouds 16 1019 66 10000 2.68 96 18:37 27.10.2021
5719 Clouds 18 1020 56 10000 2.68 33 16:26 27.10.2021
5720 Clouds 18 1020 48 10000 3.58 360 15:29 27.10.2021
5721 Clouds 19 1020 46 10000 3.13 16 14:38 27.10.2021
5722 Clouds 18 1021 55 10000 2.68 347 11:20 27.10.2021
5723 Clouds 18 1021 56 10000 2.24 49 10:57 27.10.2021
5724 Clouds 17 1021 63 10000 3.13 46 09:38 27.10.2021
5725 Clouds 14 1019 76 10000 0.45 324 07:51 27.10.2021
5726 Clouds 13 1019 76 10000 0.89 347 06:36 27.10.2021
5727 Clouds 13 1018 68 10000 0.89 22 01:29 27.10.2021
5728 Clouds 13 1019 66 10000 0.89 355 00:55 27.10.2021
5729 Clouds 13 1019 64 10000 0.89 327 23:57 26.10.2021
5730 Clouds 13 1019 64 10000 0.45 5 23:18 26.10.2021
5731 Clouds 14 1020 62 10000 0.89 67 22:29 26.10.2021
5732 Clouds 14 1020 63 10000 0.89 67 21:51 26.10.2021
5733 Clouds 14 1020 63 10000 2.68 28 20:26 26.10.2021
5734 Clouds 15 1019 63 10000 3.13 28 19:26 26.10.2021
5735 Clouds 15 1019 64 10000 3.13 340 18:32 26.10.2021
5736 Clouds 17 1020 57 10000 3.13 65 15:54 26.10.2021
5737 Clouds 18 1022 52 10000 3.58 86 14:18 26.10.2021
5738 Clouds 17 1024 55 10000 4.02 320 11:31 26.10.2021
5739 Clouds 15 1022 59 10000 3.13 71 09:29 26.10.2021
5740 Clouds 13 1020 63 10000 1.34 341 07:24 26.10.2021
5741 Clouds 14 1021 58 10000 2.68 12 00:50 26.10.2021
5742 Clouds 14 1021 57 10000 4.02 26 23:49 25.10.2021
5743 Clouds 14 1021 58 10000 3.58 360 22:37 25.10.2021
5744 Clouds 14 1022 58 10000 3.13 22 21:55 25.10.2021
5745 Clouds 14 1022 58 10000 2.68 27 21:25 25.10.2021
5746 Clouds 14 1021 57 10000 4.02 18 19:45 25.10.2021
5747 Rain 15 1021 57 10000 3.58 5 19:24 25.10.2021
5748 Rain 14 1022 58 10000 5.36 360 18:50 25.10.2021
5749 Clouds 15 1022 56 10000 3.58 88 17:43 25.10.2021
5750 Clouds 16 1023 51 10000 4.92 32 15:38 25.10.2021
5751 Clouds 17 1024 49 10000 4.92 26 13:54 25.10.2021
5752 Clouds 16 1023 51 10000 5.36 348 11:58 25.10.2021
5753 Clouds 15 1024 59 10000 4.47 355 09:58 25.10.2021
5754 Clouds 14 1022 64 10000 4.92 19 07:41 25.10.2021
5755 Drizzle 14 1022 70 10000 4.47 47 05:55 25.10.2021
5756 Clouds 16 1022 80 10000 4.92 24 00:53 25.10.2021
5757 Clouds 16 1022 80 10000 4.92 355 00:35 25.10.2021
5758 Clouds 16 1021 81 10000 4.47 15 23:45 24.10.2021
5759 Clouds 16 1023 80 10000 5.36 350 22:42 24.10.2021
5760 Clouds 16 1023 80 10000 5.36 37 22:21 24.10.2021
5761 Clouds 16 1023 80 10000 5.36 28 21:37 24.10.2021
5762 Clouds 16 1023 80 10000 5.36 28 21:37 24.10.2021
5763 Clouds 16 1023 81 10000 5.36 340 20:42 24.10.2021
5764 Clouds 17 1023 79 10000 4.92 360 19:50 24.10.2021
5765 Clouds 18 1023 79 10000 4.02 350 18:47 24.10.2021
5766 Clouds 18 1023 76 10000 4.47 67 17:48 24.10.2021
5767 Clouds 20 1022 66 10000 2.68 360 16:32 24.10.2021
5768 Clouds 21 1021 64 10000 2.68 96 15:24 24.10.2021
5769 Clouds 22 1020 63 10000 2.24 331 13:43 24.10.2021
5770 Clouds 23 1022 67 10000 2.24 19 12:29 24.10.2021
5771 Clouds 23 1022 67 10000 0.45 9 11:37 24.10.2021
5772 Clouds 22 1022 69 10000 0.89 196 10:43 24.10.2021
5773 Clear 20 1023 79 10000 0.45 128 08:50 24.10.2021
5774 Clouds 18 1020 87 10000 0.89 350 03:30 24.10.2021
5775 Clear 19 1021 84 10000 0.89 45 23:56 23.10.2021
5776 Clear 19 1021 83 10000 0.89 78 22:55 23.10.2021
5777 Clear 20 1021 80 10000 0.89 207 21:20 23.10.2021
5778 Clear 21 1019 77 10000 0.89 270 19:37 23.10.2021
5779 Clear 21 1019 73 10000 1.79 150 18:45 23.10.2021
5780 Clear 22 1018 67 10000 0.89 192 17:46 23.10.2021
5781 Clouds 23 1018 64 10000 0.89 190 17:18 23.10.2021
5782 Clouds 24 1019 58 10000 0.89 192 15:58 23.10.2021
5783 Clouds 25 1019 53 10000 1.34 167 13:47 23.10.2021
5784 Clear 18 1020 84 10000 0.45 128 02:20 23.10.2021
5785 Clear 19 1021 78 10000 1.34 244 23:41 22.10.2021
5786 Clear 19 1020 75 10000 0.45 170 21:39 22.10.2021
5787 Clouds 20 1020 73 10000 1.34 144 19:43 22.10.2021
5788 Clouds 21 1020 70 10000 0.45 212 18:27 22.10.2021
5789 Clouds 22 1017 63 10000 0.89 191 17:19 22.10.2021
5790 Clouds 23 1019 60 10000 1.34 165 14:58 22.10.2021
5791 Clouds 23 1019 65 10000 0.89 209 12:45 22.10.2021
5792 Clouds 22 1018 68 10000 0.89 205 10:58 22.10.2021
5793 Clouds 22 1020 72 10000 0.89 234 10:36 22.10.2021
5794 Clouds 20 1023 75 10000 0.89 198 09:35 22.10.2021
5795 Clouds 17 1020 84 10000 0.45 27 07:46 22.10.2021
5796 Clouds 16 1020 87 10000 0.89 36 07:21 22.10.2021
5797 Clear 16 1020 81 10000 0.89 50 02:37 22.10.2021
5798 Clear 16 1020 81 10000 0.89 50 02:37 22.10.2021
5799 Clear 17 1020 77 10000 0.45 306 23:51 21.10.2021
5800 Clear 18 1020 79 10000 1.34 306 22:44 21.10.2021
5801 Clear 18 1020 80 10000 0.89 142 21:39 21.10.2021
5802 Clouds 18 1020 79 10000 0.45 219 20:26 21.10.2021
5803 Clouds 18 1020 79 10000 0.45 210 19:56 21.10.2021
5804 Clouds 18 1020 78 10000 0.89 203 19:26 21.10.2021
5805 Clouds 19 1020 75 10000 0.89 192 18:34 21.10.2021
5806 Clouds 19 1020 71 10000 0.89 173 17:53 21.10.2021
5807 Clouds 20 1020 67 10000 0.45 165 17:18 21.10.2021
5808 Clouds 21 1020 58 10000 0.89 186 15:33 21.10.2021
5809 Clouds 22 1020 56 10000 0.89 183 14:57 21.10.2021
5810 Clouds 21 1020 57 10000 0.89 194 14:37 21.10.2021
5811 Clouds 20 1023 62 10000 1.34 225 11:59 21.10.2021
5812 Clouds 19 1025 65 10000 0.45 128 09:55 21.10.2021
5813 Clouds 16 1025 71 10000 0.45 128 08:20 21.10.2021
5814 Clouds 13 1021 76 10000 0.45 19 06:54 21.10.2021
5815 Clear 15 1023 71 10000 0.45 60 00:51 21.10.2021
5816 Clear 15 1023 69 10000 0.89 33 22:36 20.10.2021
5817 Clear 15 1023 68 10000 1.34 360 21:50 20.10.2021
5818 Clear 16 1025 67 10000 1.79 360 21:18 20.10.2021
5819 Clear 16 1025 66 10000 1.79 355 20:39 20.10.2021
5820 Clouds 16 1025 65 10000 1.79 31 20:21 20.10.2021
5821 Clouds 17 1025 61 10000 2.68 19 19:26 20.10.2021
5822 Clouds 17 1025 58 10000 1.34 9 18:45 20.10.2021
5823 Clouds 18 1025 55 10000 2.24 44 17:36 20.10.2021
5824 Clouds 20 1025 47 10000 2.24 321 14:56 20.10.2021
5825 Clouds 18 1029 66 10000 1.79 315 09:57 20.10.2021
5826 Clouds 15 1024 79 10000 0.45 360 07:43 20.10.2021
5827 Clear 14 1024 76 10000 0.45 13 02:38 20.10.2021
5828 Clear 15 1024 75 10000 0.89 53 00:34 20.10.2021
5829 Clear 15 1025 74 10000 1.79 318 22:58 19.10.2021
5830 Clear 16 1026 70 10000 1.34 5 21:38 19.10.2021
5831 Clouds 16 1026 68 10000 1.34 119 20:29 19.10.2021
5832 Clouds 16 1026 67 10000 1.79 9 19:59 19.10.2021
5833 Clouds 16 1026 66 10000 1.34 18 19:37 19.10.2021
5834 Clouds 17 1025 63 10000 2.24 9 18:45 19.10.2021
5835 Clouds 18 1025 58 10000 2.24 11 17:52 19.10.2021
5836 Clouds 19 1025 55 10000 3.58 22 15:30 19.10.2021
5837 Clouds 20 1025 54 10000 3.13 5 14:44 19.10.2021
5838 Clouds 20 1025 54 10000 2.24 26 13:56 19.10.2021
5839 Clouds 20 1025 54 10000 3.13 22 12:24 19.10.2021
5840 Clouds 20 1027 59 10000 3.13 321 11:30 19.10.2021
5841 Clouds 19 1027 67 10000 2.24 360 09:55 19.10.2021
5842 Clouds 18 1027 73 10000 1.34 44 08:57 19.10.2021
5843 Clear 15 1021 80 10000 0.89 5 02:38 19.10.2021
5844 Clear 15 1021 79 10000 0.45 5 00:22 19.10.2021
5845 Clear 16 1023 79 10000 0.89 25 23:49 18.10.2021
5846 Clear 16 1021 78 10000 0.45 17 22:59 18.10.2021
5847 Clear 16 1023 77 10000 0.89 16 22:31 18.10.2021
5848 Clear 16 1023 77 10000 0.89 16 22:31 18.10.2021
5849 Clouds 17 1022 71 10000 0.89 17 20:53 18.10.2021
5850 Clouds 17 1022 70 10000 0.89 355 20:32 18.10.2021
5851 Clouds 17 1021 69 10000 1.34 17 19:49 18.10.2021
5852 Clouds 18 1021 67 10000 1.34 355 19:22 18.10.2021
5853 Clouds 18 1021 68 10000 0.89 15 18:49 18.10.2021
5854 Drizzle 20 1017 57 10000 3.13 10 14:58 18.10.2021
5855 Clouds 21 1020 55 10000 2.24 360 12:41 18.10.2021
5856 Clouds 19 1023 64 10000 2.68 61 10:26 18.10.2021
5857 Clouds 18 1023 69 10000 2.24 51 09:26 18.10.2021
5858 Clouds 17 1020 80 10000 1.34 5 01:35 18.10.2021
5859 Clouds 17 1019 80 10000 0.89 15 23:20 17.10.2021
5860 Clouds 17 1017 79 10000 1.34 360 21:46 17.10.2021
5861 Clouds 18 1016 76 10000 0.45 12 20:59 17.10.2021
5862 Clouds 18 1016 74 10000 1.34 360 20:31 17.10.2021
5863 Rain 18 1018 71 10000 1.34 355 19:39 17.10.2021
5864 Clouds 18 1017 70 10000 1.79 74 18:54 17.10.2021
5865 Clouds 19 1017 70 10000 1.34 5 17:32 17.10.2021
5866 Clouds 20 1019 69 10000 0.45 223 14:58 17.10.2021
5867 Clouds 20 1019 68 10000 0.89 329 14:24 17.10.2021
5868 Clouds 20 1018 66 10000 0.45 205 13:34 17.10.2021
5869 Clouds 21 1018 64 10000 0.45 190 11:54 17.10.2021
5870 Clouds 20 1020 67 10000 0.45 276 10:23 17.10.2021
5871 Clouds 19 1018 68 10000 0.45 347 09:28 17.10.2021
5872 Clouds 17 1017 82 10000 0.45 338 06:58 17.10.2021
5873 Clouds 17 1015 78 10000 1.75 22 00:52 17.10.2021
5874 Clouds 17 1015 77 10000 0.45 325 00:22 17.10.2021
5875 Clouds 18 1014 69 10000 0.89 236 21:38 16.10.2021
5876 Clouds 19 1013 66 10000 0.45 5 20:31 16.10.2021
5877 Clouds 19 1013 65 10000 1.34 315 19:45 16.10.2021
5878 Clouds 19 1013 64 10000 0.45 335 19:21 16.10.2021
5879 Clouds 19 1013 63 10000 0.89 282 18:54 16.10.2021
5880 Clouds 20 1012 61 10000 1.79 286 18:36 16.10.2021
5881 Clouds 20 1013 65 10000 1.79 288 18:18 16.10.2021
5882 Clouds 20 1012 59 10000 1.34 254 17:23 16.10.2021
5883 Clouds 22 1010 50 10000 0.89 294 14:52 16.10.2021
5884 Clear 21 1009 51 10000 1.34 206 11:52 16.10.2021
5885 Clouds 21 1010 59 10000 1.34 189 10:43 16.10.2021
5886 Clouds 18 1011 73 10000 0.89 135 08:20 16.10.2021
5887 Clouds 17 1009 71 10000 3.58 241 01:25 16.10.2021
5888 Clouds 17 1009 70 10000 3.13 240 23:55 15.10.2021
5889 Clouds 18 1009 71 10000 3.58 222 23:20 15.10.2021
5890 Clouds 18 1009 73 10000 2.24 249 22:19 15.10.2021
5891 Clouds 18 1009 81 10000 0.89 234 21:26 15.10.2021
5892 Clouds 18 1009 83 10000 1.34 211 20:47 15.10.2021
5893 Clouds 18 1010 86 10000 0.45 200 19:37 15.10.2021
5894 Clouds 18 1008 85 10000 0.89 135 18:40 15.10.2021
5895 Clouds 20 1004 78 10000 2.24 197 16:29 15.10.2021
5896 Clouds 20 1003 83 10000 1.79 172 15:36 15.10.2021
5897 Clouds 20 1004 88 8312 0.89 192 13:31 15.10.2021
5898 Clouds 22 1005 69 10000 2.68 104 11:36 15.10.2021
5899 Clouds 22 1007 73 10000 2.24 182 10:57 15.10.2021
5900 Clouds 20 1010 81 10000 1.79 164 09:49 15.10.2021
5901 Rain 18 1008 92 10000 0.45 140 05:44 15.10.2021
5902 Thunderstorm 18 1010 94 3000 1.34 121 01:48 15.10.2021
5903 Clouds 18 1011 93 5652 0.89 96 00:22 15.10.2021
5904 Clouds 17 1011 94 10000 0.89 18 22:52 14.10.2021
5905 Clouds 17 1011 94 10000 0.45 38 21:45 14.10.2021
5906 Clouds 17 1011 94 10000 0.89 78 20:50 14.10.2021
5907 Clouds 17 1011 94 10000 0.89 78 20:50 14.10.2021
5908 Clouds 17 1011 94 10000 0.45 5 20:19 14.10.2021
5909 Clouds 17 1011 94 10000 0.89 135 19:38 14.10.2021
5910 Rain 17 1011 95 5000 0.89 135 17:37 14.10.2021
5911 Thunderstorm 17 1012 95 3000 0.89 135 16:56 14.10.2021
5912 Rain 18 1013 96 3000 0.89 135 16:21 14.10.2021
5913 Clouds 18 1008 94 10000 0.89 57 14:43 14.10.2021
5914 Clouds 18 1007 95 10000 3.6 70 14:22 14.10.2021
5915 Rain 19 1009 93 10000 1.34 229 11:50 14.10.2021
5916 Rain 19 1013 91 10000 0.89 314 09:57 14.10.2021
5917 Clouds 18 1013 90 10000 0.45 158 07:32 14.10.2021
5918 Clear 18 1013 88 10000 0.45 150 02:41 14.10.2021
5919 Clear 18 1013 85 10000 0.89 29 00:29 14.10.2021
5920 Clouds 19 1013 76 10000 0.45 150 22:29 13.10.2021
5921 Clouds 19 1013 76 10000 0.45 124 21:33 13.10.2021
5922 Clouds 19 1013 76 10000 0.89 165 20:22 13.10.2021
5923 Clouds 19 1013 75 10000 1.34 130 18:59 13.10.2021
5924 Clouds 20 1013 74 10000 1.34 153 18:36 13.10.2021
5925 Clouds 22 1012 59 10000 1.34 207 15:32 13.10.2021
5926 Clouds 22 1012 57 10000 1.34 190 14:46 13.10.2021
5927 Clouds 22 1011 57 10000 1.34 157 14:22 13.10.2021
5928 Clouds 22 1012 51 10000 1.79 231 12:23 13.10.2021
5929 Clouds 22 1012 50 10000 0.89 178 11:35 13.10.2021
5930 Clouds 19 1012 62 10000 0.45 17 08:57 13.10.2021
5931 Clouds 17 1008 71 10000 0.45 52 07:43 13.10.2021
5932 Clear 16 1008 78 10000 0.89 209 02:30 13.10.2021
5933 Clouds 16 1008 77 10000 0.89 14 01:47 13.10.2021
5934 Clouds 16 1007 76 10000 1.79 194 23:31 12.10.2021
5935 Clear 16 1007 75 10000 0.89 349 22:47 12.10.2021
5936 Clear 17 1007 75 10000 0.89 346 22:23 12.10.2021
5937 Clear 17 1006 72 10000 0.45 150 20:48 12.10.2021
5938 Clouds 17 1006 72 10000 0.89 244 20:19 12.10.2021
5939 Clouds 18 1005 65 10000 0.45 227 18:57 12.10.2021
5940 Clouds 18 1005 63 10000 1.79 317 18:18 12.10.2021
5941 Clouds 20 1006 52 10000 2.68 280 16:44 12.10.2021
5942 Clouds 20 1006 53 10000 2.24 274 16:18 12.10.2021
5943 Clouds 19 1006 57 10000 3.58 355 14:51 12.10.2021
5944 Rain 19 1007 65 10000 4.47 274 13:45 12.10.2021
5945 Clouds 21 1007 61 10000 0.89 217 12:40 12.10.2021
5946 Clouds 21 1007 61 10000 0.89 217 12:40 12.10.2021
5947 Rain 19 1008 77 10000 0.45 234 10:38 12.10.2021
5948 Clouds 18 1005 76 10000 0.89 265 08:49 12.10.2021
5949 Clear 18 1005 82 10000 0.45 274 07:54 12.10.2021
5950 Clouds 18 1005 86 10000 0.45 251 06:42 12.10.2021
5951 Clear 17 1005 86 10000 0.89 67 04:35 12.10.2021
5952 Clear 19 1007 84 10000 0.89 56 01:30 12.10.2021
5953 Clear 19 1008 82 10000 1.79 155 23:41 11.10.2021
5954 Clear 19 1008 84 10000 2.81 273 22:59 11.10.2021
5955 Clear 19 1009 84 10000 1.34 176 22:29 11.10.2021
5956 Clouds 20 1009 86 10000 1.34 186 21:19 11.10.2021
5957 Clouds 20 1009 84 10000 0.45 18 19:46 11.10.2021
5958 Clouds 21 1009 83 10000 0.45 348 18:59 11.10.2021
5959 Clouds 21 1009 78 10000 0.89 25 18:18 11.10.2021
5960 Clouds 24 1011 69 9000 0.89 161 16:39 11.10.2021
5961 Clouds 25 1011 66 10000 1.79 180 16:19 11.10.2021
5962 Clouds 26 1012 64 10000 1.79 198 15:37 11.10.2021
5963 Clouds 25 1013 62 10000 1.79 211 14:53 11.10.2021
5964 Clouds 25 1015 63 10000 1.79 186 13:39 11.10.2021
5965 Clouds 24 1015 70 10000 1.79 203 12:20 11.10.2021
5966 Clouds 23 1016 77 10000 0.45 184 10:49 11.10.2021
5967 Clouds 22 1016 87 10000 2.24 244 09:44 11.10.2021
5968 Clouds 21 1015 93 10000 0.89 202 07:56 11.10.2021
5969 Clouds 19 1015 90 10000 0.89 113 01:42 11.10.2021
5970 Clouds 19 1016 89 10000 0.45 204 00:53 11.10.2021
5971 Clouds 19 1016 89 10000 0.89 5 00:31 11.10.2021
5972 Clouds 18 1017 88 10000 0.45 62 22:22 10.10.2021
5973 Clouds 18 1017 89 10000 0.89 150 21:35 10.10.2021
5974 Clouds 18 1017 88 10000 0.89 92 20:48 10.10.2021
5975 Rain 18 1014 84 10000 1.34 107 20:22 10.10.2021
5976 Clouds 19 1016 83 10000 0.45 360 19:59 10.10.2021
5977 Clouds 19 1016 82 10000 2.24 334 19:38 10.10.2021
5978 Clouds 21 1013 76 10000 0.45 105 18:37 10.10.2021
5979 Clouds 22 1014 69 10000 0.45 201 17:50 10.10.2021
5980 Clouds 24 1015 68 6111 0.89 187 15:47 10.10.2021
5981 Clouds 23 1015 74 10000 0.45 201 14:44 10.10.2021
5982 Clouds 22 1016 80 10000 1.34 196 13:34 10.10.2021
5983 Rain 21 1016 85 10000 0.89 165 12:41 10.10.2021
5984 Rain 21 1014 86 10000 0.45 360 10:55 10.10.2021
5985 Clouds 22 1015 77 10000 2.68 143 09:51 10.10.2021
5986 Clouds 21 1015 79 10000 1.34 11 08:54 10.10.2021
5987 Clouds 20 1015 87 10000 1.34 126 07:56 10.10.2021
5988 Clouds 19 1015 90 10000 0.89 35 03:47 10.10.2021
5989 Clouds 19 1015 91 10000 0.45 117 01:39 10.10.2021
5990 Clouds 19 1018 92 10000 0.45 45 00:37 10.10.2021
5991 Clouds 19 1017 91 10000 1.34 3 23:22 09.10.2021
5992 Clouds 19 1017 91 10000 0.45 35 21:52 09.10.2021
5993 Clouds 20 1017 90 10000 0.89 19 21:29 09.10.2021
5994 Clouds 20 1016 84 6000 0.45 181 19:46 09.10.2021
5995 Clouds 20 1016 81 6000 1.34 71 19:22 09.10.2021
5996 Clouds 21 1016 75 10000 0.45 214 18:34 09.10.2021
5997 Clouds 22 1017 74 10000 0.45 202 17:43 09.10.2021
5998 Clouds 22 1015 73 10000 0.45 241 16:19 09.10.2021
5999 Clouds 23 1015 67 10000 0.89 197 13:47 09.10.2021
6000 Clouds 23 1015 65 10000 2.24 204 13:24 09.10.2021
6001 Clouds 23 1015 70 10000 0.89 143 11:56 09.10.2021
6002 Clouds 22 1015 74 10000 1.79 199 10:43 09.10.2021
6003 Clouds 21 1015 80 10000 0.45 58 09:54 09.10.2021
6004 Clouds 20 1013 82 10000 0.45 343 08:33 09.10.2021
6005 Clouds 19 1014 85 10000 0.89 17 07:49 09.10.2021
6006 Clouds 19 1014 85 10000 0.89 17 07:49 09.10.2021
6007 Clouds 18 1014 89 10000 1.79 13 05:55 09.10.2021
6008 Clear 18 1014 88 10000 0.45 2 04:31 09.10.2021
6009 Clear 17 1014 87 10000 0.89 22 02:43 09.10.2021
6010 Clear 18 1014 87 10000 1.79 48 23:58 08.10.2021
6011 Clouds 18 1015 86 10000 1.34 4 23:31 08.10.2021
6012 Rain 19 1015 85 10000 0.89 22 22:42 08.10.2021
6013 Clear 19 1014 83 10000 0.45 57 21:43 08.10.2021
6014 Clouds 19 1014 89 10000 0.45 17 19:47 08.10.2021
6015 Clouds 20 1013 87 10000 0.89 9 18:19 08.10.2021
6016 Rain 20 1014 87 10000 0.89 77 16:54 08.10.2021
6017 Rain 21 1014 82 8000 0.45 347 16:24 08.10.2021
6018 Clouds 22 1013 77 10000 1.34 11 14:20 08.10.2021
6019 Clouds 21 1014 79 10000 0.89 212 13:41 08.10.2021
6020 Clouds 19 1014 83 10000 0.89 181 11:41 08.10.2021
6021 Clouds 19 1014 80 10000 1.79 127 10:42 08.10.2021
6022 Clouds 19 1014 79 10000 0.89 271 09:46 08.10.2021
6023 Clear 17 1015 70 10000 0.89 10 03:36 08.10.2021
6024 Clouds 18 1016 70 10000 0.45 15 23:22 07.10.2021
6025 Clouds 18 1016 68 10000 0.89 323 21:48 07.10.2021
6026 Clouds 18 1016 69 10000 0.89 5 21:28 07.10.2021
6027 Clouds 19 1016 68 10000 1.34 11 20:29 07.10.2021
6028 Clouds 19 1017 68 10000 1.79 5 19:32 07.10.2021
6029 Clouds 19 1016 66 10000 1.79 14 18:40 07.10.2021
6030 Clouds 20 1015 61 10000 1.34 355 17:27 07.10.2021
6031 Clouds 22 1016 55 10000 0.45 103 16:24 07.10.2021
6032 Clouds 23 1014 48 10000 0.89 208 14:48 07.10.2021
6033 Clouds 23 1014 47 10000 1.34 200 13:43 07.10.2021
6034 Clouds 22 1014 48 10000 0.89 249 12:53 07.10.2021
6035 Clouds 21 1015 53 10000 2.24 355 10:58 07.10.2021
6036 Clouds 20 1015 56 10000 3.13 326 10:22 07.10.2021
6037 Clouds 20 1016 59 10000 4.02 355 09:42 07.10.2021
6038 Clouds 19 1016 61 10000 2.68 5 08:53 07.10.2021
6039 Clouds 17 1017 67 10000 3.13 23 07:58 07.10.2021
6040 Clouds 17 1017 68 10000 4.02 54 07:38 07.10.2021
6041 Clouds 16 1018 70 10000 2.24 355 06:36 07.10.2021
6042 Clear 17 1018 63 10000 2.24 360 00:48 07.10.2021
6043 Clear 17 1020 62 10000 3.58 32 23:18 06.10.2021
6044 Clear 17 1020 61 10000 4.02 18 22:24 06.10.2021
6045 Clear 18 1020 60 10000 3.13 44 21:26 06.10.2021
6046 Clear 18 1020 57 10000 2.68 16 20:28 06.10.2021
6047 Clear 19 1019 52 10000 2.68 79 18:59 06.10.2021
6048 Clouds 21 1017 48 10000 3.58 19 17:26 06.10.2021
6049 Clouds 23 1018 45 10000 2.68 355 15:37 06.10.2021
6050 Clouds 23 1021 44 10000 2.24 66 14:41 06.10.2021
6051 Clouds 23 1019 45 10000 3.13 22 13:24 06.10.2021
6052 Clouds 22 1020 47 10000 2.68 36 12:46 06.10.2021
6053 Clouds 22 1020 47 10000 2.68 38 12:24 06.10.2021
6054 Clouds 21 1020 51 10000 3.13 10 11:23 06.10.2021
6055 Clouds 20 1021 55 10000 3.58 5 09:40 06.10.2021
6056 Clouds 19 1021 59 10000 3.13 345 08:58 06.10.2021
6057 Clouds 18 1020 60 10000 3.58 360 08:30 06.10.2021
6058 Clouds 17 1021 68 10000 1.34 30 05:56 06.10.2021
6059 Clear 17 1020 62 10000 1.34 36 01:56 06.10.2021
6060 Clear 18 1020 59 10000 2.68 327 00:22 06.10.2021
6061 Clear 18 1021 58 10000 4.02 18 23:51 05.10.2021
6062 Clear 18 1022 55 10000 4.47 17 23:29 05.10.2021
6063 Clear 18 1022 57 10000 3.13 355 22:31 05.10.2021
6064 Clear 18 1022 61 10000 2.68 5 21:56 05.10.2021
6065 Clear 18 1022 61 10000 2.24 12 21:56 05.10.2021
6066 Clear 18 1021 60 10000 3.13 69 21:20 05.10.2021
6067 Clear 19 1021 51 10000 4.02 348 20:26 05.10.2021
6068 Clear 19 1020 52 10000 4.02 329 19:50 05.10.2021
6069 Clear 19 1020 54 10000 4.47 355 19:23 05.10.2021
6070 Clear 20 1020 53 10000 4.02 10 18:20 05.10.2021
6071 Clouds 23 1018 43 10000 2.68 348 15:33 05.10.2021
6072 Clouds 24 1019 42 10000 3.13 11 13:49 05.10.2021
6073 Clouds 24 1019 42 10000 2.68 351 13:22 05.10.2021
6074 Clouds 24 1020 44 10000 2.68 341 12:33 05.10.2021
6075 Clouds 23 1021 47 10000 3.13 49 11:41 05.10.2021
6076 Clouds 22 1021 51 10000 3.13 90 10:34 05.10.2021
6077 Clouds 17 1022 63 10000 0.45 332 07:38 05.10.2021
6078 Clear 17 1021 52 10000 1.34 22 01:46 05.10.2021
6079 Clear 18 1022 48 10000 0.89 70 22:56 04.10.2021
6080 Clear 19 1021 46 10000 1.79 5 21:27 04.10.2021
6081 Clouds 20 1021 51 10000 1.34 80 18:51 04.10.2021
6082 Clouds 22 1020 44 10000 2.24 12 17:29 04.10.2021
6083 Clouds 24 1020 40 10000 2.68 128 15:33 04.10.2021
6084 Clouds 24 1020 40 10000 4.02 19 14:46 04.10.2021
6085 Clouds 24 1020 41 10000 3.13 71 14:18 04.10.2021
6086 Clouds 24 1019 39 10000 3.58 9 13:31 04.10.2021
6087 Clouds 24 1021 41 10000 3.13 71 12:50 04.10.2021
6088 Clouds 23 1021 43 10000 4.47 360 11:34 04.10.2021
6089 Clouds 22 1021 45 10000 4.47 5 10:47 04.10.2021
6090 Clouds 21 1021 49 10000 4.02 16 09:44 04.10.2021
6091 Clouds 17 1023 64 10000 1.34 61 07:53 04.10.2021
6092 Clouds 17 1022 66 10000 0.89 238 06:50 04.10.2021
6093 Clouds 17 1022 53 10000 1.79 348 23:38 03.10.2021
6094 Clouds 17 1021 54 10000 1.34 5 21:56 03.10.2021
6095 Clouds 18 1020 53 10000 0.89 5 21:34 03.10.2021
6096 Clouds 18 1020 54 10000 1.79 13 20:49 03.10.2021
6097 Clear 19 1021 53 10000 1.34 309 19:49 03.10.2021
6098 Clear 20 1021 50 10000 1.79 18 18:30 03.10.2021
6099 Clouds 21 1019 47 10000 2.68 24 17:37 03.10.2021
6100 Clouds 23 1019 45 10000 3.13 96 15:30 03.10.2021
6101 Clouds 23 1019 45 10000 3.13 355 14:31 03.10.2021
6102 Clouds 22 1020 46 10000 3.58 36 13:36 03.10.2021
6103 Clouds 22 1020 48 10000 3.13 360 12:50 03.10.2021
6104 Clouds 22 1020 47 10000 2.68 347 11:40 03.10.2021
6105 Clouds 20 1020 50 10000 3.13 40 10:21 03.10.2021
6106 Clouds 17 1020 63 10000 2.24 28 07:39 03.10.2021
6107 Clear 18 1021 58 10000 1.79 5 23:50 02.10.2021
6108 Clear 18 1021 59 10000 2.24 25 22:18 02.10.2021
6109 Clear 18 1021 56 10000 2.68 321 20:34 02.10.2021
6110 Clouds 19 1020 54 10000 1.79 330 18:57 02.10.2021
6111 Clouds 19 1020 52 10000 3.13 292 18:27 02.10.2021
6112 Clouds 19 1020 51 10000 3.13 45 17:38 02.10.2021
6113 Clouds 19 1018 49 10000 3.58 5 16:39 02.10.2021
6114 Clouds 21 1017 42 10000 4.02 360 14:35 02.10.2021
6115 Clouds 23 1017 42 10000 3.58 47 15:38 30.09.2021
6116 Clouds 23 1017 43 10000 4.02 5 14:29 30.09.2021
6117 Clouds 23 1020 42 10000 4.02 28 11:59 30.09.2021
6118 Clouds 23 1018 42 10000 4.02 153 11:25 30.09.2021
6119 Clouds 22 1019 44 10000 7.15 360 10:26 30.09.2021
6120 Clouds 20 1019 59 10000 3.13 19 08:32 30.09.2021
6121 Clouds 19 1019 62 10000 4.92 17 07:48 30.09.2021
6122 Clouds 19 1020 60 10000 4.02 346 05:25 30.09.2021
6123 Clouds 20 1020 56 10000 3.58 59 02:33 30.09.2021
6124 Clouds 20 1020 61 10000 3.13 44 00:35 30.09.2021
6125 Clouds 20 1019 62 10000 3.58 11 22:48 29.09.2021
6126 Clouds 21 1019 60 10000 4.47 47 21:52 29.09.2021
6127 Clouds 21 1019 58 10000 3.13 5 20:40 29.09.2021
6128 Clouds 21 1019 58 10000 4.02 22 20:20 29.09.2021
6129 Clouds 21 1019 59 10000 3.58 355 19:24 29.09.2021
6130 Clouds 22 1018 53 10000 3.58 49 18:18 29.09.2021
6131 Clouds 24 1016 49 10000 4.47 51 16:56 29.09.2021
6132 Clouds 25 1016 47 10000 3.13 5 16:27 29.09.2021
6133 Clouds 25 1016 44 10000 4.02 30 15:35 29.09.2021
6134 Clouds 25 1016 44 10000 3.58 16 14:37 29.09.2021
6135 Clouds 25 1017 43 10000 3.58 78 13:33 29.09.2021
6136 Clouds 25 1017 43 10000 3.58 355 12:38 29.09.2021
6137 Clouds 24 1017 49 10000 3.58 113 11:23 29.09.2021
6138 Clouds 24 1017 54 10000 2.68 5 10:31 29.09.2021
6139 Clouds 23 1018 58 10000 3.58 49 09:42 29.09.2021
6140 Clouds 21 1017 63 10000 3.13 33 07:52 29.09.2021
6141 Clouds 20 1017 69 10000 2.68 346 06:46 29.09.2021
6142 Clouds 22 1017 62 10000 3.58 17 00:28 29.09.2021
6143 Clouds 22 1017 55 10000 3.13 12 22:45 28.09.2021
6144 Clouds 22 1017 54 10000 2.68 355 22:22 28.09.2021
6145 Clouds 23 1016 50 10000 3.13 17 21:21 28.09.2021
6146 Clouds 24 1016 49 10000 2.68 19 19:49 28.09.2021
6147 Clouds 24 1016 49 10000 2.68 340 19:29 28.09.2021
6148 Clouds 25 1016 49 10000 2.68 13 18:41 28.09.2021
6149 Clouds 27 1014 47 10000 0.45 15 16:57 28.09.2021
6150 Clouds 28 1014 42 10000 1.79 221 15:21 28.09.2021
6151 Clear 28 1014 40 10000 1.34 9 13:27 28.09.2021
6152 Clear 28 1014 38 10000 2.24 325 12:25 28.09.2021
6153 Clear 28 1014 38 10000 1.79 32 11:51 28.09.2021
6154 Clear 27 1014 39 10000 2.68 20 11:32 28.09.2021
6155 Clear 26 1015 41 10000 2.24 351 10:30 28.09.2021
6156 Clouds 25 1015 46 10000 2.68 130 09:29 28.09.2021
6157 Clouds 24 1017 49 10000 1.79 24 08:44 28.09.2021
6158 Clouds 24 1016 51 10000 1.79 17 08:25 28.09.2021
6159 Clear 22 1016 56 10000 1.34 92 06:46 28.09.2021
6160 Clear 22 1016 53 10000 0.45 23 02:56 28.09.2021
6161 Clear 23 1016 52 10000 0.45 174 00:34 28.09.2021
6162 Clear 23 1016 52 10000 2.06 360 23:52 27.09.2021
6163 Clear 23 1016 50 10000 2.06 350 23:27 27.09.2021
6164 Clear 24 1016 49 10000 0.45 330 22:44 27.09.2021
6165 Clear 24 1016 48 10000 0.89 290 21:39 27.09.2021
6166 Clear 25 1015 46 10000 0.45 11 20:33 27.09.2021
6167 Clear 26 1015 44 10000 0.45 15 19:40 27.09.2021
6168 Clear 27 1014 42 10000 0.45 360 18:55 27.09.2021
6169 Clear 28 1015 39 10000 0.89 355 18:24 27.09.2021
6170 Clear 29 1014 36 10000 1.34 192 17:22 27.09.2021
6171 Clear 30 1015 34 10000 0.89 223 16:39 27.09.2021
6172 Clear 30 1015 33 10000 1.34 234 15:40 27.09.2021
6173 Clear 31 1014 34 10000 1.34 196 13:58 27.09.2021
6174 Clear 31 1016 32 10000 0.89 206 12:59 27.09.2021
6175 Clear 29 1015 34 10000 1.34 24 10:52 27.09.2021
6176 Clear 28 1016 35 10000 1.79 209 09:50 27.09.2021
6177 Clear 24 1015 42 10000 0.45 300 08:32 27.09.2021
6178 Clear 21 1017 51 10000 0.89 33 05:18 27.09.2021
6179 Clear 22 1018 52 10000 0.45 13 01:48 27.09.2021
6180 Clear 23 1018 43 10000 0.89 39 22:28 26.09.2021
6181 Clear 23 1018 43 10000 0.45 133 21:45 26.09.2021
6182 Clear 24 1018 41 10000 1.34 32 20:52 26.09.2021
6183 Clear 25 1018 40 10000 0.89 7 20:20 26.09.2021
6184 Clear 25 1018 40 10000 0.89 7 20:20 26.09.2021
6185 Clear 25 1018 39 10000 1.79 27 19:38 26.09.2021
6186 Clear 26 1018 37 10000 0.45 254 18:45 26.09.2021
6187 Clear 28 1017 35 10000 0.89 268 17:50 26.09.2021
6188 Clear 29 1018 33 10000 1.34 205 17:21 26.09.2021
6189 Clear 29 1017 33 10000 0.89 191 16:30 26.09.2021
6190 Clear 29 1017 32 10000 0.89 223 15:57 26.09.2021
6191 Clear 30 1018 31 10000 0.45 149 14:46 26.09.2021
6192 Clear 30 1020 29 10000 1.34 88 13:54 26.09.2021
6193 Clear 30 1019 30 10000 1.34 13 12:56 26.09.2021
6194 Clear 29 1020 29 10000 1.34 14 12:20 26.09.2021
6195 Clear 29 1020 30 10000 2.24 315 11:37 26.09.2021
6196 Clear 28 1022 34 10000 2.68 360 10:23 26.09.2021
6197 Clear 25 1022 33 10000 2.68 55 08:56 26.09.2021
6198 Clear 20 1021 43 10000 0.45 39 06:36 26.09.2021
6199 Clear 20 1021 64 10000 0.45 203 00:22 26.09.2021
6200 Clear 21 1021 62 10000 0.89 188 23:26 25.09.2021
6201 Clear 21 1021 60 10000 0.89 40 22:38 25.09.2021
6202 Clear 21 1021 55 10000 1.34 64 21:55 25.09.2021
6203 Clear 22 1021 57 10000 1.34 59 21:31 25.09.2021
6204 Clear 22 1021 56 10000 0.45 247 20:48 25.09.2021
6205 Clear 24 1020 51 10000 0.45 207 18:59 25.09.2021
6206 Clear 25 1020 47 10000 0.45 204 18:24 25.09.2021
6207 Clear 28 1021 34 10000 1.34 140 15:48 25.09.2021
6208 Clear 29 1020 29 10000 1.79 244 13:57 25.09.2021
6209 Clear 29 1020 28 10000 1.34 227 13:31 25.09.2021
6210 Clear 29 1021 29 10000 1.34 222 12:27 25.09.2021
6211 Clear 26 1019 36 10000 0.45 145 10:34 25.09.2021
6212 Clear 25 1019 41 10000 0.45 311 09:40 25.09.2021
6213 Clear 22 1020 50 10000 0.45 5 08:20 25.09.2021
6214 Clear 17 1018 63 10000 0.89 5 05:51 25.09.2021
6215 Clear 19 1018 59 10000 0.89 45 23:55 24.09.2021
6216 Clear 20 1018 57 10000 0.89 90 21:50 24.09.2021
6217 Clear 20 1018 54 10000 0.45 161 20:39 24.09.2021
6218 Clear 21 1018 53 10000 0.45 193 19:48 24.09.2021
6219 Clear 22 1017 47 10000 1.34 198 18:35 24.09.2021
6220 Clear 24 1015 39 10000 0.89 192 17:55 24.09.2021
6221 Clear 24 1015 37 10000 1.34 205 17:37 24.09.2021
6222 Clear 24 1018 34 10000 0.89 193 17:18 24.09.2021
6223 Clear 25 1019 32 10000 0.89 203 14:31 24.09.2021
6224 Clear 24 1019 33 10000 1.34 211 13:18 24.09.2021
6225 Clear 24 1019 33 10000 1.34 257 12:40 24.09.2021
6226 Clear 24 1019 34 10000 1.79 252 12:22 24.09.2021
6227 Clear 22 1018 41 10000 1.34 310 10:27 24.09.2021
6228 Clear 20 1019 45 10000 1.34 24 08:55 24.09.2021
6229 Clear 17 1020 52 10000 0.89 22 07:39 24.09.2021
6230 Clouds 15 1019 59 10000 1.79 66 06:47 24.09.2021
6231 Clear 15 1019 58 10000 2.57 330 04:58 24.09.2021
6232 Clear 16 1019 58 10000 0.89 2 00:44 24.09.2021
6233 Clear 17 1019 57 10000 0.45 54 22:35 23.09.2021
6234 Clear 17 1019 57 10000 0.89 20 21:56 23.09.2021
6235 Clouds 17 1019 57 10000 0.45 34 20:36 23.09.2021
6236 Clouds 17 1019 57 10000 0.89 44 20:18 23.09.2021
6237 Clouds 19 1016 49 10000 1.79 355 18:22 23.09.2021
6238 Clouds 20 1016 51 10000 2.24 348 15:36 23.09.2021
6239 Clouds 20 1016 52 10000 1.79 32 15:18 23.09.2021
6240 Clouds 19 1016 56 10000 2.24 44 13:49 23.09.2021
6241 Clouds 19 1017 58 10000 1.34 37 13:22 23.09.2021
6242 Clouds 19 1017 58 10000 2.24 72 12:53 23.09.2021
6243 Clouds 19 1016 59 10000 1.34 342 12:23 23.09.2021
6244 Clouds 19 1016 58 10000 1.79 26 11:47 23.09.2021
6245 Clouds 18 1017 63 10000 2.24 73 10:27 23.09.2021
6246 Clouds 18 1017 64 10000 1.79 35 09:53 23.09.2021
6247 Clouds 17 1015 68 10000 3.58 51 08:31 23.09.2021
6248 Clouds 17 1014 70 10000 0.89 30 05:27 23.09.2021
6249 Clouds 21 1012 65 10000 1.79 59 23:45 22.09.2021
6250 Clouds 21 1012 64 10000 1.79 48 22:42 22.09.2021
6251 Clouds 22 1012 65 10000 1.79 43 21:57 22.09.2021
6252 Clear 22 1012 64 10000 0.45 119 21:34 22.09.2021
6253 Clear 22 1012 63 10000 1.79 54 20:57 22.09.2021
6254 Clouds 23 1013 60 10000 1.79 38 19:33 22.09.2021
6255 Clouds 23 1013 57 10000 1.34 118 18:46 22.09.2021
6256 Clouds 24 1013 58 10000 0.89 113 18:22 22.09.2021
6257 Clouds 25 1013 54 10000 0.45 106 16:41 22.09.2021
6258 Clouds 26 1012 55 10000 1.34 71 15:38 22.09.2021
6259 Clouds 26 1014 51 10000 0.89 59 14:25 22.09.2021
6260 Clouds 26 1013 53 10000 0.45 28 12:20 22.09.2021
6261 Clouds 26 1014 54 10000 0.45 47 10:57 22.09.2021
6262 Clouds 24 1014 61 10000 0.89 36 09:29 22.09.2021
6263 Clouds 23 1015 69 10000 0.89 51 08:31 22.09.2021
6264 Clouds 23 1017 73 10000 0.45 32 07:30 22.09.2021
6265 Clouds 22 1016 73 10000 0.45 51 06:19 22.09.2021
6266 Clouds 22 1016 74 10000 0.45 70 05:38 22.09.2021
6267 Clouds 23 1016 72 10000 3.58 41 03:53 22.09.2021
6268 Clouds 23 1016 70 10000 2.24 43 02:43 22.09.2021
6269 Clouds 24 1017 66 10000 1.79 38 23:30 21.09.2021
6270 Clear 25 1017 66 10000 3.13 50 21:47 21.09.2021
6271 Clouds 25 1017 66 10000 3.58 48 20:27 21.09.2021
6272 Clouds 26 1016 60 10000 2.24 29 19:24 21.09.2021
6273 Clouds 28 1015 52 10000 0.45 92 17:59 21.09.2021
6274 Clouds 29 1014 48 10000 0.89 91 16:40 21.09.2021
6275 Clouds 30 1016 43 10000 3.58 140 15:56 21.09.2021
6276 Clouds 32 1016 36 10000 3.13 236 14:58 21.09.2021
6277 Clear 32 1016 34 10000 2.68 151 13:57 21.09.2021
6278 Clear 32 1016 35 10000 3.13 160 13:39 21.09.2021
6279 Clouds 32 1017 35 10000 1.79 161 12:44 21.09.2021
6280 Clear 31 1015 29 10000 0 0 10:39 21.09.2021
6281 Clear 29 1015 42 10000 0 0 08:45 21.09.2021
6282 Clear 26 1015 57 10000 0 0 07:37 21.09.2021
6283 Clear 27 1014 54 10000 4.63 360 01:54 21.09.2021
6284 Clouds 27 1014 54 10000 4.63 360 01:54 21.09.2021
6285 Clear 28 1013 47 10000 2.57 290 22:50 20.09.2021
6286 Clear 29 1012 37 10000 1.54 0 21:43 20.09.2021
6287 Clear 30 1012 32 10000 1.54 0 21:24 20.09.2021
6288 Clear 30 1012 42 10000 3.13 192 19:47 20.09.2021
6289 Clear 32 1012 37 10000 3.13 223 17:54 20.09.2021
6290 Clear 33 1011 36 10000 3.58 211 16:58 20.09.2021
6291 Clear 33 1011 35 10000 3.13 169 16:23 20.09.2021
6292 Clear 34 1012 37 10000 3.13 231 15:36 20.09.2021
6293 Clear 35 1012 29 10000 2.68 200 14:27 20.09.2021
6294 Clear 34 1013 30 10000 2.68 281 12:44 20.09.2021
6295 Clear 33 1013 32 10000 2.68 212 12:24 20.09.2021
6296 Clear 32 1013 34 10000 1.34 161 10:52 20.09.2021
6297 Clear 31 1014 37 10000 2.68 166 09:51 20.09.2021
6298 Clear 30 1014 37 10000 1.34 143 09:31 20.09.2021
6299 Clear 29 1014 40 10000 1.34 143 08:47 20.09.2021
6300 Clear 24 1013 53 10000 1.34 144 06:22 20.09.2021
6301 Clear 24 1013 53 10000 1.34 144 06:22 20.09.2021
6302 Clear 24 1013 53 10000 1.34 144 06:22 20.09.2021
6303 Clear 26 1013 61 10000 0.89 175 22:58 19.09.2021
6304 Clear 27 1013 57 10000 0.89 175 21:50 19.09.2021
6305 Clear 27 1013 55 10000 0.89 229 21:19 19.09.2021
6306 Clear 28 1013 43 10000 0.45 175 19:59 19.09.2021
6307 Clear 30 1012 37 10000 0.45 175 18:53 19.09.2021
6308 Clouds 31 1012 34 10000 3.13 157 17:49 19.09.2021
6309 Clouds 33 1013 34 10000 3.58 144 16:51 19.09.2021
6310 Clouds 33 1013 36 10000 3.13 166 15:32 19.09.2021
6311 Clouds 34 1013 37 10000 3.13 178 14:49 19.09.2021
6312 Clouds 34 1013 34 10000 3.13 188 13:57 19.09.2021
6313 Clear 35 1014 29 10000 2.68 179 12:56 19.09.2021
6314 Clear 35 1014 29 10000 3.13 188 12:18 19.09.2021
6315 Clear 34 1014 30 10000 2.24 166 11:23 19.09.2021
6316 Clear 32 1015 34 10000 1.79 148 09:52 19.09.2021
6317 Clear 31 1013 38 10000 1.34 148 09:23 19.09.2021
6318 Clear 26 1014 51 10000 0.89 347 06:49 19.09.2021
6319 Clear 27 1013 45 10000 2.68 227 01:36 19.09.2021
6320 Clear 29 1013 41 10000 1.79 256 23:25 18.09.2021
6321 Clear 30 1013 40 10000 1.79 204 21:56 18.09.2021
6322 Clear 31 1012 36 10000 3.58 273 20:47 18.09.2021
6323 Clear 31 1012 32 10000 0.89 282 19:58 18.09.2021
6324 Clouds 31 1012 33 10000 1.34 227 19:36 18.09.2021
6325 Clouds 32 1012 32 10000 1.34 227 19:18 18.09.2021
6326 Clouds 33 1011 29 10000 2.68 270 18:30 18.09.2021
6327 Clear 35 1011 23 10000 3.13 288 16:35 18.09.2021
6328 Clouds 36 1011 23 10000 2.24 235 14:32 18.09.2021
6329 Clouds 36 1012 25 10000 5.81 294 13:45 18.09.2021
6330 Clouds 36 1012 26 10000 5.81 285 13:21 18.09.2021
6331 Clear 35 1012 29 10000 2.24 198 12:18 18.09.2021
6332 Clear 34 1012 32 10000 2.24 177 11:30 18.09.2021
6333 Clear 32 1012 35 10000 3.13 173 10:30 18.09.2021
6334 Clear 32 1012 35 10000 3.13 173 10:30 18.09.2021
6335 Clear 31 1012 41 10000 1.34 148 09:23 18.09.2021
6336 Clear 27 1012 49 10000 0.45 148 08:25 18.09.2021
6337 Clouds 26 1013 57 10000 1.79 167 00:53 18.09.2021
6338 Clouds 26 1014 56 10000 0.45 182 23:56 17.09.2021
6339 Clouds 26 1014 56 10000 0.45 175 22:48 17.09.2021
6340 Clouds 26 1013 56 10000 0.89 237 22:23 17.09.2021
6341 Clouds 26 1014 53 10000 0.89 175 21:33 17.09.2021
6342 Clear 27 1013 47 10000 1.34 175 19:34 17.09.2021
6343 Clear 27 1013 46 10000 1.79 184 18:40 17.09.2021
6344 Clear 30 1014 42 10000 3.13 190 16:42 17.09.2021
6345 Clear 31 1014 41 10000 3.58 191 15:21 17.09.2021
6346 Clear 31 1015 45 10000 2.24 190 11:51 17.09.2021
6347 Clear 29 1016 47 10000 2.24 176 10:21 17.09.2021
6348 Clear 25 1016 53 10000 0.89 22 07:46 17.09.2021
6349 Clouds 22 1016 56 10000 0.45 5 05:45 17.09.2021
6350 Clear 23 1017 58 10000 0.45 334 00:32 17.09.2021
6351 Clear 24 1017 59 10000 0.89 136 22:42 16.09.2021
6352 Clear 24 1017 59 10000 1.34 5 22:23 16.09.2021
6353 Clear 24 1017 59 10000 0.45 158 21:35 16.09.2021
6354 Clear 25 1018 61 10000 1.79 163 20:30 16.09.2021
6355 Clear 27 1016 52 10000 0.89 191 18:52 16.09.2021
6356 Clouds 28 1016 47 10000 0.89 191 18:18 16.09.2021
6357 Clouds 30 1016 37 10000 3.58 171 16:37 16.09.2021
6358 Clouds 32 1016 29 10000 3.13 197 14:49 16.09.2021
6359 Clouds 31 1017 34 10000 2.68 192 13:34 16.09.2021
6360 Clouds 31 1017 34 10000 2.68 188 12:45 16.09.2021
6361 Clouds 31 1017 33 10000 2.24 204 11:49 16.09.2021
6362 Clear 30 1017 33 10000 0.89 275 10:56 16.09.2021
6363 Clear 29 1016 35 10000 0.89 55 10:22 16.09.2021
6364 Clear 27 1016 38 10000 0.89 274 09:20 16.09.2021
6365 Clear 24 1018 46 10000 0.45 166 07:48 16.09.2021
6366 Clear 22 1017 48 10000 1.34 63 06:57 16.09.2021
6367 Clear 22 1018 49 10000 0.89 45 06:38 16.09.2021
6368 Clear 22 1017 49 10000 0.45 45 03:22 16.09.2021
6369 Clear 22 1017 51 10000 0.45 45 00:53 16.09.2021
6370 Clear 24 1017 53 10000 1.34 5 23:26 15.09.2021
6371 Clouds 24 1017 51 10000 0.45 315 22:28 15.09.2021
6372 Clouds 25 1017 48 10000 0.89 9 21:31 15.09.2021
6373 Clear 26 1017 44 10000 0.89 59 20:42 15.09.2021
6374 Clear 26 1016 39 10000 1.79 82 19:33 15.09.2021
6375 Clear 27 1016 38 10000 0.89 54 18:45 15.09.2021
6376 Clouds 29 1014 34 10000 0.89 53 17:39 15.09.2021
6377 Clouds 30 1015 32 10000 0.89 63 16:30 15.09.2021
6378 Clouds 30 1015 31 10000 1.34 80 15:22 15.09.2021
6379 Clouds 31 1015 30 10000 2.68 148 14:41 15.09.2021
6380 Clouds 30 1014 31 10000 4.02 163 13:45 15.09.2021
6381 Clouds 30 1014 31 10000 3.13 173 13:27 15.09.2021
6382 Clouds 30 1015 32 10000 1.34 39 12:33 15.09.2021
6383 Clear 30 1015 33 10000 1.34 22 11:50 15.09.2021
6384 Clear 29 1016 33 10000 1.34 44 10:57 15.09.2021
6385 Clear 29 1016 33 10000 0.45 57 10:30 15.09.2021
6386 Clear 27 1016 37 10000 0.45 49 08:50 15.09.2021
6387 Clear 23 1015 45 10000 2.24 28 07:26 15.09.2021
6388 Clear 23 1016 41 10000 0.45 5 00:55 15.09.2021
6389 Clear 24 1016 38 10000 0.45 149 22:24 14.09.2021
6390 Clear 25 1016 38 10000 1.34 136 21:21 14.09.2021
6391 Clear 25 1016 38 10000 0.45 355 20:18 14.09.2021
6392 Clear 26 1015 36 10000 0.45 9 18:57 14.09.2021
6393 Clouds 28 1013 30 10000 1.79 39 17:33 14.09.2021
6394 Clouds 29 1013 27 10000 1.79 355 16:37 14.09.2021
6395 Clouds 29 1012 28 10000 2.24 342 14:52 14.09.2021
6396 Clouds 29 1012 28 10000 2.24 342 14:52 14.09.2021
6397 Clouds 29 1012 29 10000 2.24 27 14:19 14.09.2021
6398 Clouds 29 1012 33 10000 2.24 11 11:46 14.09.2021
6399 Clouds 27 1013 41 10000 2.24 32 10:25 14.09.2021
6400 Clouds 27 1014 42 10000 1.34 33 09:48 14.09.2021
6401 Clouds 25 1013 48 10000 2.68 347 07:50 14.09.2021
6402 Clouds 24 1013 47 10000 0.89 360 01:28 14.09.2021
6403 Clouds 24 1013 46 10000 0.45 9 23:27 13.09.2021
6404 Clouds 24 1013 46 10000 0.45 345 22:27 13.09.2021
6405 Clouds 24 1013 45 10000 0.89 358 21:55 13.09.2021
6406 Clouds 24 1013 45 10000 0.45 340 21:32 13.09.2021
6407 Clouds 25 1012 42 10000 1.34 342 19:35 13.09.2021
6408 Clouds 25 1011 36 10000 1.34 327 18:44 13.09.2021
6409 Clouds 26 1010 35 10000 1.79 5 17:27 13.09.2021
6410 Clouds 27 1011 33 10000 1.79 348 16:49 13.09.2021
6411 Clouds 28 1010 34 10000 1.34 30 14:43 13.09.2021
6412 Clouds 27 1010 43 10000 1.79 34 11:44 13.09.2021
6413 Clouds 27 1012 43 10000 2.68 5 10:40 13.09.2021
6414 Clouds 24 1012 50 10000 3.58 238 07:58 13.09.2021
6415 Clouds 23 1011 47 10000 1.34 332 00:29 13.09.2021
6416 Clouds 23 1011 47 10000 1.79 330 22:43 12.09.2021
6417 Clouds 23 1011 46 10000 1.79 327 22:21 12.09.2021
6418 Clouds 24 1012 41 10000 0.45 350 20:53 12.09.2021
6419 Clouds 24 1011 37 10000 0.45 9 19:58 12.09.2021
6420 Clouds 25 1011 36 10000 0.45 16 19:29 12.09.2021
6421 Clouds 25 1011 35 10000 1.34 355 18:55 12.09.2021
6422 Clouds 26 1011 34 10000 0.89 5 17:18 12.09.2021
6423 Rain 26 1011 31 10000 0.89 355 15:54 12.09.2021
6424 Clouds 27 1011 33 10000 2.24 43 14:39 12.09.2021
6425 Clouds 27 1011 39 10000 1.79 42 12:39 12.09.2021
6426 Clouds 26 1010 37 10000 0.89 355 10:21 12.09.2021
6427 Clouds 25 1013 41 10000 0.45 9 08:39 12.09.2021
6428 Clouds 21 1013 48 10000 0.89 33 04:59 12.09.2021
6429 Clouds 21 1013 60 10000 1.34 64 00:47 12.09.2021
6430 Clouds 22 1014 60 10000 0.89 45 22:35 11.09.2021
6431 Clouds 22 1014 59 10000 1.79 55 21:38 11.09.2021
6432 Clouds 24 1014 55 10000 0.89 18 19:39 11.09.2021
6433 Clouds 26 1014 53 10000 0.45 88 17:56 11.09.2021
6434 Clouds 26 1015 52 10000 1.79 213 17:21 11.09.2021
6435 Clouds 27 1015 47 10000 3.58 175 15:24 11.09.2021
6436 Clouds 28 1016 43 10000 3.13 194 13:22 11.09.2021
6437 Clouds 27 1015 42 10000 0.45 20 11:41 11.09.2021
6438 Clear 25 1015 49 10000 0.89 53 09:50 11.09.2021
6439 Clear 23 1015 59 10000 0.89 64 08:31 11.09.2021
6440 Clear 21 1016 66 10000 0.45 137 07:34 11.09.2021
6441 Clear 20 1017 79 10000 0.89 49 02:52 11.09.2021
6442 Clear 21 1018 73 10000 1.34 37 22:28 10.09.2021
6443 Clear 22 1018 72 10000 0.89 20 21:56 10.09.2021
6444 Clear 22 1018 71 10000 0.89 9 21:35 10.09.2021
6445 Clouds 23 1017 63 10000 2.68 89 18:47 10.09.2021
6446 Clouds 25 1016 59 10000 1.79 69 17:42 10.09.2021
6447 Clouds 25 1017 56 10000 1.34 121 15:50 10.09.2021
6448 Clouds 26 1017 47 10000 0.45 288 13:20 10.09.2021
6449 Clouds 24 1015 53 10000 0.89 114 10:32 10.09.2021
6450 Clouds 21 1016 69 10000 0.89 25 07:52 10.09.2021
6451 Clear 19 1017 74 10000 2.68 303 05:23 10.09.2021
6452 Clouds 20 1018 69 10000 0.45 58 23:52 09.09.2021
6453 Clouds 21 1017 66 10000 2.24 349 21:47 09.09.2021
6454 Clouds 21 1017 65 10000 0.45 65 20:47 09.09.2021
6455 Clouds 21 1017 65 10000 0.89 59 20:24 09.09.2021
6456 Clouds 22 1016 63 10000 1.34 299 18:39 09.09.2021
6457 Clouds 23 1016 61 10000 3.13 294 17:41 09.09.2021
6458 Clouds 22 1014 62 10000 1.79 316 16:27 09.09.2021
6459 Clouds 22 1016 62 10000 1.79 293 13:38 09.09.2021
6460 Clouds 22 1018 63 10000 2.24 301 11:57 09.09.2021
6461 Clouds 22 1018 67 10000 1.79 302 11:22 09.09.2021
6462 Clouds 21 1017 71 10000 0.89 313 09:34 09.09.2021
6463 Clouds 21 1017 71 10000 0.89 318 09:34 09.09.2021
6464 Clouds 20 1017 76 10000 0.45 306 07:34 09.09.2021
6465 Clouds 19 1016 77 10000 1.79 354 05:40 09.09.2021
6466 Clouds 20 1017 76 10000 0.45 311 23:54 08.09.2021
6467 Clouds 20 1017 74 10000 0.89 289 21:47 08.09.2021
6468 Clouds 20 1018 74 10000 0.45 294 20:48 08.09.2021
6469 Clouds 20 1017 73 10000 0.45 321 19:46 08.09.2021
6470 Clouds 20 1017 75 10000 0.45 310 18:47 08.09.2021
6471 Clouds 21 1017 74 10000 1.79 309 17:59 08.09.2021
6472 Clouds 21 1017 75 10000 1.79 323 17:39 08.09.2021
6473 Clouds 22 1018 71 10000 2.68 319 15:21 08.09.2021
6474 Clouds 23 1017 65 10000 1.34 53 13:28 08.09.2021
6475 Clouds 23 1017 64 10000 1.79 64 12:41 08.09.2021
6476 Clouds 23 1018 64 10000 2.68 58 12:23 08.09.2021
6477 Clouds 23 1016 64 10000 1.79 69 11:26 08.09.2021
6478 Clouds 23 1016 64 10000 1.79 69 11:26 08.09.2021
6479 Clouds 23 1016 64 10000 1.79 30 10:31 08.09.2021
6480 Clouds 23 1016 64 10000 1.79 30 10:31 08.09.2021
6481 Clouds 22 1016 65 10000 1.79 34 09:55 08.09.2021
6482 Clouds 21 1016 67 10000 2.24 22 07:45 08.09.2021
6483 Clouds 21 1016 68 10000 1.79 60 06:43 08.09.2021
6484 Clouds 22 1017 61 10000 2.24 40 23:18 07.09.2021
6485 Clouds 22 1017 58 10000 2.68 35 22:19 07.09.2021
6486 Clear 23 1017 59 10000 1.34 335 20:41 07.09.2021
6487 Clouds 23 1016 58 10000 1.79 32 18:53 07.09.2021
6488 Clouds 23 1016 58 10000 1.79 24 18:28 07.09.2021
6489 Clouds 23 1016 60 10000 2.68 28 17:25 07.09.2021
6490 Clouds 24 1015 58 10000 2.24 322 15:56 07.09.2021
6491 Clouds 25 1015 56 10000 2.68 19 14:48 07.09.2021
6492 Clouds 25 1016 53 10000 2.68 337 13:52 07.09.2021
6493 Clouds 25 1016 53 10000 2.68 337 13:52 07.09.2021
6494 Clouds 24 1016 54 10000 2.68 5 11:58 07.09.2021
6495 Clouds 23 1017 56 10000 2.68 30 10:48 07.09.2021
6496 Clouds 23 1016 55 10000 2.68 55 09:40 07.09.2021
6497 Clouds 21 1016 54 10000 2.68 42 07:46 07.09.2021
6498 Clouds 21 1017 57 10000 2.24 34 06:19 07.09.2021
6499 Clouds 22 1017 65 10000 3.13 38 02:38 07.09.2021
6500 Clear 22 1017 62 10000 2.24 36 00:55 07.09.2021
6501 Clear 23 1017 59 10000 2.24 66 23:49 06.09.2021
6502 Clouds 23 1017 58 10000 2.24 52 23:30 06.09.2021
6503 Clear 23 1017 55 10000 2.24 44 22:51 06.09.2021
6504 Clouds 24 1017 49 10000 1.79 19 21:55 06.09.2021
6505 Clouds 24 1016 48 10000 1.79 42 20:34 06.09.2021
6506 Clouds 24 1017 48 10000 1.79 37 19:18 06.09.2021
6507 Clouds 24 1015 47 10000 2.68 57 18:33 06.09.2021
6508 Clouds 25 1017 45 10000 2.68 68 17:50 06.09.2021
6509 Clouds 26 1015 41 10000 2.68 343 16:20 06.09.2021
6510 Clouds 26 1015 41 10000 3.58 32 14:59 06.09.2021
6511 Clouds 26 1017 46 10000 3.58 329 12:59 06.09.2021
6512 Clear 26 1017 48 10000 3.13 24 12:41 06.09.2021
6513 Clouds 25 1015 50 10000 3.58 24 10:27 06.09.2021
6514 Clouds 23 1015 58 10000 2.24 30 07:39 06.09.2021
6515 Clouds 22 1016 59 10000 0.45 355 03:34 06.09.2021
6516 Clouds 23 1017 51 10000 1.34 14 23:23 05.09.2021
6517 Clear 23 1017 49 10000 0.45 22 22:32 05.09.2021
6518 Clear 24 1017 50 10000 0.89 51 21:55 05.09.2021
6519 Clear 24 1017 48 10000 1.34 21 21:20 05.09.2021
6520 Clouds 25 1016 39 10000 0.89 51 19:45 05.09.2021
6521 Clouds 26 1014 42 10000 2.24 34 17:52 05.09.2021
6522 Clouds 27 1012 39 10000 2.24 17 15:58 05.09.2021
6523 Clouds 28 1012 40 10000 1.79 11 15:19 05.09.2021
6524 Clouds 28 1014 41 10000 1.34 35 12:44 05.09.2021
6525 Clouds 27 1015 44 10000 1.34 45 11:31 05.09.2021
6526 Clouds 27 1015 45 10000 1.34 42 10:39 05.09.2021
6527 Clouds 26 1015 48 10000 0.89 329 09:33 05.09.2021
6528 Clouds 25 1016 50 10000 1.34 24 08:31 05.09.2021
6529 Clouds 24 1015 49 10000 0.89 176 03:52 05.09.2021
6530 Clouds 24 1015 55 10000 1.03 0 00:39 05.09.2021
6531 Clouds 24 1015 55 10000 1.34 205 23:55 04.09.2021
6532 Clouds 24 1016 55 10000 0.45 56 23:22 04.09.2021
6533 Clouds 24 1015 55 10000 0.45 136 22:34 04.09.2021
6534 Clouds 24 1015 55 10000 0.45 0 22:34 04.09.2021
6535 Clouds 24 1015 52 10000 0.89 152 20:21 04.09.2021
6536 Clouds 25 1014 52 10000 0.45 167 19:33 04.09.2021
6537 Clouds 27 1012 46 10000 3.13 71 17:21 04.09.2021
6538 Clouds 29 1015 41 10000 2.24 196 14:37 04.09.2021
6539 Clouds 27 1015 46 10000 0.89 36 11:26 04.09.2021
6540 Clouds 26 1015 47 10000 1.34 49 10:32 04.09.2021
6541 Clear 23 1015 58 10000 0.45 14 07:32 04.09.2021
6542 Clear 22 1017 57 10000 0.89 34 00:49 04.09.2021
6543 Clear 22 1017 57 10000 0.89 34 00:49 04.09.2021
6544 Clear 23 1017 59 10000 0.89 55 23:49 03.09.2021
6545 Clear 23 1017 59 10000 0.89 45 23:20 03.09.2021
6546 Clear 23 1017 58 10000 1.34 68 21:42 03.09.2021
6547 Clear 24 1017 53 10000 0.89 55 20:54 03.09.2021
6548 Clear 24 1017 49 10000 0.89 49 20:24 03.09.2021
6549 Clear 25 1017 45 10000 1.34 57 19:33 03.09.2021
6550 Clear 26 1016 39 10000 1.79 38 18:21 03.09.2021
6551 Clouds 28 1016 36 10000 1.79 14 16:47 03.09.2021
6552 Clouds 28 1017 35 10000 1.79 20 15:38 03.09.2021
6553 Clouds 28 1019 36 10000 1.79 59 13:48 03.09.2021
6554 Clouds 27 1018 40 10000 1.79 348 11:21 03.09.2021
6555 Clouds 26 1018 42 10000 1.34 51 09:21 03.09.2021
6556 Clouds 25 1018 52 10000 1.34 337 08:18 03.09.2021
6557 Clouds 23 1019 56 10000 0.45 181 06:48 03.09.2021
6558 Clear 23 1019 53 10000 0.45 58 23:56 02.09.2021
6559 Clear 24 1018 54 10000 0.45 57 21:55 02.09.2021
6560 Clear 24 1018 53 10000 0.45 37 20:46 02.09.2021
6561 Clouds 26 1015 45 10000 3.13 67 18:27 02.09.2021
6562 Clouds 28 1016 43 10000 3.58 39 16:30 02.09.2021
6563 Clouds 29 1015 42 10000 3.13 61 15:30 02.09.2021
6564 Clouds 29 1015 42 10000 3.13 61 15:30 02.09.2021
6565 Clouds 29 1016 41 10000 0.89 55 13:33 02.09.2021
6566 Clouds 28 1016 44 10000 0.89 22 11:43 02.09.2021
6567 Clouds 28 1018 47 10000 1.79 40 10:53 02.09.2021
6568 Clouds 26 1016 54 10000 1.79 17 08:57 02.09.2021
6569 Clouds 24 1016 62 10000 1.34 55 07:22 02.09.2021
6570 Clouds 24 1015 61 10000 1.34 40 05:32 02.09.2021
6571 Clear 25 1015 60 10000 0.89 52 02:37 02.09.2021
6572 Clear 25 1015 57 10000 0.45 60 01:49 02.09.2021
6573 Clear 26 1015 61 10000 1.34 5 23:41 01.09.2021
6574 Clear 26 1014 61 10000 0.45 189 22:44 01.09.2021
6575 Clear 26 1014 61 10000 2.24 5 21:58 01.09.2021
6576 Clear 26 1014 61 10000 0.89 133 21:29 01.09.2021
6577 Clouds 27 1013 61 10000 1.34 220 19:37 01.09.2021
6578 Clouds 30 1012 48 10000 1.79 203 17:52 01.09.2021
6579 Clouds 31 1012 43 10000 3.58 208 16:59 01.09.2021
6580 Clouds 31 1013 44 10000 3.13 204 16:35 01.09.2021
6581 Clouds 31 1013 41 10000 2.68 184 13:59 01.09.2021
6582 Clouds 32 1013 40 10000 2.68 176 11:47 01.09.2021
6583 Clouds 30 1013 39 10000 0.45 360 09:49 01.09.2021
6584 Clear 28 1013 43 10000 0.45 13 08:27 01.09.2021
6585 Clear 24 1014 48 10000 0.45 218 06:42 01.09.2021
6586 Clear 24 1014 48 10000 0.89 181 06:42 01.09.2021
6587 Clouds 26 1014 65 10000 0.45 176 23:30 31.08.2021
6588 Clear 26 1014 69 10000 0.89 200 22:21 31.08.2021
6589 Clouds 27 1013 65 10000 2.24 175 19:52 31.08.2021
6590 Clouds 28 1013 61 10000 2.24 158 19:23 31.08.2021
6591 Clouds 30 1012 53 10000 2.68 182 17:44 31.08.2021
6592 Clouds 30 1011 52 10000 2.68 204 17:25 31.08.2021
6593 Clouds 30 1011 51 10000 4.02 194 16:41 31.08.2021
6594 Clouds 31 1012 42 10000 2.68 196 15:26 31.08.2021
6595 Clouds 31 1014 42 10000 3.13 199 12:19 31.08.2021
6596 Clouds 32 1015 40 10000 2.24 181 11:19 31.08.2021
6597 Clouds 30 1013 43 10000 3.13 150 10:43 31.08.2021
6598 Clear 30 1015 43 10000 0.45 178 09:41 31.08.2021
6599 Clouds 27 1013 45 10000 1.34 5 07:52 31.08.2021
6600 Clouds 25 1014 52 10000 1.79 5 05:57 31.08.2021
6601 Clear 26 1013 61 10000 1.34 5 23:36 30.08.2021
6602 Clear 27 1013 60 10000 0.89 98 22:36 30.08.2021
6603 Clear 27 1012 59 10000 1.79 5 21:38 30.08.2021
6604 Clear 28 1012 51 10000 1.79 164 20:41 30.08.2021
6605 Clouds 28 1012 47 10000 0.89 173 19:54 30.08.2021
6606 Clouds 29 1011 44 10000 1.79 173 19:19 30.08.2021
6607 Clouds 30 1011 46 10000 3.13 198 17:50 30.08.2021
6608 Clouds 32 1010 38 10000 3.58 192 16:29 30.08.2021
6609 Clouds 32 1010 37 10000 4.02 182 15:45 30.08.2021
6610 Clouds 33 1011 31 10000 3.13 159 13:59 30.08.2021
6611 Clouds 33 1011 32 10000 3.13 192 13:19 30.08.2021
6612 Clear 32 1011 36 10000 2.68 179 10:59 30.08.2021
6613 Clear 25 1006 49 10000 1.79 205 04:57 30.08.2021
6614 Clear 28 1006 47 10000 2.68 192 21:57 29.08.2021
6615 Clear 28 1006 53 10000 2.24 172 20:53 29.08.2021
6616 Clear 29 1006 52 10000 3.58 167 19:28 29.08.2021
6617 Clear 30 1005 49 10000 4.92 132 18:25 29.08.2021
6618 Clouds 32 1004 37 10000 4.47 130 15:58 29.08.2021
6619 Clouds 34 1005 30 10000 2.24 191 14:28 29.08.2021
6620 Clouds 33 1006 33 10000 3.13 203 13:55 29.08.2021
6621 Clouds 33 1006 35 10000 2.68 213 12:58 29.08.2021
6622 Clouds 33 1006 37 10000 2.68 205 12:18 29.08.2021
6623 Clouds 32 1007 39 10000 2.68 219 11:40 29.08.2021
6624 Clouds 32 1007 42 10000 0.45 177 10:46 29.08.2021
6625 Clouds 31 1007 43 10000 0.89 159 10:28 29.08.2021
6626 Clear 29 1005 48 10000 0.89 239 09:30 29.08.2021
6627 Clear 26 1006 63 10000 0.89 221 04:19 29.08.2021
6628 Clear 26 1007 60 10000 0.89 155 22:57 28.08.2021
6629 Clear 28 1007 51 10000 0.45 184 20:31 28.08.2021
6630 Clear 28 1007 48 10000 2.24 183 19:20 28.08.2021
6631 Clouds 30 1007 45 10000 2.68 143 18:22 28.08.2021